<?xml version="1.0" encoding="UTF-8" standalone="no" ?>
<gpx xmlns="http://www.topografix.com/GPX/1/1" xmlns:xsi="http://www.w3.org/2001/XMLSchema-instance" xsi:schemaLocation="http://www.topografix.com/GPX/1/1 http://www.topografix.com/GPX/1/1/gpx.xsd" version="1.1" creator="VisuGPX - https://www.visugpx.com">
  <metadata>
    <name>Saint-Nazaire 05/09/2021</name>
    <desc><![CDATA[Rando Saint Nazaire dimanche 05 septembre 2021]]></desc>
  </metadata>
  <trk>
    <name><![CDATA[Saint-Nazaire Cyclisme]]></name>
    <trkseg>
      <trkpt lat="47.28381" lon="-2.23385">
        <ele>17</ele>
        <time>2021-09-05T06:43:34.000Z</time>
      </trkpt>
      <trkpt lat="47.28387" lon="-2.23398">
        <ele>17</ele>
        <time>2021-09-05T06:43:38.000Z</time>
      </trkpt>
      <trkpt lat="47.28388" lon="-2.23402">
        <ele>16.799999237061</ele>
        <time>2021-09-05T06:43:39.000Z</time>
      </trkpt>
      <trkpt lat="47.28402" lon="-2.23423">
        <ele>16.799999237061</ele>
        <time>2021-09-05T06:43:45.000Z</time>
      </trkpt>
      <trkpt lat="47.28427" lon="-2.2346">
        <ele>16.799999237061</ele>
        <time>2021-09-05T06:43:55.000Z</time>
      </trkpt>
      <trkpt lat="47.28446" lon="-2.23483">
        <ele>16.799999237061</ele>
        <time>2021-09-05T06:44:02.000Z</time>
      </trkpt>
      <trkpt lat="47.2847" lon="-2.23505">
        <ele>16.799999237061</ele>
        <time>2021-09-05T06:44:10.000Z</time>
      </trkpt>
      <trkpt lat="47.28496" lon="-2.23527">
        <ele>16.799999237061</ele>
        <time>2021-09-05T06:44:16.000Z</time>
      </trkpt>
      <trkpt lat="47.28529" lon="-2.23549">
        <ele>16.39999961853</ele>
        <time>2021-09-05T06:44:21.000Z</time>
      </trkpt>
      <trkpt lat="47.28537" lon="-2.23552">
        <ele>16</ele>
        <time>2021-09-05T06:44:22.000Z</time>
      </trkpt>
      <trkpt lat="47.28545" lon="-2.23554">
        <ele>15.60000038147</ele>
        <time>2021-09-05T06:44:23.000Z</time>
      </trkpt>
      <trkpt lat="47.28553" lon="-2.23557">
        <ele>14.800000190735</ele>
        <time>2021-09-05T06:44:24.000Z</time>
      </trkpt>
      <trkpt lat="47.2856" lon="-2.23559">
        <ele>14.199999809265</ele>
        <time>2021-09-05T06:44:25.000Z</time>
      </trkpt>
      <trkpt lat="47.28566" lon="-2.23561">
        <ele>13.39999961853</ele>
        <time>2021-09-05T06:44:26.000Z</time>
      </trkpt>
      <trkpt lat="47.28572" lon="-2.23563">
        <ele>12.800000190735</ele>
        <time>2021-09-05T06:44:27.000Z</time>
      </trkpt>
      <trkpt lat="47.28579" lon="-2.23566">
        <ele>12.199999809265</ele>
        <time>2021-09-05T06:44:28.000Z</time>
      </trkpt>
      <trkpt lat="47.28585" lon="-2.23569">
        <ele>11.39999961853</ele>
        <time>2021-09-05T06:44:29.000Z</time>
      </trkpt>
      <trkpt lat="47.2859" lon="-2.23573">
        <ele>10.800000190735</ele>
        <time>2021-09-05T06:44:30.000Z</time>
      </trkpt>
      <trkpt lat="47.28597" lon="-2.23575">
        <ele>10.199999809265</ele>
        <time>2021-09-05T06:44:31.000Z</time>
      </trkpt>
      <trkpt lat="47.28603" lon="-2.23575">
        <ele>9.6000003814697</ele>
        <time>2021-09-05T06:44:32.000Z</time>
      </trkpt>
      <trkpt lat="47.2862" lon="-2.23572">
        <ele>9.6000003814697</ele>
        <time>2021-09-05T06:44:35.000Z</time>
      </trkpt>
      <trkpt lat="47.28625" lon="-2.2357">
        <ele>9.6000003814697</ele>
        <time>2021-09-05T06:44:36.000Z</time>
      </trkpt>
      <trkpt lat="47.28644" lon="-2.23562">
        <ele>9.6000003814697</ele>
        <time>2021-09-05T06:44:40.000Z</time>
      </trkpt>
      <trkpt lat="47.28652" lon="-2.23552">
        <ele>8.6000003814697</ele>
        <time>2021-09-05T06:44:43.000Z</time>
      </trkpt>
      <trkpt lat="47.28654" lon="-2.23547">
        <ele>8.1999998092651</ele>
        <time>2021-09-05T06:44:44.000Z</time>
      </trkpt>
      <trkpt lat="47.28655" lon="-2.23542">
        <ele>7.8000001907349</ele>
        <time>2021-09-05T06:44:45.000Z</time>
      </trkpt>
      <trkpt lat="47.28654" lon="-2.23537">
        <ele>7.4000000953674</ele>
        <time>2021-09-05T06:44:46.000Z</time>
      </trkpt>
      <trkpt lat="47.28653" lon="-2.23533">
        <ele>7.4000000953674</ele>
        <time>2021-09-05T06:44:47.000Z</time>
      </trkpt>
      <trkpt lat="47.28655" lon="-2.23502">
        <ele>7.4000000953674</ele>
        <time>2021-09-05T06:44:53.000Z</time>
      </trkpt>
      <trkpt lat="47.28657" lon="-2.23458">
        <ele>7.4000000953674</ele>
        <time>2021-09-05T06:45:00.000Z</time>
      </trkpt>
      <trkpt lat="47.28651" lon="-2.2343">
        <ele>7.4000000953674</ele>
        <time>2021-09-05T06:45:04.000Z</time>
      </trkpt>
      <trkpt lat="47.28647" lon="-2.23414">
        <ele>7.4000000953674</ele>
        <time>2021-09-05T06:45:06.000Z</time>
      </trkpt>
      <trkpt lat="47.28646" lon="-2.23396">
        <ele>7.4000000953674</ele>
        <time>2021-09-05T06:45:08.000Z</time>
      </trkpt>
      <trkpt lat="47.28647" lon="-2.23387">
        <ele>7.4000000953674</ele>
        <time>2021-09-05T06:45:09.000Z</time>
      </trkpt>
      <trkpt lat="47.2865" lon="-2.23369">
        <ele>7.4000000953674</ele>
        <time>2021-09-05T06:45:11.000Z</time>
      </trkpt>
      <trkpt lat="47.28657" lon="-2.23334">
        <ele>7.4000000953674</ele>
        <time>2021-09-05T06:45:16.000Z</time>
      </trkpt>
      <trkpt lat="47.28654" lon="-2.23307">
        <ele>7.4000000953674</ele>
        <time>2021-09-05T06:45:20.000Z</time>
      </trkpt>
      <trkpt lat="47.28654" lon="-2.23307">
        <ele>7.4000000953674</ele>
        <time>2021-09-05T06:45:21.000Z</time>
      </trkpt>
      <trkpt lat="47.28652" lon="-2.23305">
        <ele>7.4000000953674</ele>
        <time>2021-09-05T06:45:22.000Z</time>
      </trkpt>
      <trkpt lat="47.28645" lon="-2.23305">
        <ele>7.4000000953674</ele>
        <time>2021-09-05T06:45:24.000Z</time>
      </trkpt>
      <trkpt lat="47.28638" lon="-2.23307">
        <ele>7.4000000953674</ele>
        <time>2021-09-05T06:45:26.000Z</time>
      </trkpt>
      <trkpt lat="47.28621" lon="-2.23308">
        <ele>7.4000000953674</ele>
        <time>2021-09-05T06:45:30.000Z</time>
      </trkpt>
      <trkpt lat="47.28604" lon="-2.233">
        <ele>7.4000000953674</ele>
        <time>2021-09-05T06:45:34.000Z</time>
      </trkpt>
      <trkpt lat="47.28597" lon="-2.23284">
        <ele>7.4000000953674</ele>
        <time>2021-09-05T06:45:37.000Z</time>
      </trkpt>
      <trkpt lat="47.28595" lon="-2.23277">
        <ele>7.4000000953674</ele>
        <time>2021-09-05T06:45:38.000Z</time>
      </trkpt>
      <trkpt lat="47.28593" lon="-2.23259">
        <ele>7.4000000953674</ele>
        <time>2021-09-05T06:45:41.000Z</time>
      </trkpt>
      <trkpt lat="47.28593" lon="-2.23252">
        <ele>7.4000000953674</ele>
        <time>2021-09-05T06:45:42.000Z</time>
      </trkpt>
      <trkpt lat="47.28601" lon="-2.23203">
        <ele>7.4000000953674</ele>
        <time>2021-09-05T06:45:49.000Z</time>
      </trkpt>
      <trkpt lat="47.2861" lon="-2.23157">
        <ele>7.4000000953674</ele>
        <time>2021-09-05T06:45:55.000Z</time>
      </trkpt>
      <trkpt lat="47.28623" lon="-2.23115">
        <ele>7.4000000953674</ele>
        <time>2021-09-05T06:46:00.000Z</time>
      </trkpt>
      <trkpt lat="47.28626" lon="-2.23109">
        <ele>7.4000000953674</ele>
        <time>2021-09-05T06:46:01.000Z</time>
      </trkpt>
      <trkpt lat="47.28633" lon="-2.23099">
        <ele>7.4000000953674</ele>
        <time>2021-09-05T06:46:03.000Z</time>
      </trkpt>
      <trkpt lat="47.28646" lon="-2.23083">
        <ele>7.4000000953674</ele>
        <time>2021-09-05T06:46:06.000Z</time>
      </trkpt>
      <trkpt lat="47.2867" lon="-2.2305">
        <ele>7.4000000953674</ele>
        <time>2021-09-05T06:46:12.000Z</time>
      </trkpt>
      <trkpt lat="47.28677" lon="-2.2304">
        <ele>7.4000000953674</ele>
        <time>2021-09-05T06:46:14.000Z</time>
      </trkpt>
      <trkpt lat="47.28684" lon="-2.23019">
        <ele>7.4000000953674</ele>
        <time>2021-09-05T06:46:17.000Z</time>
      </trkpt>
      <trkpt lat="47.2869" lon="-2.22979">
        <ele>7.4000000953674</ele>
        <time>2021-09-05T06:46:23.000Z</time>
      </trkpt>
      <trkpt lat="47.28691" lon="-2.22964">
        <ele>7.4000000953674</ele>
        <time>2021-09-05T06:46:25.000Z</time>
      </trkpt>
      <trkpt lat="47.28691" lon="-2.22944">
        <ele>7.4000000953674</ele>
        <time>2021-09-05T06:46:28.000Z</time>
      </trkpt>
      <trkpt lat="47.28689" lon="-2.22933">
        <ele>7.4000000953674</ele>
        <time>2021-09-05T06:46:30.000Z</time>
      </trkpt>
      <trkpt lat="47.28691" lon="-2.22916">
        <ele>7.4000000953674</ele>
        <time>2021-09-05T06:46:33.000Z</time>
      </trkpt>
      <trkpt lat="47.28696" lon="-2.22905">
        <ele>7.4000000953674</ele>
        <time>2021-09-05T06:46:35.000Z</time>
      </trkpt>
      <trkpt lat="47.287" lon="-2.22901">
        <ele>7.4000000953674</ele>
        <time>2021-09-05T06:46:36.000Z</time>
      </trkpt>
      <trkpt lat="47.28732" lon="-2.22878">
        <ele>7.4000000953674</ele>
        <time>2021-09-05T06:46:43.000Z</time>
      </trkpt>
      <trkpt lat="47.28763" lon="-2.22869">
        <ele>7.4000000953674</ele>
        <time>2021-09-05T06:46:49.000Z</time>
      </trkpt>
      <trkpt lat="47.288" lon="-2.22865">
        <ele>7.4000000953674</ele>
        <time>2021-09-05T06:46:56.000Z</time>
      </trkpt>
      <trkpt lat="47.28806" lon="-2.22866">
        <ele>7.4000000953674</ele>
        <time>2021-09-05T06:46:57.000Z</time>
      </trkpt>
      <trkpt lat="47.28833" lon="-2.22876">
        <ele>7.4000000953674</ele>
        <time>2021-09-05T06:47:02.000Z</time>
      </trkpt>
      <trkpt lat="47.28877" lon="-2.22901">
        <ele>7.4000000953674</ele>
        <time>2021-09-05T06:47:10.000Z</time>
      </trkpt>
      <trkpt lat="47.28919" lon="-2.22925">
        <ele>7.4000000953674</ele>
        <time>2021-09-05T06:47:18.000Z</time>
      </trkpt>
      <trkpt lat="47.28966" lon="-2.22953">
        <ele>7.4000000953674</ele>
        <time>2021-09-05T06:47:27.000Z</time>
      </trkpt>
      <trkpt lat="47.2899" lon="-2.22965">
        <ele>7.4000000953674</ele>
        <time>2021-09-05T06:47:32.000Z</time>
      </trkpt>
      <trkpt lat="47.28995" lon="-2.22964">
        <ele>7.4000000953674</ele>
        <time>2021-09-05T06:47:33.000Z</time>
      </trkpt>
      <trkpt lat="47.29013" lon="-2.22957">
        <ele>7.4000000953674</ele>
        <time>2021-09-05T06:47:38.000Z</time>
      </trkpt>
      <trkpt lat="47.29017" lon="-2.22958">
        <ele>7.4000000953674</ele>
        <time>2021-09-05T06:47:39.000Z</time>
      </trkpt>
      <trkpt lat="47.29029" lon="-2.22968">
        <ele>7.4000000953674</ele>
        <time>2021-09-05T06:47:42.000Z</time>
      </trkpt>
      <trkpt lat="47.29038" lon="-2.22977">
        <ele>7.4000000953674</ele>
        <time>2021-09-05T06:47:44.000Z</time>
      </trkpt>
      <trkpt lat="47.29048" lon="-2.22995">
        <ele>7.4000000953674</ele>
        <time>2021-09-05T06:47:47.000Z</time>
      </trkpt>
      <trkpt lat="47.29052" lon="-2.23001">
        <ele>7.4000000953674</ele>
        <time>2021-09-05T06:47:48.000Z</time>
      </trkpt>
      <trkpt lat="47.29069" lon="-2.2302">
        <ele>7.4000000953674</ele>
        <time>2021-09-05T06:47:52.000Z</time>
      </trkpt>
      <trkpt lat="47.29099" lon="-2.23058">
        <ele>7.4000000953674</ele>
        <time>2021-09-05T06:48:00.000Z</time>
      </trkpt>
      <trkpt lat="47.29134" lon="-2.23102">
        <ele>7.4000000953674</ele>
        <time>2021-09-05T06:48:09.000Z</time>
      </trkpt>
      <trkpt lat="47.2917" lon="-2.23145">
        <ele>7.4000000953674</ele>
        <time>2021-09-05T06:48:18.000Z</time>
      </trkpt>
      <trkpt lat="47.29186" lon="-2.23168">
        <ele>7.4000000953674</ele>
        <time>2021-09-05T06:48:22.000Z</time>
      </trkpt>
      <trkpt lat="47.29189" lon="-2.23174">
        <ele>7.4000000953674</ele>
        <time>2021-09-05T06:48:23.000Z</time>
      </trkpt>
      <trkpt lat="47.29192" lon="-2.23179">
        <ele>7.4000000953674</ele>
        <time>2021-09-05T06:48:24.000Z</time>
      </trkpt>
      <trkpt lat="47.29198" lon="-2.2319">
        <ele>7.4000000953674</ele>
        <time>2021-09-05T06:48:26.000Z</time>
      </trkpt>
      <trkpt lat="47.29202" lon="-2.23204">
        <ele>7.4000000953674</ele>
        <time>2021-09-05T06:48:28.000Z</time>
      </trkpt>
      <trkpt lat="47.29205" lon="-2.2322">
        <ele>7.4000000953674</ele>
        <time>2021-09-05T06:48:30.000Z</time>
      </trkpt>
      <trkpt lat="47.29211" lon="-2.23233">
        <ele>7.4000000953674</ele>
        <time>2021-09-05T06:48:32.000Z</time>
      </trkpt>
      <trkpt lat="47.29236" lon="-2.23267">
        <ele>7.4000000953674</ele>
        <time>2021-09-05T06:48:38.000Z</time>
      </trkpt>
      <trkpt lat="47.29248" lon="-2.23284">
        <ele>7.4000000953674</ele>
        <time>2021-09-05T06:48:41.000Z</time>
      </trkpt>
      <trkpt lat="47.29258" lon="-2.23303">
        <ele>7.4000000953674</ele>
        <time>2021-09-05T06:48:44.000Z</time>
      </trkpt>
      <trkpt lat="47.29272" lon="-2.23349">
        <ele>7.4000000953674</ele>
        <time>2021-09-05T06:48:50.000Z</time>
      </trkpt>
      <trkpt lat="47.29275" lon="-2.23365">
        <ele>7.4000000953674</ele>
        <time>2021-09-05T06:48:52.000Z</time>
      </trkpt>
      <trkpt lat="47.29285" lon="-2.23416">
        <ele>7.4000000953674</ele>
        <time>2021-09-05T06:48:58.000Z</time>
      </trkpt>
      <trkpt lat="47.29301" lon="-2.23487">
        <ele>7.4000000953674</ele>
        <time>2021-09-05T06:49:07.000Z</time>
      </trkpt>
      <trkpt lat="47.29312" lon="-2.23557">
        <ele>7.4000000953674</ele>
        <time>2021-09-05T06:49:15.000Z</time>
      </trkpt>
      <trkpt lat="47.29314" lon="-2.23612">
        <ele>7.4000000953674</ele>
        <time>2021-09-05T06:49:21.000Z</time>
      </trkpt>
      <trkpt lat="47.29315" lon="-2.23704">
        <ele>7.4000000953674</ele>
        <time>2021-09-05T06:49:32.000Z</time>
      </trkpt>
      <trkpt lat="47.29314" lon="-2.23765">
        <ele>7.4000000953674</ele>
        <time>2021-09-05T06:49:39.000Z</time>
      </trkpt>
      <trkpt lat="47.29315" lon="-2.23772">
        <ele>7.4000000953674</ele>
        <time>2021-09-05T06:49:40.000Z</time>
      </trkpt>
      <trkpt lat="47.2932" lon="-2.23783">
        <ele>7.4000000953674</ele>
        <time>2021-09-05T06:49:42.000Z</time>
      </trkpt>
      <trkpt lat="47.29339" lon="-2.2379">
        <ele>7.4000000953674</ele>
        <time>2021-09-05T06:49:46.000Z</time>
      </trkpt>
      <trkpt lat="47.29344" lon="-2.23793">
        <ele>7.4000000953674</ele>
        <time>2021-09-05T06:49:47.000Z</time>
      </trkpt>
      <trkpt lat="47.29356" lon="-2.23798">
        <ele>7.4000000953674</ele>
        <time>2021-09-05T06:49:49.000Z</time>
      </trkpt>
      <trkpt lat="47.29367" lon="-2.23792">
        <ele>7.4000000953674</ele>
        <time>2021-09-05T06:49:51.000Z</time>
      </trkpt>
      <trkpt lat="47.29373" lon="-2.2377">
        <ele>7.4000000953674</ele>
        <time>2021-09-05T06:49:54.000Z</time>
      </trkpt>
      <trkpt lat="47.29374" lon="-2.23762">
        <ele>7.4000000953674</ele>
        <time>2021-09-05T06:49:55.000Z</time>
      </trkpt>
      <trkpt lat="47.29376" lon="-2.23745">
        <ele>7.4000000953674</ele>
        <time>2021-09-05T06:49:57.000Z</time>
      </trkpt>
      <trkpt lat="47.29382" lon="-2.23723">
        <ele>7.4000000953674</ele>
        <time>2021-09-05T06:50:00.000Z</time>
      </trkpt>
      <trkpt lat="47.29394" lon="-2.23707">
        <ele>7.4000000953674</ele>
        <time>2021-09-05T06:50:03.000Z</time>
      </trkpt>
      <trkpt lat="47.29409" lon="-2.237">
        <ele>7.4000000953674</ele>
        <time>2021-09-05T06:50:06.000Z</time>
      </trkpt>
      <trkpt lat="47.29414" lon="-2.23699">
        <ele>7.8000001907349</ele>
        <time>2021-09-05T06:50:07.000Z</time>
      </trkpt>
      <trkpt lat="47.29419" lon="-2.23698">
        <ele>8.1999998092651</ele>
        <time>2021-09-05T06:50:08.000Z</time>
      </trkpt>
      <trkpt lat="47.29424" lon="-2.23697">
        <ele>8.8000001907349</ele>
        <time>2021-09-05T06:50:09.000Z</time>
      </trkpt>
      <trkpt lat="47.29428" lon="-2.23696">
        <ele>9.1999998092651</ele>
        <time>2021-09-05T06:50:10.000Z</time>
      </trkpt>
      <trkpt lat="47.29433" lon="-2.23695">
        <ele>9.6000003814697</ele>
        <time>2021-09-05T06:50:11.000Z</time>
      </trkpt>
      <trkpt lat="47.29438" lon="-2.23693">
        <ele>9.6000003814697</ele>
        <time>2021-09-05T06:50:12.000Z</time>
      </trkpt>
      <trkpt lat="47.29446" lon="-2.23689">
        <ele>9.6000003814697</ele>
        <time>2021-09-05T06:50:14.000Z</time>
      </trkpt>
      <trkpt lat="47.29451" lon="-2.23687">
        <ele>9.6000003814697</ele>
        <time>2021-09-05T06:50:15.000Z</time>
      </trkpt>
      <trkpt lat="47.29454" lon="-2.23685">
        <ele>10</ele>
        <time>2021-09-05T06:50:16.000Z</time>
      </trkpt>
      <trkpt lat="47.29458" lon="-2.23682">
        <ele>10.39999961853</ele>
        <time>2021-09-05T06:50:17.000Z</time>
      </trkpt>
      <trkpt lat="47.29462" lon="-2.2368">
        <ele>10.800000190735</ele>
        <time>2021-09-05T06:50:18.000Z</time>
      </trkpt>
      <trkpt lat="47.29466" lon="-2.23678">
        <ele>11.39999961853</ele>
        <time>2021-09-05T06:50:19.000Z</time>
      </trkpt>
      <trkpt lat="47.2947" lon="-2.23676">
        <ele>11.800000190735</ele>
        <time>2021-09-05T06:50:20.000Z</time>
      </trkpt>
      <trkpt lat="47.29487" lon="-2.23668">
        <ele>11.800000190735</ele>
        <time>2021-09-05T06:50:24.000Z</time>
      </trkpt>
      <trkpt lat="47.29491" lon="-2.23669">
        <ele>11.800000190735</ele>
        <time>2021-09-05T06:50:25.000Z</time>
      </trkpt>
      <trkpt lat="47.295" lon="-2.23686">
        <ele>11.800000190735</ele>
        <time>2021-09-05T06:50:28.000Z</time>
      </trkpt>
      <trkpt lat="47.29501" lon="-2.23712">
        <ele>11.800000190735</ele>
        <time>2021-09-05T06:50:31.000Z</time>
      </trkpt>
      <trkpt lat="47.29501" lon="-2.23721">
        <ele>11.800000190735</ele>
        <time>2021-09-05T06:50:32.000Z</time>
      </trkpt>
      <trkpt lat="47.29502" lon="-2.23741">
        <ele>11.800000190735</ele>
        <time>2021-09-05T06:50:34.000Z</time>
      </trkpt>
      <trkpt lat="47.29507" lon="-2.23773">
        <ele>11.800000190735</ele>
        <time>2021-09-05T06:50:37.000Z</time>
      </trkpt>
      <trkpt lat="47.29509" lon="-2.23784">
        <ele>11.39999961853</ele>
        <time>2021-09-05T06:50:38.000Z</time>
      </trkpt>
      <trkpt lat="47.29511" lon="-2.23795">
        <ele>11</ele>
        <time>2021-09-05T06:50:39.000Z</time>
      </trkpt>
      <trkpt lat="47.29514" lon="-2.23806">
        <ele>10.60000038147</ele>
        <time>2021-09-05T06:50:40.000Z</time>
      </trkpt>
      <trkpt lat="47.29516" lon="-2.23818">
        <ele>10.199999809265</ele>
        <time>2021-09-05T06:50:41.000Z</time>
      </trkpt>
      <trkpt lat="47.29519" lon="-2.2383">
        <ele>9.8000001907349</ele>
        <time>2021-09-05T06:50:42.000Z</time>
      </trkpt>
      <trkpt lat="47.29523" lon="-2.23842">
        <ele>9.8000001907349</ele>
        <time>2021-09-05T06:50:43.000Z</time>
      </trkpt>
      <trkpt lat="47.29537" lon="-2.23898">
        <ele>9.3999996185303</ele>
        <time>2021-09-05T06:50:48.000Z</time>
      </trkpt>
      <trkpt lat="47.29538" lon="-2.23909">
        <ele>9</ele>
        <time>2021-09-05T06:50:49.000Z</time>
      </trkpt>
      <trkpt lat="47.2954" lon="-2.2392">
        <ele>8.6000003814697</ele>
        <time>2021-09-05T06:50:50.000Z</time>
      </trkpt>
      <trkpt lat="47.29541" lon="-2.23931">
        <ele>8.1999998092651</ele>
        <time>2021-09-05T06:50:51.000Z</time>
      </trkpt>
      <trkpt lat="47.29543" lon="-2.23942">
        <ele>7.8000001907349</ele>
        <time>2021-09-05T06:50:52.000Z</time>
      </trkpt>
      <trkpt lat="47.29546" lon="-2.23963">
        <ele>7.8000001907349</ele>
        <time>2021-09-05T06:50:54.000Z</time>
      </trkpt>
      <trkpt lat="47.29555" lon="-2.24022">
        <ele>7.8000001907349</ele>
        <time>2021-09-05T06:51:00.000Z</time>
      </trkpt>
      <trkpt lat="47.29566" lon="-2.24082">
        <ele>7.8000001907349</ele>
        <time>2021-09-05T06:51:07.000Z</time>
      </trkpt>
      <trkpt lat="47.29577" lon="-2.24144">
        <ele>7.8000001907349</ele>
        <time>2021-09-05T06:51:15.000Z</time>
      </trkpt>
      <trkpt lat="47.29587" lon="-2.24195">
        <ele>7.8000001907349</ele>
        <time>2021-09-05T06:51:22.000Z</time>
      </trkpt>
      <trkpt lat="47.29588" lon="-2.24201">
        <ele>7.8000001907349</ele>
        <time>2021-09-05T06:51:23.000Z</time>
      </trkpt>
      <trkpt lat="47.29595" lon="-2.24212">
        <ele>7.8000001907349</ele>
        <time>2021-09-05T06:51:26.000Z</time>
      </trkpt>
      <trkpt lat="47.29604" lon="-2.24203">
        <ele>7.8000001907349</ele>
        <time>2021-09-05T06:51:29.000Z</time>
      </trkpt>
      <trkpt lat="47.2961" lon="-2.24175">
        <ele>7.8000001907349</ele>
        <time>2021-09-05T06:51:33.000Z</time>
      </trkpt>
      <trkpt lat="47.29614" lon="-2.24118">
        <ele>7.8000001907349</ele>
        <time>2021-09-05T06:51:40.000Z</time>
      </trkpt>
      <trkpt lat="47.2962" lon="-2.24079">
        <ele>7.8000001907349</ele>
        <time>2021-09-05T06:51:45.000Z</time>
      </trkpt>
      <trkpt lat="47.29626" lon="-2.24068">
        <ele>7.8000001907349</ele>
        <time>2021-09-05T06:51:47.000Z</time>
      </trkpt>
      <trkpt lat="47.2963" lon="-2.24048">
        <ele>7.8000001907349</ele>
        <time>2021-09-05T06:51:50.000Z</time>
      </trkpt>
      <trkpt lat="47.29631" lon="-2.2404">
        <ele>7.8000001907349</ele>
        <time>2021-09-05T06:51:51.000Z</time>
      </trkpt>
      <trkpt lat="47.29635" lon="-2.24004">
        <ele>7.8000001907349</ele>
        <time>2021-09-05T06:51:55.000Z</time>
      </trkpt>
      <trkpt lat="47.29638" lon="-2.23997">
        <ele>7.8000001907349</ele>
        <time>2021-09-05T06:51:56.000Z</time>
      </trkpt>
      <trkpt lat="47.29656" lon="-2.23977">
        <ele>7.8000001907349</ele>
        <time>2021-09-05T06:52:00.000Z</time>
      </trkpt>
      <trkpt lat="47.29681" lon="-2.23955">
        <ele>7.4000000953674</ele>
        <time>2021-09-05T06:52:05.000Z</time>
      </trkpt>
      <trkpt lat="47.29686" lon="-2.23951">
        <ele>7</ele>
        <time>2021-09-05T06:52:06.000Z</time>
      </trkpt>
      <trkpt lat="47.29692" lon="-2.23949">
        <ele>6.5999999046326</ele>
        <time>2021-09-05T06:52:07.000Z</time>
      </trkpt>
      <trkpt lat="47.29697" lon="-2.23946">
        <ele>5.8000001907349</ele>
        <time>2021-09-05T06:52:08.000Z</time>
      </trkpt>
      <trkpt lat="47.29707" lon="-2.23938">
        <ele>5.8000001907349</ele>
        <time>2021-09-05T06:52:10.000Z</time>
      </trkpt>
      <trkpt lat="47.29711" lon="-2.23931">
        <ele>5.8000001907349</ele>
        <time>2021-09-05T06:52:11.000Z</time>
      </trkpt>
      <trkpt lat="47.29718" lon="-2.23903">
        <ele>5.8000001907349</ele>
        <time>2021-09-05T06:52:15.000Z</time>
      </trkpt>
      <trkpt lat="47.2972" lon="-2.23887">
        <ele>5.8000001907349</ele>
        <time>2021-09-05T06:52:17.000Z</time>
      </trkpt>
      <trkpt lat="47.29725" lon="-2.23863">
        <ele>5.8000001907349</ele>
        <time>2021-09-05T06:52:20.000Z</time>
      </trkpt>
      <trkpt lat="47.29746" lon="-2.23813">
        <ele>5.8000001907349</ele>
        <time>2021-09-05T06:52:27.000Z</time>
      </trkpt>
      <trkpt lat="47.2975" lon="-2.23807">
        <ele>5.8000001907349</ele>
        <time>2021-09-05T06:52:28.000Z</time>
      </trkpt>
      <trkpt lat="47.29765" lon="-2.23794">
        <ele>5.8000001907349</ele>
        <time>2021-09-05T06:52:31.000Z</time>
      </trkpt>
      <trkpt lat="47.29788" lon="-2.2379">
        <ele>5.8000001907349</ele>
        <time>2021-09-05T06:52:35.000Z</time>
      </trkpt>
      <trkpt lat="47.29794" lon="-2.23791">
        <ele>5.8000001907349</ele>
        <time>2021-09-05T06:52:36.000Z</time>
      </trkpt>
      <trkpt lat="47.298" lon="-2.23792">
        <ele>5.8000001907349</ele>
        <time>2021-09-05T06:52:37.000Z</time>
      </trkpt>
      <trkpt lat="47.29817" lon="-2.23801">
        <ele>5.8000001907349</ele>
        <time>2021-09-05T06:52:40.000Z</time>
      </trkpt>
      <trkpt lat="47.29827" lon="-2.23809">
        <ele>5.8000001907349</ele>
        <time>2021-09-05T06:52:42.000Z</time>
      </trkpt>
      <trkpt lat="47.29847" lon="-2.23823">
        <ele>5.8000001907349</ele>
        <time>2021-09-05T06:52:46.000Z</time>
      </trkpt>
      <trkpt lat="47.2987" lon="-2.23823">
        <ele>5.8000001907349</ele>
        <time>2021-09-05T06:52:50.000Z</time>
      </trkpt>
      <trkpt lat="47.29913" lon="-2.2382">
        <ele>5.8000001907349</ele>
        <time>2021-09-05T06:52:57.000Z</time>
      </trkpt>
      <trkpt lat="47.29939" lon="-2.23827">
        <ele>5.8000001907349</ele>
        <time>2021-09-05T06:53:02.000Z</time>
      </trkpt>
      <trkpt lat="47.29944" lon="-2.23829">
        <ele>5.8000001907349</ele>
        <time>2021-09-05T06:53:03.000Z</time>
      </trkpt>
      <trkpt lat="47.29968" lon="-2.23845">
        <ele>5.8000001907349</ele>
        <time>2021-09-05T06:53:08.000Z</time>
      </trkpt>
      <trkpt lat="47.29993" lon="-2.23868">
        <ele>5.8000001907349</ele>
        <time>2021-09-05T06:53:13.000Z</time>
      </trkpt>
      <trkpt lat="47.3" lon="-2.2388">
        <ele>5.8000001907349</ele>
        <time>2021-09-05T06:53:15.000Z</time>
      </trkpt>
      <trkpt lat="47.30005" lon="-2.23907">
        <ele>5.8000001907349</ele>
        <time>2021-09-05T06:53:19.000Z</time>
      </trkpt>
      <trkpt lat="47.30005" lon="-2.23922">
        <ele>5.8000001907349</ele>
        <time>2021-09-05T06:53:21.000Z</time>
      </trkpt>
      <trkpt lat="47.30006" lon="-2.23947">
        <ele>5.8000001907349</ele>
        <time>2021-09-05T06:53:24.000Z</time>
      </trkpt>
      <trkpt lat="47.30006" lon="-2.23963">
        <ele>5.8000001907349</ele>
        <time>2021-09-05T06:53:26.000Z</time>
      </trkpt>
      <trkpt lat="47.30002" lon="-2.23987">
        <ele>5.8000001907349</ele>
        <time>2021-09-05T06:53:29.000Z</time>
      </trkpt>
      <trkpt lat="47.30002" lon="-2.24001">
        <ele>5.8000001907349</ele>
        <time>2021-09-05T06:53:31.000Z</time>
      </trkpt>
      <trkpt lat="47.30001" lon="-2.24022">
        <ele>5.8000001907349</ele>
        <time>2021-09-05T06:53:34.000Z</time>
      </trkpt>
      <trkpt lat="47.30002" lon="-2.24046">
        <ele>6.1999998092651</ele>
        <time>2021-09-05T06:53:38.000Z</time>
      </trkpt>
      <trkpt lat="47.30002" lon="-2.24052">
        <ele>6.5999999046326</ele>
        <time>2021-09-05T06:53:39.000Z</time>
      </trkpt>
      <trkpt lat="47.30002" lon="-2.24058">
        <ele>7</ele>
        <time>2021-09-05T06:53:40.000Z</time>
      </trkpt>
      <trkpt lat="47.30002" lon="-2.24064">
        <ele>7.5999999046326</ele>
        <time>2021-09-05T06:53:41.000Z</time>
      </trkpt>
      <trkpt lat="47.30002" lon="-2.2407">
        <ele>8</ele>
        <time>2021-09-05T06:53:42.000Z</time>
      </trkpt>
      <trkpt lat="47.30003" lon="-2.24088">
        <ele>8</ele>
        <time>2021-09-05T06:53:45.000Z</time>
      </trkpt>
      <trkpt lat="47.30003" lon="-2.24108">
        <ele>8.3999996185303</ele>
        <time>2021-09-05T06:53:49.000Z</time>
      </trkpt>
      <trkpt lat="47.30002" lon="-2.24113">
        <ele>8.8000001907349</ele>
        <time>2021-09-05T06:53:50.000Z</time>
      </trkpt>
      <trkpt lat="47.30001" lon="-2.24117">
        <ele>9.1999998092651</ele>
        <time>2021-09-05T06:53:51.000Z</time>
      </trkpt>
      <trkpt lat="47.3" lon="-2.24121">
        <ele>9.6000003814697</ele>
        <time>2021-09-05T06:53:52.000Z</time>
      </trkpt>
      <trkpt lat="47.29999" lon="-2.24125">
        <ele>10</ele>
        <time>2021-09-05T06:53:53.000Z</time>
      </trkpt>
      <trkpt lat="47.29996" lon="-2.24136">
        <ele>10.60000038147</ele>
        <time>2021-09-05T06:53:56.000Z</time>
      </trkpt>
      <trkpt lat="47.29996" lon="-2.2414">
        <ele>11</ele>
        <time>2021-09-05T06:53:57.000Z</time>
      </trkpt>
      <trkpt lat="47.29995" lon="-2.24143">
        <ele>11.39999961853</ele>
        <time>2021-09-05T06:53:58.000Z</time>
      </trkpt>
      <trkpt lat="47.29994" lon="-2.24147">
        <ele>11.800000190735</ele>
        <time>2021-09-05T06:53:59.000Z</time>
      </trkpt>
      <trkpt lat="47.29993" lon="-2.2415">
        <ele>12.39999961853</ele>
        <time>2021-09-05T06:54:00.000Z</time>
      </trkpt>
      <trkpt lat="47.29992" lon="-2.24161">
        <ele>12.39999961853</ele>
        <time>2021-09-05T06:54:03.000Z</time>
      </trkpt>
      <trkpt lat="47.2999" lon="-2.24169">
        <ele>12.800000190735</ele>
        <time>2021-09-05T06:54:05.000Z</time>
      </trkpt>
      <trkpt lat="47.29989" lon="-2.24172">
        <ele>13.199999809265</ele>
        <time>2021-09-05T06:54:06.000Z</time>
      </trkpt>
      <trkpt lat="47.29987" lon="-2.24176">
        <ele>13.60000038147</ele>
        <time>2021-09-05T06:54:07.000Z</time>
      </trkpt>
      <trkpt lat="47.29986" lon="-2.2418">
        <ele>14</ele>
        <time>2021-09-05T06:54:08.000Z</time>
      </trkpt>
      <trkpt lat="47.29985" lon="-2.24184">
        <ele>14.39999961853</ele>
        <time>2021-09-05T06:54:09.000Z</time>
      </trkpt>
      <trkpt lat="47.29972" lon="-2.24218">
        <ele>14.39999961853</ele>
        <time>2021-09-05T06:54:16.000Z</time>
      </trkpt>
      <trkpt lat="47.29961" lon="-2.24242">
        <ele>14.800000190735</ele>
        <time>2021-09-05T06:54:21.000Z</time>
      </trkpt>
      <trkpt lat="47.29959" lon="-2.24247">
        <ele>15.199999809265</ele>
        <time>2021-09-05T06:54:22.000Z</time>
      </trkpt>
      <trkpt lat="47.29956" lon="-2.24251">
        <ele>15.60000038147</ele>
        <time>2021-09-05T06:54:23.000Z</time>
      </trkpt>
      <trkpt lat="47.29954" lon="-2.24256">
        <ele>16</ele>
        <time>2021-09-05T06:54:24.000Z</time>
      </trkpt>
      <trkpt lat="47.29952" lon="-2.2426">
        <ele>16.39999961853</ele>
        <time>2021-09-05T06:54:25.000Z</time>
      </trkpt>
      <trkpt lat="47.2994" lon="-2.24287">
        <ele>16.39999961853</ele>
        <time>2021-09-05T06:54:30.000Z</time>
      </trkpt>
      <trkpt lat="47.2994" lon="-2.24306">
        <ele>16.39999961853</ele>
        <time>2021-09-05T06:54:33.000Z</time>
      </trkpt>
      <trkpt lat="47.29949" lon="-2.2432">
        <ele>16.39999961853</ele>
        <time>2021-09-05T06:54:36.000Z</time>
      </trkpt>
      <trkpt lat="47.29955" lon="-2.24327">
        <ele>16.39999961853</ele>
        <time>2021-09-05T06:54:38.000Z</time>
      </trkpt>
      <trkpt lat="47.29974" lon="-2.24346">
        <ele>16.39999961853</ele>
        <time>2021-09-05T06:54:43.000Z</time>
      </trkpt>
      <trkpt lat="47.29977" lon="-2.2435">
        <ele>16.39999961853</ele>
        <time>2021-09-05T06:54:44.000Z</time>
      </trkpt>
      <trkpt lat="47.29995" lon="-2.24361">
        <ele>16.39999961853</ele>
        <time>2021-09-05T06:54:49.000Z</time>
      </trkpt>
      <trkpt lat="47.3" lon="-2.24349">
        <ele>16.39999961853</ele>
        <time>2021-09-05T06:54:52.000Z</time>
      </trkpt>
      <trkpt lat="47.30001" lon="-2.24345">
        <ele>16.799999237061</ele>
        <time>2021-09-05T06:54:53.000Z</time>
      </trkpt>
      <trkpt lat="47.30002" lon="-2.24341">
        <ele>17.39999961853</ele>
        <time>2021-09-05T06:54:54.000Z</time>
      </trkpt>
      <trkpt lat="47.30003" lon="-2.24337">
        <ele>17.799999237061</ele>
        <time>2021-09-05T06:54:55.000Z</time>
      </trkpt>
      <trkpt lat="47.30004" lon="-2.24332">
        <ele>18.200000762939</ele>
        <time>2021-09-05T06:54:56.000Z</time>
      </trkpt>
      <trkpt lat="47.30005" lon="-2.24328">
        <ele>18.60000038147</ele>
        <time>2021-09-05T06:54:57.000Z</time>
      </trkpt>
      <trkpt lat="47.30012" lon="-2.24313">
        <ele>18.60000038147</ele>
        <time>2021-09-05T06:55:01.000Z</time>
      </trkpt>
      <trkpt lat="47.30018" lon="-2.24291">
        <ele>18.60000038147</ele>
        <time>2021-09-05T06:55:06.000Z</time>
      </trkpt>
      <trkpt lat="47.30019" lon="-2.24288">
        <ele>18.60000038147</ele>
        <time>2021-09-05T06:55:07.000Z</time>
      </trkpt>
      <trkpt lat="47.30023" lon="-2.24282">
        <ele>18.60000038147</ele>
        <time>2021-09-05T06:55:09.000Z</time>
      </trkpt>
      <trkpt lat="47.30027" lon="-2.24258">
        <ele>18.60000038147</ele>
        <time>2021-09-05T06:55:14.000Z</time>
      </trkpt>
      <trkpt lat="47.30026" lon="-2.24239">
        <ele>18</ele>
        <time>2021-09-05T06:55:17.000Z</time>
      </trkpt>
      <trkpt lat="47.30026" lon="-2.24234">
        <ele>17.60000038147</ele>
        <time>2021-09-05T06:55:18.000Z</time>
      </trkpt>
      <trkpt lat="47.30026" lon="-2.24229">
        <ele>17</ele>
        <time>2021-09-05T06:55:19.000Z</time>
      </trkpt>
      <trkpt lat="47.30026" lon="-2.24226">
        <ele>16.60000038147</ele>
        <time>2021-09-05T06:55:20.000Z</time>
      </trkpt>
      <trkpt lat="47.30026" lon="-2.24223">
        <ele>16.200000762939</ele>
        <time>2021-09-05T06:55:21.000Z</time>
      </trkpt>
      <trkpt lat="47.30026" lon="-2.24212">
        <ele>16.200000762939</ele>
        <time>2021-09-05T06:55:25.000Z</time>
      </trkpt>
      <trkpt lat="47.30025" lon="-2.24203">
        <ele>15.60000038147</ele>
        <time>2021-09-05T06:55:27.000Z</time>
      </trkpt>
      <trkpt lat="47.30025" lon="-2.24198">
        <ele>15.199999809265</ele>
        <time>2021-09-05T06:55:28.000Z</time>
      </trkpt>
      <trkpt lat="47.30024" lon="-2.24193">
        <ele>14.800000190735</ele>
        <time>2021-09-05T06:55:29.000Z</time>
      </trkpt>
      <trkpt lat="47.30024" lon="-2.24188">
        <ele>14.39999961853</ele>
        <time>2021-09-05T06:55:30.000Z</time>
      </trkpt>
      <trkpt lat="47.30023" lon="-2.24184">
        <ele>13.800000190735</ele>
        <time>2021-09-05T06:55:31.000Z</time>
      </trkpt>
      <trkpt lat="47.30023" lon="-2.24179">
        <ele>13.39999961853</ele>
        <time>2021-09-05T06:55:32.000Z</time>
      </trkpt>
      <trkpt lat="47.30022" lon="-2.24173">
        <ele>13</ele>
        <time>2021-09-05T06:55:33.000Z</time>
      </trkpt>
      <trkpt lat="47.30021" lon="-2.24169">
        <ele>12.60000038147</ele>
        <time>2021-09-05T06:55:34.000Z</time>
      </trkpt>
      <trkpt lat="47.30021" lon="-2.24165">
        <ele>12.199999809265</ele>
        <time>2021-09-05T06:55:35.000Z</time>
      </trkpt>
      <trkpt lat="47.30021" lon="-2.24161">
        <ele>11.800000190735</ele>
        <time>2021-09-05T06:55:36.000Z</time>
      </trkpt>
      <trkpt lat="47.30025" lon="-2.24151">
        <ele>11.800000190735</ele>
        <time>2021-09-05T06:55:39.000Z</time>
      </trkpt>
      <trkpt lat="47.30043" lon="-2.24132">
        <ele>11.800000190735</ele>
        <time>2021-09-05T06:55:45.000Z</time>
      </trkpt>
      <trkpt lat="47.30068" lon="-2.24118">
        <ele>11.800000190735</ele>
        <time>2021-09-05T06:55:52.000Z</time>
      </trkpt>
      <trkpt lat="47.30094" lon="-2.24102">
        <ele>11.800000190735</ele>
        <time>2021-09-05T06:55:57.000Z</time>
      </trkpt>
      <trkpt lat="47.30104" lon="-2.24097">
        <ele>12.199999809265</ele>
        <time>2021-09-05T06:55:59.000Z</time>
      </trkpt>
      <trkpt lat="47.30109" lon="-2.24094">
        <ele>12.60000038147</ele>
        <time>2021-09-05T06:56:00.000Z</time>
      </trkpt>
      <trkpt lat="47.30113" lon="-2.24092">
        <ele>13</ele>
        <time>2021-09-05T06:56:01.000Z</time>
      </trkpt>
      <trkpt lat="47.30117" lon="-2.24089">
        <ele>13.39999961853</ele>
        <time>2021-09-05T06:56:02.000Z</time>
      </trkpt>
      <trkpt lat="47.30121" lon="-2.24087">
        <ele>13.800000190735</ele>
        <time>2021-09-05T06:56:03.000Z</time>
      </trkpt>
      <trkpt lat="47.3014" lon="-2.24077">
        <ele>13.800000190735</ele>
        <time>2021-09-05T06:56:07.000Z</time>
      </trkpt>
      <trkpt lat="47.3015" lon="-2.24073">
        <ele>13.800000190735</ele>
        <time>2021-09-05T06:56:09.000Z</time>
      </trkpt>
      <trkpt lat="47.30171" lon="-2.24064">
        <ele>13.800000190735</ele>
        <time>2021-09-05T06:56:13.000Z</time>
      </trkpt>
      <trkpt lat="47.30182" lon="-2.24061">
        <ele>13.800000190735</ele>
        <time>2021-09-05T06:56:15.000Z</time>
      </trkpt>
      <trkpt lat="47.30188" lon="-2.2406">
        <ele>13.800000190735</ele>
        <time>2021-09-05T06:56:16.000Z</time>
      </trkpt>
      <trkpt lat="47.30211" lon="-2.24061">
        <ele>13.800000190735</ele>
        <time>2021-09-05T06:56:20.000Z</time>
      </trkpt>
      <trkpt lat="47.30249" lon="-2.24066">
        <ele>13.800000190735</ele>
        <time>2021-09-05T06:56:26.000Z</time>
      </trkpt>
      <trkpt lat="47.30272" lon="-2.24068">
        <ele>13.800000190735</ele>
        <time>2021-09-05T06:56:30.000Z</time>
      </trkpt>
      <trkpt lat="47.30282" lon="-2.24062">
        <ele>13.39999961853</ele>
        <time>2021-09-05T06:56:32.000Z</time>
      </trkpt>
      <trkpt lat="47.30284" lon="-2.24055">
        <ele>13</ele>
        <time>2021-09-05T06:56:33.000Z</time>
      </trkpt>
      <trkpt lat="47.30286" lon="-2.24047">
        <ele>12.39999961853</ele>
        <time>2021-09-05T06:56:34.000Z</time>
      </trkpt>
      <trkpt lat="47.30286" lon="-2.24039">
        <ele>12</ele>
        <time>2021-09-05T06:56:35.000Z</time>
      </trkpt>
      <trkpt lat="47.30286" lon="-2.2403">
        <ele>11.60000038147</ele>
        <time>2021-09-05T06:56:36.000Z</time>
      </trkpt>
      <trkpt lat="47.30285" lon="-2.24022">
        <ele>11.60000038147</ele>
        <time>2021-09-05T06:56:37.000Z</time>
      </trkpt>
      <trkpt lat="47.30284" lon="-2.24011">
        <ele>11.60000038147</ele>
        <time>2021-09-05T06:56:38.000Z</time>
      </trkpt>
      <trkpt lat="47.30283" lon="-2.24002">
        <ele>11.199999809265</ele>
        <time>2021-09-05T06:56:39.000Z</time>
      </trkpt>
      <trkpt lat="47.30281" lon="-2.23991">
        <ele>10.800000190735</ele>
        <time>2021-09-05T06:56:40.000Z</time>
      </trkpt>
      <trkpt lat="47.30279" lon="-2.23981">
        <ele>10.39999961853</ele>
        <time>2021-09-05T06:56:41.000Z</time>
      </trkpt>
      <trkpt lat="47.30276" lon="-2.23971">
        <ele>10</ele>
        <time>2021-09-05T06:56:42.000Z</time>
      </trkpt>
      <trkpt lat="47.30274" lon="-2.23961">
        <ele>9.6000003814697</ele>
        <time>2021-09-05T06:56:43.000Z</time>
      </trkpt>
      <trkpt lat="47.30268" lon="-2.23941">
        <ele>9.1999998092651</ele>
        <time>2021-09-05T06:56:45.000Z</time>
      </trkpt>
      <trkpt lat="47.30266" lon="-2.23932">
        <ele>8.8000001907349</ele>
        <time>2021-09-05T06:56:46.000Z</time>
      </trkpt>
      <trkpt lat="47.30266" lon="-2.23923">
        <ele>8.3999996185303</ele>
        <time>2021-09-05T06:56:47.000Z</time>
      </trkpt>
      <trkpt lat="47.30267" lon="-2.23914">
        <ele>8</ele>
        <time>2021-09-05T06:56:48.000Z</time>
      </trkpt>
      <trkpt lat="47.30268" lon="-2.23907">
        <ele>7.5999999046326</ele>
        <time>2021-09-05T06:56:49.000Z</time>
      </trkpt>
      <trkpt lat="47.30273" lon="-2.23895">
        <ele>7.5999999046326</ele>
        <time>2021-09-05T06:56:51.000Z</time>
      </trkpt>
      <trkpt lat="47.3029" lon="-2.23883">
        <ele>7.5999999046326</ele>
        <time>2021-09-05T06:56:55.000Z</time>
      </trkpt>
      <trkpt lat="47.30307" lon="-2.23879">
        <ele>7.5999999046326</ele>
        <time>2021-09-05T06:56:58.000Z</time>
      </trkpt>
      <trkpt lat="47.3032" lon="-2.23876">
        <ele>7.5999999046326</ele>
        <time>2021-09-05T06:57:00.000Z</time>
      </trkpt>
      <trkpt lat="47.30325" lon="-2.23873">
        <ele>7.5999999046326</ele>
        <time>2021-09-05T06:57:01.000Z</time>
      </trkpt>
      <trkpt lat="47.30342" lon="-2.23863">
        <ele>7.5999999046326</ele>
        <time>2021-09-05T06:57:04.000Z</time>
      </trkpt>
      <trkpt lat="47.30349" lon="-2.23861">
        <ele>7.5999999046326</ele>
        <time>2021-09-05T06:57:05.000Z</time>
      </trkpt>
      <trkpt lat="47.30392" lon="-2.23853">
        <ele>7.5999999046326</ele>
        <time>2021-09-05T06:57:12.000Z</time>
      </trkpt>
      <trkpt lat="47.30404" lon="-2.2385">
        <ele>7.1999998092651</ele>
        <time>2021-09-05T06:57:14.000Z</time>
      </trkpt>
      <trkpt lat="47.30411" lon="-2.23849">
        <ele>6.8000001907349</ele>
        <time>2021-09-05T06:57:15.000Z</time>
      </trkpt>
      <trkpt lat="47.30417" lon="-2.23848">
        <ele>6.4000000953674</ele>
        <time>2021-09-05T06:57:16.000Z</time>
      </trkpt>
      <trkpt lat="47.30423" lon="-2.23847">
        <ele>6</ele>
        <time>2021-09-05T06:57:17.000Z</time>
      </trkpt>
      <trkpt lat="47.30429" lon="-2.23847">
        <ele>5.5999999046326</ele>
        <time>2021-09-05T06:57:18.000Z</time>
      </trkpt>
      <trkpt lat="47.30435" lon="-2.23846">
        <ele>5.5999999046326</ele>
        <time>2021-09-05T06:57:19.000Z</time>
      </trkpt>
      <trkpt lat="47.30478" lon="-2.2384">
        <ele>5.5999999046326</ele>
        <time>2021-09-05T06:57:26.000Z</time>
      </trkpt>
      <trkpt lat="47.30484" lon="-2.23841">
        <ele>5.5999999046326</ele>
        <time>2021-09-05T06:57:27.000Z</time>
      </trkpt>
      <trkpt lat="47.30501" lon="-2.23851">
        <ele>5.5999999046326</ele>
        <time>2021-09-05T06:57:30.000Z</time>
      </trkpt>
      <trkpt lat="47.30515" lon="-2.2387">
        <ele>5.5999999046326</ele>
        <time>2021-09-05T06:57:33.000Z</time>
      </trkpt>
      <trkpt lat="47.30523" lon="-2.23882">
        <ele>5.5999999046326</ele>
        <time>2021-09-05T06:57:35.000Z</time>
      </trkpt>
      <trkpt lat="47.30549" lon="-2.23921">
        <ele>5.5999999046326</ele>
        <time>2021-09-05T06:57:42.000Z</time>
      </trkpt>
      <trkpt lat="47.30552" lon="-2.23927">
        <ele>5.5999999046326</ele>
        <time>2021-09-05T06:57:43.000Z</time>
      </trkpt>
      <trkpt lat="47.30552" lon="-2.23942">
        <ele>5.5999999046326</ele>
        <time>2021-09-05T06:57:45.000Z</time>
      </trkpt>
      <trkpt lat="47.30543" lon="-2.23957">
        <ele>5.5999999046326</ele>
        <time>2021-09-05T06:57:48.000Z</time>
      </trkpt>
      <trkpt lat="47.3054" lon="-2.2396">
        <ele>5.5999999046326</ele>
        <time>2021-09-05T06:57:49.000Z</time>
      </trkpt>
      <trkpt lat="47.30525" lon="-2.23979">
        <ele>5.5999999046326</ele>
        <time>2021-09-05T06:57:54.000Z</time>
      </trkpt>
      <trkpt lat="47.30516" lon="-2.23989">
        <ele>6</ele>
        <time>2021-09-05T06:57:57.000Z</time>
      </trkpt>
      <trkpt lat="47.30513" lon="-2.23993">
        <ele>6.4000000953674</ele>
        <time>2021-09-05T06:57:58.000Z</time>
      </trkpt>
      <trkpt lat="47.3051" lon="-2.23996">
        <ele>6.8000001907349</ele>
        <time>2021-09-05T06:57:59.000Z</time>
      </trkpt>
      <trkpt lat="47.30508" lon="-2.24">
        <ele>7.1999998092651</ele>
        <time>2021-09-05T06:58:00.000Z</time>
      </trkpt>
      <trkpt lat="47.30506" lon="-2.24004">
        <ele>7.5999999046326</ele>
        <time>2021-09-05T06:58:01.000Z</time>
      </trkpt>
      <trkpt lat="47.30504" lon="-2.24008">
        <ele>7.5999999046326</ele>
        <time>2021-09-05T06:58:02.000Z</time>
      </trkpt>
      <trkpt lat="47.30494" lon="-2.24021">
        <ele>8.1999998092651</ele>
        <time>2021-09-05T06:58:06.000Z</time>
      </trkpt>
      <trkpt lat="47.30492" lon="-2.24023">
        <ele>8.6000003814697</ele>
        <time>2021-09-05T06:58:07.000Z</time>
      </trkpt>
      <trkpt lat="47.30489" lon="-2.24025">
        <ele>9</ele>
        <time>2021-09-05T06:58:08.000Z</time>
      </trkpt>
      <trkpt lat="47.30487" lon="-2.24026">
        <ele>9.6000003814697</ele>
        <time>2021-09-05T06:58:09.000Z</time>
      </trkpt>
      <trkpt lat="47.30485" lon="-2.24028">
        <ele>10</ele>
        <time>2021-09-05T06:58:10.000Z</time>
      </trkpt>
      <trkpt lat="47.30477" lon="-2.24033">
        <ele>10</ele>
        <time>2021-09-05T06:58:14.000Z</time>
      </trkpt>
      <trkpt lat="47.30475" lon="-2.24035">
        <ele>10.39999961853</ele>
        <time>2021-09-05T06:58:15.000Z</time>
      </trkpt>
      <trkpt lat="47.30473" lon="-2.24036">
        <ele>10.800000190735</ele>
        <time>2021-09-05T06:58:16.000Z</time>
      </trkpt>
      <trkpt lat="47.30472" lon="-2.24037">
        <ele>11.800000190735</ele>
        <time>2021-09-05T06:58:17.000Z</time>
      </trkpt>
      <trkpt lat="47.3047" lon="-2.24037">
        <ele>12.199999809265</ele>
        <time>2021-09-05T06:58:18.000Z</time>
      </trkpt>
      <trkpt lat="47.30466" lon="-2.24039">
        <ele>12.199999809265</ele>
        <time>2021-09-05T06:58:20.000Z</time>
      </trkpt>
      <trkpt lat="47.30452" lon="-2.24052">
        <ele>12.199999809265</ele>
        <time>2021-09-05T06:58:26.000Z</time>
      </trkpt>
      <trkpt lat="47.30443" lon="-2.24064">
        <ele>12.60000038147</ele>
        <time>2021-09-05T06:58:30.000Z</time>
      </trkpt>
      <trkpt lat="47.30441" lon="-2.24066">
        <ele>13</ele>
        <time>2021-09-05T06:58:31.000Z</time>
      </trkpt>
      <trkpt lat="47.30439" lon="-2.24068">
        <ele>13.39999961853</ele>
        <time>2021-09-05T06:58:32.000Z</time>
      </trkpt>
      <trkpt lat="47.30437" lon="-2.24069">
        <ele>13.800000190735</ele>
        <time>2021-09-05T06:58:33.000Z</time>
      </trkpt>
      <trkpt lat="47.30435" lon="-2.24071">
        <ele>14.199999809265</ele>
        <time>2021-09-05T06:58:34.000Z</time>
      </trkpt>
      <trkpt lat="47.30424" lon="-2.24084">
        <ele>14.199999809265</ele>
        <time>2021-09-05T06:58:40.000Z</time>
      </trkpt>
      <trkpt lat="47.30416" lon="-2.24092">
        <ele>14.60000038147</ele>
        <time>2021-09-05T06:58:44.000Z</time>
      </trkpt>
      <trkpt lat="47.30414" lon="-2.24095">
        <ele>15.199999809265</ele>
        <time>2021-09-05T06:58:45.000Z</time>
      </trkpt>
      <trkpt lat="47.30411" lon="-2.24098">
        <ele>15.60000038147</ele>
        <time>2021-09-05T06:58:46.000Z</time>
      </trkpt>
      <trkpt lat="47.30409" lon="-2.24101">
        <ele>16</ele>
        <time>2021-09-05T06:58:47.000Z</time>
      </trkpt>
      <trkpt lat="47.30407" lon="-2.24104">
        <ele>16.39999961853</ele>
        <time>2021-09-05T06:58:48.000Z</time>
      </trkpt>
      <trkpt lat="47.30393" lon="-2.24116">
        <ele>16.39999961853</ele>
        <time>2021-09-05T06:58:54.000Z</time>
      </trkpt>
      <trkpt lat="47.30379" lon="-2.2413">
        <ele>16.799999237061</ele>
        <time>2021-09-05T06:58:59.000Z</time>
      </trkpt>
      <trkpt lat="47.30376" lon="-2.24135">
        <ele>17.200000762939</ele>
        <time>2021-09-05T06:59:00.000Z</time>
      </trkpt>
      <trkpt lat="47.30373" lon="-2.2414">
        <ele>17.60000038147</ele>
        <time>2021-09-05T06:59:01.000Z</time>
      </trkpt>
      <trkpt lat="47.30369" lon="-2.24146">
        <ele>18</ele>
        <time>2021-09-05T06:59:02.000Z</time>
      </trkpt>
      <trkpt lat="47.30365" lon="-2.24152">
        <ele>18.39999961853</ele>
        <time>2021-09-05T06:59:03.000Z</time>
      </trkpt>
      <trkpt lat="47.30361" lon="-2.24159">
        <ele>18.39999961853</ele>
        <time>2021-09-05T06:59:04.000Z</time>
      </trkpt>
      <trkpt lat="47.30354" lon="-2.24172">
        <ele>18.39999961853</ele>
        <time>2021-09-05T06:59:06.000Z</time>
      </trkpt>
      <trkpt lat="47.30351" lon="-2.24188">
        <ele>18.39999961853</ele>
        <time>2021-09-05T06:59:08.000Z</time>
      </trkpt>
      <trkpt lat="47.30356" lon="-2.24209">
        <ele>18</ele>
        <time>2021-09-05T06:59:11.000Z</time>
      </trkpt>
      <trkpt lat="47.3036" lon="-2.24214">
        <ele>17.60000038147</ele>
        <time>2021-09-05T06:59:12.000Z</time>
      </trkpt>
      <trkpt lat="47.30364" lon="-2.24218">
        <ele>17.200000762939</ele>
        <time>2021-09-05T06:59:13.000Z</time>
      </trkpt>
      <trkpt lat="47.30368" lon="-2.24222">
        <ele>16.799999237061</ele>
        <time>2021-09-05T06:59:14.000Z</time>
      </trkpt>
      <trkpt lat="47.30372" lon="-2.24226">
        <ele>16.200000762939</ele>
        <time>2021-09-05T06:59:15.000Z</time>
      </trkpt>
      <trkpt lat="47.30375" lon="-2.2423">
        <ele>16.200000762939</ele>
        <time>2021-09-05T06:59:16.000Z</time>
      </trkpt>
      <trkpt lat="47.30396" lon="-2.24253">
        <ele>16.200000762939</ele>
        <time>2021-09-05T06:59:22.000Z</time>
      </trkpt>
      <trkpt lat="47.30419" lon="-2.24275">
        <ele>16.200000762939</ele>
        <time>2021-09-05T06:59:28.000Z</time>
      </trkpt>
      <trkpt lat="47.30424" lon="-2.24276">
        <ele>16.200000762939</ele>
        <time>2021-09-05T06:59:29.000Z</time>
      </trkpt>
      <trkpt lat="47.30451" lon="-2.24281">
        <ele>16.200000762939</ele>
        <time>2021-09-05T06:59:34.000Z</time>
      </trkpt>
      <trkpt lat="47.30463" lon="-2.24284">
        <ele>16.200000762939</ele>
        <time>2021-09-05T06:59:36.000Z</time>
      </trkpt>
      <trkpt lat="47.30478" lon="-2.24291">
        <ele>16.200000762939</ele>
        <time>2021-09-05T06:59:39.000Z</time>
      </trkpt>
      <trkpt lat="47.30483" lon="-2.24294">
        <ele>16.200000762939</ele>
        <time>2021-09-05T06:59:40.000Z</time>
      </trkpt>
      <trkpt lat="47.30501" lon="-2.24306">
        <ele>16.200000762939</ele>
        <time>2021-09-05T06:59:44.000Z</time>
      </trkpt>
      <trkpt lat="47.30509" lon="-2.24315">
        <ele>16.200000762939</ele>
        <time>2021-09-05T06:59:46.000Z</time>
      </trkpt>
      <trkpt lat="47.30543" lon="-2.2435">
        <ele>16.200000762939</ele>
        <time>2021-09-05T06:59:54.000Z</time>
      </trkpt>
      <trkpt lat="47.3058" lon="-2.24389">
        <ele>16.200000762939</ele>
        <time>2021-09-05T07:00:02.000Z</time>
      </trkpt>
      <trkpt lat="47.30601" lon="-2.2441">
        <ele>16.200000762939</ele>
        <time>2021-09-05T07:00:06.000Z</time>
      </trkpt>
      <trkpt lat="47.30611" lon="-2.24417">
        <ele>16.200000762939</ele>
        <time>2021-09-05T07:00:08.000Z</time>
      </trkpt>
      <trkpt lat="47.30631" lon="-2.24425">
        <ele>16.200000762939</ele>
        <time>2021-09-05T07:00:12.000Z</time>
      </trkpt>
      <trkpt lat="47.30635" lon="-2.24429">
        <ele>15.800000190735</ele>
        <time>2021-09-05T07:00:13.000Z</time>
      </trkpt>
      <trkpt lat="47.30638" lon="-2.24434">
        <ele>15.39999961853</ele>
        <time>2021-09-05T07:00:14.000Z</time>
      </trkpt>
      <trkpt lat="47.30642" lon="-2.24438">
        <ele>15</ele>
        <time>2021-09-05T07:00:15.000Z</time>
      </trkpt>
      <trkpt lat="47.30642" lon="-2.24445">
        <ele>14.39999961853</ele>
        <time>2021-09-05T07:00:16.000Z</time>
      </trkpt>
      <trkpt lat="47.30643" lon="-2.24452">
        <ele>14</ele>
        <time>2021-09-05T07:00:17.000Z</time>
      </trkpt>
      <trkpt lat="47.30644" lon="-2.24467">
        <ele>13.60000038147</ele>
        <time>2021-09-05T07:00:19.000Z</time>
      </trkpt>
      <trkpt lat="47.30641" lon="-2.24477">
        <ele>12.800000190735</ele>
        <time>2021-09-05T07:00:20.000Z</time>
      </trkpt>
      <trkpt lat="47.30637" lon="-2.24489">
        <ele>12.39999961853</ele>
        <time>2021-09-05T07:00:21.000Z</time>
      </trkpt>
      <trkpt lat="47.30634" lon="-2.24501">
        <ele>12</ele>
        <time>2021-09-05T07:00:22.000Z</time>
      </trkpt>
      <trkpt lat="47.30625" lon="-2.2455">
        <ele>11.39999961853</ele>
        <time>2021-09-05T07:00:26.000Z</time>
      </trkpt>
      <trkpt lat="47.30623" lon="-2.24562">
        <ele>11</ele>
        <time>2021-09-05T07:00:27.000Z</time>
      </trkpt>
      <trkpt lat="47.3062" lon="-2.24575">
        <ele>10.60000038147</ele>
        <time>2021-09-05T07:00:28.000Z</time>
      </trkpt>
      <trkpt lat="47.30618" lon="-2.24587">
        <ele>10</ele>
        <time>2021-09-05T07:00:29.000Z</time>
      </trkpt>
      <trkpt lat="47.30617" lon="-2.24599">
        <ele>9.6000003814697</ele>
        <time>2021-09-05T07:00:30.000Z</time>
      </trkpt>
      <trkpt lat="47.30618" lon="-2.24624">
        <ele>9.6000003814697</ele>
        <time>2021-09-05T07:00:32.000Z</time>
      </trkpt>
      <trkpt lat="47.30621" lon="-2.24637">
        <ele>9.1999998092651</ele>
        <time>2021-09-05T07:00:33.000Z</time>
      </trkpt>
      <trkpt lat="47.30624" lon="-2.24647">
        <ele>8.8000001907349</ele>
        <time>2021-09-05T07:00:34.000Z</time>
      </trkpt>
      <trkpt lat="47.30627" lon="-2.24658">
        <ele>8.3999996185303</ele>
        <time>2021-09-05T07:00:35.000Z</time>
      </trkpt>
      <trkpt lat="47.30629" lon="-2.24668">
        <ele>8</ele>
        <time>2021-09-05T07:00:36.000Z</time>
      </trkpt>
      <trkpt lat="47.30632" lon="-2.24678">
        <ele>7.4000000953674</ele>
        <time>2021-09-05T07:00:37.000Z</time>
      </trkpt>
      <trkpt lat="47.30639" lon="-2.24707">
        <ele>7</ele>
        <time>2021-09-05T07:00:40.000Z</time>
      </trkpt>
      <trkpt lat="47.30642" lon="-2.24716">
        <ele>6.5999999046326</ele>
        <time>2021-09-05T07:00:41.000Z</time>
      </trkpt>
      <trkpt lat="47.30644" lon="-2.24726">
        <ele>6.1999998092651</ele>
        <time>2021-09-05T07:00:42.000Z</time>
      </trkpt>
      <trkpt lat="47.30646" lon="-2.24735">
        <ele>5.8000001907349</ele>
        <time>2021-09-05T07:00:43.000Z</time>
      </trkpt>
      <trkpt lat="47.30647" lon="-2.24744">
        <ele>5.4000000953674</ele>
        <time>2021-09-05T07:00:44.000Z</time>
      </trkpt>
      <trkpt lat="47.30646" lon="-2.24753">
        <ele>5.4000000953674</ele>
        <time>2021-09-05T07:00:45.000Z</time>
      </trkpt>
      <trkpt lat="47.30637" lon="-2.24783">
        <ele>5.4000000953674</ele>
        <time>2021-09-05T07:00:49.000Z</time>
      </trkpt>
      <trkpt lat="47.30633" lon="-2.2479">
        <ele>5.4000000953674</ele>
        <time>2021-09-05T07:00:50.000Z</time>
      </trkpt>
      <trkpt lat="47.30613" lon="-2.24822">
        <ele>5.4000000953674</ele>
        <time>2021-09-05T07:00:55.000Z</time>
      </trkpt>
      <trkpt lat="47.30591" lon="-2.24866">
        <ele>5.4000000953674</ele>
        <time>2021-09-05T07:01:01.000Z</time>
      </trkpt>
      <trkpt lat="47.30579" lon="-2.24904">
        <ele>5.4000000953674</ele>
        <time>2021-09-05T07:01:06.000Z</time>
      </trkpt>
      <trkpt lat="47.30579" lon="-2.24911">
        <ele>5.4000000953674</ele>
        <time>2021-09-05T07:01:07.000Z</time>
      </trkpt>
      <trkpt lat="47.30574" lon="-2.24948">
        <ele>5.4000000953674</ele>
        <time>2021-09-05T07:01:12.000Z</time>
      </trkpt>
      <trkpt lat="47.30573" lon="-2.2497">
        <ele>5.4000000953674</ele>
        <time>2021-09-05T07:01:15.000Z</time>
      </trkpt>
      <trkpt lat="47.30574" lon="-2.25002">
        <ele>5.4000000953674</ele>
        <time>2021-09-05T07:01:19.000Z</time>
      </trkpt>
      <trkpt lat="47.30579" lon="-2.25051">
        <ele>5.4000000953674</ele>
        <time>2021-09-05T07:01:26.000Z</time>
      </trkpt>
      <trkpt lat="47.30585" lon="-2.25085">
        <ele>5.4000000953674</ele>
        <time>2021-09-05T07:01:31.000Z</time>
      </trkpt>
      <trkpt lat="47.30586" lon="-2.25092">
        <ele>5.4000000953674</ele>
        <time>2021-09-05T07:01:32.000Z</time>
      </trkpt>
      <trkpt lat="47.30602" lon="-2.25145">
        <ele>5.4000000953674</ele>
        <time>2021-09-05T07:01:40.000Z</time>
      </trkpt>
      <trkpt lat="47.30628" lon="-2.25204">
        <ele>5.4000000953674</ele>
        <time>2021-09-05T07:01:49.000Z</time>
      </trkpt>
      <trkpt lat="47.30643" lon="-2.25252">
        <ele>5.4000000953674</ele>
        <time>2021-09-05T07:01:56.000Z</time>
      </trkpt>
      <trkpt lat="47.30652" lon="-2.25296">
        <ele>5.4000000953674</ele>
        <time>2021-09-05T07:02:02.000Z</time>
      </trkpt>
      <trkpt lat="47.30662" lon="-2.25364">
        <ele>5.4000000953674</ele>
        <time>2021-09-05T07:02:11.000Z</time>
      </trkpt>
      <trkpt lat="47.30663" lon="-2.25371">
        <ele>5.4000000953674</ele>
        <time>2021-09-05T07:02:12.000Z</time>
      </trkpt>
      <trkpt lat="47.30662" lon="-2.25402">
        <ele>5.4000000953674</ele>
        <time>2021-09-05T07:02:16.000Z</time>
      </trkpt>
      <trkpt lat="47.30668" lon="-2.25426">
        <ele>5.4000000953674</ele>
        <time>2021-09-05T07:02:20.000Z</time>
      </trkpt>
      <trkpt lat="47.3068" lon="-2.25435">
        <ele>5.4000000953674</ele>
        <time>2021-09-05T07:02:23.000Z</time>
      </trkpt>
      <trkpt lat="47.30703" lon="-2.25434">
        <ele>5.4000000953674</ele>
        <time>2021-09-05T07:02:27.000Z</time>
      </trkpt>
      <trkpt lat="47.30732" lon="-2.25434">
        <ele>5.4000000953674</ele>
        <time>2021-09-05T07:02:32.000Z</time>
      </trkpt>
      <trkpt lat="47.30743" lon="-2.25431">
        <ele>5.4000000953674</ele>
        <time>2021-09-05T07:02:34.000Z</time>
      </trkpt>
      <trkpt lat="47.30763" lon="-2.25429">
        <ele>5.4000000953674</ele>
        <time>2021-09-05T07:02:38.000Z</time>
      </trkpt>
      <trkpt lat="47.30782" lon="-2.25425">
        <ele>5.4000000953674</ele>
        <time>2021-09-05T07:02:43.000Z</time>
      </trkpt>
      <trkpt lat="47.30796" lon="-2.25423">
        <ele>5.8000001907349</ele>
        <time>2021-09-05T07:02:47.000Z</time>
      </trkpt>
      <trkpt lat="47.308" lon="-2.25422">
        <ele>6.5999999046326</ele>
        <time>2021-09-05T07:02:48.000Z</time>
      </trkpt>
      <trkpt lat="47.30804" lon="-2.25421">
        <ele>7</ele>
        <time>2021-09-05T07:02:49.000Z</time>
      </trkpt>
      <trkpt lat="47.30808" lon="-2.2542">
        <ele>7.5999999046326</ele>
        <time>2021-09-05T07:02:50.000Z</time>
      </trkpt>
      <trkpt lat="47.30812" lon="-2.25419">
        <ele>7.5999999046326</ele>
        <time>2021-09-05T07:02:51.000Z</time>
      </trkpt>
      <trkpt lat="47.30826" lon="-2.25416">
        <ele>8</ele>
        <time>2021-09-05T07:02:55.000Z</time>
      </trkpt>
      <trkpt lat="47.3083" lon="-2.25416">
        <ele>8.3999996185303</ele>
        <time>2021-09-05T07:02:56.000Z</time>
      </trkpt>
      <trkpt lat="47.30833" lon="-2.25416">
        <ele>8.8000001907349</ele>
        <time>2021-09-05T07:02:57.000Z</time>
      </trkpt>
      <trkpt lat="47.30837" lon="-2.25416">
        <ele>9.1999998092651</ele>
        <time>2021-09-05T07:02:58.000Z</time>
      </trkpt>
      <trkpt lat="47.3084" lon="-2.25416">
        <ele>9.6000003814697</ele>
        <time>2021-09-05T07:02:59.000Z</time>
      </trkpt>
      <trkpt lat="47.30854" lon="-2.25429">
        <ele>9.6000003814697</ele>
        <time>2021-09-05T07:03:04.000Z</time>
      </trkpt>
      <trkpt lat="47.30857" lon="-2.25453">
        <ele>9.6000003814697</ele>
        <time>2021-09-05T07:03:08.000Z</time>
      </trkpt>
      <trkpt lat="47.30863" lon="-2.25509">
        <ele>9.6000003814697</ele>
        <time>2021-09-05T07:03:16.000Z</time>
      </trkpt>
      <trkpt lat="47.30864" lon="-2.25528">
        <ele>10</ele>
        <time>2021-09-05T07:03:19.000Z</time>
      </trkpt>
      <trkpt lat="47.30865" lon="-2.25535">
        <ele>10.39999961853</ele>
        <time>2021-09-05T07:03:20.000Z</time>
      </trkpt>
      <trkpt lat="47.30866" lon="-2.25541">
        <ele>10.800000190735</ele>
        <time>2021-09-05T07:03:21.000Z</time>
      </trkpt>
      <trkpt lat="47.30867" lon="-2.25547">
        <ele>11.199999809265</ele>
        <time>2021-09-05T07:03:22.000Z</time>
      </trkpt>
      <trkpt lat="47.30867" lon="-2.25553">
        <ele>11.60000038147</ele>
        <time>2021-09-05T07:03:23.000Z</time>
      </trkpt>
      <trkpt lat="47.30868" lon="-2.25559">
        <ele>11.60000038147</ele>
        <time>2021-09-05T07:03:24.000Z</time>
      </trkpt>
      <trkpt lat="47.30873" lon="-2.2561">
        <ele>11.60000038147</ele>
        <time>2021-09-05T07:03:32.000Z</time>
      </trkpt>
      <trkpt lat="47.30876" lon="-2.2566">
        <ele>11.60000038147</ele>
        <time>2021-09-05T07:03:40.000Z</time>
      </trkpt>
      <trkpt lat="47.30878" lon="-2.25696">
        <ele>12</ele>
        <time>2021-09-05T07:03:46.000Z</time>
      </trkpt>
      <trkpt lat="47.30878" lon="-2.25702">
        <ele>12.39999961853</ele>
        <time>2021-09-05T07:03:47.000Z</time>
      </trkpt>
      <trkpt lat="47.30878" lon="-2.25709">
        <ele>12.800000190735</ele>
        <time>2021-09-05T07:03:48.000Z</time>
      </trkpt>
      <trkpt lat="47.30878" lon="-2.25717">
        <ele>13.199999809265</ele>
        <time>2021-09-05T07:03:49.000Z</time>
      </trkpt>
      <trkpt lat="47.30877" lon="-2.25723">
        <ele>13.60000038147</ele>
        <time>2021-09-05T07:03:50.000Z</time>
      </trkpt>
      <trkpt lat="47.30879" lon="-2.25756">
        <ele>13.60000038147</ele>
        <time>2021-09-05T07:03:55.000Z</time>
      </trkpt>
      <trkpt lat="47.30889" lon="-2.258">
        <ele>13.60000038147</ele>
        <time>2021-09-05T07:04:02.000Z</time>
      </trkpt>
      <trkpt lat="47.30906" lon="-2.25855">
        <ele>13.60000038147</ele>
        <time>2021-09-05T07:04:10.000Z</time>
      </trkpt>
      <trkpt lat="47.30913" lon="-2.25871">
        <ele>13.60000038147</ele>
        <time>2021-09-05T07:04:14.000Z</time>
      </trkpt>
      <trkpt lat="47.30916" lon="-2.25876">
        <ele>13.60000038147</ele>
        <time>2021-09-05T07:04:19.000Z</time>
      </trkpt>
      <trkpt lat="47.30917" lon="-2.25878">
        <ele>13.60000038147</ele>
        <time>2021-09-05T07:04:22.000Z</time>
      </trkpt>
      <trkpt lat="47.30918" lon="-2.25883">
        <ele>13.60000038147</ele>
        <time>2021-09-05T07:04:24.000Z</time>
      </trkpt>
      <trkpt lat="47.30918" lon="-2.25887">
        <ele>13.60000038147</ele>
        <time>2021-09-05T07:04:25.000Z</time>
      </trkpt>
      <trkpt lat="47.3091" lon="-2.25898">
        <ele>13.60000038147</ele>
        <time>2021-09-05T07:04:28.000Z</time>
      </trkpt>
      <trkpt lat="47.30907" lon="-2.25901">
        <ele>13.60000038147</ele>
        <time>2021-09-05T07:04:29.000Z</time>
      </trkpt>
      <trkpt lat="47.30878" lon="-2.25937">
        <ele>13.60000038147</ele>
        <time>2021-09-05T07:04:37.000Z</time>
      </trkpt>
      <trkpt lat="47.30858" lon="-2.25959">
        <ele>13.60000038147</ele>
        <time>2021-09-05T07:04:42.000Z</time>
      </trkpt>
      <trkpt lat="47.30846" lon="-2.25973">
        <ele>13.60000038147</ele>
        <time>2021-09-05T07:04:45.000Z</time>
      </trkpt>
      <trkpt lat="47.30821" lon="-2.26">
        <ele>13.60000038147</ele>
        <time>2021-09-05T07:04:52.000Z</time>
      </trkpt>
      <trkpt lat="47.30815" lon="-2.2601">
        <ele>13.60000038147</ele>
        <time>2021-09-05T07:04:55.000Z</time>
      </trkpt>
      <trkpt lat="47.30815" lon="-2.26018">
        <ele>13.60000038147</ele>
        <time>2021-09-05T07:04:57.000Z</time>
      </trkpt>
      <trkpt lat="47.3082" lon="-2.26027">
        <ele>13.60000038147</ele>
        <time>2021-09-05T07:05:00.000Z</time>
      </trkpt>
      <trkpt lat="47.30823" lon="-2.26029">
        <ele>13.60000038147</ele>
        <time>2021-09-05T07:05:01.000Z</time>
      </trkpt>
      <trkpt lat="47.30842" lon="-2.26028">
        <ele>13.60000038147</ele>
        <time>2021-09-05T07:05:05.000Z</time>
      </trkpt>
      <trkpt lat="47.30847" lon="-2.26029">
        <ele>13.60000038147</ele>
        <time>2021-09-05T07:05:06.000Z</time>
      </trkpt>
      <trkpt lat="47.30858" lon="-2.2603">
        <ele>13.60000038147</ele>
        <time>2021-09-05T07:05:09.000Z</time>
      </trkpt>
      <trkpt lat="47.30877" lon="-2.26028">
        <ele>13.60000038147</ele>
        <time>2021-09-05T07:05:14.000Z</time>
      </trkpt>
      <trkpt lat="47.30888" lon="-2.26027">
        <ele>13.199999809265</ele>
        <time>2021-09-05T07:05:17.000Z</time>
      </trkpt>
      <trkpt lat="47.30892" lon="-2.26026">
        <ele>12.800000190735</ele>
        <time>2021-09-05T07:05:18.000Z</time>
      </trkpt>
      <trkpt lat="47.30897" lon="-2.26024">
        <ele>12.39999961853</ele>
        <time>2021-09-05T07:05:19.000Z</time>
      </trkpt>
      <trkpt lat="47.30902" lon="-2.26023">
        <ele>12</ele>
        <time>2021-09-05T07:05:20.000Z</time>
      </trkpt>
      <trkpt lat="47.30908" lon="-2.26022">
        <ele>11.39999961853</ele>
        <time>2021-09-05T07:05:21.000Z</time>
      </trkpt>
      <trkpt lat="47.30929" lon="-2.26017">
        <ele>11.39999961853</ele>
        <time>2021-09-05T07:05:25.000Z</time>
      </trkpt>
      <trkpt lat="47.30962" lon="-2.26011">
        <ele>11.39999961853</ele>
        <time>2021-09-05T07:05:32.000Z</time>
      </trkpt>
      <trkpt lat="47.30974" lon="-2.2601">
        <ele>11.39999961853</ele>
        <time>2021-09-05T07:05:34.000Z</time>
      </trkpt>
      <trkpt lat="47.30992" lon="-2.2601">
        <ele>11.39999961853</ele>
        <time>2021-09-05T07:05:37.000Z</time>
      </trkpt>
      <trkpt lat="47.31033" lon="-2.26012">
        <ele>11.39999961853</ele>
        <time>2021-09-05T07:05:43.000Z</time>
      </trkpt>
      <trkpt lat="47.31053" lon="-2.26013">
        <ele>11</ele>
        <time>2021-09-05T07:05:46.000Z</time>
      </trkpt>
      <trkpt lat="47.3106" lon="-2.26012">
        <ele>10.60000038147</ele>
        <time>2021-09-05T07:05:47.000Z</time>
      </trkpt>
      <trkpt lat="47.31067" lon="-2.2601">
        <ele>10.199999809265</ele>
        <time>2021-09-05T07:05:48.000Z</time>
      </trkpt>
      <trkpt lat="47.31073" lon="-2.26007">
        <ele>9.8000001907349</ele>
        <time>2021-09-05T07:05:49.000Z</time>
      </trkpt>
      <trkpt lat="47.31079" lon="-2.26005">
        <ele>9.3999996185303</ele>
        <time>2021-09-05T07:05:50.000Z</time>
      </trkpt>
      <trkpt lat="47.31092" lon="-2.26002">
        <ele>9.3999996185303</ele>
        <time>2021-09-05T07:05:52.000Z</time>
      </trkpt>
      <trkpt lat="47.31104" lon="-2.26007">
        <ele>9.3999996185303</ele>
        <time>2021-09-05T07:05:54.000Z</time>
      </trkpt>
      <trkpt lat="47.31117" lon="-2.26015">
        <ele>9.3999996185303</ele>
        <time>2021-09-05T07:05:56.000Z</time>
      </trkpt>
      <trkpt lat="47.31145" lon="-2.26032">
        <ele>9.3999996185303</ele>
        <time>2021-09-05T07:06:00.000Z</time>
      </trkpt>
      <trkpt lat="47.31166" lon="-2.26044">
        <ele>9</ele>
        <time>2021-09-05T07:06:03.000Z</time>
      </trkpt>
      <trkpt lat="47.31173" lon="-2.26049">
        <ele>8.6000003814697</ele>
        <time>2021-09-05T07:06:04.000Z</time>
      </trkpt>
      <trkpt lat="47.3118" lon="-2.26054">
        <ele>8.1999998092651</ele>
        <time>2021-09-05T07:06:05.000Z</time>
      </trkpt>
      <trkpt lat="47.31187" lon="-2.26059">
        <ele>7.8000001907349</ele>
        <time>2021-09-05T07:06:06.000Z</time>
      </trkpt>
      <trkpt lat="47.31193" lon="-2.26063">
        <ele>7.1999998092651</ele>
        <time>2021-09-05T07:06:07.000Z</time>
      </trkpt>
      <trkpt lat="47.312" lon="-2.26067">
        <ele>7.1999998092651</ele>
        <time>2021-09-05T07:06:08.000Z</time>
      </trkpt>
      <trkpt lat="47.31237" lon="-2.26093">
        <ele>7.1999998092651</ele>
        <time>2021-09-05T07:06:14.000Z</time>
      </trkpt>
      <trkpt lat="47.31291" lon="-2.26124">
        <ele>7.1999998092651</ele>
        <time>2021-09-05T07:06:23.000Z</time>
      </trkpt>
      <trkpt lat="47.31303" lon="-2.26129">
        <ele>6.8000001907349</ele>
        <time>2021-09-05T07:06:25.000Z</time>
      </trkpt>
      <trkpt lat="47.31309" lon="-2.26132">
        <ele>6.4000000953674</ele>
        <time>2021-09-05T07:06:26.000Z</time>
      </trkpt>
      <trkpt lat="47.31315" lon="-2.26134">
        <ele>6</ele>
        <time>2021-09-05T07:06:27.000Z</time>
      </trkpt>
      <trkpt lat="47.31321" lon="-2.26137">
        <ele>5.5999999046326</ele>
        <time>2021-09-05T07:06:28.000Z</time>
      </trkpt>
      <trkpt lat="47.31327" lon="-2.2614">
        <ele>5.1999998092651</ele>
        <time>2021-09-05T07:06:29.000Z</time>
      </trkpt>
      <trkpt lat="47.31332" lon="-2.26142">
        <ele>5.1999998092651</ele>
        <time>2021-09-05T07:06:30.000Z</time>
      </trkpt>
      <trkpt lat="47.31366" lon="-2.26156">
        <ele>5.1999998092651</ele>
        <time>2021-09-05T07:06:36.000Z</time>
      </trkpt>
      <trkpt lat="47.31372" lon="-2.26157">
        <ele>5.1999998092651</ele>
        <time>2021-09-05T07:06:37.000Z</time>
      </trkpt>
      <trkpt lat="47.31389" lon="-2.26149">
        <ele>5.1999998092651</ele>
        <time>2021-09-05T07:06:40.000Z</time>
      </trkpt>
      <trkpt lat="47.31404" lon="-2.26134">
        <ele>5.1999998092651</ele>
        <time>2021-09-05T07:06:43.000Z</time>
      </trkpt>
      <trkpt lat="47.31409" lon="-2.26128">
        <ele>5.1999998092651</ele>
        <time>2021-09-05T07:06:44.000Z</time>
      </trkpt>
      <trkpt lat="47.31413" lon="-2.26122">
        <ele>5.1999998092651</ele>
        <time>2021-09-05T07:06:45.000Z</time>
      </trkpt>
      <trkpt lat="47.31421" lon="-2.26109">
        <ele>5.1999998092651</ele>
        <time>2021-09-05T07:06:47.000Z</time>
      </trkpt>
      <trkpt lat="47.3143" lon="-2.26084">
        <ele>5.1999998092651</ele>
        <time>2021-09-05T07:06:50.000Z</time>
      </trkpt>
      <trkpt lat="47.31437" lon="-2.2607">
        <ele>5.1999998092651</ele>
        <time>2021-09-05T07:06:52.000Z</time>
      </trkpt>
      <trkpt lat="47.31448" lon="-2.26055">
        <ele>5.1999998092651</ele>
        <time>2021-09-05T07:06:55.000Z</time>
      </trkpt>
      <trkpt lat="47.31451" lon="-2.26054">
        <ele>5.1999998092651</ele>
        <time>2021-09-05T07:06:56.000Z</time>
      </trkpt>
      <trkpt lat="47.31459" lon="-2.26058">
        <ele>5.1999998092651</ele>
        <time>2021-09-05T07:06:58.000Z</time>
      </trkpt>
      <trkpt lat="47.31469" lon="-2.26073">
        <ele>5.1999998092651</ele>
        <time>2021-09-05T07:07:01.000Z</time>
      </trkpt>
      <trkpt lat="47.31472" lon="-2.26078">
        <ele>5.1999998092651</ele>
        <time>2021-09-05T07:07:02.000Z</time>
      </trkpt>
      <trkpt lat="47.3148" lon="-2.26087">
        <ele>5.1999998092651</ele>
        <time>2021-09-05T07:07:04.000Z</time>
      </trkpt>
      <trkpt lat="47.31486" lon="-2.26086">
        <ele>5.1999998092651</ele>
        <time>2021-09-05T07:07:06.000Z</time>
      </trkpt>
      <trkpt lat="47.31492" lon="-2.26071">
        <ele>5.1999998092651</ele>
        <time>2021-09-05T07:07:09.000Z</time>
      </trkpt>
      <trkpt lat="47.31494" lon="-2.26066">
        <ele>4.8000001907349</ele>
        <time>2021-09-05T07:07:10.000Z</time>
      </trkpt>
      <trkpt lat="47.31496" lon="-2.26061">
        <ele>4.4000000953674</ele>
        <time>2021-09-05T07:07:11.000Z</time>
      </trkpt>
      <trkpt lat="47.31498" lon="-2.26055">
        <ele>4</ele>
        <time>2021-09-05T07:07:12.000Z</time>
      </trkpt>
      <trkpt lat="47.315" lon="-2.2605">
        <ele>3.5999999046326</ele>
        <time>2021-09-05T07:07:13.000Z</time>
      </trkpt>
      <trkpt lat="47.31502" lon="-2.26045">
        <ele>3.2000000476837</ele>
        <time>2021-09-05T07:07:14.000Z</time>
      </trkpt>
      <trkpt lat="47.31506" lon="-2.26037">
        <ele>3.2000000476837</ele>
        <time>2021-09-05T07:07:16.000Z</time>
      </trkpt>
      <trkpt lat="47.31506" lon="-2.26027">
        <ele>3.2000000476837</ele>
        <time>2021-09-05T07:07:18.000Z</time>
      </trkpt>
      <trkpt lat="47.31503" lon="-2.26018">
        <ele>3.2000000476837</ele>
        <time>2021-09-05T07:07:20.000Z</time>
      </trkpt>
      <trkpt lat="47.31494" lon="-2.25997">
        <ele>3.2000000476837</ele>
        <time>2021-09-05T07:07:25.000Z</time>
      </trkpt>
      <trkpt lat="47.31492" lon="-2.25978">
        <ele>3.2000000476837</ele>
        <time>2021-09-05T07:07:29.000Z</time>
      </trkpt>
      <trkpt lat="47.31501" lon="-2.25957">
        <ele>3.2000000476837</ele>
        <time>2021-09-05T07:07:33.000Z</time>
      </trkpt>
      <trkpt lat="47.31521" lon="-2.2592">
        <ele>3.2000000476837</ele>
        <time>2021-09-05T07:07:38.000Z</time>
      </trkpt>
      <trkpt lat="47.31545" lon="-2.25883">
        <ele>3.2000000476837</ele>
        <time>2021-09-05T07:07:44.000Z</time>
      </trkpt>
      <trkpt lat="47.31554" lon="-2.25873">
        <ele>3.2000000476837</ele>
        <time>2021-09-05T07:07:46.000Z</time>
      </trkpt>
      <trkpt lat="47.31564" lon="-2.2587">
        <ele>3.2000000476837</ele>
        <time>2021-09-05T07:07:48.000Z</time>
      </trkpt>
      <trkpt lat="47.31578" lon="-2.25855">
        <ele>3.2000000476837</ele>
        <time>2021-09-05T07:07:52.000Z</time>
      </trkpt>
      <trkpt lat="47.31586" lon="-2.25839">
        <ele>3.2000000476837</ele>
        <time>2021-09-05T07:07:55.000Z</time>
      </trkpt>
      <trkpt lat="47.31598" lon="-2.25818">
        <ele>3.2000000476837</ele>
        <time>2021-09-05T07:07:59.000Z</time>
      </trkpt>
      <trkpt lat="47.31612" lon="-2.25813">
        <ele>3.2000000476837</ele>
        <time>2021-09-05T07:08:02.000Z</time>
      </trkpt>
      <trkpt lat="47.31628" lon="-2.25806">
        <ele>3.2000000476837</ele>
        <time>2021-09-05T07:08:05.000Z</time>
      </trkpt>
      <trkpt lat="47.31638" lon="-2.25802">
        <ele>3.2000000476837</ele>
        <time>2021-09-05T07:08:07.000Z</time>
      </trkpt>
      <trkpt lat="47.3168" lon="-2.25795">
        <ele>3.2000000476837</ele>
        <time>2021-09-05T07:08:15.000Z</time>
      </trkpt>
      <trkpt lat="47.3169" lon="-2.25794">
        <ele>3.2000000476837</ele>
        <time>2021-09-05T07:08:17.000Z</time>
      </trkpt>
      <trkpt lat="47.31706" lon="-2.25794">
        <ele>3.2000000476837</ele>
        <time>2021-09-05T07:08:20.000Z</time>
      </trkpt>
      <trkpt lat="47.31716" lon="-2.25792">
        <ele>3.2000000476837</ele>
        <time>2021-09-05T07:08:22.000Z</time>
      </trkpt>
      <trkpt lat="47.31727" lon="-2.2579">
        <ele>3.2000000476837</ele>
        <time>2021-09-05T07:08:25.000Z</time>
      </trkpt>
      <trkpt lat="47.31751" lon="-2.25781">
        <ele>3.2000000476837</ele>
        <time>2021-09-05T07:08:30.000Z</time>
      </trkpt>
      <trkpt lat="47.31756" lon="-2.25778">
        <ele>3.2000000476837</ele>
        <time>2021-09-05T07:08:31.000Z</time>
      </trkpt>
      <trkpt lat="47.31766" lon="-2.25774">
        <ele>3.2000000476837</ele>
        <time>2021-09-05T07:08:33.000Z</time>
      </trkpt>
      <trkpt lat="47.31776" lon="-2.2577">
        <ele>3.2000000476837</ele>
        <time>2021-09-05T07:08:35.000Z</time>
      </trkpt>
      <trkpt lat="47.31791" lon="-2.25766">
        <ele>3.2000000476837</ele>
        <time>2021-09-05T07:08:38.000Z</time>
      </trkpt>
      <trkpt lat="47.31806" lon="-2.2576">
        <ele>3.2000000476837</ele>
        <time>2021-09-05T07:08:41.000Z</time>
      </trkpt>
      <trkpt lat="47.31844" lon="-2.25746">
        <ele>3.2000000476837</ele>
        <time>2021-09-05T07:08:48.000Z</time>
      </trkpt>
      <trkpt lat="47.31871" lon="-2.25736">
        <ele>3.2000000476837</ele>
        <time>2021-09-05T07:08:54.000Z</time>
      </trkpt>
      <trkpt lat="47.31889" lon="-2.25727">
        <ele>3.2000000476837</ele>
        <time>2021-09-05T07:08:58.000Z</time>
      </trkpt>
      <trkpt lat="47.31902" lon="-2.25721">
        <ele>3.2000000476837</ele>
        <time>2021-09-05T07:09:01.000Z</time>
      </trkpt>
      <trkpt lat="47.31931" lon="-2.25708">
        <ele>3.2000000476837</ele>
        <time>2021-09-05T07:09:07.000Z</time>
      </trkpt>
      <trkpt lat="47.31936" lon="-2.25707">
        <ele>3.2000000476837</ele>
        <time>2021-09-05T07:09:08.000Z</time>
      </trkpt>
      <trkpt lat="47.31956" lon="-2.2571">
        <ele>3.2000000476837</ele>
        <time>2021-09-05T07:09:12.000Z</time>
      </trkpt>
      <trkpt lat="47.31995" lon="-2.25727">
        <ele>3.2000000476837</ele>
        <time>2021-09-05T07:09:20.000Z</time>
      </trkpt>
      <trkpt lat="47.32029" lon="-2.25742">
        <ele>3.2000000476837</ele>
        <time>2021-09-05T07:09:27.000Z</time>
      </trkpt>
      <trkpt lat="47.32054" lon="-2.25752">
        <ele>3.2000000476837</ele>
        <time>2021-09-05T07:09:33.000Z</time>
      </trkpt>
      <trkpt lat="47.32071" lon="-2.25752">
        <ele>3.2000000476837</ele>
        <time>2021-09-05T07:09:39.000Z</time>
      </trkpt>
      <trkpt lat="47.32085" lon="-2.25746">
        <ele>3.2000000476837</ele>
        <time>2021-09-05T07:09:47.000Z</time>
      </trkpt>
      <trkpt lat="47.32086" lon="-2.25746">
        <ele>3.2000000476837</ele>
        <time>2021-09-05T07:09:49.000Z</time>
      </trkpt>
      <trkpt lat="47.32102" lon="-2.25776">
        <ele>3.2000000476837</ele>
        <time>2021-09-05T07:13:22.000Z</time>
      </trkpt>
      <trkpt lat="47.32104" lon="-2.25778">
        <ele>3.2000000476837</ele>
        <time>2021-09-05T07:13:23.000Z</time>
      </trkpt>
      <trkpt lat="47.32117" lon="-2.25792">
        <ele>3.2000000476837</ele>
        <time>2021-09-05T07:13:28.000Z</time>
      </trkpt>
      <trkpt lat="47.32132" lon="-2.25804">
        <ele>3.2000000476837</ele>
        <time>2021-09-05T07:13:33.000Z</time>
      </trkpt>
      <trkpt lat="47.32148" lon="-2.25814">
        <ele>3.2000000476837</ele>
        <time>2021-09-05T07:13:38.000Z</time>
      </trkpt>
      <trkpt lat="47.32163" lon="-2.25824">
        <ele>3.2000000476837</ele>
        <time>2021-09-05T07:13:42.000Z</time>
      </trkpt>
      <trkpt lat="47.32188" lon="-2.25844">
        <ele>3.2000000476837</ele>
        <time>2021-09-05T07:13:48.000Z</time>
      </trkpt>
      <trkpt lat="47.32214" lon="-2.25865">
        <ele>3.2000000476837</ele>
        <time>2021-09-05T07:13:54.000Z</time>
      </trkpt>
      <trkpt lat="47.32223" lon="-2.25869">
        <ele>3.2000000476837</ele>
        <time>2021-09-05T07:13:56.000Z</time>
      </trkpt>
      <trkpt lat="47.32232" lon="-2.25877">
        <ele>3.2000000476837</ele>
        <time>2021-09-05T07:13:58.000Z</time>
      </trkpt>
      <trkpt lat="47.32242" lon="-2.25883">
        <ele>3.2000000476837</ele>
        <time>2021-09-05T07:14:00.000Z</time>
      </trkpt>
      <trkpt lat="47.32258" lon="-2.25894">
        <ele>3.2000000476837</ele>
        <time>2021-09-05T07:14:03.000Z</time>
      </trkpt>
      <trkpt lat="47.32291" lon="-2.25926">
        <ele>3.2000000476837</ele>
        <time>2021-09-05T07:14:10.000Z</time>
      </trkpt>
      <trkpt lat="47.32318" lon="-2.2595">
        <ele>3.2000000476837</ele>
        <time>2021-09-05T07:14:16.000Z</time>
      </trkpt>
      <trkpt lat="47.32335" lon="-2.25964">
        <ele>3.2000000476837</ele>
        <time>2021-09-05T07:14:20.000Z</time>
      </trkpt>
      <trkpt lat="47.32343" lon="-2.25975">
        <ele>3.2000000476837</ele>
        <time>2021-09-05T07:14:22.000Z</time>
      </trkpt>
      <trkpt lat="47.32347" lon="-2.25979">
        <ele>3.2000000476837</ele>
        <time>2021-09-05T07:14:23.000Z</time>
      </trkpt>
      <trkpt lat="47.32369" lon="-2.25999">
        <ele>3.2000000476837</ele>
        <time>2021-09-05T07:14:28.000Z</time>
      </trkpt>
      <trkpt lat="47.32404" lon="-2.26034">
        <ele>3.2000000476837</ele>
        <time>2021-09-05T07:14:36.000Z</time>
      </trkpt>
      <trkpt lat="47.32431" lon="-2.26056">
        <ele>3.2000000476837</ele>
        <time>2021-09-05T07:14:42.000Z</time>
      </trkpt>
      <trkpt lat="47.32455" lon="-2.26064">
        <ele>3.2000000476837</ele>
        <time>2021-09-05T07:14:47.000Z</time>
      </trkpt>
      <trkpt lat="47.32461" lon="-2.26063">
        <ele>3.2000000476837</ele>
        <time>2021-09-05T07:14:48.000Z</time>
      </trkpt>
      <trkpt lat="47.32475" lon="-2.26051">
        <ele>3.2000000476837</ele>
        <time>2021-09-05T07:14:51.000Z</time>
      </trkpt>
      <trkpt lat="47.32479" lon="-2.26048">
        <ele>3.2000000476837</ele>
        <time>2021-09-05T07:14:52.000Z</time>
      </trkpt>
      <trkpt lat="47.32507" lon="-2.26027">
        <ele>3.2000000476837</ele>
        <time>2021-09-05T07:14:58.000Z</time>
      </trkpt>
      <trkpt lat="47.3251" lon="-2.26024">
        <ele>3.2000000476837</ele>
        <time>2021-09-05T07:14:59.000Z</time>
      </trkpt>
      <trkpt lat="47.32523" lon="-2.26012">
        <ele>3.2000000476837</ele>
        <time>2021-09-05T07:15:03.000Z</time>
      </trkpt>
      <trkpt lat="47.32537" lon="-2.25999">
        <ele>3.2000000476837</ele>
        <time>2021-09-05T07:15:09.000Z</time>
      </trkpt>
      <trkpt lat="47.32551" lon="-2.25989">
        <ele>3.2000000476837</ele>
        <time>2021-09-05T07:15:17.000Z</time>
      </trkpt>
      <trkpt lat="47.32561" lon="-2.25981">
        <ele>3.2000000476837</ele>
        <time>2021-09-05T07:15:23.000Z</time>
      </trkpt>
      <trkpt lat="47.32573" lon="-2.25971">
        <ele>3.2000000476837</ele>
        <time>2021-09-05T07:15:30.000Z</time>
      </trkpt>
      <trkpt lat="47.32579" lon="-2.25971">
        <ele>2.7999999523163</ele>
        <time>2021-09-05T07:15:34.000Z</time>
      </trkpt>
      <trkpt lat="47.32581" lon="-2.25971">
        <ele>2.4000000953674</ele>
        <time>2021-09-05T07:15:35.000Z</time>
      </trkpt>
      <trkpt lat="47.32582" lon="-2.2597">
        <ele>2</ele>
        <time>2021-09-05T07:15:36.000Z</time>
      </trkpt>
      <trkpt lat="47.32583" lon="-2.25969">
        <ele>1.6000000238419</ele>
        <time>2021-09-05T07:15:37.000Z</time>
      </trkpt>
      <trkpt lat="47.32584" lon="-2.2597">
        <ele>1.2000000476837</ele>
        <time>2021-09-05T07:15:38.000Z</time>
      </trkpt>
      <trkpt lat="47.32588" lon="-2.25972">
        <ele>1.2000000476837</ele>
        <time>2021-09-05T07:15:41.000Z</time>
      </trkpt>
      <trkpt lat="47.32588" lon="-2.25971">
        <ele>1.2000000476837</ele>
        <time>2021-09-05T07:15:43.000Z</time>
      </trkpt>
      <trkpt lat="47.326" lon="-2.25998">
        <ele>3.2000000476837</ele>
        <time>2021-09-05T07:18:18.000Z</time>
      </trkpt>
      <trkpt lat="47.326" lon="-2.25999">
        <ele>3.2000000476837</ele>
        <time>2021-09-05T07:18:19.000Z</time>
      </trkpt>
      <trkpt lat="47.32601" lon="-2.26004">
        <ele>3.2000000476837</ele>
        <time>2021-09-05T07:18:22.000Z</time>
      </trkpt>
      <trkpt lat="47.32601" lon="-2.26006">
        <ele>2.7999999523163</ele>
        <time>2021-09-05T07:18:24.000Z</time>
      </trkpt>
      <trkpt lat="47.32601" lon="-2.26006">
        <ele>2.4000000953674</ele>
        <time>2021-09-05T07:18:25.000Z</time>
      </trkpt>
      <trkpt lat="47.32601" lon="-2.26011">
        <ele>1.2000000476837</ele>
        <time>2021-09-05T07:18:42.000Z</time>
      </trkpt>
      <trkpt lat="47.32599" lon="-2.26026">
        <ele>1.2000000476837</ele>
        <time>2021-09-05T07:18:48.000Z</time>
      </trkpt>
      <trkpt lat="47.32602" lon="-2.2605">
        <ele>1.2000000476837</ele>
        <time>2021-09-05T07:18:54.000Z</time>
      </trkpt>
      <trkpt lat="47.32609" lon="-2.26079">
        <ele>1.2000000476837</ele>
        <time>2021-09-05T07:19:00.000Z</time>
      </trkpt>
      <trkpt lat="47.32611" lon="-2.261">
        <ele>1.2000000476837</ele>
        <time>2021-09-05T07:19:05.000Z</time>
      </trkpt>
      <trkpt lat="47.32613" lon="-2.26134">
        <ele>1.2000000476837</ele>
        <time>2021-09-05T07:19:12.000Z</time>
      </trkpt>
      <trkpt lat="47.32612" lon="-2.26162">
        <ele>1.2000000476837</ele>
        <time>2021-09-05T07:19:17.000Z</time>
      </trkpt>
      <trkpt lat="47.32613" lon="-2.26169">
        <ele>1.2000000476837</ele>
        <time>2021-09-05T07:19:18.000Z</time>
      </trkpt>
      <trkpt lat="47.32615" lon="-2.2619">
        <ele>1.2000000476837</ele>
        <time>2021-09-05T07:19:21.000Z</time>
      </trkpt>
      <trkpt lat="47.32616" lon="-2.26197">
        <ele>1.2000000476837</ele>
        <time>2021-09-05T07:19:22.000Z</time>
      </trkpt>
      <trkpt lat="47.32617" lon="-2.26205">
        <ele>1.2000000476837</ele>
        <time>2021-09-05T07:19:23.000Z</time>
      </trkpt>
      <trkpt lat="47.32622" lon="-2.26234">
        <ele>1.2000000476837</ele>
        <time>2021-09-05T07:19:27.000Z</time>
      </trkpt>
      <trkpt lat="47.32628" lon="-2.26287">
        <ele>1.2000000476837</ele>
        <time>2021-09-05T07:19:34.000Z</time>
      </trkpt>
      <trkpt lat="47.32636" lon="-2.26352">
        <ele>1.2000000476837</ele>
        <time>2021-09-05T07:19:43.000Z</time>
      </trkpt>
      <trkpt lat="47.32641" lon="-2.26378">
        <ele>1.2000000476837</ele>
        <time>2021-09-05T07:19:48.000Z</time>
      </trkpt>
      <trkpt lat="47.32643" lon="-2.26385">
        <ele>1.2000000476837</ele>
        <time>2021-09-05T07:19:53.000Z</time>
      </trkpt>
      <trkpt lat="47.32643" lon="-2.26386">
        <ele>1.2000000476837</ele>
        <time>2021-09-05T07:19:54.000Z</time>
      </trkpt>
      <trkpt lat="47.32644" lon="-2.26392">
        <ele>1.2000000476837</ele>
        <time>2021-09-05T07:20:04.000Z</time>
      </trkpt>
      <trkpt lat="47.32643" lon="-2.264">
        <ele>1.2000000476837</ele>
        <time>2021-09-05T07:20:06.000Z</time>
      </trkpt>
      <trkpt lat="47.3264" lon="-2.26424">
        <ele>1.2000000476837</ele>
        <time>2021-09-05T07:20:11.000Z</time>
      </trkpt>
      <trkpt lat="47.32636" lon="-2.26434">
        <ele>1.2000000476837</ele>
        <time>2021-09-05T07:20:13.000Z</time>
      </trkpt>
      <trkpt lat="47.32627" lon="-2.2645">
        <ele>1.2000000476837</ele>
        <time>2021-09-05T07:20:16.000Z</time>
      </trkpt>
      <trkpt lat="47.32609" lon="-2.26496">
        <ele>1.2000000476837</ele>
        <time>2021-09-05T07:20:24.000Z</time>
      </trkpt>
      <trkpt lat="47.32594" lon="-2.26535">
        <ele>1.2000000476837</ele>
        <time>2021-09-05T07:20:30.000Z</time>
      </trkpt>
      <trkpt lat="47.32589" lon="-2.26548">
        <ele>1.2000000476837</ele>
        <time>2021-09-05T07:20:32.000Z</time>
      </trkpt>
      <trkpt lat="47.32583" lon="-2.26567">
        <ele>1.2000000476837</ele>
        <time>2021-09-05T07:20:35.000Z</time>
      </trkpt>
      <trkpt lat="47.32565" lon="-2.26619">
        <ele>1.2000000476837</ele>
        <time>2021-09-05T07:20:43.000Z</time>
      </trkpt>
      <trkpt lat="47.3255" lon="-2.26661">
        <ele>1.2000000476837</ele>
        <time>2021-09-05T07:20:49.000Z</time>
      </trkpt>
      <trkpt lat="47.32539" lon="-2.26704">
        <ele>1.2000000476837</ele>
        <time>2021-09-05T07:20:55.000Z</time>
      </trkpt>
      <trkpt lat="47.32529" lon="-2.26747">
        <ele>1.2000000476837</ele>
        <time>2021-09-05T07:21:01.000Z</time>
      </trkpt>
      <trkpt lat="47.32522" lon="-2.26782">
        <ele>1.2000000476837</ele>
        <time>2021-09-05T07:21:06.000Z</time>
      </trkpt>
      <trkpt lat="47.3252" lon="-2.26796">
        <ele>1.2000000476837</ele>
        <time>2021-09-05T07:21:08.000Z</time>
      </trkpt>
      <trkpt lat="47.32518" lon="-2.26839">
        <ele>1.2000000476837</ele>
        <time>2021-09-05T07:21:14.000Z</time>
      </trkpt>
      <trkpt lat="47.32519" lon="-2.26847">
        <ele>1.2000000476837</ele>
        <time>2021-09-05T07:21:15.000Z</time>
      </trkpt>
      <trkpt lat="47.32523" lon="-2.2687">
        <ele>1.2000000476837</ele>
        <time>2021-09-05T07:21:18.000Z</time>
      </trkpt>
      <trkpt lat="47.3253" lon="-2.26892">
        <ele>1.2000000476837</ele>
        <time>2021-09-05T07:21:21.000Z</time>
      </trkpt>
      <trkpt lat="47.32533" lon="-2.26899">
        <ele>1.2000000476837</ele>
        <time>2021-09-05T07:21:22.000Z</time>
      </trkpt>
      <trkpt lat="47.32546" lon="-2.26925">
        <ele>1.2000000476837</ele>
        <time>2021-09-05T07:21:26.000Z</time>
      </trkpt>
      <trkpt lat="47.32564" lon="-2.26959">
        <ele>1.2000000476837</ele>
        <time>2021-09-05T07:21:32.000Z</time>
      </trkpt>
      <trkpt lat="47.32572" lon="-2.26974">
        <ele>1.2000000476837</ele>
        <time>2021-09-05T07:21:35.000Z</time>
      </trkpt>
      <trkpt lat="47.32578" lon="-2.26984">
        <ele>1.2000000476837</ele>
        <time>2021-09-05T07:21:37.000Z</time>
      </trkpt>
      <trkpt lat="47.32599" lon="-2.27018">
        <ele>1.2000000476837</ele>
        <time>2021-09-05T07:21:43.000Z</time>
      </trkpt>
      <trkpt lat="47.32617" lon="-2.27046">
        <ele>1.2000000476837</ele>
        <time>2021-09-05T07:21:48.000Z</time>
      </trkpt>
      <trkpt lat="47.32621" lon="-2.2706">
        <ele>1.2000000476837</ele>
        <time>2021-09-05T07:21:50.000Z</time>
      </trkpt>
      <trkpt lat="47.32618" lon="-2.27079">
        <ele>1.2000000476837</ele>
        <time>2021-09-05T07:21:53.000Z</time>
      </trkpt>
      <trkpt lat="47.32614" lon="-2.2709">
        <ele>1.2000000476837</ele>
        <time>2021-09-05T07:21:55.000Z</time>
      </trkpt>
      <trkpt lat="47.32607" lon="-2.27111">
        <ele>1.2000000476837</ele>
        <time>2021-09-05T07:21:59.000Z</time>
      </trkpt>
      <trkpt lat="47.32598" lon="-2.27143">
        <ele>1.2000000476837</ele>
        <time>2021-09-05T07:22:05.000Z</time>
      </trkpt>
      <trkpt lat="47.32597" lon="-2.27163">
        <ele>1.2000000476837</ele>
        <time>2021-09-05T07:22:08.000Z</time>
      </trkpt>
      <trkpt lat="47.32598" lon="-2.27176">
        <ele>1.2000000476837</ele>
        <time>2021-09-05T07:22:10.000Z</time>
      </trkpt>
      <trkpt lat="47.32601" lon="-2.27195">
        <ele>1.2000000476837</ele>
        <time>2021-09-05T07:22:15.000Z</time>
      </trkpt>
      <trkpt lat="47.32601" lon="-2.27214">
        <ele>1.2000000476837</ele>
        <time>2021-09-05T07:22:21.000Z</time>
      </trkpt>
      <trkpt lat="47.326" lon="-2.2723">
        <ele>1.2000000476837</ele>
        <time>2021-09-05T07:22:27.000Z</time>
      </trkpt>
      <trkpt lat="47.326" lon="-2.27243">
        <ele>1.2000000476837</ele>
        <time>2021-09-05T07:22:31.000Z</time>
      </trkpt>
      <trkpt lat="47.32596" lon="-2.27275">
        <ele>1.2000000476837</ele>
        <time>2021-09-05T07:22:36.000Z</time>
      </trkpt>
      <trkpt lat="47.32592" lon="-2.27323">
        <ele>1.2000000476837</ele>
        <time>2021-09-05T07:22:43.000Z</time>
      </trkpt>
      <trkpt lat="47.3259" lon="-2.27337">
        <ele>1.2000000476837</ele>
        <time>2021-09-05T07:22:45.000Z</time>
      </trkpt>
      <trkpt lat="47.32586" lon="-2.27378">
        <ele>1.2000000476837</ele>
        <time>2021-09-05T07:22:51.000Z</time>
      </trkpt>
      <trkpt lat="47.32585" lon="-2.27419">
        <ele>1.2000000476837</ele>
        <time>2021-09-05T07:22:57.000Z</time>
      </trkpt>
      <trkpt lat="47.32584" lon="-2.2744">
        <ele>1.2000000476837</ele>
        <time>2021-09-05T07:23:00.000Z</time>
      </trkpt>
      <trkpt lat="47.3258" lon="-2.27467">
        <ele>1.2000000476837</ele>
        <time>2021-09-05T07:23:04.000Z</time>
      </trkpt>
      <trkpt lat="47.32574" lon="-2.27501">
        <ele>1.2000000476837</ele>
        <time>2021-09-05T07:23:09.000Z</time>
      </trkpt>
      <trkpt lat="47.32572" lon="-2.27506">
        <ele>1.2000000476837</ele>
        <time>2021-09-05T07:23:10.000Z</time>
      </trkpt>
      <trkpt lat="47.32558" lon="-2.27523">
        <ele>1.2000000476837</ele>
        <time>2021-09-05T07:23:14.000Z</time>
      </trkpt>
      <trkpt lat="47.3255" lon="-2.27531">
        <ele>1.2000000476837</ele>
        <time>2021-09-05T07:23:16.000Z</time>
      </trkpt>
      <trkpt lat="47.32518" lon="-2.27557">
        <ele>1.2000000476837</ele>
        <time>2021-09-05T07:23:23.000Z</time>
      </trkpt>
      <trkpt lat="47.32505" lon="-2.27568">
        <ele>1.2000000476837</ele>
        <time>2021-09-05T07:23:26.000Z</time>
      </trkpt>
      <trkpt lat="47.32496" lon="-2.27571">
        <ele>1.2000000476837</ele>
        <time>2021-09-05T07:23:28.000Z</time>
      </trkpt>
      <trkpt lat="47.32482" lon="-2.27573">
        <ele>1.2000000476837</ele>
        <time>2021-09-05T07:23:31.000Z</time>
      </trkpt>
      <trkpt lat="47.32472" lon="-2.27572">
        <ele>1.2000000476837</ele>
        <time>2021-09-05T07:23:33.000Z</time>
      </trkpt>
      <trkpt lat="47.32467" lon="-2.2757">
        <ele>1.2000000476837</ele>
        <time>2021-09-05T07:23:34.000Z</time>
      </trkpt>
      <trkpt lat="47.32453" lon="-2.27562">
        <ele>1.2000000476837</ele>
        <time>2021-09-05T07:23:37.000Z</time>
      </trkpt>
      <trkpt lat="47.32433" lon="-2.2755">
        <ele>1.2000000476837</ele>
        <time>2021-09-05T07:23:41.000Z</time>
      </trkpt>
      <trkpt lat="47.32428" lon="-2.27548">
        <ele>1.2000000476837</ele>
        <time>2021-09-05T07:23:42.000Z</time>
      </trkpt>
      <trkpt lat="47.32414" lon="-2.27553">
        <ele>1.2000000476837</ele>
        <time>2021-09-05T07:23:45.000Z</time>
      </trkpt>
      <trkpt lat="47.32406" lon="-2.27571">
        <ele>1.2000000476837</ele>
        <time>2021-09-05T07:23:48.000Z</time>
      </trkpt>
      <trkpt lat="47.3241" lon="-2.276">
        <ele>1.2000000476837</ele>
        <time>2021-09-05T07:23:52.000Z</time>
      </trkpt>
      <trkpt lat="47.32412" lon="-2.27606">
        <ele>1.2000000476837</ele>
        <time>2021-09-05T07:23:53.000Z</time>
      </trkpt>
      <trkpt lat="47.32422" lon="-2.27629">
        <ele>1.2000000476837</ele>
        <time>2021-09-05T07:23:57.000Z</time>
      </trkpt>
      <trkpt lat="47.32424" lon="-2.27635">
        <ele>1.2000000476837</ele>
        <time>2021-09-05T07:23:58.000Z</time>
      </trkpt>
      <trkpt lat="47.32431" lon="-2.27655">
        <ele>1.2000000476837</ele>
        <time>2021-09-05T07:24:01.000Z</time>
      </trkpt>
      <trkpt lat="47.32434" lon="-2.27669">
        <ele>1.2000000476837</ele>
        <time>2021-09-05T07:24:03.000Z</time>
      </trkpt>
      <trkpt lat="47.32434" lon="-2.27693">
        <ele>1.2000000476837</ele>
        <time>2021-09-05T07:24:07.000Z</time>
      </trkpt>
      <trkpt lat="47.32435" lon="-2.27724">
        <ele>1.2000000476837</ele>
        <time>2021-09-05T07:24:12.000Z</time>
      </trkpt>
      <trkpt lat="47.32436" lon="-2.27756">
        <ele>1.2000000476837</ele>
        <time>2021-09-05T07:24:17.000Z</time>
      </trkpt>
      <trkpt lat="47.32437" lon="-2.27773">
        <ele>1.2000000476837</ele>
        <time>2021-09-05T07:24:21.000Z</time>
      </trkpt>
      <trkpt lat="47.32441" lon="-2.27785">
        <ele>1.2000000476837</ele>
        <time>2021-09-05T07:24:26.000Z</time>
      </trkpt>
      <trkpt lat="47.3244" lon="-2.27798">
        <ele>1.2000000476837</ele>
        <time>2021-09-05T07:24:32.000Z</time>
      </trkpt>
      <trkpt lat="47.3244" lon="-2.27799">
        <ele>1.2000000476837</ele>
        <time>2021-09-05T07:24:33.000Z</time>
      </trkpt>
      <trkpt lat="47.32448" lon="-2.27786">
        <ele>1.2000000476837</ele>
        <time>2021-09-05T07:31:19.000Z</time>
      </trkpt>
      <trkpt lat="47.32452" lon="-2.2778">
        <ele>1.2000000476837</ele>
        <time>2021-09-05T07:31:21.000Z</time>
      </trkpt>
      <trkpt lat="47.32467" lon="-2.27764">
        <ele>1.2000000476837</ele>
        <time>2021-09-05T07:31:27.000Z</time>
      </trkpt>
      <trkpt lat="47.32479" lon="-2.27765">
        <ele>1.2000000476837</ele>
        <time>2021-09-05T07:31:31.000Z</time>
      </trkpt>
      <trkpt lat="47.32493" lon="-2.27782">
        <ele>1.2000000476837</ele>
        <time>2021-09-05T07:31:36.000Z</time>
      </trkpt>
      <trkpt lat="47.32516" lon="-2.27813">
        <ele>1.2000000476837</ele>
        <time>2021-09-05T07:31:43.000Z</time>
      </trkpt>
      <trkpt lat="47.32519" lon="-2.27818">
        <ele>1.2000000476837</ele>
        <time>2021-09-05T07:31:44.000Z</time>
      </trkpt>
      <trkpt lat="47.32531" lon="-2.2784">
        <ele>1.2000000476837</ele>
        <time>2021-09-05T07:31:48.000Z</time>
      </trkpt>
      <trkpt lat="47.3254" lon="-2.27863">
        <ele>1.2000000476837</ele>
        <time>2021-09-05T07:31:52.000Z</time>
      </trkpt>
      <trkpt lat="47.32543" lon="-2.27875">
        <ele>1.2000000476837</ele>
        <time>2021-09-05T07:31:54.000Z</time>
      </trkpt>
      <trkpt lat="47.32549" lon="-2.279">
        <ele>1.2000000476837</ele>
        <time>2021-09-05T07:31:58.000Z</time>
      </trkpt>
      <trkpt lat="47.32551" lon="-2.27912">
        <ele>1.2000000476837</ele>
        <time>2021-09-05T07:32:00.000Z</time>
      </trkpt>
      <trkpt lat="47.32559" lon="-2.27956">
        <ele>1.2000000476837</ele>
        <time>2021-09-05T07:32:07.000Z</time>
      </trkpt>
      <trkpt lat="47.3256" lon="-2.27962">
        <ele>1.2000000476837</ele>
        <time>2021-09-05T07:32:08.000Z</time>
      </trkpt>
      <trkpt lat="47.32565" lon="-2.2798">
        <ele>1.2000000476837</ele>
        <time>2021-09-05T07:32:11.000Z</time>
      </trkpt>
      <trkpt lat="47.32565" lon="-2.27986">
        <ele>1.2000000476837</ele>
        <time>2021-09-05T07:32:12.000Z</time>
      </trkpt>
      <trkpt lat="47.3257" lon="-2.28017">
        <ele>1.2000000476837</ele>
        <time>2021-09-05T07:32:17.000Z</time>
      </trkpt>
      <trkpt lat="47.32576" lon="-2.28041">
        <ele>1.2000000476837</ele>
        <time>2021-09-05T07:32:21.000Z</time>
      </trkpt>
      <trkpt lat="47.32579" lon="-2.28052">
        <ele>1.2000000476837</ele>
        <time>2021-09-05T07:32:23.000Z</time>
      </trkpt>
      <trkpt lat="47.32586" lon="-2.28086">
        <ele>1.2000000476837</ele>
        <time>2021-09-05T07:32:29.000Z</time>
      </trkpt>
      <trkpt lat="47.3259" lon="-2.28103">
        <ele>1.2000000476837</ele>
        <time>2021-09-05T07:32:32.000Z</time>
      </trkpt>
      <trkpt lat="47.32594" lon="-2.2812">
        <ele>1.2000000476837</ele>
        <time>2021-09-05T07:32:35.000Z</time>
      </trkpt>
      <trkpt lat="47.32603" lon="-2.28157">
        <ele>1.2000000476837</ele>
        <time>2021-09-05T07:32:42.000Z</time>
      </trkpt>
      <trkpt lat="47.32611" lon="-2.28192">
        <ele>1.2000000476837</ele>
        <time>2021-09-05T07:32:49.000Z</time>
      </trkpt>
      <trkpt lat="47.32618" lon="-2.28232">
        <ele>1.2000000476837</ele>
        <time>2021-09-05T07:32:57.000Z</time>
      </trkpt>
      <trkpt lat="47.32626" lon="-2.28266">
        <ele>1.2000000476837</ele>
        <time>2021-09-05T07:33:04.000Z</time>
      </trkpt>
      <trkpt lat="47.32631" lon="-2.2827">
        <ele>1.2000000476837</ele>
        <time>2021-09-05T07:33:07.000Z</time>
      </trkpt>
      <trkpt lat="47.32639" lon="-2.28265">
        <ele>1.2000000476837</ele>
        <time>2021-09-05T07:33:12.000Z</time>
      </trkpt>
      <trkpt lat="47.32647" lon="-2.28248">
        <ele>1.2000000476837</ele>
        <time>2021-09-05T07:33:18.000Z</time>
      </trkpt>
      <trkpt lat="47.3265" lon="-2.28241">
        <ele>1.2000000476837</ele>
        <time>2021-09-05T07:33:23.000Z</time>
      </trkpt>
      <trkpt lat="47.32658" lon="-2.28243">
        <ele>1.2000000476837</ele>
        <time>2021-09-05T07:33:45.000Z</time>
      </trkpt>
      <trkpt lat="47.32661" lon="-2.28247">
        <ele>1.2000000476837</ele>
        <time>2021-09-05T07:33:47.000Z</time>
      </trkpt>
      <trkpt lat="47.32673" lon="-2.28262">
        <ele>1.2000000476837</ele>
        <time>2021-09-05T07:33:52.000Z</time>
      </trkpt>
      <trkpt lat="47.32685" lon="-2.28282">
        <ele>1.2000000476837</ele>
        <time>2021-09-05T07:33:58.000Z</time>
      </trkpt>
      <trkpt lat="47.32697" lon="-2.283">
        <ele>1.2000000476837</ele>
        <time>2021-09-05T07:34:05.000Z</time>
      </trkpt>
      <trkpt lat="47.32702" lon="-2.28304">
        <ele>1.2000000476837</ele>
        <time>2021-09-05T07:34:07.000Z</time>
      </trkpt>
      <trkpt lat="47.32708" lon="-2.28302">
        <ele>1.2000000476837</ele>
        <time>2021-09-05T07:34:09.000Z</time>
      </trkpt>
      <trkpt lat="47.32719" lon="-2.28287">
        <ele>1.2000000476837</ele>
        <time>2021-09-05T07:34:14.000Z</time>
      </trkpt>
      <trkpt lat="47.32728" lon="-2.28275">
        <ele>1.2000000476837</ele>
        <time>2021-09-05T07:34:17.000Z</time>
      </trkpt>
      <trkpt lat="47.32734" lon="-2.28267">
        <ele>1.2000000476837</ele>
        <time>2021-09-05T07:34:19.000Z</time>
      </trkpt>
      <trkpt lat="47.3276" lon="-2.28228">
        <ele>1.2000000476837</ele>
        <time>2021-09-05T07:34:27.000Z</time>
      </trkpt>
      <trkpt lat="47.32761" lon="-2.28211">
        <ele>1.2000000476837</ele>
        <time>2021-09-05T07:34:31.000Z</time>
      </trkpt>
      <trkpt lat="47.3276" lon="-2.28207">
        <ele>1.2000000476837</ele>
        <time>2021-09-05T07:34:34.000Z</time>
      </trkpt>
      <trkpt lat="47.32759" lon="-2.28203">
        <ele>1.2000000476837</ele>
        <time>2021-09-05T07:34:36.000Z</time>
      </trkpt>
      <trkpt lat="47.32758" lon="-2.28195">
        <ele>1.2000000476837</ele>
        <time>2021-09-05T07:34:40.000Z</time>
      </trkpt>
      <trkpt lat="47.3276" lon="-2.28191">
        <ele>1.2000000476837</ele>
        <time>2021-09-05T07:34:42.000Z</time>
      </trkpt>
      <trkpt lat="47.32762" lon="-2.28184">
        <ele>1.2000000476837</ele>
        <time>2021-09-05T07:34:44.000Z</time>
      </trkpt>
      <trkpt lat="47.32767" lon="-2.28175">
        <ele>1.2000000476837</ele>
        <time>2021-09-05T07:34:47.000Z</time>
      </trkpt>
      <trkpt lat="47.32783" lon="-2.28163">
        <ele>1.2000000476837</ele>
        <time>2021-09-05T07:34:52.000Z</time>
      </trkpt>
      <trkpt lat="47.32812" lon="-2.28147">
        <ele>1.2000000476837</ele>
        <time>2021-09-05T07:34:59.000Z</time>
      </trkpt>
      <trkpt lat="47.32841" lon="-2.28133">
        <ele>1.2000000476837</ele>
        <time>2021-09-05T07:35:06.000Z</time>
      </trkpt>
      <trkpt lat="47.3287" lon="-2.28119">
        <ele>1.2000000476837</ele>
        <time>2021-09-05T07:35:12.000Z</time>
      </trkpt>
      <trkpt lat="47.32901" lon="-2.28105">
        <ele>1.2000000476837</ele>
        <time>2021-09-05T07:35:18.000Z</time>
      </trkpt>
      <trkpt lat="47.3292" lon="-2.28095">
        <ele>1.2000000476837</ele>
        <time>2021-09-05T07:35:22.000Z</time>
      </trkpt>
      <trkpt lat="47.32925" lon="-2.28092">
        <ele>1.2000000476837</ele>
        <time>2021-09-05T07:35:23.000Z</time>
      </trkpt>
      <trkpt lat="47.32939" lon="-2.28086">
        <ele>1.2000000476837</ele>
        <time>2021-09-05T07:35:26.000Z</time>
      </trkpt>
      <trkpt lat="47.32952" lon="-2.28081">
        <ele>1.2000000476837</ele>
        <time>2021-09-05T07:35:29.000Z</time>
      </trkpt>
      <trkpt lat="47.3297" lon="-2.28074">
        <ele>1.2000000476837</ele>
        <time>2021-09-05T07:35:33.000Z</time>
      </trkpt>
      <trkpt lat="47.32974" lon="-2.28075">
        <ele>1.2000000476837</ele>
        <time>2021-09-05T07:35:34.000Z</time>
      </trkpt>
      <trkpt lat="47.32988" lon="-2.28078">
        <ele>1.2000000476837</ele>
        <time>2021-09-05T07:35:37.000Z</time>
      </trkpt>
      <trkpt lat="47.32992" lon="-2.28079">
        <ele>1.2000000476837</ele>
        <time>2021-09-05T07:35:38.000Z</time>
      </trkpt>
      <trkpt lat="47.32997" lon="-2.28078">
        <ele>1.2000000476837</ele>
        <time>2021-09-05T07:35:39.000Z</time>
      </trkpt>
      <trkpt lat="47.33012" lon="-2.28065">
        <ele>1.2000000476837</ele>
        <time>2021-09-05T07:35:43.000Z</time>
      </trkpt>
      <trkpt lat="47.33015" lon="-2.28059">
        <ele>1.2000000476837</ele>
        <time>2021-09-05T07:35:44.000Z</time>
      </trkpt>
      <trkpt lat="47.33024" lon="-2.2804">
        <ele>1.2000000476837</ele>
        <time>2021-09-05T07:35:47.000Z</time>
      </trkpt>
      <trkpt lat="47.3304" lon="-2.28013">
        <ele>1.2000000476837</ele>
        <time>2021-09-05T07:35:52.000Z</time>
      </trkpt>
      <trkpt lat="47.33044" lon="-2.28008">
        <ele>1.2000000476837</ele>
        <time>2021-09-05T07:35:53.000Z</time>
      </trkpt>
      <trkpt lat="47.33052" lon="-2.27991">
        <ele>1.2000000476837</ele>
        <time>2021-09-05T07:35:56.000Z</time>
      </trkpt>
      <trkpt lat="47.33058" lon="-2.27981">
        <ele>1.2000000476837</ele>
        <time>2021-09-05T07:35:58.000Z</time>
      </trkpt>
      <trkpt lat="47.33072" lon="-2.27963">
        <ele>1.2000000476837</ele>
        <time>2021-09-05T07:36:03.000Z</time>
      </trkpt>
      <trkpt lat="47.33081" lon="-2.27946">
        <ele>1.2000000476837</ele>
        <time>2021-09-05T07:36:08.000Z</time>
      </trkpt>
      <trkpt lat="47.33093" lon="-2.27929">
        <ele>1.2000000476837</ele>
        <time>2021-09-05T07:36:13.000Z</time>
      </trkpt>
      <trkpt lat="47.33105" lon="-2.27912">
        <ele>1.2000000476837</ele>
        <time>2021-09-05T07:36:17.000Z</time>
      </trkpt>
      <trkpt lat="47.33107" lon="-2.27907">
        <ele>1.2000000476837</ele>
        <time>2021-09-05T07:36:18.000Z</time>
      </trkpt>
      <trkpt lat="47.33106" lon="-2.27888">
        <ele>1.2000000476837</ele>
        <time>2021-09-05T07:36:21.000Z</time>
      </trkpt>
      <trkpt lat="47.33096" lon="-2.27876">
        <ele>1.2000000476837</ele>
        <time>2021-09-05T07:36:24.000Z</time>
      </trkpt>
      <trkpt lat="47.33091" lon="-2.27872">
        <ele>1.2000000476837</ele>
        <time>2021-09-05T07:36:25.000Z</time>
      </trkpt>
      <trkpt lat="47.33076" lon="-2.27862">
        <ele>1.2000000476837</ele>
        <time>2021-09-05T07:36:28.000Z</time>
      </trkpt>
      <trkpt lat="47.3307" lon="-2.27859">
        <ele>1.2000000476837</ele>
        <time>2021-09-05T07:36:29.000Z</time>
      </trkpt>
      <trkpt lat="47.33042" lon="-2.27843">
        <ele>1.2000000476837</ele>
        <time>2021-09-05T07:36:34.000Z</time>
      </trkpt>
      <trkpt lat="47.33016" lon="-2.27819">
        <ele>1.2000000476837</ele>
        <time>2021-09-05T07:36:39.000Z</time>
      </trkpt>
      <trkpt lat="47.33006" lon="-2.27809">
        <ele>1.2000000476837</ele>
        <time>2021-09-05T07:36:41.000Z</time>
      </trkpt>
      <trkpt lat="47.32999" lon="-2.27798">
        <ele>1.2000000476837</ele>
        <time>2021-09-05T07:36:43.000Z</time>
      </trkpt>
      <trkpt lat="47.32995" lon="-2.27792">
        <ele>1.2000000476837</ele>
        <time>2021-09-05T07:36:44.000Z</time>
      </trkpt>
      <trkpt lat="47.32984" lon="-2.27773">
        <ele>1.2000000476837</ele>
        <time>2021-09-05T07:36:47.000Z</time>
      </trkpt>
      <trkpt lat="47.32982" lon="-2.27766">
        <ele>1.2000000476837</ele>
        <time>2021-09-05T07:36:48.000Z</time>
      </trkpt>
      <trkpt lat="47.32976" lon="-2.27753">
        <ele>1.2000000476837</ele>
        <time>2021-09-05T07:36:50.000Z</time>
      </trkpt>
      <trkpt lat="47.32971" lon="-2.27739">
        <ele>1.2000000476837</ele>
        <time>2021-09-05T07:36:52.000Z</time>
      </trkpt>
      <trkpt lat="47.32969" lon="-2.27732">
        <ele>1.2000000476837</ele>
        <time>2021-09-05T07:36:53.000Z</time>
      </trkpt>
      <trkpt lat="47.32968" lon="-2.27724">
        <ele>1.2000000476837</ele>
        <time>2021-09-05T07:36:54.000Z</time>
      </trkpt>
      <trkpt lat="47.32962" lon="-2.27701">
        <ele>1.2000000476837</ele>
        <time>2021-09-05T07:36:57.000Z</time>
      </trkpt>
      <trkpt lat="47.32959" lon="-2.27677">
        <ele>1.2000000476837</ele>
        <time>2021-09-05T07:37:00.000Z</time>
      </trkpt>
      <trkpt lat="47.32958" lon="-2.27651">
        <ele>1.2000000476837</ele>
        <time>2021-09-05T07:37:03.000Z</time>
      </trkpt>
      <trkpt lat="47.32958" lon="-2.27643">
        <ele>1.2000000476837</ele>
        <time>2021-09-05T07:37:04.000Z</time>
      </trkpt>
      <trkpt lat="47.3296" lon="-2.27619">
        <ele>1.2000000476837</ele>
        <time>2021-09-05T07:37:07.000Z</time>
      </trkpt>
      <trkpt lat="47.32961" lon="-2.27611">
        <ele>1.2000000476837</ele>
        <time>2021-09-05T07:37:08.000Z</time>
      </trkpt>
      <trkpt lat="47.32971" lon="-2.27569">
        <ele>1.2000000476837</ele>
        <time>2021-09-05T07:37:13.000Z</time>
      </trkpt>
      <trkpt lat="47.32992" lon="-2.27506">
        <ele>1.2000000476837</ele>
        <time>2021-09-05T07:37:21.000Z</time>
      </trkpt>
      <trkpt lat="47.33011" lon="-2.27453">
        <ele>1.2000000476837</ele>
        <time>2021-09-05T07:37:28.000Z</time>
      </trkpt>
      <trkpt lat="47.33029" lon="-2.27396">
        <ele>1.2000000476837</ele>
        <time>2021-09-05T07:37:35.000Z</time>
      </trkpt>
      <trkpt lat="47.33052" lon="-2.27343">
        <ele>1.2000000476837</ele>
        <time>2021-09-05T07:37:42.000Z</time>
      </trkpt>
      <trkpt lat="47.33077" lon="-2.27292">
        <ele>1.2000000476837</ele>
        <time>2021-09-05T07:37:49.000Z</time>
      </trkpt>
      <trkpt lat="47.33098" lon="-2.27245">
        <ele>1.2000000476837</ele>
        <time>2021-09-05T07:37:56.000Z</time>
      </trkpt>
      <trkpt lat="47.3311" lon="-2.27221">
        <ele>1.2000000476837</ele>
        <time>2021-09-05T07:38:00.000Z</time>
      </trkpt>
      <trkpt lat="47.33132" lon="-2.27176">
        <ele>1.2000000476837</ele>
        <time>2021-09-05T07:38:07.000Z</time>
      </trkpt>
      <trkpt lat="47.33149" lon="-2.27131">
        <ele>1.2000000476837</ele>
        <time>2021-09-05T07:38:14.000Z</time>
      </trkpt>
      <trkpt lat="47.33159" lon="-2.27097">
        <ele>1.2000000476837</ele>
        <time>2021-09-05T07:38:19.000Z</time>
      </trkpt>
      <trkpt lat="47.33164" lon="-2.27083">
        <ele>1.2000000476837</ele>
        <time>2021-09-05T07:38:21.000Z</time>
      </trkpt>
      <trkpt lat="47.33182" lon="-2.27043">
        <ele>1.2000000476837</ele>
        <time>2021-09-05T07:38:27.000Z</time>
      </trkpt>
      <trkpt lat="47.33186" lon="-2.27037">
        <ele>1.2000000476837</ele>
        <time>2021-09-05T07:38:28.000Z</time>
      </trkpt>
      <trkpt lat="47.33203" lon="-2.27015">
        <ele>1.2000000476837</ele>
        <time>2021-09-05T07:38:32.000Z</time>
      </trkpt>
      <trkpt lat="47.33217" lon="-2.27002">
        <ele>1.2000000476837</ele>
        <time>2021-09-05T07:38:35.000Z</time>
      </trkpt>
      <trkpt lat="47.33226" lon="-2.26994">
        <ele>1.2000000476837</ele>
        <time>2021-09-05T07:38:37.000Z</time>
      </trkpt>
      <trkpt lat="47.33236" lon="-2.26989">
        <ele>1.2000000476837</ele>
        <time>2021-09-05T07:38:39.000Z</time>
      </trkpt>
      <trkpt lat="47.33242" lon="-2.26989">
        <ele>1.2000000476837</ele>
        <time>2021-09-05T07:38:40.000Z</time>
      </trkpt>
      <trkpt lat="47.33247" lon="-2.26988">
        <ele>1.2000000476837</ele>
        <time>2021-09-05T07:38:41.000Z</time>
      </trkpt>
      <trkpt lat="47.33257" lon="-2.26989">
        <ele>1.2000000476837</ele>
        <time>2021-09-05T07:38:43.000Z</time>
      </trkpt>
      <trkpt lat="47.33265" lon="-2.2699">
        <ele>1.2000000476837</ele>
        <time>2021-09-05T07:38:45.000Z</time>
      </trkpt>
      <trkpt lat="47.33279" lon="-2.26995">
        <ele>1.2000000476837</ele>
        <time>2021-09-05T07:38:48.000Z</time>
      </trkpt>
      <trkpt lat="47.33288" lon="-2.26997">
        <ele>1.2000000476837</ele>
        <time>2021-09-05T07:38:50.000Z</time>
      </trkpt>
      <trkpt lat="47.33307" lon="-2.27008">
        <ele>1.2000000476837</ele>
        <time>2021-09-05T07:38:55.000Z</time>
      </trkpt>
      <trkpt lat="47.33311" lon="-2.27009">
        <ele>1.2000000476837</ele>
        <time>2021-09-05T07:38:56.000Z</time>
      </trkpt>
      <trkpt lat="47.33325" lon="-2.27011">
        <ele>1.2000000476837</ele>
        <time>2021-09-05T07:38:59.000Z</time>
      </trkpt>
      <trkpt lat="47.33346" lon="-2.27006">
        <ele>1.2000000476837</ele>
        <time>2021-09-05T07:39:03.000Z</time>
      </trkpt>
      <trkpt lat="47.33351" lon="-2.27004">
        <ele>1.2000000476837</ele>
        <time>2021-09-05T07:39:04.000Z</time>
      </trkpt>
      <trkpt lat="47.33364" lon="-2.27002">
        <ele>1.2000000476837</ele>
        <time>2021-09-05T07:39:07.000Z</time>
      </trkpt>
      <trkpt lat="47.33368" lon="-2.27004">
        <ele>1.2000000476837</ele>
        <time>2021-09-05T07:39:08.000Z</time>
      </trkpt>
      <trkpt lat="47.33376" lon="-2.2702">
        <ele>1.2000000476837</ele>
        <time>2021-09-05T07:39:11.000Z</time>
      </trkpt>
      <trkpt lat="47.33378" lon="-2.27027">
        <ele>1.2000000476837</ele>
        <time>2021-09-05T07:39:12.000Z</time>
      </trkpt>
      <trkpt lat="47.33392" lon="-2.27061">
        <ele>1.2000000476837</ele>
        <time>2021-09-05T07:39:17.000Z</time>
      </trkpt>
      <trkpt lat="47.33412" lon="-2.27108">
        <ele>1.2000000476837</ele>
        <time>2021-09-05T07:39:24.000Z</time>
      </trkpt>
      <trkpt lat="47.33425" lon="-2.27155">
        <ele>1.2000000476837</ele>
        <time>2021-09-05T07:39:30.000Z</time>
      </trkpt>
      <trkpt lat="47.33426" lon="-2.27163">
        <ele>1.2000000476837</ele>
        <time>2021-09-05T07:39:31.000Z</time>
      </trkpt>
      <trkpt lat="47.33432" lon="-2.27197">
        <ele>1.2000000476837</ele>
        <time>2021-09-05T07:39:35.000Z</time>
      </trkpt>
      <trkpt lat="47.33439" lon="-2.27231">
        <ele>1.2000000476837</ele>
        <time>2021-09-05T07:39:39.000Z</time>
      </trkpt>
      <trkpt lat="47.33442" lon="-2.27248">
        <ele>1.2000000476837</ele>
        <time>2021-09-05T07:39:41.000Z</time>
      </trkpt>
      <trkpt lat="47.33452" lon="-2.27304">
        <ele>1.2000000476837</ele>
        <time>2021-09-05T07:39:48.000Z</time>
      </trkpt>
      <trkpt lat="47.33464" lon="-2.27361">
        <ele>1.2000000476837</ele>
        <time>2021-09-05T07:39:55.000Z</time>
      </trkpt>
      <trkpt lat="47.33472" lon="-2.27408">
        <ele>1.2000000476837</ele>
        <time>2021-09-05T07:40:01.000Z</time>
      </trkpt>
      <trkpt lat="47.33475" lon="-2.27432">
        <ele>1.2000000476837</ele>
        <time>2021-09-05T07:40:04.000Z</time>
      </trkpt>
      <trkpt lat="47.33478" lon="-2.27448">
        <ele>1.2000000476837</ele>
        <time>2021-09-05T07:40:06.000Z</time>
      </trkpt>
      <trkpt lat="47.33488" lon="-2.27499">
        <ele>1.2000000476837</ele>
        <time>2021-09-05T07:40:12.000Z</time>
      </trkpt>
      <trkpt lat="47.33497" lon="-2.27539">
        <ele>1.2000000476837</ele>
        <time>2021-09-05T07:40:18.000Z</time>
      </trkpt>
      <trkpt lat="47.33499" lon="-2.27553">
        <ele>1.2000000476837</ele>
        <time>2021-09-05T07:40:22.000Z</time>
      </trkpt>
      <trkpt lat="47.33496" lon="-2.27555">
        <ele>1.2000000476837</ele>
        <time>2021-09-05T07:40:26.000Z</time>
      </trkpt>
      <trkpt lat="47.33491" lon="-2.27555">
        <ele>1.2000000476837</ele>
        <time>2021-09-05T07:40:29.000Z</time>
      </trkpt>
      <trkpt lat="47.33489" lon="-2.27557">
        <ele>1.2000000476837</ele>
        <time>2021-09-05T07:40:30.000Z</time>
      </trkpt>
      <trkpt lat="47.33485" lon="-2.27558">
        <ele>1.2000000476837</ele>
        <time>2021-09-05T07:40:31.000Z</time>
      </trkpt>
      <trkpt lat="47.33475" lon="-2.2757">
        <ele>1.2000000476837</ele>
        <time>2021-09-05T07:40:35.000Z</time>
      </trkpt>
      <trkpt lat="47.33458" lon="-2.27586">
        <ele>1.2000000476837</ele>
        <time>2021-09-05T07:40:40.000Z</time>
      </trkpt>
      <trkpt lat="47.33454" lon="-2.27589">
        <ele>1.2000000476837</ele>
        <time>2021-09-05T07:40:41.000Z</time>
      </trkpt>
      <trkpt lat="47.33441" lon="-2.27604">
        <ele>1.2000000476837</ele>
        <time>2021-09-05T07:40:45.000Z</time>
      </trkpt>
      <trkpt lat="47.33433" lon="-2.27611">
        <ele>1.2000000476837</ele>
        <time>2021-09-05T07:40:47.000Z</time>
      </trkpt>
      <trkpt lat="47.33422" lon="-2.27622">
        <ele>1.2000000476837</ele>
        <time>2021-09-05T07:40:50.000Z</time>
      </trkpt>
      <trkpt lat="47.33415" lon="-2.27629">
        <ele>1.2000000476837</ele>
        <time>2021-09-05T07:40:52.000Z</time>
      </trkpt>
      <trkpt lat="47.33412" lon="-2.27634">
        <ele>1.2000000476837</ele>
        <time>2021-09-05T07:40:53.000Z</time>
      </trkpt>
      <trkpt lat="47.33404" lon="-2.2766">
        <ele>1.2000000476837</ele>
        <time>2021-09-05T07:40:57.000Z</time>
      </trkpt>
      <trkpt lat="47.33403" lon="-2.27682">
        <ele>1.2000000476837</ele>
        <time>2021-09-05T07:41:00.000Z</time>
      </trkpt>
      <trkpt lat="47.33403" lon="-2.27698">
        <ele>1.2000000476837</ele>
        <time>2021-09-05T07:41:02.000Z</time>
      </trkpt>
      <trkpt lat="47.33404" lon="-2.27723">
        <ele>1.2000000476837</ele>
        <time>2021-09-05T07:41:05.000Z</time>
      </trkpt>
      <trkpt lat="47.33405" lon="-2.27732">
        <ele>1.2000000476837</ele>
        <time>2021-09-05T07:41:06.000Z</time>
      </trkpt>
      <trkpt lat="47.33415" lon="-2.27805">
        <ele>1.2000000476837</ele>
        <time>2021-09-05T07:41:14.000Z</time>
      </trkpt>
      <trkpt lat="47.33423" lon="-2.2785">
        <ele>1.2000000476837</ele>
        <time>2021-09-05T07:41:20.000Z</time>
      </trkpt>
      <trkpt lat="47.33426" lon="-2.27873">
        <ele>1.2000000476837</ele>
        <time>2021-09-05T07:41:25.000Z</time>
      </trkpt>
      <trkpt lat="47.33428" lon="-2.27908">
        <ele>1.2000000476837</ele>
        <time>2021-09-05T07:41:31.000Z</time>
      </trkpt>
      <trkpt lat="47.3343" lon="-2.2796">
        <ele>1.2000000476837</ele>
        <time>2021-09-05T07:41:39.000Z</time>
      </trkpt>
      <trkpt lat="47.33437" lon="-2.28006">
        <ele>1.2000000476837</ele>
        <time>2021-09-05T07:41:45.000Z</time>
      </trkpt>
      <trkpt lat="47.33442" lon="-2.28043">
        <ele>1.2000000476837</ele>
        <time>2021-09-05T07:41:50.000Z</time>
      </trkpt>
      <trkpt lat="47.33449" lon="-2.28091">
        <ele>1.2000000476837</ele>
        <time>2021-09-05T07:41:56.000Z</time>
      </trkpt>
      <trkpt lat="47.33453" lon="-2.28121">
        <ele>1.2000000476837</ele>
        <time>2021-09-05T07:42:00.000Z</time>
      </trkpt>
      <trkpt lat="47.33456" lon="-2.28134">
        <ele>1.2000000476837</ele>
        <time>2021-09-05T07:42:02.000Z</time>
      </trkpt>
      <trkpt lat="47.33458" lon="-2.28161">
        <ele>1.2000000476837</ele>
        <time>2021-09-05T07:42:07.000Z</time>
      </trkpt>
      <trkpt lat="47.33461" lon="-2.28184">
        <ele>1.2000000476837</ele>
        <time>2021-09-05T07:42:12.000Z</time>
      </trkpt>
      <trkpt lat="47.33463" lon="-2.28205">
        <ele>1.2000000476837</ele>
        <time>2021-09-05T07:42:18.000Z</time>
      </trkpt>
      <trkpt lat="47.33464" lon="-2.28206">
        <ele>1.2000000476837</ele>
        <time>2021-09-05T07:42:19.000Z</time>
      </trkpt>
      <trkpt lat="47.33468" lon="-2.28215">
        <ele>1.2000000476837</ele>
        <time>2021-09-05T07:42:24.000Z</time>
      </trkpt>
      <trkpt lat="47.33467" lon="-2.2822">
        <ele>1.2000000476837</ele>
        <time>2021-09-05T07:42:26.000Z</time>
      </trkpt>
      <trkpt lat="47.33468" lon="-2.28228">
        <ele>1.2000000476837</ele>
        <time>2021-09-05T07:42:29.000Z</time>
      </trkpt>
      <trkpt lat="47.33475" lon="-2.28241">
        <ele>1.2000000476837</ele>
        <time>2021-09-05T07:42:33.000Z</time>
      </trkpt>
      <trkpt lat="47.33482" lon="-2.28245">
        <ele>1.2000000476837</ele>
        <time>2021-09-05T07:42:35.000Z</time>
      </trkpt>
      <trkpt lat="47.33491" lon="-2.2825">
        <ele>1.2000000476837</ele>
        <time>2021-09-05T07:42:37.000Z</time>
      </trkpt>
      <trkpt lat="47.33499" lon="-2.28249">
        <ele>1.2000000476837</ele>
        <time>2021-09-05T07:42:39.000Z</time>
      </trkpt>
      <trkpt lat="47.33502" lon="-2.28246">
        <ele>1.2000000476837</ele>
        <time>2021-09-05T07:42:40.000Z</time>
      </trkpt>
      <trkpt lat="47.33519" lon="-2.28235">
        <ele>1.2000000476837</ele>
        <time>2021-09-05T07:42:44.000Z</time>
      </trkpt>
      <trkpt lat="47.33524" lon="-2.28234">
        <ele>1.2000000476837</ele>
        <time>2021-09-05T07:42:45.000Z</time>
      </trkpt>
      <trkpt lat="47.33544" lon="-2.28247">
        <ele>1.2000000476837</ele>
        <time>2021-09-05T07:42:49.000Z</time>
      </trkpt>
      <trkpt lat="47.33551" lon="-2.28258">
        <ele>1.2000000476837</ele>
        <time>2021-09-05T07:42:51.000Z</time>
      </trkpt>
      <trkpt lat="47.33557" lon="-2.2827">
        <ele>1.2000000476837</ele>
        <time>2021-09-05T07:42:53.000Z</time>
      </trkpt>
      <trkpt lat="47.3356" lon="-2.28276">
        <ele>1.2000000476837</ele>
        <time>2021-09-05T07:42:54.000Z</time>
      </trkpt>
      <trkpt lat="47.33568" lon="-2.28295">
        <ele>1.2000000476837</ele>
        <time>2021-09-05T07:42:57.000Z</time>
      </trkpt>
      <trkpt lat="47.33581" lon="-2.28316">
        <ele>1.2000000476837</ele>
        <time>2021-09-05T07:43:01.000Z</time>
      </trkpt>
      <trkpt lat="47.33594" lon="-2.28339">
        <ele>1.2000000476837</ele>
        <time>2021-09-05T07:43:06.000Z</time>
      </trkpt>
      <trkpt lat="47.336" lon="-2.28347">
        <ele>1.2000000476837</ele>
        <time>2021-09-05T07:43:08.000Z</time>
      </trkpt>
      <trkpt lat="47.33607" lon="-2.28353">
        <ele>1.2000000476837</ele>
        <time>2021-09-05T07:43:10.000Z</time>
      </trkpt>
      <trkpt lat="47.33613" lon="-2.28361">
        <ele>1.2000000476837</ele>
        <time>2021-09-05T07:43:12.000Z</time>
      </trkpt>
      <trkpt lat="47.33627" lon="-2.28377">
        <ele>1.2000000476837</ele>
        <time>2021-09-05T07:43:16.000Z</time>
      </trkpt>
      <trkpt lat="47.33635" lon="-2.28386">
        <ele>1.2000000476837</ele>
        <time>2021-09-05T07:43:18.000Z</time>
      </trkpt>
      <trkpt lat="47.33649" lon="-2.28408">
        <ele>1.2000000476837</ele>
        <time>2021-09-05T07:43:22.000Z</time>
      </trkpt>
      <trkpt lat="47.3366" lon="-2.28426">
        <ele>1.2000000476837</ele>
        <time>2021-09-05T07:43:25.000Z</time>
      </trkpt>
      <trkpt lat="47.3367" lon="-2.28447">
        <ele>1.2000000476837</ele>
        <time>2021-09-05T07:43:28.000Z</time>
      </trkpt>
      <trkpt lat="47.33678" lon="-2.28467">
        <ele>1.2000000476837</ele>
        <time>2021-09-05T07:43:32.000Z</time>
      </trkpt>
      <trkpt lat="47.33682" lon="-2.28478">
        <ele>1.2000000476837</ele>
        <time>2021-09-05T07:43:37.000Z</time>
      </trkpt>
      <trkpt lat="47.33683" lon="-2.28479">
        <ele>1.2000000476837</ele>
        <time>2021-09-05T07:43:38.000Z</time>
      </trkpt>
      <trkpt lat="47.3369" lon="-2.28484">
        <ele>1.2000000476837</ele>
        <time>2021-09-05T07:43:42.000Z</time>
      </trkpt>
      <trkpt lat="47.33703" lon="-2.285">
        <ele>1.2000000476837</ele>
        <time>2021-09-05T07:43:49.000Z</time>
      </trkpt>
      <trkpt lat="47.33711" lon="-2.28509">
        <ele>1.2000000476837</ele>
        <time>2021-09-05T07:43:52.000Z</time>
      </trkpt>
      <trkpt lat="47.33722" lon="-2.28519">
        <ele>1.2000000476837</ele>
        <time>2021-09-05T07:43:56.000Z</time>
      </trkpt>
      <trkpt lat="47.33729" lon="-2.28519">
        <ele>1.2000000476837</ele>
        <time>2021-09-05T07:43:58.000Z</time>
      </trkpt>
      <trkpt lat="47.33737" lon="-2.28514">
        <ele>1.2000000476837</ele>
        <time>2021-09-05T07:44:00.000Z</time>
      </trkpt>
      <trkpt lat="47.33751" lon="-2.28502">
        <ele>1.2000000476837</ele>
        <time>2021-09-05T07:44:03.000Z</time>
      </trkpt>
      <trkpt lat="47.33762" lon="-2.28495">
        <ele>1.2000000476837</ele>
        <time>2021-09-05T07:44:05.000Z</time>
      </trkpt>
      <trkpt lat="47.3379" lon="-2.28477">
        <ele>1.2000000476837</ele>
        <time>2021-09-05T07:44:11.000Z</time>
      </trkpt>
      <trkpt lat="47.33801" lon="-2.28469">
        <ele>1.2000000476837</ele>
        <time>2021-09-05T07:44:15.000Z</time>
      </trkpt>
      <trkpt lat="47.33814" lon="-2.28467">
        <ele>1.2000000476837</ele>
        <time>2021-09-05T07:44:20.000Z</time>
      </trkpt>
      <trkpt lat="47.33822" lon="-2.28468">
        <ele>1.2000000476837</ele>
        <time>2021-09-05T07:44:25.000Z</time>
      </trkpt>
      <trkpt lat="47.33822" lon="-2.28468">
        <ele>1.2000000476837</ele>
        <time>2021-09-05T07:44:29.000Z</time>
      </trkpt>
      <trkpt lat="47.33824" lon="-2.28466">
        <ele>1.2000000476837</ele>
        <time>2021-09-05T07:45:37.000Z</time>
      </trkpt>
      <trkpt lat="47.33833" lon="-2.28466">
        <ele>1.2000000476837</ele>
        <time>2021-09-05T07:45:41.000Z</time>
      </trkpt>
      <trkpt lat="47.33847" lon="-2.28481">
        <ele>1.2000000476837</ele>
        <time>2021-09-05T07:45:46.000Z</time>
      </trkpt>
      <trkpt lat="47.33864" lon="-2.28502">
        <ele>1.2000000476837</ele>
        <time>2021-09-05T07:45:51.000Z</time>
      </trkpt>
      <trkpt lat="47.33867" lon="-2.28506">
        <ele>1.2000000476837</ele>
        <time>2021-09-05T07:45:52.000Z</time>
      </trkpt>
      <trkpt lat="47.33887" lon="-2.28528">
        <ele>1.2000000476837</ele>
        <time>2021-09-05T07:45:57.000Z</time>
      </trkpt>
      <trkpt lat="47.33891" lon="-2.28532">
        <ele>1.2000000476837</ele>
        <time>2021-09-05T07:45:58.000Z</time>
      </trkpt>
      <trkpt lat="47.33914" lon="-2.28561">
        <ele>1.2000000476837</ele>
        <time>2021-09-05T07:46:04.000Z</time>
      </trkpt>
      <trkpt lat="47.33931" lon="-2.2858">
        <ele>1.2000000476837</ele>
        <time>2021-09-05T07:46:09.000Z</time>
      </trkpt>
      <trkpt lat="47.33956" lon="-2.28615">
        <ele>1.2000000476837</ele>
        <time>2021-09-05T07:46:16.000Z</time>
      </trkpt>
      <trkpt lat="47.33973" lon="-2.28639">
        <ele>1.2000000476837</ele>
        <time>2021-09-05T07:46:21.000Z</time>
      </trkpt>
      <trkpt lat="47.33975" lon="-2.28644">
        <ele>1.2000000476837</ele>
        <time>2021-09-05T07:46:22.000Z</time>
      </trkpt>
      <trkpt lat="47.33981" lon="-2.28661">
        <ele>1.2000000476837</ele>
        <time>2021-09-05T07:46:25.000Z</time>
      </trkpt>
      <trkpt lat="47.33983" lon="-2.28667">
        <ele>1.2000000476837</ele>
        <time>2021-09-05T07:46:26.000Z</time>
      </trkpt>
      <trkpt lat="47.33986" lon="-2.28679">
        <ele>1.2000000476837</ele>
        <time>2021-09-05T07:46:28.000Z</time>
      </trkpt>
      <trkpt lat="47.33995" lon="-2.28701">
        <ele>1.2000000476837</ele>
        <time>2021-09-05T07:46:32.000Z</time>
      </trkpt>
      <trkpt lat="47.34003" lon="-2.28707">
        <ele>1.2000000476837</ele>
        <time>2021-09-05T07:46:34.000Z</time>
      </trkpt>
      <trkpt lat="47.34012" lon="-2.28712">
        <ele>1.2000000476837</ele>
        <time>2021-09-05T07:46:36.000Z</time>
      </trkpt>
      <trkpt lat="47.34027" lon="-2.28716">
        <ele>1.2000000476837</ele>
        <time>2021-09-05T07:46:39.000Z</time>
      </trkpt>
      <trkpt lat="47.34032" lon="-2.28718">
        <ele>1.2000000476837</ele>
        <time>2021-09-05T07:46:40.000Z</time>
      </trkpt>
      <trkpt lat="47.34067" lon="-2.28729">
        <ele>1.2000000476837</ele>
        <time>2021-09-05T07:46:47.000Z</time>
      </trkpt>
      <trkpt lat="47.34088" lon="-2.28735">
        <ele>1.2000000476837</ele>
        <time>2021-09-05T07:46:51.000Z</time>
      </trkpt>
      <trkpt lat="47.34098" lon="-2.28729">
        <ele>1.2000000476837</ele>
        <time>2021-09-05T07:46:53.000Z</time>
      </trkpt>
      <trkpt lat="47.34108" lon="-2.28711">
        <ele>1.2000000476837</ele>
        <time>2021-09-05T07:46:56.000Z</time>
      </trkpt>
      <trkpt lat="47.34112" lon="-2.28705">
        <ele>1.2000000476837</ele>
        <time>2021-09-05T07:46:57.000Z</time>
      </trkpt>
      <trkpt lat="47.34116" lon="-2.287">
        <ele>1.2000000476837</ele>
        <time>2021-09-05T07:46:58.000Z</time>
      </trkpt>
      <trkpt lat="47.34132" lon="-2.28695">
        <ele>1.2000000476837</ele>
        <time>2021-09-05T07:47:01.000Z</time>
      </trkpt>
      <trkpt lat="47.34137" lon="-2.28695">
        <ele>1.2000000476837</ele>
        <time>2021-09-05T07:47:02.000Z</time>
      </trkpt>
      <trkpt lat="47.34163" lon="-2.28697">
        <ele>1.2000000476837</ele>
        <time>2021-09-05T07:47:07.000Z</time>
      </trkpt>
      <trkpt lat="47.34175" lon="-2.28714">
        <ele>1.2000000476837</ele>
        <time>2021-09-05T07:47:10.000Z</time>
      </trkpt>
      <trkpt lat="47.34178" lon="-2.28741">
        <ele>1.2000000476837</ele>
        <time>2021-09-05T07:47:13.000Z</time>
      </trkpt>
      <trkpt lat="47.34178" lon="-2.28761">
        <ele>1.2000000476837</ele>
        <time>2021-09-05T07:47:15.000Z</time>
      </trkpt>
      <trkpt lat="47.34178" lon="-2.2879">
        <ele>1.6000000238419</ele>
        <time>2021-09-05T07:47:18.000Z</time>
      </trkpt>
      <trkpt lat="47.34178" lon="-2.28799">
        <ele>2</ele>
        <time>2021-09-05T07:47:19.000Z</time>
      </trkpt>
      <trkpt lat="47.34178" lon="-2.28809">
        <ele>2.4000000953674</ele>
        <time>2021-09-05T07:47:20.000Z</time>
      </trkpt>
      <trkpt lat="47.34177" lon="-2.28819">
        <ele>2.7999999523163</ele>
        <time>2021-09-05T07:47:21.000Z</time>
      </trkpt>
      <trkpt lat="47.34177" lon="-2.28828">
        <ele>3.2000000476837</ele>
        <time>2021-09-05T07:47:22.000Z</time>
      </trkpt>
      <trkpt lat="47.34176" lon="-2.28855">
        <ele>3.2000000476837</ele>
        <time>2021-09-05T07:47:25.000Z</time>
      </trkpt>
      <trkpt lat="47.34177" lon="-2.28877">
        <ele>3.2000000476837</ele>
        <time>2021-09-05T07:47:28.000Z</time>
      </trkpt>
      <trkpt lat="47.3418" lon="-2.2888">
        <ele>3.2000000476837</ele>
        <time>2021-09-05T07:47:29.000Z</time>
      </trkpt>
      <trkpt lat="47.34192" lon="-2.28875">
        <ele>3.2000000476837</ele>
        <time>2021-09-05T07:47:32.000Z</time>
      </trkpt>
      <trkpt lat="47.34201" lon="-2.28867">
        <ele>3.2000000476837</ele>
        <time>2021-09-05T07:47:34.000Z</time>
      </trkpt>
      <trkpt lat="47.34212" lon="-2.28859">
        <ele>3.2000000476837</ele>
        <time>2021-09-05T07:47:36.000Z</time>
      </trkpt>
      <trkpt lat="47.34217" lon="-2.28855">
        <ele>3.2000000476837</ele>
        <time>2021-09-05T07:47:37.000Z</time>
      </trkpt>
      <trkpt lat="47.3425" lon="-2.28834">
        <ele>3.2000000476837</ele>
        <time>2021-09-05T07:47:43.000Z</time>
      </trkpt>
      <trkpt lat="47.34264" lon="-2.2884">
        <ele>3.2000000476837</ele>
        <time>2021-09-05T07:47:46.000Z</time>
      </trkpt>
      <trkpt lat="47.34267" lon="-2.28843">
        <ele>3.2000000476837</ele>
        <time>2021-09-05T07:47:47.000Z</time>
      </trkpt>
      <trkpt lat="47.34272" lon="-2.28855">
        <ele>3.2000000476837</ele>
        <time>2021-09-05T07:47:49.000Z</time>
      </trkpt>
      <trkpt lat="47.34284" lon="-2.28899">
        <ele>3.2000000476837</ele>
        <time>2021-09-05T07:47:54.000Z</time>
      </trkpt>
      <trkpt lat="47.34298" lon="-2.28958">
        <ele>3.2000000476837</ele>
        <time>2021-09-05T07:48:00.000Z</time>
      </trkpt>
      <trkpt lat="47.34311" lon="-2.29029">
        <ele>3.2000000476837</ele>
        <time>2021-09-05T07:48:08.000Z</time>
      </trkpt>
      <trkpt lat="47.34317" lon="-2.29057">
        <ele>3.2000000476837</ele>
        <time>2021-09-05T07:48:12.000Z</time>
      </trkpt>
      <trkpt lat="47.34316" lon="-2.29063">
        <ele>3.2000000476837</ele>
        <time>2021-09-05T07:48:13.000Z</time>
      </trkpt>
      <trkpt lat="47.34306" lon="-2.29072">
        <ele>3.2000000476837</ele>
        <time>2021-09-05T07:48:16.000Z</time>
      </trkpt>
      <trkpt lat="47.3429" lon="-2.29074">
        <ele>3.2000000476837</ele>
        <time>2021-09-05T07:48:19.000Z</time>
      </trkpt>
      <trkpt lat="47.34285" lon="-2.29075">
        <ele>3.2000000476837</ele>
        <time>2021-09-05T07:48:20.000Z</time>
      </trkpt>
      <trkpt lat="47.34243" lon="-2.29081">
        <ele>3.2000000476837</ele>
        <time>2021-09-05T07:48:27.000Z</time>
      </trkpt>
      <trkpt lat="47.34203" lon="-2.29092">
        <ele>3.2000000476837</ele>
        <time>2021-09-05T07:48:34.000Z</time>
      </trkpt>
      <trkpt lat="47.34161" lon="-2.29109">
        <ele>3.2000000476837</ele>
        <time>2021-09-05T07:48:41.000Z</time>
      </trkpt>
      <trkpt lat="47.34126" lon="-2.29134">
        <ele>3.2000000476837</ele>
        <time>2021-09-05T07:48:47.000Z</time>
      </trkpt>
      <trkpt lat="47.3408" lon="-2.2917">
        <ele>3.2000000476837</ele>
        <time>2021-09-05T07:48:55.000Z</time>
      </trkpt>
      <trkpt lat="47.34056" lon="-2.29191">
        <ele>3.5999999046326</ele>
        <time>2021-09-05T07:48:59.000Z</time>
      </trkpt>
      <trkpt lat="47.34049" lon="-2.29196">
        <ele>4</ele>
        <time>2021-09-05T07:49:00.000Z</time>
      </trkpt>
      <trkpt lat="47.34042" lon="-2.292">
        <ele>4.4000000953674</ele>
        <time>2021-09-05T07:49:01.000Z</time>
      </trkpt>
      <trkpt lat="47.34035" lon="-2.29204">
        <ele>4.8000001907349</ele>
        <time>2021-09-05T07:49:02.000Z</time>
      </trkpt>
      <trkpt lat="47.34028" lon="-2.29207">
        <ele>5.1999998092651</ele>
        <time>2021-09-05T07:49:03.000Z</time>
      </trkpt>
      <trkpt lat="47.34007" lon="-2.29218">
        <ele>5.1999998092651</ele>
        <time>2021-09-05T07:49:06.000Z</time>
      </trkpt>
      <trkpt lat="47.33962" lon="-2.29228">
        <ele>5.1999998092651</ele>
        <time>2021-09-05T07:49:12.000Z</time>
      </trkpt>
      <trkpt lat="47.33902" lon="-2.29238">
        <ele>5.1999998092651</ele>
        <time>2021-09-05T07:49:20.000Z</time>
      </trkpt>
      <trkpt lat="47.33894" lon="-2.2924">
        <ele>5.1999998092651</ele>
        <time>2021-09-05T07:49:21.000Z</time>
      </trkpt>
      <trkpt lat="47.33842" lon="-2.29258">
        <ele>5.1999998092651</ele>
        <time>2021-09-05T07:49:28.000Z</time>
      </trkpt>
      <trkpt lat="47.33805" lon="-2.29281">
        <ele>5.1999998092651</ele>
        <time>2021-09-05T07:49:34.000Z</time>
      </trkpt>
      <trkpt lat="47.33762" lon="-2.29306">
        <ele>5.1999998092651</ele>
        <time>2021-09-05T07:49:41.000Z</time>
      </trkpt>
      <trkpt lat="47.3373" lon="-2.29319">
        <ele>5.1999998092651</ele>
        <time>2021-09-05T07:49:46.000Z</time>
      </trkpt>
      <trkpt lat="47.33673" lon="-2.29346">
        <ele>5.1999998092651</ele>
        <time>2021-09-05T07:49:55.000Z</time>
      </trkpt>
      <trkpt lat="47.33618" lon="-2.29375">
        <ele>5.1999998092651</ele>
        <time>2021-09-05T07:50:04.000Z</time>
      </trkpt>
      <trkpt lat="47.33575" lon="-2.29395">
        <ele>5.1999998092651</ele>
        <time>2021-09-05T07:50:10.000Z</time>
      </trkpt>
      <trkpt lat="47.3353" lon="-2.29424">
        <ele>5.1999998092651</ele>
        <time>2021-09-05T07:50:16.000Z</time>
      </trkpt>
      <trkpt lat="47.33483" lon="-2.29456">
        <ele>5.1999998092651</ele>
        <time>2021-09-05T07:50:23.000Z</time>
      </trkpt>
      <trkpt lat="47.33444" lon="-2.29483">
        <ele>5.1999998092651</ele>
        <time>2021-09-05T07:50:29.000Z</time>
      </trkpt>
      <trkpt lat="47.33402" lon="-2.29509">
        <ele>5.1999998092651</ele>
        <time>2021-09-05T07:50:36.000Z</time>
      </trkpt>
      <trkpt lat="47.33394" lon="-2.29504">
        <ele>5.1999998092651</ele>
        <time>2021-09-05T07:50:39.000Z</time>
      </trkpt>
      <trkpt lat="47.33391" lon="-2.29497">
        <ele>5.1999998092651</ele>
        <time>2021-09-05T07:50:41.000Z</time>
      </trkpt>
      <trkpt lat="47.33386" lon="-2.29482">
        <ele>5.1999998092651</ele>
        <time>2021-09-05T07:50:44.000Z</time>
      </trkpt>
      <trkpt lat="47.33371" lon="-2.29448">
        <ele>5.1999998092651</ele>
        <time>2021-09-05T07:50:51.000Z</time>
      </trkpt>
      <trkpt lat="47.3335" lon="-2.29413">
        <ele>5.1999998092651</ele>
        <time>2021-09-05T07:50:58.000Z</time>
      </trkpt>
      <trkpt lat="47.3333" lon="-2.29379">
        <ele>5.5999999046326</ele>
        <time>2021-09-05T07:51:06.000Z</time>
      </trkpt>
      <trkpt lat="47.33328" lon="-2.29374">
        <ele>6</ele>
        <time>2021-09-05T07:51:07.000Z</time>
      </trkpt>
      <trkpt lat="47.33327" lon="-2.29367">
        <ele>6.4000000953674</ele>
        <time>2021-09-05T07:51:08.000Z</time>
      </trkpt>
      <trkpt lat="47.33326" lon="-2.2936">
        <ele>6.8000001907349</ele>
        <time>2021-09-05T07:51:09.000Z</time>
      </trkpt>
      <trkpt lat="47.33327" lon="-2.29354">
        <ele>7.1999998092651</ele>
        <time>2021-09-05T07:51:10.000Z</time>
      </trkpt>
      <trkpt lat="47.33328" lon="-2.29341">
        <ele>7.1999998092651</ele>
        <time>2021-09-05T07:51:12.000Z</time>
      </trkpt>
      <trkpt lat="47.33331" lon="-2.2932">
        <ele>7.1999998092651</ele>
        <time>2021-09-05T07:51:15.000Z</time>
      </trkpt>
      <trkpt lat="47.33335" lon="-2.29293">
        <ele>7.1999998092651</ele>
        <time>2021-09-05T07:51:19.000Z</time>
      </trkpt>
      <trkpt lat="47.33337" lon="-2.29287">
        <ele>7.1999998092651</ele>
        <time>2021-09-05T07:51:20.000Z</time>
      </trkpt>
      <trkpt lat="47.33338" lon="-2.2928">
        <ele>7.1999998092651</ele>
        <time>2021-09-05T07:51:21.000Z</time>
      </trkpt>
      <trkpt lat="47.3334" lon="-2.29263">
        <ele>7.1999998092651</ele>
        <time>2021-09-05T07:51:24.000Z</time>
      </trkpt>
      <trkpt lat="47.3334" lon="-2.2925">
        <ele>7.1999998092651</ele>
        <time>2021-09-05T07:51:27.000Z</time>
      </trkpt>
      <trkpt lat="47.33338" lon="-2.29248">
        <ele>7.1999998092651</ele>
        <time>2021-09-05T07:51:28.000Z</time>
      </trkpt>
      <trkpt lat="47.33329" lon="-2.29248">
        <ele>7.1999998092651</ele>
        <time>2021-09-05T07:51:31.000Z</time>
      </trkpt>
      <trkpt lat="47.33325" lon="-2.29248">
        <ele>7.1999998092651</ele>
        <time>2021-09-05T07:51:32.000Z</time>
      </trkpt>
      <trkpt lat="47.33306" lon="-2.29247">
        <ele>7.1999998092651</ele>
        <time>2021-09-05T07:51:37.000Z</time>
      </trkpt>
      <trkpt lat="47.33285" lon="-2.29251">
        <ele>7.1999998092651</ele>
        <time>2021-09-05T07:51:42.000Z</time>
      </trkpt>
      <trkpt lat="47.3326" lon="-2.2924">
        <ele>7.1999998092651</ele>
        <time>2021-09-05T07:51:46.000Z</time>
      </trkpt>
      <trkpt lat="47.3326" lon="-2.2924">
        <ele>7.1999998092651</ele>
        <time>2021-09-05T07:51:48.000Z</time>
      </trkpt>
      <trkpt lat="47.33258" lon="-2.29227">
        <ele>7.1999998092651</ele>
        <time>2021-09-05T07:51:50.000Z</time>
      </trkpt>
      <trkpt lat="47.33258" lon="-2.29218">
        <ele>7.1999998092651</ele>
        <time>2021-09-05T07:51:51.000Z</time>
      </trkpt>
      <trkpt lat="47.33262" lon="-2.29156">
        <ele>7.1999998092651</ele>
        <time>2021-09-05T07:51:58.000Z</time>
      </trkpt>
      <trkpt lat="47.33262" lon="-2.29139">
        <ele>7.1999998092651</ele>
        <time>2021-09-05T07:52:00.000Z</time>
      </trkpt>
      <trkpt lat="47.33261" lon="-2.29106">
        <ele>7.1999998092651</ele>
        <time>2021-09-05T07:52:04.000Z</time>
      </trkpt>
      <trkpt lat="47.33257" lon="-2.29092">
        <ele>7.1999998092651</ele>
        <time>2021-09-05T07:52:06.000Z</time>
      </trkpt>
      <trkpt lat="47.33253" lon="-2.29088">
        <ele>7.1999998092651</ele>
        <time>2021-09-05T07:52:07.000Z</time>
      </trkpt>
      <trkpt lat="47.33237" lon="-2.29083">
        <ele>7.8000001907349</ele>
        <time>2021-09-05T07:52:10.000Z</time>
      </trkpt>
      <trkpt lat="47.33231" lon="-2.2908">
        <ele>8.1999998092651</ele>
        <time>2021-09-05T07:52:11.000Z</time>
      </trkpt>
      <trkpt lat="47.33226" lon="-2.29079">
        <ele>8.6000003814697</ele>
        <time>2021-09-05T07:52:12.000Z</time>
      </trkpt>
      <trkpt lat="47.33221" lon="-2.29077">
        <ele>9</ele>
        <time>2021-09-05T07:52:13.000Z</time>
      </trkpt>
      <trkpt lat="47.33215" lon="-2.29076">
        <ele>9.6000003814697</ele>
        <time>2021-09-05T07:52:14.000Z</time>
      </trkpt>
      <trkpt lat="47.33204" lon="-2.29072">
        <ele>9.6000003814697</ele>
        <time>2021-09-05T07:52:16.000Z</time>
      </trkpt>
      <trkpt lat="47.33158" lon="-2.29061">
        <ele>9.6000003814697</ele>
        <time>2021-09-05T07:52:24.000Z</time>
      </trkpt>
      <trkpt lat="47.3314" lon="-2.29061">
        <ele>10</ele>
        <time>2021-09-05T07:52:27.000Z</time>
      </trkpt>
      <trkpt lat="47.33135" lon="-2.29062">
        <ele>10.39999961853</ele>
        <time>2021-09-05T07:52:28.000Z</time>
      </trkpt>
      <trkpt lat="47.3313" lon="-2.29063">
        <ele>10.800000190735</ele>
        <time>2021-09-05T07:52:29.000Z</time>
      </trkpt>
      <trkpt lat="47.33125" lon="-2.29064">
        <ele>11.199999809265</ele>
        <time>2021-09-05T07:52:30.000Z</time>
      </trkpt>
      <trkpt lat="47.3312" lon="-2.29066">
        <ele>11.60000038147</ele>
        <time>2021-09-05T07:52:31.000Z</time>
      </trkpt>
      <trkpt lat="47.331" lon="-2.29067">
        <ele>11.60000038147</ele>
        <time>2021-09-05T07:52:35.000Z</time>
      </trkpt>
      <trkpt lat="47.33092" lon="-2.29058">
        <ele>11.60000038147</ele>
        <time>2021-09-05T07:52:37.000Z</time>
      </trkpt>
      <trkpt lat="47.33087" lon="-2.29036">
        <ele>11.60000038147</ele>
        <time>2021-09-05T07:52:40.000Z</time>
      </trkpt>
      <trkpt lat="47.33095" lon="-2.29019">
        <ele>11.60000038147</ele>
        <time>2021-09-05T07:52:43.000Z</time>
      </trkpt>
      <trkpt lat="47.33102" lon="-2.28988">
        <ele>11.60000038147</ele>
        <time>2021-09-05T07:52:47.000Z</time>
      </trkpt>
      <trkpt lat="47.33103" lon="-2.28979">
        <ele>11.60000038147</ele>
        <time>2021-09-05T07:52:48.000Z</time>
      </trkpt>
      <trkpt lat="47.33114" lon="-2.28922">
        <ele>11.60000038147</ele>
        <time>2021-09-05T07:52:55.000Z</time>
      </trkpt>
      <trkpt lat="47.33116" lon="-2.28871">
        <ele>11.60000038147</ele>
        <time>2021-09-05T07:53:01.000Z</time>
      </trkpt>
      <trkpt lat="47.33107" lon="-2.28837">
        <ele>11.60000038147</ele>
        <time>2021-09-05T07:53:05.000Z</time>
      </trkpt>
      <trkpt lat="47.33103" lon="-2.28822">
        <ele>11.60000038147</ele>
        <time>2021-09-05T07:53:07.000Z</time>
      </trkpt>
      <trkpt lat="47.33092" lon="-2.28817">
        <ele>11.60000038147</ele>
        <time>2021-09-05T07:53:09.000Z</time>
      </trkpt>
      <trkpt lat="47.33076" lon="-2.28824">
        <ele>11.60000038147</ele>
        <time>2021-09-05T07:53:12.000Z</time>
      </trkpt>
      <trkpt lat="47.3307" lon="-2.28827">
        <ele>11.60000038147</ele>
        <time>2021-09-05T07:53:13.000Z</time>
      </trkpt>
      <trkpt lat="47.33033" lon="-2.28847">
        <ele>11.60000038147</ele>
        <time>2021-09-05T07:53:19.000Z</time>
      </trkpt>
      <trkpt lat="47.32991" lon="-2.28876">
        <ele>11.60000038147</ele>
        <time>2021-09-05T07:53:26.000Z</time>
      </trkpt>
      <trkpt lat="47.32946" lon="-2.28912">
        <ele>11.60000038147</ele>
        <time>2021-09-05T07:53:34.000Z</time>
      </trkpt>
      <trkpt lat="47.32906" lon="-2.28944">
        <ele>11.60000038147</ele>
        <time>2021-09-05T07:53:41.000Z</time>
      </trkpt>
      <trkpt lat="47.329" lon="-2.28946">
        <ele>11.60000038147</ele>
        <time>2021-09-05T07:53:42.000Z</time>
      </trkpt>
      <trkpt lat="47.32882" lon="-2.28949">
        <ele>11.60000038147</ele>
        <time>2021-09-05T07:53:45.000Z</time>
      </trkpt>
      <trkpt lat="47.32868" lon="-2.28946">
        <ele>11.199999809265</ele>
        <time>2021-09-05T07:53:47.000Z</time>
      </trkpt>
      <trkpt lat="47.32861" lon="-2.28948">
        <ele>10.199999809265</ele>
        <time>2021-09-05T07:53:48.000Z</time>
      </trkpt>
      <trkpt lat="47.32854" lon="-2.28954">
        <ele>9.8000001907349</ele>
        <time>2021-09-05T07:53:49.000Z</time>
      </trkpt>
      <trkpt lat="47.32848" lon="-2.28959">
        <ele>9.3999996185303</ele>
        <time>2021-09-05T07:53:50.000Z</time>
      </trkpt>
      <trkpt lat="47.32842" lon="-2.28965">
        <ele>9.3999996185303</ele>
        <time>2021-09-05T07:53:51.000Z</time>
      </trkpt>
      <trkpt lat="47.32807" lon="-2.28991">
        <ele>9.3999996185303</ele>
        <time>2021-09-05T07:53:56.000Z</time>
      </trkpt>
      <trkpt lat="47.328" lon="-2.28995">
        <ele>9.3999996185303</ele>
        <time>2021-09-05T07:53:57.000Z</time>
      </trkpt>
      <trkpt lat="47.3278" lon="-2.29005">
        <ele>9.3999996185303</ele>
        <time>2021-09-05T07:54:00.000Z</time>
      </trkpt>
      <trkpt lat="47.32767" lon="-2.29013">
        <ele>9.3999996185303</ele>
        <time>2021-09-05T07:54:02.000Z</time>
      </trkpt>
      <trkpt lat="47.32763" lon="-2.29018">
        <ele>9</ele>
        <time>2021-09-05T07:54:03.000Z</time>
      </trkpt>
      <trkpt lat="47.32761" lon="-2.29024">
        <ele>8.6000003814697</ele>
        <time>2021-09-05T07:54:04.000Z</time>
      </trkpt>
      <trkpt lat="47.3276" lon="-2.29031">
        <ele>8.1999998092651</ele>
        <time>2021-09-05T07:54:05.000Z</time>
      </trkpt>
      <trkpt lat="47.3276" lon="-2.29039">
        <ele>7.8000001907349</ele>
        <time>2021-09-05T07:54:06.000Z</time>
      </trkpt>
      <trkpt lat="47.32759" lon="-2.29047">
        <ele>7.4000000953674</ele>
        <time>2021-09-05T07:54:07.000Z</time>
      </trkpt>
      <trkpt lat="47.32759" lon="-2.29054">
        <ele>7.4000000953674</ele>
        <time>2021-09-05T07:54:08.000Z</time>
      </trkpt>
      <trkpt lat="47.32757" lon="-2.2912">
        <ele>7.4000000953674</ele>
        <time>2021-09-05T07:54:16.000Z</time>
      </trkpt>
      <trkpt lat="47.32768" lon="-2.29142">
        <ele>7.4000000953674</ele>
        <time>2021-09-05T07:54:19.000Z</time>
      </trkpt>
      <trkpt lat="47.32773" lon="-2.29147">
        <ele>7.4000000953674</ele>
        <time>2021-09-05T07:54:20.000Z</time>
      </trkpt>
      <trkpt lat="47.32789" lon="-2.29172">
        <ele>7.4000000953674</ele>
        <time>2021-09-05T07:54:24.000Z</time>
      </trkpt>
      <trkpt lat="47.32792" lon="-2.2918">
        <ele>7.4000000953674</ele>
        <time>2021-09-05T07:54:25.000Z</time>
      </trkpt>
      <trkpt lat="47.328" lon="-2.29202">
        <ele>7.4000000953674</ele>
        <time>2021-09-05T07:54:28.000Z</time>
      </trkpt>
      <trkpt lat="47.32808" lon="-2.29231">
        <ele>7.8000001907349</ele>
        <time>2021-09-05T07:54:32.000Z</time>
      </trkpt>
      <trkpt lat="47.3281" lon="-2.2924">
        <ele>8.1999998092651</ele>
        <time>2021-09-05T07:54:33.000Z</time>
      </trkpt>
      <trkpt lat="47.32812" lon="-2.29248">
        <ele>8.6000003814697</ele>
        <time>2021-09-05T07:54:34.000Z</time>
      </trkpt>
      <trkpt lat="47.32813" lon="-2.29257">
        <ele>9</ele>
        <time>2021-09-05T07:54:35.000Z</time>
      </trkpt>
      <trkpt lat="47.32813" lon="-2.29266">
        <ele>9.3999996185303</ele>
        <time>2021-09-05T07:54:36.000Z</time>
      </trkpt>
      <trkpt lat="47.32807" lon="-2.29307">
        <ele>9.3999996185303</ele>
        <time>2021-09-05T07:54:41.000Z</time>
      </trkpt>
      <trkpt lat="47.32804" lon="-2.29315">
        <ele>9.3999996185303</ele>
        <time>2021-09-05T07:54:42.000Z</time>
      </trkpt>
      <trkpt lat="47.32791" lon="-2.29349">
        <ele>9.3999996185303</ele>
        <time>2021-09-05T07:54:47.000Z</time>
      </trkpt>
      <trkpt lat="47.32782" lon="-2.29359">
        <ele>9.3999996185303</ele>
        <time>2021-09-05T07:54:49.000Z</time>
      </trkpt>
      <trkpt lat="47.32765" lon="-2.2938">
        <ele>9.3999996185303</ele>
        <time>2021-09-05T07:54:53.000Z</time>
      </trkpt>
      <trkpt lat="47.32761" lon="-2.29385">
        <ele>9.3999996185303</ele>
        <time>2021-09-05T07:54:54.000Z</time>
      </trkpt>
      <trkpt lat="47.32752" lon="-2.29392">
        <ele>9.8000001907349</ele>
        <time>2021-09-05T07:54:56.000Z</time>
      </trkpt>
      <trkpt lat="47.32748" lon="-2.29396">
        <ele>10.199999809265</ele>
        <time>2021-09-05T07:54:57.000Z</time>
      </trkpt>
      <trkpt lat="47.32743" lon="-2.29399">
        <ele>10.60000038147</ele>
        <time>2021-09-05T07:54:58.000Z</time>
      </trkpt>
      <trkpt lat="47.32738" lon="-2.29402">
        <ele>11.199999809265</ele>
        <time>2021-09-05T07:54:59.000Z</time>
      </trkpt>
      <trkpt lat="47.32734" lon="-2.29405">
        <ele>11.60000038147</ele>
        <time>2021-09-05T07:55:00.000Z</time>
      </trkpt>
      <trkpt lat="47.32706" lon="-2.29423">
        <ele>11.60000038147</ele>
        <time>2021-09-05T07:55:05.000Z</time>
      </trkpt>
      <trkpt lat="47.32692" lon="-2.29443">
        <ele>11.60000038147</ele>
        <time>2021-09-05T07:55:09.000Z</time>
      </trkpt>
      <trkpt lat="47.3269" lon="-2.29449">
        <ele>11.60000038147</ele>
        <time>2021-09-05T07:55:10.000Z</time>
      </trkpt>
      <trkpt lat="47.3268" lon="-2.29478">
        <ele>11.60000038147</ele>
        <time>2021-09-05T07:55:15.000Z</time>
      </trkpt>
      <trkpt lat="47.3267" lon="-2.29532">
        <ele>11.60000038147</ele>
        <time>2021-09-05T07:55:23.000Z</time>
      </trkpt>
      <trkpt lat="47.32665" lon="-2.29561">
        <ele>12.39999961853</ele>
        <time>2021-09-05T07:55:27.000Z</time>
      </trkpt>
      <trkpt lat="47.32663" lon="-2.29568">
        <ele>12.800000190735</ele>
        <time>2021-09-05T07:55:28.000Z</time>
      </trkpt>
      <trkpt lat="47.32661" lon="-2.29575">
        <ele>13.199999809265</ele>
        <time>2021-09-05T07:55:29.000Z</time>
      </trkpt>
      <trkpt lat="47.32658" lon="-2.29581">
        <ele>13.60000038147</ele>
        <time>2021-09-05T07:55:30.000Z</time>
      </trkpt>
      <trkpt lat="47.32646" lon="-2.29616">
        <ele>13.60000038147</ele>
        <time>2021-09-05T07:55:36.000Z</time>
      </trkpt>
      <trkpt lat="47.32643" lon="-2.29621">
        <ele>13.60000038147</ele>
        <time>2021-09-05T07:55:37.000Z</time>
      </trkpt>
      <trkpt lat="47.32629" lon="-2.29645">
        <ele>14</ele>
        <time>2021-09-05T07:55:42.000Z</time>
      </trkpt>
      <trkpt lat="47.32626" lon="-2.2965">
        <ele>14.39999961853</ele>
        <time>2021-09-05T07:55:43.000Z</time>
      </trkpt>
      <trkpt lat="47.32623" lon="-2.29655">
        <ele>14.800000190735</ele>
        <time>2021-09-05T07:55:44.000Z</time>
      </trkpt>
      <trkpt lat="47.3262" lon="-2.2966">
        <ele>15.199999809265</ele>
        <time>2021-09-05T07:55:45.000Z</time>
      </trkpt>
      <trkpt lat="47.32617" lon="-2.29664">
        <ele>15.60000038147</ele>
        <time>2021-09-05T07:55:46.000Z</time>
      </trkpt>
      <trkpt lat="47.32612" lon="-2.29674">
        <ele>15.60000038147</ele>
        <time>2021-09-05T07:55:48.000Z</time>
      </trkpt>
      <trkpt lat="47.32602" lon="-2.29694">
        <ele>16</ele>
        <time>2021-09-05T07:55:52.000Z</time>
      </trkpt>
      <trkpt lat="47.32599" lon="-2.29699">
        <ele>16.39999961853</ele>
        <time>2021-09-05T07:55:53.000Z</time>
      </trkpt>
      <trkpt lat="47.32596" lon="-2.29704">
        <ele>16.799999237061</ele>
        <time>2021-09-05T07:55:54.000Z</time>
      </trkpt>
      <trkpt lat="47.32593" lon="-2.29709">
        <ele>17.200000762939</ele>
        <time>2021-09-05T07:55:55.000Z</time>
      </trkpt>
      <trkpt lat="47.32591" lon="-2.29715">
        <ele>17.60000038147</ele>
        <time>2021-09-05T07:55:56.000Z</time>
      </trkpt>
      <trkpt lat="47.32581" lon="-2.29733">
        <ele>17.60000038147</ele>
        <time>2021-09-05T07:55:59.000Z</time>
      </trkpt>
      <trkpt lat="47.32578" lon="-2.29739">
        <ele>17.60000038147</ele>
        <time>2021-09-05T07:56:00.000Z</time>
      </trkpt>
      <trkpt lat="47.32562" lon="-2.29764">
        <ele>17.60000038147</ele>
        <time>2021-09-05T07:56:04.000Z</time>
      </trkpt>
      <trkpt lat="47.32558" lon="-2.29769">
        <ele>17.60000038147</ele>
        <time>2021-09-05T07:56:05.000Z</time>
      </trkpt>
      <trkpt lat="47.3255" lon="-2.29777">
        <ele>17.60000038147</ele>
        <time>2021-09-05T07:56:07.000Z</time>
      </trkpt>
      <trkpt lat="47.32546" lon="-2.2978">
        <ele>17.60000038147</ele>
        <time>2021-09-05T07:56:08.000Z</time>
      </trkpt>
      <trkpt lat="47.32515" lon="-2.29809">
        <ele>17.60000038147</ele>
        <time>2021-09-05T07:56:15.000Z</time>
      </trkpt>
      <trkpt lat="47.32482" lon="-2.2984">
        <ele>17.60000038147</ele>
        <time>2021-09-05T07:56:22.000Z</time>
      </trkpt>
      <trkpt lat="47.32451" lon="-2.29862">
        <ele>17.60000038147</ele>
        <time>2021-09-05T07:56:28.000Z</time>
      </trkpt>
      <trkpt lat="47.32447" lon="-2.29866">
        <ele>17.60000038147</ele>
        <time>2021-09-05T07:56:29.000Z</time>
      </trkpt>
      <trkpt lat="47.32442" lon="-2.29888">
        <ele>17.60000038147</ele>
        <time>2021-09-05T07:56:32.000Z</time>
      </trkpt>
      <trkpt lat="47.32446" lon="-2.29924">
        <ele>17.60000038147</ele>
        <time>2021-09-05T07:56:37.000Z</time>
      </trkpt>
      <trkpt lat="47.32446" lon="-2.29947">
        <ele>17.60000038147</ele>
        <time>2021-09-05T07:56:41.000Z</time>
      </trkpt>
      <trkpt lat="47.32445" lon="-2.29956">
        <ele>17.60000038147</ele>
        <time>2021-09-05T07:56:43.000Z</time>
      </trkpt>
      <trkpt lat="47.32446" lon="-2.29961">
        <ele>17.60000038147</ele>
        <time>2021-09-05T07:56:44.000Z</time>
      </trkpt>
      <trkpt lat="47.32464" lon="-2.29986">
        <ele>17.60000038147</ele>
        <time>2021-09-05T07:56:49.000Z</time>
      </trkpt>
      <trkpt lat="47.32467" lon="-2.29992">
        <ele>17.60000038147</ele>
        <time>2021-09-05T07:56:50.000Z</time>
      </trkpt>
      <trkpt lat="47.32476" lon="-2.30013">
        <ele>17.60000038147</ele>
        <time>2021-09-05T07:56:53.000Z</time>
      </trkpt>
      <trkpt lat="47.32479" lon="-2.30021">
        <ele>18</ele>
        <time>2021-09-05T07:56:54.000Z</time>
      </trkpt>
      <trkpt lat="47.32481" lon="-2.30029">
        <ele>18.60000038147</ele>
        <time>2021-09-05T07:56:55.000Z</time>
      </trkpt>
      <trkpt lat="47.32484" lon="-2.30038">
        <ele>19</ele>
        <time>2021-09-05T07:56:56.000Z</time>
      </trkpt>
      <trkpt lat="47.32486" lon="-2.30045">
        <ele>19.39999961853</ele>
        <time>2021-09-05T07:56:57.000Z</time>
      </trkpt>
      <trkpt lat="47.32488" lon="-2.30053">
        <ele>19.799999237061</ele>
        <time>2021-09-05T07:56:58.000Z</time>
      </trkpt>
      <trkpt lat="47.32492" lon="-2.30069">
        <ele>19.799999237061</ele>
        <time>2021-09-05T07:57:00.000Z</time>
      </trkpt>
      <trkpt lat="47.32498" lon="-2.30118">
        <ele>19.799999237061</ele>
        <time>2021-09-05T07:57:06.000Z</time>
      </trkpt>
      <trkpt lat="47.32506" lon="-2.30175">
        <ele>19.799999237061</ele>
        <time>2021-09-05T07:57:13.000Z</time>
      </trkpt>
      <trkpt lat="47.32509" lon="-2.3019">
        <ele>19.799999237061</ele>
        <time>2021-09-05T07:57:15.000Z</time>
      </trkpt>
      <trkpt lat="47.32513" lon="-2.30224">
        <ele>19.799999237061</ele>
        <time>2021-09-05T07:57:19.000Z</time>
      </trkpt>
      <trkpt lat="47.32525" lon="-2.30301">
        <ele>19.799999237061</ele>
        <time>2021-09-05T07:57:28.000Z</time>
      </trkpt>
      <trkpt lat="47.3253" lon="-2.30325">
        <ele>19.39999961853</ele>
        <time>2021-09-05T07:57:31.000Z</time>
      </trkpt>
      <trkpt lat="47.32532" lon="-2.30334">
        <ele>19</ele>
        <time>2021-09-05T07:57:32.000Z</time>
      </trkpt>
      <trkpt lat="47.32533" lon="-2.30343">
        <ele>18.60000038147</ele>
        <time>2021-09-05T07:57:33.000Z</time>
      </trkpt>
      <trkpt lat="47.32535" lon="-2.30353">
        <ele>18.200000762939</ele>
        <time>2021-09-05T07:57:34.000Z</time>
      </trkpt>
      <trkpt lat="47.32536" lon="-2.30362">
        <ele>17.799999237061</ele>
        <time>2021-09-05T07:57:35.000Z</time>
      </trkpt>
      <trkpt lat="47.32542" lon="-2.30395">
        <ele>17.799999237061</ele>
        <time>2021-09-05T07:57:39.000Z</time>
      </trkpt>
      <trkpt lat="47.32537" lon="-2.30406">
        <ele>17.799999237061</ele>
        <time>2021-09-05T07:57:41.000Z</time>
      </trkpt>
      <trkpt lat="47.32527" lon="-2.3041">
        <ele>17.799999237061</ele>
        <time>2021-09-05T07:57:43.000Z</time>
      </trkpt>
      <trkpt lat="47.32516" lon="-2.30414">
        <ele>17.799999237061</ele>
        <time>2021-09-05T07:57:45.000Z</time>
      </trkpt>
      <trkpt lat="47.32506" lon="-2.30419">
        <ele>17.799999237061</ele>
        <time>2021-09-05T07:57:47.000Z</time>
      </trkpt>
      <trkpt lat="47.32501" lon="-2.30432">
        <ele>17.799999237061</ele>
        <time>2021-09-05T07:57:49.000Z</time>
      </trkpt>
      <trkpt lat="47.32505" lon="-2.30455">
        <ele>17.799999237061</ele>
        <time>2021-09-05T07:57:52.000Z</time>
      </trkpt>
      <trkpt lat="47.32518" lon="-2.30517">
        <ele>17.799999237061</ele>
        <time>2021-09-05T07:57:59.000Z</time>
      </trkpt>
      <trkpt lat="47.32526" lon="-2.30573">
        <ele>17.799999237061</ele>
        <time>2021-09-05T07:58:05.000Z</time>
      </trkpt>
      <trkpt lat="47.32533" lon="-2.30618">
        <ele>17.200000762939</ele>
        <time>2021-09-05T07:58:10.000Z</time>
      </trkpt>
      <trkpt lat="47.32535" lon="-2.30629">
        <ele>16.799999237061</ele>
        <time>2021-09-05T07:58:11.000Z</time>
      </trkpt>
      <trkpt lat="47.32537" lon="-2.30639">
        <ele>16.39999961853</ele>
        <time>2021-09-05T07:58:12.000Z</time>
      </trkpt>
      <trkpt lat="47.32539" lon="-2.30648">
        <ele>16</ele>
        <time>2021-09-05T07:58:13.000Z</time>
      </trkpt>
      <trkpt lat="47.32541" lon="-2.30658">
        <ele>15.60000038147</ele>
        <time>2021-09-05T07:58:14.000Z</time>
      </trkpt>
      <trkpt lat="47.32543" lon="-2.30667">
        <ele>15.60000038147</ele>
        <time>2021-09-05T07:58:15.000Z</time>
      </trkpt>
      <trkpt lat="47.32552" lon="-2.30722">
        <ele>15.60000038147</ele>
        <time>2021-09-05T07:58:21.000Z</time>
      </trkpt>
      <trkpt lat="47.32563" lon="-2.30784">
        <ele>15.60000038147</ele>
        <time>2021-09-05T07:58:27.000Z</time>
      </trkpt>
      <trkpt lat="47.32568" lon="-2.30851">
        <ele>15.60000038147</ele>
        <time>2021-09-05T07:58:33.000Z</time>
      </trkpt>
      <trkpt lat="47.32568" lon="-2.30917">
        <ele>15.60000038147</ele>
        <time>2021-09-05T07:58:39.000Z</time>
      </trkpt>
      <trkpt lat="47.32563" lon="-2.30985">
        <ele>15.60000038147</ele>
        <time>2021-09-05T07:58:46.000Z</time>
      </trkpt>
      <trkpt lat="47.32563" lon="-2.31012">
        <ele>15.60000038147</ele>
        <time>2021-09-05T07:58:49.000Z</time>
      </trkpt>
      <trkpt lat="47.32565" lon="-2.31028">
        <ele>15.60000038147</ele>
        <time>2021-09-05T07:58:51.000Z</time>
      </trkpt>
      <trkpt lat="47.32573" lon="-2.3106">
        <ele>15.60000038147</ele>
        <time>2021-09-05T07:58:55.000Z</time>
      </trkpt>
      <trkpt lat="47.32575" lon="-2.3108">
        <ele>15.60000038147</ele>
        <time>2021-09-05T07:58:57.000Z</time>
      </trkpt>
      <trkpt lat="47.32575" lon="-2.31099">
        <ele>15.60000038147</ele>
        <time>2021-09-05T07:58:59.000Z</time>
      </trkpt>
      <trkpt lat="47.32574" lon="-2.31139">
        <ele>15.60000038147</ele>
        <time>2021-09-05T07:59:03.000Z</time>
      </trkpt>
      <trkpt lat="47.32571" lon="-2.3116">
        <ele>15.199999809265</ele>
        <time>2021-09-05T07:59:05.000Z</time>
      </trkpt>
      <trkpt lat="47.32569" lon="-2.3117">
        <ele>14.800000190735</ele>
        <time>2021-09-05T07:59:06.000Z</time>
      </trkpt>
      <trkpt lat="47.32569" lon="-2.31181">
        <ele>14.39999961853</ele>
        <time>2021-09-05T07:59:07.000Z</time>
      </trkpt>
      <trkpt lat="47.32568" lon="-2.31192">
        <ele>14</ele>
        <time>2021-09-05T07:59:08.000Z</time>
      </trkpt>
      <trkpt lat="47.32569" lon="-2.31202">
        <ele>13.60000038147</ele>
        <time>2021-09-05T07:59:09.000Z</time>
      </trkpt>
      <trkpt lat="47.32573" lon="-2.31219">
        <ele>13.60000038147</ele>
        <time>2021-09-05T07:59:11.000Z</time>
      </trkpt>
      <trkpt lat="47.32574" lon="-2.3125">
        <ele>13.60000038147</ele>
        <time>2021-09-05T07:59:14.000Z</time>
      </trkpt>
      <trkpt lat="47.32571" lon="-2.31308">
        <ele>13.60000038147</ele>
        <time>2021-09-05T07:59:20.000Z</time>
      </trkpt>
      <trkpt lat="47.3257" lon="-2.31316">
        <ele>13.60000038147</ele>
        <time>2021-09-05T07:59:21.000Z</time>
      </trkpt>
      <trkpt lat="47.32559" lon="-2.31348">
        <ele>13.60000038147</ele>
        <time>2021-09-05T07:59:25.000Z</time>
      </trkpt>
      <trkpt lat="47.32556" lon="-2.31373">
        <ele>13.60000038147</ele>
        <time>2021-09-05T07:59:28.000Z</time>
      </trkpt>
      <trkpt lat="47.32555" lon="-2.31381">
        <ele>13.60000038147</ele>
        <time>2021-09-05T07:59:29.000Z</time>
      </trkpt>
      <trkpt lat="47.32553" lon="-2.31406">
        <ele>13.60000038147</ele>
        <time>2021-09-05T07:59:33.000Z</time>
      </trkpt>
      <trkpt lat="47.32553" lon="-2.31412">
        <ele>13.60000038147</ele>
        <time>2021-09-05T07:59:34.000Z</time>
      </trkpt>
      <trkpt lat="47.32554" lon="-2.3143">
        <ele>13.60000038147</ele>
        <time>2021-09-05T07:59:37.000Z</time>
      </trkpt>
      <trkpt lat="47.3256" lon="-2.31467">
        <ele>13.60000038147</ele>
        <time>2021-09-05T07:59:42.000Z</time>
      </trkpt>
      <trkpt lat="47.32562" lon="-2.31518">
        <ele>13.60000038147</ele>
        <time>2021-09-05T07:59:48.000Z</time>
      </trkpt>
      <trkpt lat="47.32561" lon="-2.31583">
        <ele>13.60000038147</ele>
        <time>2021-09-05T07:59:55.000Z</time>
      </trkpt>
      <trkpt lat="47.3256" lon="-2.31591">
        <ele>13.60000038147</ele>
        <time>2021-09-05T07:59:56.000Z</time>
      </trkpt>
      <trkpt lat="47.32555" lon="-2.31604">
        <ele>13.60000038147</ele>
        <time>2021-09-05T07:59:58.000Z</time>
      </trkpt>
      <trkpt lat="47.32542" lon="-2.31621">
        <ele>13.60000038147</ele>
        <time>2021-09-05T08:00:01.000Z</time>
      </trkpt>
      <trkpt lat="47.32532" lon="-2.31633">
        <ele>13.60000038147</ele>
        <time>2021-09-05T08:00:03.000Z</time>
      </trkpt>
      <trkpt lat="47.32514" lon="-2.31657">
        <ele>13.60000038147</ele>
        <time>2021-09-05T08:00:07.000Z</time>
      </trkpt>
      <trkpt lat="47.32511" lon="-2.31665">
        <ele>13.60000038147</ele>
        <time>2021-09-05T08:00:08.000Z</time>
      </trkpt>
      <trkpt lat="47.32507" lon="-2.317">
        <ele>13.60000038147</ele>
        <time>2021-09-05T08:00:12.000Z</time>
      </trkpt>
      <trkpt lat="47.32507" lon="-2.3171">
        <ele>13.60000038147</ele>
        <time>2021-09-05T08:00:13.000Z</time>
      </trkpt>
      <trkpt lat="47.32511" lon="-2.31749">
        <ele>13.60000038147</ele>
        <time>2021-09-05T08:00:17.000Z</time>
      </trkpt>
      <trkpt lat="47.32518" lon="-2.3183">
        <ele>13.60000038147</ele>
        <time>2021-09-05T08:00:25.000Z</time>
      </trkpt>
      <trkpt lat="47.32519" lon="-2.31851">
        <ele>13.60000038147</ele>
        <time>2021-09-05T08:00:27.000Z</time>
      </trkpt>
      <trkpt lat="47.32518" lon="-2.31883">
        <ele>13.60000038147</ele>
        <time>2021-09-05T08:00:30.000Z</time>
      </trkpt>
      <trkpt lat="47.32513" lon="-2.31943">
        <ele>13.60000038147</ele>
        <time>2021-09-05T08:00:36.000Z</time>
      </trkpt>
      <trkpt lat="47.32512" lon="-2.31953">
        <ele>13.60000038147</ele>
        <time>2021-09-05T08:00:37.000Z</time>
      </trkpt>
      <trkpt lat="47.3251" lon="-2.32002">
        <ele>13.60000038147</ele>
        <time>2021-09-05T08:00:42.000Z</time>
      </trkpt>
      <trkpt lat="47.32507" lon="-2.32067">
        <ele>13.60000038147</ele>
        <time>2021-09-05T08:00:49.000Z</time>
      </trkpt>
      <trkpt lat="47.32503" lon="-2.32091">
        <ele>13.60000038147</ele>
        <time>2021-09-05T08:00:52.000Z</time>
      </trkpt>
      <trkpt lat="47.32498" lon="-2.32102">
        <ele>13.60000038147</ele>
        <time>2021-09-05T08:00:54.000Z</time>
      </trkpt>
      <trkpt lat="47.32484" lon="-2.32106">
        <ele>13.60000038147</ele>
        <time>2021-09-05T08:00:57.000Z</time>
      </trkpt>
      <trkpt lat="47.32444" lon="-2.32105">
        <ele>13.60000038147</ele>
        <time>2021-09-05T08:01:02.000Z</time>
      </trkpt>
      <trkpt lat="47.32408" lon="-2.32108">
        <ele>13.60000038147</ele>
        <time>2021-09-05T08:01:08.000Z</time>
      </trkpt>
      <trkpt lat="47.32375" lon="-2.32111">
        <ele>13.60000038147</ele>
        <time>2021-09-05T08:01:15.000Z</time>
      </trkpt>
      <trkpt lat="47.32357" lon="-2.32111">
        <ele>13.60000038147</ele>
        <time>2021-09-05T08:01:20.000Z</time>
      </trkpt>
      <trkpt lat="47.32344" lon="-2.32106">
        <ele>13.60000038147</ele>
        <time>2021-09-05T08:01:23.000Z</time>
      </trkpt>
      <trkpt lat="47.3234" lon="-2.32105">
        <ele>13.60000038147</ele>
        <time>2021-09-05T08:01:24.000Z</time>
      </trkpt>
      <trkpt lat="47.3231" lon="-2.321">
        <ele>13.60000038147</ele>
        <time>2021-09-05T08:01:30.000Z</time>
      </trkpt>
      <trkpt lat="47.32305" lon="-2.321">
        <ele>13.60000038147</ele>
        <time>2021-09-05T08:01:31.000Z</time>
      </trkpt>
      <trkpt lat="47.32275" lon="-2.32102">
        <ele>13.60000038147</ele>
        <time>2021-09-05T08:01:36.000Z</time>
      </trkpt>
      <trkpt lat="47.32257" lon="-2.32103">
        <ele>13.60000038147</ele>
        <time>2021-09-05T08:01:39.000Z</time>
      </trkpt>
      <trkpt lat="47.32234" lon="-2.32108">
        <ele>13.60000038147</ele>
        <time>2021-09-05T08:01:43.000Z</time>
      </trkpt>
      <trkpt lat="47.32201" lon="-2.3212">
        <ele>13.60000038147</ele>
        <time>2021-09-05T08:01:49.000Z</time>
      </trkpt>
      <trkpt lat="47.32196" lon="-2.32122">
        <ele>13.60000038147</ele>
        <time>2021-09-05T08:01:50.000Z</time>
      </trkpt>
      <trkpt lat="47.32174" lon="-2.32138">
        <ele>13.60000038147</ele>
        <time>2021-09-05T08:01:54.000Z</time>
      </trkpt>
      <trkpt lat="47.32152" lon="-2.32156">
        <ele>13</ele>
        <time>2021-09-05T08:01:58.000Z</time>
      </trkpt>
      <trkpt lat="47.32146" lon="-2.32162">
        <ele>12.60000038147</ele>
        <time>2021-09-05T08:01:59.000Z</time>
      </trkpt>
      <trkpt lat="47.3214" lon="-2.32166">
        <ele>12.199999809265</ele>
        <time>2021-09-05T08:02:00.000Z</time>
      </trkpt>
      <trkpt lat="47.32135" lon="-2.32171">
        <ele>11.800000190735</ele>
        <time>2021-09-05T08:02:01.000Z</time>
      </trkpt>
      <trkpt lat="47.32129" lon="-2.32175">
        <ele>11.39999961853</ele>
        <time>2021-09-05T08:02:02.000Z</time>
      </trkpt>
      <trkpt lat="47.32124" lon="-2.32178">
        <ele>11.39999961853</ele>
        <time>2021-09-05T08:02:03.000Z</time>
      </trkpt>
      <trkpt lat="47.32113" lon="-2.3218">
        <ele>11.39999961853</ele>
        <time>2021-09-05T08:02:05.000Z</time>
      </trkpt>
      <trkpt lat="47.32091" lon="-2.32183">
        <ele>11.39999961853</ele>
        <time>2021-09-05T08:02:10.000Z</time>
      </trkpt>
      <trkpt lat="47.32072" lon="-2.32184">
        <ele>11.39999961853</ele>
        <time>2021-09-05T08:02:15.000Z</time>
      </trkpt>
      <trkpt lat="47.32063" lon="-2.32186">
        <ele>11.39999961853</ele>
        <time>2021-09-05T08:02:17.000Z</time>
      </trkpt>
      <trkpt lat="47.32054" lon="-2.32188">
        <ele>11.39999961853</ele>
        <time>2021-09-05T08:02:19.000Z</time>
      </trkpt>
      <trkpt lat="47.32039" lon="-2.3219">
        <ele>12</ele>
        <time>2021-09-05T08:02:22.000Z</time>
      </trkpt>
      <trkpt lat="47.32033" lon="-2.32191">
        <ele>12.39999961853</ele>
        <time>2021-09-05T08:02:23.000Z</time>
      </trkpt>
      <trkpt lat="47.32028" lon="-2.32191">
        <ele>12.800000190735</ele>
        <time>2021-09-05T08:02:24.000Z</time>
      </trkpt>
      <trkpt lat="47.32022" lon="-2.32193">
        <ele>13.199999809265</ele>
        <time>2021-09-05T08:02:25.000Z</time>
      </trkpt>
      <trkpt lat="47.32017" lon="-2.32195">
        <ele>13.60000038147</ele>
        <time>2021-09-05T08:02:26.000Z</time>
      </trkpt>
      <trkpt lat="47.32006" lon="-2.32203">
        <ele>13.60000038147</ele>
        <time>2021-09-05T08:02:28.000Z</time>
      </trkpt>
      <trkpt lat="47.31968" lon="-2.32236">
        <ele>13.60000038147</ele>
        <time>2021-09-05T08:02:36.000Z</time>
      </trkpt>
      <trkpt lat="47.31963" lon="-2.32245">
        <ele>14.199999809265</ele>
        <time>2021-09-05T08:02:38.000Z</time>
      </trkpt>
      <trkpt lat="47.31961" lon="-2.32249">
        <ele>14.60000038147</ele>
        <time>2021-09-05T08:02:39.000Z</time>
      </trkpt>
      <trkpt lat="47.31959" lon="-2.32254">
        <ele>15</ele>
        <time>2021-09-05T08:02:40.000Z</time>
      </trkpt>
      <trkpt lat="47.31957" lon="-2.32259">
        <ele>15.60000038147</ele>
        <time>2021-09-05T08:02:41.000Z</time>
      </trkpt>
      <trkpt lat="47.31956" lon="-2.32262">
        <ele>16</ele>
        <time>2021-09-05T08:02:42.000Z</time>
      </trkpt>
      <trkpt lat="47.31953" lon="-2.32265">
        <ele>16</ele>
        <time>2021-09-05T08:02:43.000Z</time>
      </trkpt>
      <trkpt lat="47.3195" lon="-2.32264">
        <ele>16</ele>
        <time>2021-09-05T08:02:44.000Z</time>
      </trkpt>
      <trkpt lat="47.31948" lon="-2.32261">
        <ele>16.39999961853</ele>
        <time>2021-09-05T08:02:45.000Z</time>
      </trkpt>
      <trkpt lat="47.31948" lon="-2.32258">
        <ele>17</ele>
        <time>2021-09-05T08:02:46.000Z</time>
      </trkpt>
      <trkpt lat="47.31948" lon="-2.32254">
        <ele>17.39999961853</ele>
        <time>2021-09-05T08:02:47.000Z</time>
      </trkpt>
      <trkpt lat="47.31949" lon="-2.32249">
        <ele>18</ele>
        <time>2021-09-05T08:02:48.000Z</time>
      </trkpt>
      <trkpt lat="47.31951" lon="-2.32244">
        <ele>18.39999961853</ele>
        <time>2021-09-05T08:02:49.000Z</time>
      </trkpt>
      <trkpt lat="47.31955" lon="-2.32228">
        <ele>18.39999961853</ele>
        <time>2021-09-05T08:02:52.000Z</time>
      </trkpt>
      <trkpt lat="47.31955" lon="-2.32223">
        <ele>18.39999961853</ele>
        <time>2021-09-05T08:02:53.000Z</time>
      </trkpt>
      <trkpt lat="47.31952" lon="-2.32215">
        <ele>18.799999237061</ele>
        <time>2021-09-05T08:02:55.000Z</time>
      </trkpt>
      <trkpt lat="47.31949" lon="-2.32213">
        <ele>19.200000762939</ele>
        <time>2021-09-05T08:02:56.000Z</time>
      </trkpt>
      <trkpt lat="47.31945" lon="-2.32211">
        <ele>19.60000038147</ele>
        <time>2021-09-05T08:02:57.000Z</time>
      </trkpt>
      <trkpt lat="47.31941" lon="-2.3221">
        <ele>20.200000762939</ele>
        <time>2021-09-05T08:02:58.000Z</time>
      </trkpt>
      <trkpt lat="47.31938" lon="-2.32209">
        <ele>20.60000038147</ele>
        <time>2021-09-05T08:02:59.000Z</time>
      </trkpt>
      <trkpt lat="47.31934" lon="-2.32208">
        <ele>20.60000038147</ele>
        <time>2021-09-05T08:03:00.000Z</time>
      </trkpt>
      <trkpt lat="47.31911" lon="-2.32204">
        <ele>21</ele>
        <time>2021-09-05T08:03:06.000Z</time>
      </trkpt>
      <trkpt lat="47.31908" lon="-2.32204">
        <ele>21.39999961853</ele>
        <time>2021-09-05T08:03:07.000Z</time>
      </trkpt>
      <trkpt lat="47.31904" lon="-2.32204">
        <ele>21.799999237061</ele>
        <time>2021-09-05T08:03:08.000Z</time>
      </trkpt>
      <trkpt lat="47.31901" lon="-2.32204">
        <ele>22.39999961853</ele>
        <time>2021-09-05T08:03:09.000Z</time>
      </trkpt>
      <trkpt lat="47.31898" lon="-2.32204">
        <ele>22.799999237061</ele>
        <time>2021-09-05T08:03:10.000Z</time>
      </trkpt>
      <trkpt lat="47.31891" lon="-2.32206">
        <ele>22.799999237061</ele>
        <time>2021-09-05T08:03:12.000Z</time>
      </trkpt>
      <trkpt lat="47.31884" lon="-2.32208">
        <ele>23.200000762939</ele>
        <time>2021-09-05T08:03:14.000Z</time>
      </trkpt>
      <trkpt lat="47.3188" lon="-2.32209">
        <ele>23.60000038147</ele>
        <time>2021-09-05T08:03:15.000Z</time>
      </trkpt>
      <trkpt lat="47.31876" lon="-2.3221">
        <ele>24</ele>
        <time>2021-09-05T08:03:16.000Z</time>
      </trkpt>
      <trkpt lat="47.31873" lon="-2.32211">
        <ele>24.799999237061</ele>
        <time>2021-09-05T08:03:17.000Z</time>
      </trkpt>
      <trkpt lat="47.31866" lon="-2.32213">
        <ele>24.799999237061</ele>
        <time>2021-09-05T08:03:19.000Z</time>
      </trkpt>
      <trkpt lat="47.31851" lon="-2.32217">
        <ele>25.200000762939</ele>
        <time>2021-09-05T08:03:23.000Z</time>
      </trkpt>
      <trkpt lat="47.31848" lon="-2.32218">
        <ele>25.60000038147</ele>
        <time>2021-09-05T08:03:24.000Z</time>
      </trkpt>
      <trkpt lat="47.31845" lon="-2.32219">
        <ele>26</ele>
        <time>2021-09-05T08:03:25.000Z</time>
      </trkpt>
      <trkpt lat="47.31843" lon="-2.3222">
        <ele>26.39999961853</ele>
        <time>2021-09-05T08:03:26.000Z</time>
      </trkpt>
      <trkpt lat="47.3184" lon="-2.3222">
        <ele>26.799999237061</ele>
        <time>2021-09-05T08:03:27.000Z</time>
      </trkpt>
      <trkpt lat="47.31829" lon="-2.32222">
        <ele>27.200000762939</ele>
        <time>2021-09-05T08:03:31.000Z</time>
      </trkpt>
      <trkpt lat="47.31826" lon="-2.32223">
        <ele>27.60000038147</ele>
        <time>2021-09-05T08:03:32.000Z</time>
      </trkpt>
      <trkpt lat="47.31822" lon="-2.32223">
        <ele>28</ele>
        <time>2021-09-05T08:03:33.000Z</time>
      </trkpt>
      <trkpt lat="47.31819" lon="-2.32223">
        <ele>28.39999961853</ele>
        <time>2021-09-05T08:03:34.000Z</time>
      </trkpt>
      <trkpt lat="47.31816" lon="-2.32224">
        <ele>28.799999237061</ele>
        <time>2021-09-05T08:03:35.000Z</time>
      </trkpt>
      <trkpt lat="47.3181" lon="-2.32224">
        <ele>28.799999237061</ele>
        <time>2021-09-05T08:03:37.000Z</time>
      </trkpt>
      <trkpt lat="47.31792" lon="-2.32227">
        <ele>29.200000762939</ele>
        <time>2021-09-05T08:03:42.000Z</time>
      </trkpt>
      <trkpt lat="47.31789" lon="-2.32227">
        <ele>29.60000038147</ele>
        <time>2021-09-05T08:03:43.000Z</time>
      </trkpt>
      <trkpt lat="47.31786" lon="-2.32227">
        <ele>30.200000762939</ele>
        <time>2021-09-05T08:03:44.000Z</time>
      </trkpt>
      <trkpt lat="47.31783" lon="-2.32228">
        <ele>30.60000038147</ele>
        <time>2021-09-05T08:03:45.000Z</time>
      </trkpt>
      <trkpt lat="47.31779" lon="-2.32228">
        <ele>31</ele>
        <time>2021-09-05T08:03:46.000Z</time>
      </trkpt>
      <trkpt lat="47.31764" lon="-2.32231">
        <ele>31</ele>
        <time>2021-09-05T08:03:50.000Z</time>
      </trkpt>
      <trkpt lat="47.31753" lon="-2.32243">
        <ele>31</ele>
        <time>2021-09-05T08:03:54.000Z</time>
      </trkpt>
      <trkpt lat="47.31753" lon="-2.32248">
        <ele>31</ele>
        <time>2021-09-05T08:03:55.000Z</time>
      </trkpt>
      <trkpt lat="47.31754" lon="-2.32265">
        <ele>31</ele>
        <time>2021-09-05T08:03:58.000Z</time>
      </trkpt>
      <trkpt lat="47.31755" lon="-2.32272">
        <ele>31</ele>
        <time>2021-09-05T08:03:59.000Z</time>
      </trkpt>
      <trkpt lat="47.31764" lon="-2.32315">
        <ele>31</ele>
        <time>2021-09-05T08:04:05.000Z</time>
      </trkpt>
      <trkpt lat="47.31774" lon="-2.32374">
        <ele>31</ele>
        <time>2021-09-05T08:04:12.000Z</time>
      </trkpt>
      <trkpt lat="47.31784" lon="-2.32418">
        <ele>31</ele>
        <time>2021-09-05T08:04:17.000Z</time>
      </trkpt>
      <trkpt lat="47.31786" lon="-2.32427">
        <ele>31</ele>
        <time>2021-09-05T08:04:18.000Z</time>
      </trkpt>
      <trkpt lat="47.31787" lon="-2.32437">
        <ele>31</ele>
        <time>2021-09-05T08:04:19.000Z</time>
      </trkpt>
      <trkpt lat="47.31788" lon="-2.32452">
        <ele>31</ele>
        <time>2021-09-05T08:04:21.000Z</time>
      </trkpt>
      <trkpt lat="47.3179" lon="-2.32459">
        <ele>30.39999961853</ele>
        <time>2021-09-05T08:04:22.000Z</time>
      </trkpt>
      <trkpt lat="47.31792" lon="-2.32465">
        <ele>30</ele>
        <time>2021-09-05T08:04:23.000Z</time>
      </trkpt>
      <trkpt lat="47.31794" lon="-2.32472">
        <ele>29.60000038147</ele>
        <time>2021-09-05T08:04:24.000Z</time>
      </trkpt>
      <trkpt lat="47.31796" lon="-2.32479">
        <ele>29.200000762939</ele>
        <time>2021-09-05T08:04:25.000Z</time>
      </trkpt>
      <trkpt lat="47.31798" lon="-2.32486">
        <ele>28.60000038147</ele>
        <time>2021-09-05T08:04:26.000Z</time>
      </trkpt>
      <trkpt lat="47.318" lon="-2.32495">
        <ele>28.200000762939</ele>
        <time>2021-09-05T08:04:27.000Z</time>
      </trkpt>
      <trkpt lat="47.31802" lon="-2.32505">
        <ele>27.799999237061</ele>
        <time>2021-09-05T08:04:28.000Z</time>
      </trkpt>
      <trkpt lat="47.31803" lon="-2.32514">
        <ele>27.39999961853</ele>
        <time>2021-09-05T08:04:29.000Z</time>
      </trkpt>
      <trkpt lat="47.31804" lon="-2.32523">
        <ele>27</ele>
        <time>2021-09-05T08:04:30.000Z</time>
      </trkpt>
      <trkpt lat="47.31806" lon="-2.32532">
        <ele>26.60000038147</ele>
        <time>2021-09-05T08:04:31.000Z</time>
      </trkpt>
      <trkpt lat="47.31812" lon="-2.32563">
        <ele>26.200000762939</ele>
        <time>2021-09-05T08:04:34.000Z</time>
      </trkpt>
      <trkpt lat="47.31813" lon="-2.32573">
        <ele>25.799999237061</ele>
        <time>2021-09-05T08:04:35.000Z</time>
      </trkpt>
      <trkpt lat="47.31815" lon="-2.32583">
        <ele>25.200000762939</ele>
        <time>2021-09-05T08:04:36.000Z</time>
      </trkpt>
      <trkpt lat="47.31816" lon="-2.32592">
        <ele>24.799999237061</ele>
        <time>2021-09-05T08:04:37.000Z</time>
      </trkpt>
      <trkpt lat="47.31817" lon="-2.32602">
        <ele>24.39999961853</ele>
        <time>2021-09-05T08:04:38.000Z</time>
      </trkpt>
      <trkpt lat="47.31818" lon="-2.32612">
        <ele>24.39999961853</ele>
        <time>2021-09-05T08:04:39.000Z</time>
      </trkpt>
      <trkpt lat="47.31832" lon="-2.32653">
        <ele>24.39999961853</ele>
        <time>2021-09-05T08:04:43.000Z</time>
      </trkpt>
      <trkpt lat="47.31837" lon="-2.32661">
        <ele>24</ele>
        <time>2021-09-05T08:04:44.000Z</time>
      </trkpt>
      <trkpt lat="47.31841" lon="-2.3267">
        <ele>23.60000038147</ele>
        <time>2021-09-05T08:04:45.000Z</time>
      </trkpt>
      <trkpt lat="47.31844" lon="-2.32678">
        <ele>23</ele>
        <time>2021-09-05T08:04:46.000Z</time>
      </trkpt>
      <trkpt lat="47.31848" lon="-2.32687">
        <ele>22.60000038147</ele>
        <time>2021-09-05T08:04:47.000Z</time>
      </trkpt>
      <trkpt lat="47.31851" lon="-2.32696">
        <ele>22.200000762939</ele>
        <time>2021-09-05T08:04:48.000Z</time>
      </trkpt>
      <trkpt lat="47.3186" lon="-2.32723">
        <ele>22.200000762939</ele>
        <time>2021-09-05T08:04:51.000Z</time>
      </trkpt>
      <trkpt lat="47.31871" lon="-2.32758">
        <ele>22.200000762939</ele>
        <time>2021-09-05T08:04:55.000Z</time>
      </trkpt>
      <trkpt lat="47.31874" lon="-2.32778">
        <ele>21.799999237061</ele>
        <time>2021-09-05T08:04:57.000Z</time>
      </trkpt>
      <trkpt lat="47.31876" lon="-2.32788">
        <ele>21.200000762939</ele>
        <time>2021-09-05T08:04:58.000Z</time>
      </trkpt>
      <trkpt lat="47.31877" lon="-2.328">
        <ele>20.799999237061</ele>
        <time>2021-09-05T08:04:59.000Z</time>
      </trkpt>
      <trkpt lat="47.31879" lon="-2.3281">
        <ele>20.39999961853</ele>
        <time>2021-09-05T08:05:00.000Z</time>
      </trkpt>
      <trkpt lat="47.3188" lon="-2.32821">
        <ele>20</ele>
        <time>2021-09-05T08:05:01.000Z</time>
      </trkpt>
      <trkpt lat="47.31883" lon="-2.32842">
        <ele>20</ele>
        <time>2021-09-05T08:05:03.000Z</time>
      </trkpt>
      <trkpt lat="47.31883" lon="-2.32861">
        <ele>20</ele>
        <time>2021-09-05T08:05:05.000Z</time>
      </trkpt>
      <trkpt lat="47.31882" lon="-2.32893">
        <ele>20</ele>
        <time>2021-09-05T08:05:08.000Z</time>
      </trkpt>
      <trkpt lat="47.31884" lon="-2.32955">
        <ele>20</ele>
        <time>2021-09-05T08:05:14.000Z</time>
      </trkpt>
      <trkpt lat="47.31881" lon="-2.33005">
        <ele>19.60000038147</ele>
        <time>2021-09-05T08:05:19.000Z</time>
      </trkpt>
      <trkpt lat="47.31881" lon="-2.33016">
        <ele>19.200000762939</ele>
        <time>2021-09-05T08:05:20.000Z</time>
      </trkpt>
      <trkpt lat="47.31881" lon="-2.33026">
        <ele>18.799999237061</ele>
        <time>2021-09-05T08:05:21.000Z</time>
      </trkpt>
      <trkpt lat="47.31881" lon="-2.33036">
        <ele>18</ele>
        <time>2021-09-05T08:05:22.000Z</time>
      </trkpt>
      <trkpt lat="47.31881" lon="-2.33074">
        <ele>18</ele>
        <time>2021-09-05T08:05:26.000Z</time>
      </trkpt>
      <trkpt lat="47.31881" lon="-2.33105">
        <ele>18</ele>
        <time>2021-09-05T08:05:30.000Z</time>
      </trkpt>
      <trkpt lat="47.31885" lon="-2.33141">
        <ele>18</ele>
        <time>2021-09-05T08:05:36.000Z</time>
      </trkpt>
      <trkpt lat="47.31884" lon="-2.33154">
        <ele>18.39999961853</ele>
        <time>2021-09-05T08:05:38.000Z</time>
      </trkpt>
      <trkpt lat="47.31884" lon="-2.33162">
        <ele>18.799999237061</ele>
        <time>2021-09-05T08:05:39.000Z</time>
      </trkpt>
      <trkpt lat="47.31883" lon="-2.33171">
        <ele>19.200000762939</ele>
        <time>2021-09-05T08:05:40.000Z</time>
      </trkpt>
      <trkpt lat="47.31883" lon="-2.33178">
        <ele>19.60000038147</ele>
        <time>2021-09-05T08:05:41.000Z</time>
      </trkpt>
      <trkpt lat="47.31882" lon="-2.33185">
        <ele>20</ele>
        <time>2021-09-05T08:05:42.000Z</time>
      </trkpt>
      <trkpt lat="47.31878" lon="-2.33222">
        <ele>20.39999961853</ele>
        <time>2021-09-05T08:05:47.000Z</time>
      </trkpt>
      <trkpt lat="47.31877" lon="-2.33229">
        <ele>20.799999237061</ele>
        <time>2021-09-05T08:05:48.000Z</time>
      </trkpt>
      <trkpt lat="47.31877" lon="-2.33235">
        <ele>21.39999961853</ele>
        <time>2021-09-05T08:05:49.000Z</time>
      </trkpt>
      <trkpt lat="47.31876" lon="-2.33241">
        <ele>21.799999237061</ele>
        <time>2021-09-05T08:05:50.000Z</time>
      </trkpt>
      <trkpt lat="47.31875" lon="-2.33247">
        <ele>22.200000762939</ele>
        <time>2021-09-05T08:05:51.000Z</time>
      </trkpt>
      <trkpt lat="47.3187" lon="-2.33258">
        <ele>22.200000762939</ele>
        <time>2021-09-05T08:05:53.000Z</time>
      </trkpt>
      <trkpt lat="47.31857" lon="-2.33283">
        <ele>22.200000762939</ele>
        <time>2021-09-05T08:05:58.000Z</time>
      </trkpt>
      <trkpt lat="47.31844" lon="-2.33296">
        <ele>22.200000762939</ele>
        <time>2021-09-05T08:06:02.000Z</time>
      </trkpt>
      <trkpt lat="47.3184" lon="-2.33298">
        <ele>22.60000038147</ele>
        <time>2021-09-05T08:06:03.000Z</time>
      </trkpt>
      <trkpt lat="47.31836" lon="-2.33301">
        <ele>23</ele>
        <time>2021-09-05T08:06:04.000Z</time>
      </trkpt>
      <trkpt lat="47.31832" lon="-2.33305">
        <ele>23.39999961853</ele>
        <time>2021-09-05T08:06:05.000Z</time>
      </trkpt>
      <trkpt lat="47.31829" lon="-2.33308">
        <ele>23.799999237061</ele>
        <time>2021-09-05T08:06:06.000Z</time>
      </trkpt>
      <trkpt lat="47.31825" lon="-2.33311">
        <ele>24.200000762939</ele>
        <time>2021-09-05T08:06:07.000Z</time>
      </trkpt>
      <trkpt lat="47.31811" lon="-2.33324">
        <ele>25</ele>
        <time>2021-09-05T08:06:11.000Z</time>
      </trkpt>
      <trkpt lat="47.31808" lon="-2.33327">
        <ele>25.39999961853</ele>
        <time>2021-09-05T08:06:12.000Z</time>
      </trkpt>
      <trkpt lat="47.31804" lon="-2.3333">
        <ele>26</ele>
        <time>2021-09-05T08:06:13.000Z</time>
      </trkpt>
      <trkpt lat="47.318" lon="-2.33332">
        <ele>26.39999961853</ele>
        <time>2021-09-05T08:06:14.000Z</time>
      </trkpt>
      <trkpt lat="47.3179" lon="-2.33334">
        <ele>26.39999961853</ele>
        <time>2021-09-05T08:06:16.000Z</time>
      </trkpt>
      <trkpt lat="47.31784" lon="-2.3333">
        <ele>26.799999237061</ele>
        <time>2021-09-05T08:06:18.000Z</time>
      </trkpt>
      <trkpt lat="47.31779" lon="-2.33328">
        <ele>27.200000762939</ele>
        <time>2021-09-05T08:06:19.000Z</time>
      </trkpt>
      <trkpt lat="47.31776" lon="-2.33325">
        <ele>27.60000038147</ele>
        <time>2021-09-05T08:06:20.000Z</time>
      </trkpt>
      <trkpt lat="47.31774" lon="-2.33322">
        <ele>28</ele>
        <time>2021-09-05T08:06:21.000Z</time>
      </trkpt>
      <trkpt lat="47.31771" lon="-2.33318">
        <ele>28.39999961853</ele>
        <time>2021-09-05T08:06:22.000Z</time>
      </trkpt>
      <trkpt lat="47.31764" lon="-2.33303">
        <ele>28.39999961853</ele>
        <time>2021-09-05T08:06:25.000Z</time>
      </trkpt>
      <trkpt lat="47.31756" lon="-2.33273">
        <ele>28.799999237061</ele>
        <time>2021-09-05T08:06:31.000Z</time>
      </trkpt>
      <trkpt lat="47.31755" lon="-2.33268">
        <ele>29.200000762939</ele>
        <time>2021-09-05T08:06:32.000Z</time>
      </trkpt>
      <trkpt lat="47.31754" lon="-2.33263">
        <ele>29.60000038147</ele>
        <time>2021-09-05T08:06:33.000Z</time>
      </trkpt>
      <trkpt lat="47.31751" lon="-2.33261">
        <ele>30</ele>
        <time>2021-09-05T08:06:34.000Z</time>
      </trkpt>
      <trkpt lat="47.31748" lon="-2.3326">
        <ele>30.39999961853</ele>
        <time>2021-09-05T08:06:35.000Z</time>
      </trkpt>
      <trkpt lat="47.31739" lon="-2.33262">
        <ele>30.39999961853</ele>
        <time>2021-09-05T08:06:38.000Z</time>
      </trkpt>
      <trkpt lat="47.31735" lon="-2.33263">
        <ele>30.39999961853</ele>
        <time>2021-09-05T08:06:39.000Z</time>
      </trkpt>
      <trkpt lat="47.31712" lon="-2.33271">
        <ele>30.799999237061</ele>
        <time>2021-09-05T08:06:45.000Z</time>
      </trkpt>
      <trkpt lat="47.31707" lon="-2.33272">
        <ele>31.200000762939</ele>
        <time>2021-09-05T08:06:46.000Z</time>
      </trkpt>
      <trkpt lat="47.31702" lon="-2.33273">
        <ele>31.60000038147</ele>
        <time>2021-09-05T08:06:47.000Z</time>
      </trkpt>
      <trkpt lat="47.31697" lon="-2.33274">
        <ele>32</ele>
        <time>2021-09-05T08:06:48.000Z</time>
      </trkpt>
      <trkpt lat="47.31694" lon="-2.33276">
        <ele>32.599998474121</ele>
        <time>2021-09-05T08:06:49.000Z</time>
      </trkpt>
      <trkpt lat="47.31689" lon="-2.33276">
        <ele>32.599998474121</ele>
        <time>2021-09-05T08:06:50.000Z</time>
      </trkpt>
      <trkpt lat="47.31683" lon="-2.33277">
        <ele>32.599998474121</ele>
        <time>2021-09-05T08:06:51.000Z</time>
      </trkpt>
      <trkpt lat="47.31672" lon="-2.33281">
        <ele>32.599998474121</ele>
        <time>2021-09-05T08:06:53.000Z</time>
      </trkpt>
      <trkpt lat="47.31648" lon="-2.3329">
        <ele>32.599998474121</ele>
        <time>2021-09-05T08:06:58.000Z</time>
      </trkpt>
      <trkpt lat="47.3164" lon="-2.33294">
        <ele>33.400001525879</ele>
        <time>2021-09-05T08:07:00.000Z</time>
      </trkpt>
      <trkpt lat="47.31636" lon="-2.33296">
        <ele>33.799999237061</ele>
        <time>2021-09-05T08:07:01.000Z</time>
      </trkpt>
      <trkpt lat="47.31632" lon="-2.33298">
        <ele>34.200000762939</ele>
        <time>2021-09-05T08:07:02.000Z</time>
      </trkpt>
      <trkpt lat="47.31628" lon="-2.333">
        <ele>34.599998474121</ele>
        <time>2021-09-05T08:07:03.000Z</time>
      </trkpt>
      <trkpt lat="47.31615" lon="-2.33307">
        <ele>34.599998474121</ele>
        <time>2021-09-05T08:07:06.000Z</time>
      </trkpt>
      <trkpt lat="47.31583" lon="-2.33326">
        <ele>34.599998474121</ele>
        <time>2021-09-05T08:07:13.000Z</time>
      </trkpt>
      <trkpt lat="47.31545" lon="-2.33342">
        <ele>34.599998474121</ele>
        <time>2021-09-05T08:07:21.000Z</time>
      </trkpt>
      <trkpt lat="47.31505" lon="-2.33362">
        <ele>34.599998474121</ele>
        <time>2021-09-05T08:07:30.000Z</time>
      </trkpt>
      <trkpt lat="47.31484" lon="-2.33375">
        <ele>34.599998474121</ele>
        <time>2021-09-05T08:07:36.000Z</time>
      </trkpt>
      <trkpt lat="47.31482" lon="-2.33371">
        <ele>34.599998474121</ele>
        <time>2021-09-05T08:07:40.000Z</time>
      </trkpt>
      <trkpt lat="47.31482" lon="-2.33371">
        <ele>34.599998474121</ele>
        <time>2021-09-05T08:07:42.000Z</time>
      </trkpt>
      <trkpt lat="47.31482" lon="-2.33371">
        <ele>34.599998474121</ele>
        <time>2021-09-05T08:08:37.000Z</time>
      </trkpt>
      <trkpt lat="47.3148" lon="-2.33369">
        <ele>34.599998474121</ele>
        <time>2021-09-05T08:08:38.000Z</time>
      </trkpt>
      <trkpt lat="47.31479" lon="-2.33366">
        <ele>34.599998474121</ele>
        <time>2021-09-05T08:08:39.000Z</time>
      </trkpt>
      <trkpt lat="47.31474" lon="-2.33355">
        <ele>34.599998474121</ele>
        <time>2021-09-05T08:08:42.000Z</time>
      </trkpt>
      <trkpt lat="47.3147" lon="-2.33347">
        <ele>34.599998474121</ele>
        <time>2021-09-05T08:08:44.000Z</time>
      </trkpt>
      <trkpt lat="47.31461" lon="-2.33328">
        <ele>34.599998474121</ele>
        <time>2021-09-05T08:08:48.000Z</time>
      </trkpt>
      <trkpt lat="47.31455" lon="-2.33317">
        <ele>34.599998474121</ele>
        <time>2021-09-05T08:08:50.000Z</time>
      </trkpt>
      <trkpt lat="47.31445" lon="-2.333">
        <ele>34.599998474121</ele>
        <time>2021-09-05T08:08:53.000Z</time>
      </trkpt>
      <trkpt lat="47.31437" lon="-2.3329">
        <ele>34.599998474121</ele>
        <time>2021-09-05T08:08:55.000Z</time>
      </trkpt>
      <trkpt lat="47.31408" lon="-2.33266">
        <ele>34.599998474121</ele>
        <time>2021-09-05T08:09:01.000Z</time>
      </trkpt>
      <trkpt lat="47.31374" lon="-2.33242">
        <ele>34.599998474121</ele>
        <time>2021-09-05T08:09:08.000Z</time>
      </trkpt>
      <trkpt lat="47.31337" lon="-2.33214">
        <ele>34.599998474121</ele>
        <time>2021-09-05T08:09:15.000Z</time>
      </trkpt>
      <trkpt lat="47.31325" lon="-2.33204">
        <ele>34.599998474121</ele>
        <time>2021-09-05T08:09:17.000Z</time>
      </trkpt>
      <trkpt lat="47.31314" lon="-2.33194">
        <ele>34.599998474121</ele>
        <time>2021-09-05T08:09:19.000Z</time>
      </trkpt>
      <trkpt lat="47.3127" lon="-2.33164">
        <ele>34.599998474121</ele>
        <time>2021-09-05T08:09:26.000Z</time>
      </trkpt>
      <trkpt lat="47.3125" lon="-2.33158">
        <ele>34.200000762939</ele>
        <time>2021-09-05T08:09:29.000Z</time>
      </trkpt>
      <trkpt lat="47.31244" lon="-2.33157">
        <ele>33.799999237061</ele>
        <time>2021-09-05T08:09:30.000Z</time>
      </trkpt>
      <trkpt lat="47.31239" lon="-2.33155">
        <ele>33.400001525879</ele>
        <time>2021-09-05T08:09:31.000Z</time>
      </trkpt>
      <trkpt lat="47.31234" lon="-2.33152">
        <ele>33</ele>
        <time>2021-09-05T08:09:32.000Z</time>
      </trkpt>
      <trkpt lat="47.31232" lon="-2.33148">
        <ele>32.400001525879</ele>
        <time>2021-09-05T08:09:33.000Z</time>
      </trkpt>
      <trkpt lat="47.3123" lon="-2.33143">
        <ele>32.400001525879</ele>
        <time>2021-09-05T08:09:34.000Z</time>
      </trkpt>
      <trkpt lat="47.31232" lon="-2.33126">
        <ele>32.400001525879</ele>
        <time>2021-09-05T08:09:37.000Z</time>
      </trkpt>
      <trkpt lat="47.31236" lon="-2.33114">
        <ele>32.400001525879</ele>
        <time>2021-09-05T08:09:39.000Z</time>
      </trkpt>
      <trkpt lat="47.31242" lon="-2.33093">
        <ele>32.400001525879</ele>
        <time>2021-09-05T08:09:42.000Z</time>
      </trkpt>
      <trkpt lat="47.3125" lon="-2.33071">
        <ele>32.400001525879</ele>
        <time>2021-09-05T08:09:45.000Z</time>
      </trkpt>
      <trkpt lat="47.31258" lon="-2.33057">
        <ele>32.400001525879</ele>
        <time>2021-09-05T08:09:47.000Z</time>
      </trkpt>
      <trkpt lat="47.3128" lon="-2.33021">
        <ele>32.400001525879</ele>
        <time>2021-09-05T08:09:52.000Z</time>
      </trkpt>
      <trkpt lat="47.31308" lon="-2.32972">
        <ele>32.400001525879</ele>
        <time>2021-09-05T08:09:58.000Z</time>
      </trkpt>
      <trkpt lat="47.31331" lon="-2.32926">
        <ele>32.400001525879</ele>
        <time>2021-09-05T08:10:04.000Z</time>
      </trkpt>
      <trkpt lat="47.31335" lon="-2.3292">
        <ele>32.400001525879</ele>
        <time>2021-09-05T08:10:05.000Z</time>
      </trkpt>
      <trkpt lat="47.31343" lon="-2.32898">
        <ele>32.400001525879</ele>
        <time>2021-09-05T08:10:08.000Z</time>
      </trkpt>
      <trkpt lat="47.31339" lon="-2.3288">
        <ele>32.400001525879</ele>
        <time>2021-09-05T08:10:11.000Z</time>
      </trkpt>
      <trkpt lat="47.31332" lon="-2.32868">
        <ele>32.400001525879</ele>
        <time>2021-09-05T08:10:13.000Z</time>
      </trkpt>
      <trkpt lat="47.31328" lon="-2.32862">
        <ele>32.400001525879</ele>
        <time>2021-09-05T08:10:14.000Z</time>
      </trkpt>
      <trkpt lat="47.31324" lon="-2.32856">
        <ele>32.400001525879</ele>
        <time>2021-09-05T08:10:15.000Z</time>
      </trkpt>
      <trkpt lat="47.31298" lon="-2.32818">
        <ele>32.400001525879</ele>
        <time>2021-09-05T08:10:21.000Z</time>
      </trkpt>
      <trkpt lat="47.31278" lon="-2.32786">
        <ele>32.400001525879</ele>
        <time>2021-09-05T08:10:26.000Z</time>
      </trkpt>
      <trkpt lat="47.31274" lon="-2.32782">
        <ele>32.400001525879</ele>
        <time>2021-09-05T08:10:27.000Z</time>
      </trkpt>
      <trkpt lat="47.31241" lon="-2.3276">
        <ele>32.400001525879</ele>
        <time>2021-09-05T08:10:33.000Z</time>
      </trkpt>
      <trkpt lat="47.31213" lon="-2.32741">
        <ele>32.400001525879</ele>
        <time>2021-09-05T08:10:38.000Z</time>
      </trkpt>
      <trkpt lat="47.31209" lon="-2.32735">
        <ele>32.400001525879</ele>
        <time>2021-09-05T08:10:39.000Z</time>
      </trkpt>
      <trkpt lat="47.31198" lon="-2.32702">
        <ele>32.400001525879</ele>
        <time>2021-09-05T08:10:43.000Z</time>
      </trkpt>
      <trkpt lat="47.31185" lon="-2.32648">
        <ele>32.400001525879</ele>
        <time>2021-09-05T08:10:49.000Z</time>
      </trkpt>
      <trkpt lat="47.3118" lon="-2.32628">
        <ele>32.400001525879</ele>
        <time>2021-09-05T08:10:51.000Z</time>
      </trkpt>
      <trkpt lat="47.31178" lon="-2.32598">
        <ele>32.400001525879</ele>
        <time>2021-09-05T08:10:54.000Z</time>
      </trkpt>
      <trkpt lat="47.3118" lon="-2.32537">
        <ele>32.400001525879</ele>
        <time>2021-09-05T08:11:00.000Z</time>
      </trkpt>
      <trkpt lat="47.31182" lon="-2.3247">
        <ele>32</ele>
        <time>2021-09-05T08:11:07.000Z</time>
      </trkpt>
      <trkpt lat="47.31183" lon="-2.32461">
        <ele>31.60000038147</ele>
        <time>2021-09-05T08:11:08.000Z</time>
      </trkpt>
      <trkpt lat="47.31184" lon="-2.32453">
        <ele>31.200000762939</ele>
        <time>2021-09-05T08:11:09.000Z</time>
      </trkpt>
      <trkpt lat="47.31184" lon="-2.32446">
        <ele>30.799999237061</ele>
        <time>2021-09-05T08:11:10.000Z</time>
      </trkpt>
      <trkpt lat="47.31183" lon="-2.32438">
        <ele>30.39999961853</ele>
        <time>2021-09-05T08:11:11.000Z</time>
      </trkpt>
      <trkpt lat="47.3118" lon="-2.32432">
        <ele>30.39999961853</ele>
        <time>2021-09-05T08:11:12.000Z</time>
      </trkpt>
      <trkpt lat="47.31169" lon="-2.32424">
        <ele>30.39999961853</ele>
        <time>2021-09-05T08:11:15.000Z</time>
      </trkpt>
      <trkpt lat="47.31165" lon="-2.32423">
        <ele>30.39999961853</ele>
        <time>2021-09-05T08:11:16.000Z</time>
      </trkpt>
      <trkpt lat="47.3116" lon="-2.32421">
        <ele>30.39999961853</ele>
        <time>2021-09-05T08:11:17.000Z</time>
      </trkpt>
      <trkpt lat="47.31154" lon="-2.32413">
        <ele>30.39999961853</ele>
        <time>2021-09-05T08:11:19.000Z</time>
      </trkpt>
      <trkpt lat="47.31152" lon="-2.3239">
        <ele>30.39999961853</ele>
        <time>2021-09-05T08:11:22.000Z</time>
      </trkpt>
      <trkpt lat="47.31148" lon="-2.32344">
        <ele>30.39999961853</ele>
        <time>2021-09-05T08:11:27.000Z</time>
      </trkpt>
      <trkpt lat="47.31142" lon="-2.32317">
        <ele>29.60000038147</ele>
        <time>2021-09-05T08:11:30.000Z</time>
      </trkpt>
      <trkpt lat="47.31139" lon="-2.32308">
        <ele>29.200000762939</ele>
        <time>2021-09-05T08:11:31.000Z</time>
      </trkpt>
      <trkpt lat="47.31136" lon="-2.323">
        <ele>28.799999237061</ele>
        <time>2021-09-05T08:11:32.000Z</time>
      </trkpt>
      <trkpt lat="47.31133" lon="-2.32292">
        <ele>28.39999961853</ele>
        <time>2021-09-05T08:11:33.000Z</time>
      </trkpt>
      <trkpt lat="47.31129" lon="-2.32285">
        <ele>28.39999961853</ele>
        <time>2021-09-05T08:11:34.000Z</time>
      </trkpt>
      <trkpt lat="47.31116" lon="-2.32261">
        <ele>27.799999237061</ele>
        <time>2021-09-05T08:11:37.000Z</time>
      </trkpt>
      <trkpt lat="47.31112" lon="-2.32252">
        <ele>27.39999961853</ele>
        <time>2021-09-05T08:11:38.000Z</time>
      </trkpt>
      <trkpt lat="47.31109" lon="-2.32242">
        <ele>27</ele>
        <time>2021-09-05T08:11:39.000Z</time>
      </trkpt>
      <trkpt lat="47.31105" lon="-2.32233">
        <ele>26.60000038147</ele>
        <time>2021-09-05T08:11:40.000Z</time>
      </trkpt>
      <trkpt lat="47.31102" lon="-2.32224">
        <ele>26.200000762939</ele>
        <time>2021-09-05T08:11:41.000Z</time>
      </trkpt>
      <trkpt lat="47.31087" lon="-2.3219">
        <ele>25.799999237061</ele>
        <time>2021-09-05T08:11:45.000Z</time>
      </trkpt>
      <trkpt lat="47.31083" lon="-2.32182">
        <ele>25.39999961853</ele>
        <time>2021-09-05T08:11:46.000Z</time>
      </trkpt>
      <trkpt lat="47.31078" lon="-2.32175">
        <ele>25</ele>
        <time>2021-09-05T08:11:47.000Z</time>
      </trkpt>
      <trkpt lat="47.31074" lon="-2.32168">
        <ele>24.60000038147</ele>
        <time>2021-09-05T08:11:48.000Z</time>
      </trkpt>
      <trkpt lat="47.31069" lon="-2.3216">
        <ele>24</ele>
        <time>2021-09-05T08:11:49.000Z</time>
      </trkpt>
      <trkpt lat="47.31056" lon="-2.3214">
        <ele>24</ele>
        <time>2021-09-05T08:11:52.000Z</time>
      </trkpt>
      <trkpt lat="47.31044" lon="-2.32123">
        <ele>23.200000762939</ele>
        <time>2021-09-05T08:11:55.000Z</time>
      </trkpt>
      <trkpt lat="47.31039" lon="-2.32116">
        <ele>22.799999237061</ele>
        <time>2021-09-05T08:11:56.000Z</time>
      </trkpt>
      <trkpt lat="47.31034" lon="-2.32109">
        <ele>22.39999961853</ele>
        <time>2021-09-05T08:11:58.000Z</time>
      </trkpt>
      <trkpt lat="47.3103" lon="-2.32102">
        <ele>22</ele>
        <time>2021-09-05T08:11:59.000Z</time>
      </trkpt>
      <trkpt lat="47.31007" lon="-2.32065">
        <ele>22</ele>
        <time>2021-09-05T08:12:04.000Z</time>
      </trkpt>
      <trkpt lat="47.30984" lon="-2.32018">
        <ele>22</ele>
        <time>2021-09-05T08:12:10.000Z</time>
      </trkpt>
      <trkpt lat="47.30973" lon="-2.31991">
        <ele>21.60000038147</ele>
        <time>2021-09-05T08:12:13.000Z</time>
      </trkpt>
      <trkpt lat="47.30969" lon="-2.31982">
        <ele>21</ele>
        <time>2021-09-05T08:12:14.000Z</time>
      </trkpt>
      <trkpt lat="47.30967" lon="-2.31972">
        <ele>20.60000038147</ele>
        <time>2021-09-05T08:12:15.000Z</time>
      </trkpt>
      <trkpt lat="47.30965" lon="-2.31963">
        <ele>20.200000762939</ele>
        <time>2021-09-05T08:12:16.000Z</time>
      </trkpt>
      <trkpt lat="47.30964" lon="-2.31954">
        <ele>19.799999237061</ele>
        <time>2021-09-05T08:12:17.000Z</time>
      </trkpt>
      <trkpt lat="47.30964" lon="-2.31938">
        <ele>19.799999237061</ele>
        <time>2021-09-05T08:12:19.000Z</time>
      </trkpt>
      <trkpt lat="47.30968" lon="-2.31924">
        <ele>19.799999237061</ele>
        <time>2021-09-05T08:12:21.000Z</time>
      </trkpt>
      <trkpt lat="47.3097" lon="-2.31916">
        <ele>19.799999237061</ele>
        <time>2021-09-05T08:12:22.000Z</time>
      </trkpt>
      <trkpt lat="47.30982" lon="-2.31869">
        <ele>19.799999237061</ele>
        <time>2021-09-05T08:12:27.000Z</time>
      </trkpt>
      <trkpt lat="47.30985" lon="-2.31861">
        <ele>19.799999237061</ele>
        <time>2021-09-05T08:12:28.000Z</time>
      </trkpt>
      <trkpt lat="47.30991" lon="-2.31845">
        <ele>19.799999237061</ele>
        <time>2021-09-05T08:12:30.000Z</time>
      </trkpt>
      <trkpt lat="47.30993" lon="-2.31837">
        <ele>19.799999237061</ele>
        <time>2021-09-05T08:12:31.000Z</time>
      </trkpt>
      <trkpt lat="47.30987" lon="-2.31819">
        <ele>19.799999237061</ele>
        <time>2021-09-05T08:12:34.000Z</time>
      </trkpt>
      <trkpt lat="47.30973" lon="-2.318">
        <ele>19.799999237061</ele>
        <time>2021-09-05T08:12:37.000Z</time>
      </trkpt>
      <trkpt lat="47.30968" lon="-2.31794">
        <ele>19.799999237061</ele>
        <time>2021-09-05T08:12:38.000Z</time>
      </trkpt>
      <trkpt lat="47.30942" lon="-2.31764">
        <ele>19.799999237061</ele>
        <time>2021-09-05T08:12:43.000Z</time>
      </trkpt>
      <trkpt lat="47.30912" lon="-2.31727">
        <ele>19.799999237061</ele>
        <time>2021-09-05T08:12:49.000Z</time>
      </trkpt>
      <trkpt lat="47.30882" lon="-2.31689">
        <ele>19.799999237061</ele>
        <time>2021-09-05T08:12:55.000Z</time>
      </trkpt>
      <trkpt lat="47.30849" lon="-2.3165">
        <ele>19.799999237061</ele>
        <time>2021-09-05T08:13:02.000Z</time>
      </trkpt>
      <trkpt lat="47.30843" lon="-2.31649">
        <ele>19.799999237061</ele>
        <time>2021-09-05T08:13:03.000Z</time>
      </trkpt>
      <trkpt lat="47.30832" lon="-2.31657">
        <ele>19.799999237061</ele>
        <time>2021-09-05T08:13:05.000Z</time>
      </trkpt>
      <trkpt lat="47.30827" lon="-2.31663">
        <ele>19.799999237061</ele>
        <time>2021-09-05T08:13:06.000Z</time>
      </trkpt>
      <trkpt lat="47.30794" lon="-2.31704">
        <ele>19.799999237061</ele>
        <time>2021-09-05T08:13:12.000Z</time>
      </trkpt>
      <trkpt lat="47.30762" lon="-2.31742">
        <ele>19.39999961853</ele>
        <time>2021-09-05T08:13:18.000Z</time>
      </trkpt>
      <trkpt lat="47.30757" lon="-2.31747">
        <ele>18.799999237061</ele>
        <time>2021-09-05T08:13:19.000Z</time>
      </trkpt>
      <trkpt lat="47.30753" lon="-2.31751">
        <ele>18.39999961853</ele>
        <time>2021-09-05T08:13:20.000Z</time>
      </trkpt>
      <trkpt lat="47.30751" lon="-2.31755">
        <ele>18</ele>
        <time>2021-09-05T08:13:21.000Z</time>
      </trkpt>
      <trkpt lat="47.30748" lon="-2.31759">
        <ele>17.60000038147</ele>
        <time>2021-09-05T08:13:22.000Z</time>
      </trkpt>
      <trkpt lat="47.30746" lon="-2.31761">
        <ele>17.60000038147</ele>
        <time>2021-09-05T08:13:23.000Z</time>
      </trkpt>
      <trkpt lat="47.30744" lon="-2.31762">
        <ele>17.60000038147</ele>
        <time>2021-09-05T08:13:24.000Z</time>
      </trkpt>
      <trkpt lat="47.30741" lon="-2.31762">
        <ele>17.200000762939</ele>
        <time>2021-09-05T08:13:25.000Z</time>
      </trkpt>
      <trkpt lat="47.30738" lon="-2.31761">
        <ele>16.799999237061</ele>
        <time>2021-09-05T08:13:26.000Z</time>
      </trkpt>
      <trkpt lat="47.30735" lon="-2.3176">
        <ele>16.39999961853</ele>
        <time>2021-09-05T08:13:27.000Z</time>
      </trkpt>
      <trkpt lat="47.30731" lon="-2.31758">
        <ele>16</ele>
        <time>2021-09-05T08:13:28.000Z</time>
      </trkpt>
      <trkpt lat="47.30727" lon="-2.31755">
        <ele>15.60000038147</ele>
        <time>2021-09-05T08:13:29.000Z</time>
      </trkpt>
      <trkpt lat="47.3072" lon="-2.31746">
        <ele>15.60000038147</ele>
        <time>2021-09-05T08:13:31.000Z</time>
      </trkpt>
      <trkpt lat="47.30715" lon="-2.31731">
        <ele>15.60000038147</ele>
        <time>2021-09-05T08:13:33.000Z</time>
      </trkpt>
      <trkpt lat="47.30712" lon="-2.31724">
        <ele>15.60000038147</ele>
        <time>2021-09-05T08:13:34.000Z</time>
      </trkpt>
      <trkpt lat="47.30693" lon="-2.31676">
        <ele>15.60000038147</ele>
        <time>2021-09-05T08:13:40.000Z</time>
      </trkpt>
      <trkpt lat="47.30676" lon="-2.31627">
        <ele>15.60000038147</ele>
        <time>2021-09-05T08:13:45.000Z</time>
      </trkpt>
      <trkpt lat="47.30668" lon="-2.31609">
        <ele>15.60000038147</ele>
        <time>2021-09-05T08:13:47.000Z</time>
      </trkpt>
      <trkpt lat="47.3066" lon="-2.31592">
        <ele>15.60000038147</ele>
        <time>2021-09-05T08:13:49.000Z</time>
      </trkpt>
      <trkpt lat="47.30635" lon="-2.31537">
        <ele>15.60000038147</ele>
        <time>2021-09-05T08:13:56.000Z</time>
      </trkpt>
      <trkpt lat="47.30618" lon="-2.31492">
        <ele>16</ele>
        <time>2021-09-05T08:14:02.000Z</time>
      </trkpt>
      <trkpt lat="47.30615" lon="-2.31485">
        <ele>16.39999961853</ele>
        <time>2021-09-05T08:14:03.000Z</time>
      </trkpt>
      <trkpt lat="47.30612" lon="-2.31478">
        <ele>16.799999237061</ele>
        <time>2021-09-05T08:14:04.000Z</time>
      </trkpt>
      <trkpt lat="47.30609" lon="-2.31471">
        <ele>17.39999961853</ele>
        <time>2021-09-05T08:14:05.000Z</time>
      </trkpt>
      <trkpt lat="47.30607" lon="-2.31464">
        <ele>17.799999237061</ele>
        <time>2021-09-05T08:14:06.000Z</time>
      </trkpt>
      <trkpt lat="47.30604" lon="-2.31457">
        <ele>17.799999237061</ele>
        <time>2021-09-05T08:14:07.000Z</time>
      </trkpt>
      <trkpt lat="47.30595" lon="-2.31435">
        <ele>17.799999237061</ele>
        <time>2021-09-05T08:14:10.000Z</time>
      </trkpt>
      <trkpt lat="47.30573" lon="-2.31384">
        <ele>17.799999237061</ele>
        <time>2021-09-05T08:14:17.000Z</time>
      </trkpt>
      <trkpt lat="47.30569" lon="-2.31378">
        <ele>17.799999237061</ele>
        <time>2021-09-05T08:14:18.000Z</time>
      </trkpt>
      <trkpt lat="47.30549" lon="-2.31348">
        <ele>17.799999237061</ele>
        <time>2021-09-05T08:14:23.000Z</time>
      </trkpt>
      <trkpt lat="47.30524" lon="-2.31303">
        <ele>17.799999237061</ele>
        <time>2021-09-05T08:14:30.000Z</time>
      </trkpt>
      <trkpt lat="47.30516" lon="-2.31291">
        <ele>17.799999237061</ele>
        <time>2021-09-05T08:14:32.000Z</time>
      </trkpt>
      <trkpt lat="47.30507" lon="-2.31279">
        <ele>17.799999237061</ele>
        <time>2021-09-05T08:14:34.000Z</time>
      </trkpt>
      <trkpt lat="47.30483" lon="-2.31238">
        <ele>17.799999237061</ele>
        <time>2021-09-05T08:14:40.000Z</time>
      </trkpt>
      <trkpt lat="47.30467" lon="-2.312">
        <ele>17.799999237061</ele>
        <time>2021-09-05T08:14:45.000Z</time>
      </trkpt>
      <trkpt lat="47.30449" lon="-2.31143">
        <ele>17.799999237061</ele>
        <time>2021-09-05T08:14:52.000Z</time>
      </trkpt>
      <trkpt lat="47.30446" lon="-2.31136">
        <ele>17.799999237061</ele>
        <time>2021-09-05T08:14:53.000Z</time>
      </trkpt>
      <trkpt lat="47.30434" lon="-2.31117">
        <ele>17.799999237061</ele>
        <time>2021-09-05T08:14:56.000Z</time>
      </trkpt>
      <trkpt lat="47.30419" lon="-2.31102">
        <ele>17.799999237061</ele>
        <time>2021-09-05T08:14:59.000Z</time>
      </trkpt>
      <trkpt lat="47.30408" lon="-2.31094">
        <ele>17.799999237061</ele>
        <time>2021-09-05T08:15:01.000Z</time>
      </trkpt>
      <trkpt lat="47.30394" lon="-2.31082">
        <ele>17.799999237061</ele>
        <time>2021-09-05T08:15:04.000Z</time>
      </trkpt>
      <trkpt lat="47.30384" lon="-2.3107">
        <ele>17.799999237061</ele>
        <time>2021-09-05T08:15:06.000Z</time>
      </trkpt>
      <trkpt lat="47.30365" lon="-2.31043">
        <ele>17.799999237061</ele>
        <time>2021-09-05T08:15:10.000Z</time>
      </trkpt>
      <trkpt lat="47.3035" lon="-2.31023">
        <ele>17.799999237061</ele>
        <time>2021-09-05T08:15:13.000Z</time>
      </trkpt>
      <trkpt lat="47.30329" lon="-2.30993">
        <ele>17.39999961853</ele>
        <time>2021-09-05T08:15:17.000Z</time>
      </trkpt>
      <trkpt lat="47.30323" lon="-2.30986">
        <ele>17</ele>
        <time>2021-09-05T08:15:18.000Z</time>
      </trkpt>
      <trkpt lat="47.30318" lon="-2.30978">
        <ele>16.60000038147</ele>
        <time>2021-09-05T08:15:19.000Z</time>
      </trkpt>
      <trkpt lat="47.30312" lon="-2.30969">
        <ele>16.200000762939</ele>
        <time>2021-09-05T08:15:20.000Z</time>
      </trkpt>
      <trkpt lat="47.30306" lon="-2.3096">
        <ele>15.800000190735</ele>
        <time>2021-09-05T08:15:21.000Z</time>
      </trkpt>
      <trkpt lat="47.30281" lon="-2.30924">
        <ele>15.39999961853</ele>
        <time>2021-09-05T08:15:25.000Z</time>
      </trkpt>
      <trkpt lat="47.30275" lon="-2.30916">
        <ele>15</ele>
        <time>2021-09-05T08:15:26.000Z</time>
      </trkpt>
      <trkpt lat="47.30269" lon="-2.30907">
        <ele>14.60000038147</ele>
        <time>2021-09-05T08:15:27.000Z</time>
      </trkpt>
      <trkpt lat="47.30263" lon="-2.30898">
        <ele>14.199999809265</ele>
        <time>2021-09-05T08:15:28.000Z</time>
      </trkpt>
      <trkpt lat="47.30257" lon="-2.3089">
        <ele>13.800000190735</ele>
        <time>2021-09-05T08:15:29.000Z</time>
      </trkpt>
      <trkpt lat="47.3025" lon="-2.30882">
        <ele>13.800000190735</ele>
        <time>2021-09-05T08:15:30.000Z</time>
      </trkpt>
      <trkpt lat="47.30244" lon="-2.30874">
        <ele>13.199999809265</ele>
        <time>2021-09-05T08:15:31.000Z</time>
      </trkpt>
      <trkpt lat="47.30238" lon="-2.30866">
        <ele>12.800000190735</ele>
        <time>2021-09-05T08:15:32.000Z</time>
      </trkpt>
      <trkpt lat="47.30231" lon="-2.3086">
        <ele>12.39999961853</ele>
        <time>2021-09-05T08:15:33.000Z</time>
      </trkpt>
      <trkpt lat="47.30224" lon="-2.30853">
        <ele>11.800000190735</ele>
        <time>2021-09-05T08:15:34.000Z</time>
      </trkpt>
      <trkpt lat="47.30217" lon="-2.30847">
        <ele>11.39999961853</ele>
        <time>2021-09-05T08:15:35.000Z</time>
      </trkpt>
      <trkpt lat="47.3021" lon="-2.3084">
        <ele>11.39999961853</ele>
        <time>2021-09-05T08:15:36.000Z</time>
      </trkpt>
      <trkpt lat="47.30204" lon="-2.30833">
        <ele>11</ele>
        <time>2021-09-05T08:15:37.000Z</time>
      </trkpt>
      <trkpt lat="47.30199" lon="-2.30827">
        <ele>10.60000038147</ele>
        <time>2021-09-05T08:15:38.000Z</time>
      </trkpt>
      <trkpt lat="47.30193" lon="-2.30821">
        <ele>10</ele>
        <time>2021-09-05T08:15:39.000Z</time>
      </trkpt>
      <trkpt lat="47.30188" lon="-2.30815">
        <ele>9.6000003814697</ele>
        <time>2021-09-05T08:15:40.000Z</time>
      </trkpt>
      <trkpt lat="47.30183" lon="-2.30808">
        <ele>9.1999998092651</ele>
        <time>2021-09-05T08:15:41.000Z</time>
      </trkpt>
      <trkpt lat="47.3018" lon="-2.30784">
        <ele>9.1999998092651</ele>
        <time>2021-09-05T08:15:44.000Z</time>
      </trkpt>
      <trkpt lat="47.3018" lon="-2.30776">
        <ele>9.1999998092651</ele>
        <time>2021-09-05T08:15:45.000Z</time>
      </trkpt>
      <trkpt lat="47.3018" lon="-2.30768">
        <ele>8.8000001907349</ele>
        <time>2021-09-05T08:15:46.000Z</time>
      </trkpt>
      <trkpt lat="47.3018" lon="-2.3076">
        <ele>8.3999996185303</ele>
        <time>2021-09-05T08:15:47.000Z</time>
      </trkpt>
      <trkpt lat="47.3018" lon="-2.30753">
        <ele>7.8000001907349</ele>
        <time>2021-09-05T08:15:48.000Z</time>
      </trkpt>
      <trkpt lat="47.30178" lon="-2.30748">
        <ele>7.4000000953674</ele>
        <time>2021-09-05T08:15:49.000Z</time>
      </trkpt>
      <trkpt lat="47.30175" lon="-2.30744">
        <ele>7</ele>
        <time>2021-09-05T08:15:50.000Z</time>
      </trkpt>
      <trkpt lat="47.30171" lon="-2.30732">
        <ele>7</ele>
        <time>2021-09-05T08:15:52.000Z</time>
      </trkpt>
      <trkpt lat="47.3017" lon="-2.30724">
        <ele>7</ele>
        <time>2021-09-05T08:15:53.000Z</time>
      </trkpt>
      <trkpt lat="47.30164" lon="-2.30685">
        <ele>7</ele>
        <time>2021-09-05T08:15:58.000Z</time>
      </trkpt>
      <trkpt lat="47.30162" lon="-2.30669">
        <ele>7</ele>
        <time>2021-09-05T08:16:00.000Z</time>
      </trkpt>
      <trkpt lat="47.30163" lon="-2.30647">
        <ele>7</ele>
        <time>2021-09-05T08:16:03.000Z</time>
      </trkpt>
      <trkpt lat="47.30164" lon="-2.3064">
        <ele>7</ele>
        <time>2021-09-05T08:16:04.000Z</time>
      </trkpt>
      <trkpt lat="47.30169" lon="-2.3062">
        <ele>7</ele>
        <time>2021-09-05T08:16:07.000Z</time>
      </trkpt>
      <trkpt lat="47.30172" lon="-2.30606">
        <ele>7</ele>
        <time>2021-09-05T08:16:09.000Z</time>
      </trkpt>
      <trkpt lat="47.30175" lon="-2.30599">
        <ele>7</ele>
        <time>2021-09-05T08:16:10.000Z</time>
      </trkpt>
      <trkpt lat="47.30185" lon="-2.3059">
        <ele>7</ele>
        <time>2021-09-05T08:16:12.000Z</time>
      </trkpt>
      <trkpt lat="47.30211" lon="-2.30585">
        <ele>7</ele>
        <time>2021-09-05T08:16:16.000Z</time>
      </trkpt>
      <trkpt lat="47.30225" lon="-2.30578">
        <ele>7</ele>
        <time>2021-09-05T08:16:19.000Z</time>
      </trkpt>
      <trkpt lat="47.30226" lon="-2.30574">
        <ele>7</ele>
        <time>2021-09-05T08:16:20.000Z</time>
      </trkpt>
      <trkpt lat="47.30228" lon="-2.30567">
        <ele>7</ele>
        <time>2021-09-05T08:16:23.000Z</time>
      </trkpt>
      <trkpt lat="47.30227" lon="-2.30564">
        <ele>7</ele>
        <time>2021-09-05T08:16:24.000Z</time>
      </trkpt>
      <trkpt lat="47.30222" lon="-2.30563">
        <ele>7</ele>
        <time>2021-09-05T08:16:28.000Z</time>
      </trkpt>
      <trkpt lat="47.30221" lon="-2.30565">
        <ele>7</ele>
        <time>2021-09-05T08:16:29.000Z</time>
      </trkpt>
      <trkpt lat="47.30219" lon="-2.30566">
        <ele>7</ele>
        <time>2021-09-05T08:16:33.000Z</time>
      </trkpt>
      <trkpt lat="47.3022" lon="-2.30561">
        <ele>7</ele>
        <time>2021-09-05T08:23:40.000Z</time>
      </trkpt>
      <trkpt lat="47.30225" lon="-2.30557">
        <ele>7</ele>
        <time>2021-09-05T08:23:43.000Z</time>
      </trkpt>
      <trkpt lat="47.30228" lon="-2.30546">
        <ele>7</ele>
        <time>2021-09-05T08:23:46.000Z</time>
      </trkpt>
      <trkpt lat="47.30226" lon="-2.30543">
        <ele>7</ele>
        <time>2021-09-05T08:23:47.000Z</time>
      </trkpt>
      <trkpt lat="47.30213" lon="-2.30528">
        <ele>7</ele>
        <time>2021-09-05T08:23:52.000Z</time>
      </trkpt>
      <trkpt lat="47.30201" lon="-2.30516">
        <ele>7</ele>
        <time>2021-09-05T08:23:56.000Z</time>
      </trkpt>
      <trkpt lat="47.30198" lon="-2.30514">
        <ele>7</ele>
        <time>2021-09-05T08:23:57.000Z</time>
      </trkpt>
      <trkpt lat="47.30176" lon="-2.30491">
        <ele>7</ele>
        <time>2021-09-05T08:24:05.000Z</time>
      </trkpt>
      <trkpt lat="47.30157" lon="-2.30461">
        <ele>7</ele>
        <time>2021-09-05T08:24:11.000Z</time>
      </trkpt>
      <trkpt lat="47.30141" lon="-2.30422">
        <ele>7</ele>
        <time>2021-09-05T08:24:17.000Z</time>
      </trkpt>
      <trkpt lat="47.30129" lon="-2.30379">
        <ele>7</ele>
        <time>2021-09-05T08:24:23.000Z</time>
      </trkpt>
      <trkpt lat="47.30125" lon="-2.30364">
        <ele>7.4000000953674</ele>
        <time>2021-09-05T08:24:25.000Z</time>
      </trkpt>
      <trkpt lat="47.30123" lon="-2.30357">
        <ele>7.8000001907349</ele>
        <time>2021-09-05T08:24:26.000Z</time>
      </trkpt>
      <trkpt lat="47.30121" lon="-2.3035">
        <ele>8.1999998092651</ele>
        <time>2021-09-05T08:24:27.000Z</time>
      </trkpt>
      <trkpt lat="47.30119" lon="-2.30343">
        <ele>8.6000003814697</ele>
        <time>2021-09-05T08:24:28.000Z</time>
      </trkpt>
      <trkpt lat="47.30117" lon="-2.30336">
        <ele>9</ele>
        <time>2021-09-05T08:24:29.000Z</time>
      </trkpt>
      <trkpt lat="47.30115" lon="-2.30329">
        <ele>9</ele>
        <time>2021-09-05T08:24:30.000Z</time>
      </trkpt>
      <trkpt lat="47.30106" lon="-2.30294">
        <ele>9</ele>
        <time>2021-09-05T08:24:35.000Z</time>
      </trkpt>
      <trkpt lat="47.30107" lon="-2.30279">
        <ele>9</ele>
        <time>2021-09-05T08:24:37.000Z</time>
      </trkpt>
      <trkpt lat="47.30119" lon="-2.30262">
        <ele>9</ele>
        <time>2021-09-05T08:24:40.000Z</time>
      </trkpt>
      <trkpt lat="47.3013" lon="-2.3026">
        <ele>9</ele>
        <time>2021-09-05T08:24:42.000Z</time>
      </trkpt>
      <trkpt lat="47.30141" lon="-2.30256">
        <ele>9</ele>
        <time>2021-09-05T08:24:44.000Z</time>
      </trkpt>
      <trkpt lat="47.3018" lon="-2.30241">
        <ele>9</ele>
        <time>2021-09-05T08:24:51.000Z</time>
      </trkpt>
      <trkpt lat="47.302" lon="-2.30227">
        <ele>9</ele>
        <time>2021-09-05T08:24:55.000Z</time>
      </trkpt>
      <trkpt lat="47.30203" lon="-2.3022">
        <ele>9</ele>
        <time>2021-09-05T08:24:56.000Z</time>
      </trkpt>
      <trkpt lat="47.30203" lon="-2.30199">
        <ele>9</ele>
        <time>2021-09-05T08:24:59.000Z</time>
      </trkpt>
      <trkpt lat="47.302" lon="-2.30186">
        <ele>9</ele>
        <time>2021-09-05T08:25:01.000Z</time>
      </trkpt>
      <trkpt lat="47.30197" lon="-2.30178">
        <ele>9</ele>
        <time>2021-09-05T08:25:02.000Z</time>
      </trkpt>
      <trkpt lat="47.30193" lon="-2.3017">
        <ele>9</ele>
        <time>2021-09-05T08:25:03.000Z</time>
      </trkpt>
      <trkpt lat="47.30174" lon="-2.30122">
        <ele>9</ele>
        <time>2021-09-05T08:25:09.000Z</time>
      </trkpt>
      <trkpt lat="47.30151" lon="-2.30062">
        <ele>9</ele>
        <time>2021-09-05T08:25:17.000Z</time>
      </trkpt>
      <trkpt lat="47.30141" lon="-2.30043">
        <ele>8.6000003814697</ele>
        <time>2021-09-05T08:25:20.000Z</time>
      </trkpt>
      <trkpt lat="47.30138" lon="-2.30036">
        <ele>8.1999998092651</ele>
        <time>2021-09-05T08:25:21.000Z</time>
      </trkpt>
      <trkpt lat="47.30136" lon="-2.3003">
        <ele>7.8000001907349</ele>
        <time>2021-09-05T08:25:22.000Z</time>
      </trkpt>
      <trkpt lat="47.30133" lon="-2.30024">
        <ele>7.1999998092651</ele>
        <time>2021-09-05T08:25:23.000Z</time>
      </trkpt>
      <trkpt lat="47.3013" lon="-2.30019">
        <ele>6.8000001907349</ele>
        <time>2021-09-05T08:25:24.000Z</time>
      </trkpt>
      <trkpt lat="47.30121" lon="-2.30007">
        <ele>6.8000001907349</ele>
        <time>2021-09-05T08:25:27.000Z</time>
      </trkpt>
      <trkpt lat="47.30115" lon="-2.30003">
        <ele>6.8000001907349</ele>
        <time>2021-09-05T08:25:29.000Z</time>
      </trkpt>
      <trkpt lat="47.30109" lon="-2.3">
        <ele>6.8000001907349</ele>
        <time>2021-09-05T08:25:31.000Z</time>
      </trkpt>
      <trkpt lat="47.30104" lon="-2.29986">
        <ele>6.8000001907349</ele>
        <time>2021-09-05T08:25:35.000Z</time>
      </trkpt>
      <trkpt lat="47.30103" lon="-2.29984">
        <ele>6.8000001907349</ele>
        <time>2021-09-05T08:25:36.000Z</time>
      </trkpt>
      <trkpt lat="47.30101" lon="-2.29973">
        <ele>6.8000001907349</ele>
        <time>2021-09-05T08:25:41.000Z</time>
      </trkpt>
      <trkpt lat="47.30103" lon="-2.29958">
        <ele>6.8000001907349</ele>
        <time>2021-09-05T08:25:47.000Z</time>
      </trkpt>
      <trkpt lat="47.30102" lon="-2.29955">
        <ele>6.8000001907349</ele>
        <time>2021-09-05T08:25:48.000Z</time>
      </trkpt>
      <trkpt lat="47.30098" lon="-2.29937">
        <ele>6.8000001907349</ele>
        <time>2021-09-05T08:25:53.000Z</time>
      </trkpt>
      <trkpt lat="47.301" lon="-2.29921">
        <ele>6.8000001907349</ele>
        <time>2021-09-05T08:25:57.000Z</time>
      </trkpt>
      <trkpt lat="47.30102" lon="-2.29918">
        <ele>6.8000001907349</ele>
        <time>2021-09-05T08:25:59.000Z</time>
      </trkpt>
      <trkpt lat="47.30105" lon="-2.2991">
        <ele>6.8000001907349</ele>
        <time>2021-09-05T08:26:01.000Z</time>
      </trkpt>
      <trkpt lat="47.30116" lon="-2.29899">
        <ele>6.8000001907349</ele>
        <time>2021-09-05T08:26:05.000Z</time>
      </trkpt>
      <trkpt lat="47.30131" lon="-2.29886">
        <ele>6.8000001907349</ele>
        <time>2021-09-05T08:26:10.000Z</time>
      </trkpt>
      <trkpt lat="47.30146" lon="-2.29871">
        <ele>6.8000001907349</ele>
        <time>2021-09-05T08:26:15.000Z</time>
      </trkpt>
      <trkpt lat="47.30158" lon="-2.29855">
        <ele>6.8000001907349</ele>
        <time>2021-09-05T08:26:21.000Z</time>
      </trkpt>
      <trkpt lat="47.3016" lon="-2.29854">
        <ele>6.4000000953674</ele>
        <time>2021-09-05T08:26:22.000Z</time>
      </trkpt>
      <trkpt lat="47.3016" lon="-2.29853">
        <ele>6</ele>
        <time>2021-09-05T08:26:23.000Z</time>
      </trkpt>
      <trkpt lat="47.30161" lon="-2.29852">
        <ele>5.5999999046326</ele>
        <time>2021-09-05T08:26:24.000Z</time>
      </trkpt>
      <trkpt lat="47.30167" lon="-2.29839">
        <ele>4.8000001907349</ele>
        <time>2021-09-05T08:26:33.000Z</time>
      </trkpt>
      <trkpt lat="47.30169" lon="-2.29835">
        <ele>4.8000001907349</ele>
        <time>2021-09-05T08:26:34.000Z</time>
      </trkpt>
      <trkpt lat="47.30178" lon="-2.29824">
        <ele>4.8000001907349</ele>
        <time>2021-09-05T08:26:39.000Z</time>
      </trkpt>
      <trkpt lat="47.3019" lon="-2.2981">
        <ele>4.8000001907349</ele>
        <time>2021-09-05T08:26:44.000Z</time>
      </trkpt>
      <trkpt lat="47.30201" lon="-2.29795">
        <ele>4.8000001907349</ele>
        <time>2021-09-05T08:26:49.000Z</time>
      </trkpt>
      <trkpt lat="47.3021" lon="-2.29774">
        <ele>4.8000001907349</ele>
        <time>2021-09-05T08:26:54.000Z</time>
      </trkpt>
      <trkpt lat="47.30219" lon="-2.29758">
        <ele>4.8000001907349</ele>
        <time>2021-09-05T08:26:58.000Z</time>
      </trkpt>
      <trkpt lat="47.30221" lon="-2.29755">
        <ele>4.8000001907349</ele>
        <time>2021-09-05T08:26:59.000Z</time>
      </trkpt>
      <trkpt lat="47.30227" lon="-2.29745">
        <ele>4.8000001907349</ele>
        <time>2021-09-05T08:27:02.000Z</time>
      </trkpt>
      <trkpt lat="47.30235" lon="-2.29731">
        <ele>4.8000001907349</ele>
        <time>2021-09-05T08:27:05.000Z</time>
      </trkpt>
      <trkpt lat="47.3024" lon="-2.29729">
        <ele>4.8000001907349</ele>
        <time>2021-09-05T08:27:06.000Z</time>
      </trkpt>
      <trkpt lat="47.3025" lon="-2.29726">
        <ele>4.8000001907349</ele>
        <time>2021-09-05T08:27:08.000Z</time>
      </trkpt>
      <trkpt lat="47.30261" lon="-2.29724">
        <ele>4.8000001907349</ele>
        <time>2021-09-05T08:27:10.000Z</time>
      </trkpt>
      <trkpt lat="47.30279" lon="-2.29719">
        <ele>4.8000001907349</ele>
        <time>2021-09-05T08:27:13.000Z</time>
      </trkpt>
      <trkpt lat="47.30284" lon="-2.29717">
        <ele>4.8000001907349</ele>
        <time>2021-09-05T08:27:14.000Z</time>
      </trkpt>
      <trkpt lat="47.30303" lon="-2.29712">
        <ele>4.8000001907349</ele>
        <time>2021-09-05T08:27:17.000Z</time>
      </trkpt>
      <trkpt lat="47.30309" lon="-2.29709">
        <ele>5.1999998092651</ele>
        <time>2021-09-05T08:27:18.000Z</time>
      </trkpt>
      <trkpt lat="47.30316" lon="-2.29705">
        <ele>5.5999999046326</ele>
        <time>2021-09-05T08:27:19.000Z</time>
      </trkpt>
      <trkpt lat="47.30322" lon="-2.29703">
        <ele>6</ele>
        <time>2021-09-05T08:27:20.000Z</time>
      </trkpt>
      <trkpt lat="47.30329" lon="-2.297">
        <ele>6.4000000953674</ele>
        <time>2021-09-05T08:27:21.000Z</time>
      </trkpt>
      <trkpt lat="47.30335" lon="-2.29698">
        <ele>6.8000001907349</ele>
        <time>2021-09-05T08:27:22.000Z</time>
      </trkpt>
      <trkpt lat="47.30342" lon="-2.29697">
        <ele>6.8000001907349</ele>
        <time>2021-09-05T08:27:23.000Z</time>
      </trkpt>
      <trkpt lat="47.30376" lon="-2.29683">
        <ele>6.8000001907349</ele>
        <time>2021-09-05T08:27:28.000Z</time>
      </trkpt>
      <trkpt lat="47.30427" lon="-2.29669">
        <ele>6.8000001907349</ele>
        <time>2021-09-05T08:27:35.000Z</time>
      </trkpt>
      <trkpt lat="47.30447" lon="-2.29661">
        <ele>6.8000001907349</ele>
        <time>2021-09-05T08:27:38.000Z</time>
      </trkpt>
      <trkpt lat="47.30459" lon="-2.29657">
        <ele>6.8000001907349</ele>
        <time>2021-09-05T08:27:40.000Z</time>
      </trkpt>
      <trkpt lat="47.30465" lon="-2.29656">
        <ele>6.8000001907349</ele>
        <time>2021-09-05T08:27:41.000Z</time>
      </trkpt>
      <trkpt lat="47.30478" lon="-2.29653">
        <ele>6.8000001907349</ele>
        <time>2021-09-05T08:27:43.000Z</time>
      </trkpt>
      <trkpt lat="47.30503" lon="-2.29644">
        <ele>6.8000001907349</ele>
        <time>2021-09-05T08:27:47.000Z</time>
      </trkpt>
      <trkpt lat="47.30545" lon="-2.2963">
        <ele>6.8000001907349</ele>
        <time>2021-09-05T08:27:54.000Z</time>
      </trkpt>
      <trkpt lat="47.30587" lon="-2.29617">
        <ele>6.8000001907349</ele>
        <time>2021-09-05T08:28:01.000Z</time>
      </trkpt>
      <trkpt lat="47.30616" lon="-2.29607">
        <ele>6.8000001907349</ele>
        <time>2021-09-05T08:28:06.000Z</time>
      </trkpt>
      <trkpt lat="47.30664" lon="-2.29589">
        <ele>6.8000001907349</ele>
        <time>2021-09-05T08:28:14.000Z</time>
      </trkpt>
      <trkpt lat="47.30675" lon="-2.29587">
        <ele>6.8000001907349</ele>
        <time>2021-09-05T08:28:16.000Z</time>
      </trkpt>
      <trkpt lat="47.30692" lon="-2.29583">
        <ele>6.8000001907349</ele>
        <time>2021-09-05T08:28:19.000Z</time>
      </trkpt>
      <trkpt lat="47.30723" lon="-2.29573">
        <ele>6.8000001907349</ele>
        <time>2021-09-05T08:28:25.000Z</time>
      </trkpt>
      <trkpt lat="47.30757" lon="-2.29562">
        <ele>6.8000001907349</ele>
        <time>2021-09-05T08:28:32.000Z</time>
      </trkpt>
      <trkpt lat="47.30783" lon="-2.29552">
        <ele>6.8000001907349</ele>
        <time>2021-09-05T08:28:38.000Z</time>
      </trkpt>
      <trkpt lat="47.30803" lon="-2.29545">
        <ele>6.8000001907349</ele>
        <time>2021-09-05T08:28:42.000Z</time>
      </trkpt>
      <trkpt lat="47.30817" lon="-2.29542">
        <ele>6.8000001907349</ele>
        <time>2021-09-05T08:28:45.000Z</time>
      </trkpt>
      <trkpt lat="47.30823" lon="-2.29542">
        <ele>6.8000001907349</ele>
        <time>2021-09-05T08:28:46.000Z</time>
      </trkpt>
      <trkpt lat="47.3085" lon="-2.29544">
        <ele>7.1999998092651</ele>
        <time>2021-09-05T08:28:51.000Z</time>
      </trkpt>
      <trkpt lat="47.30856" lon="-2.29545">
        <ele>7.5999999046326</ele>
        <time>2021-09-05T08:28:52.000Z</time>
      </trkpt>
      <trkpt lat="47.30861" lon="-2.29547">
        <ele>8</ele>
        <time>2021-09-05T08:28:53.000Z</time>
      </trkpt>
      <trkpt lat="47.30867" lon="-2.29548">
        <ele>8.6000003814697</ele>
        <time>2021-09-05T08:28:54.000Z</time>
      </trkpt>
      <trkpt lat="47.30872" lon="-2.2955">
        <ele>9</ele>
        <time>2021-09-05T08:28:55.000Z</time>
      </trkpt>
      <trkpt lat="47.30877" lon="-2.29552">
        <ele>9</ele>
        <time>2021-09-05T08:28:56.000Z</time>
      </trkpt>
      <trkpt lat="47.30921" lon="-2.29566">
        <ele>9</ele>
        <time>2021-09-05T08:29:04.000Z</time>
      </trkpt>
      <trkpt lat="47.30966" lon="-2.29579">
        <ele>9</ele>
        <time>2021-09-05T08:29:12.000Z</time>
      </trkpt>
      <trkpt lat="47.30995" lon="-2.29595">
        <ele>9</ele>
        <time>2021-09-05T08:29:17.000Z</time>
      </trkpt>
      <trkpt lat="47.31" lon="-2.29601">
        <ele>9</ele>
        <time>2021-09-05T08:29:18.000Z</time>
      </trkpt>
      <trkpt lat="47.31019" lon="-2.29638">
        <ele>9</ele>
        <time>2021-09-05T08:29:23.000Z</time>
      </trkpt>
      <trkpt lat="47.31036" lon="-2.29685">
        <ele>9</ele>
        <time>2021-09-05T08:29:30.000Z</time>
      </trkpt>
      <trkpt lat="47.31041" lon="-2.29696">
        <ele>9</ele>
        <time>2021-09-05T08:29:32.000Z</time>
      </trkpt>
      <trkpt lat="47.31051" lon="-2.29698">
        <ele>9</ele>
        <time>2021-09-05T08:29:34.000Z</time>
      </trkpt>
      <trkpt lat="47.31065" lon="-2.29689">
        <ele>9</ele>
        <time>2021-09-05T08:29:37.000Z</time>
      </trkpt>
      <trkpt lat="47.31074" lon="-2.29678">
        <ele>9</ele>
        <time>2021-09-05T08:29:39.000Z</time>
      </trkpt>
      <trkpt lat="47.31088" lon="-2.29662">
        <ele>9</ele>
        <time>2021-09-05T08:29:42.000Z</time>
      </trkpt>
      <trkpt lat="47.3113" lon="-2.29615">
        <ele>9</ele>
        <time>2021-09-05T08:29:50.000Z</time>
      </trkpt>
      <trkpt lat="47.31158" lon="-2.29595">
        <ele>9</ele>
        <time>2021-09-05T08:29:55.000Z</time>
      </trkpt>
      <trkpt lat="47.31163" lon="-2.2959">
        <ele>9</ele>
        <time>2021-09-05T08:29:56.000Z</time>
      </trkpt>
      <trkpt lat="47.31173" lon="-2.29568">
        <ele>9</ele>
        <time>2021-09-05T08:29:59.000Z</time>
      </trkpt>
      <trkpt lat="47.31168" lon="-2.29543">
        <ele>9</ele>
        <time>2021-09-05T08:30:02.000Z</time>
      </trkpt>
      <trkpt lat="47.31159" lon="-2.29521">
        <ele>9</ele>
        <time>2021-09-05T08:30:05.000Z</time>
      </trkpt>
      <trkpt lat="47.3115" lon="-2.29496">
        <ele>9</ele>
        <time>2021-09-05T08:30:08.000Z</time>
      </trkpt>
      <trkpt lat="47.31148" lon="-2.29488">
        <ele>9</ele>
        <time>2021-09-05T08:30:09.000Z</time>
      </trkpt>
      <trkpt lat="47.3115" lon="-2.29464">
        <ele>9</ele>
        <time>2021-09-05T08:30:12.000Z</time>
      </trkpt>
      <trkpt lat="47.31164" lon="-2.29448">
        <ele>9</ele>
        <time>2021-09-05T08:30:15.000Z</time>
      </trkpt>
      <trkpt lat="47.3117" lon="-2.29444">
        <ele>9</ele>
        <time>2021-09-05T08:30:16.000Z</time>
      </trkpt>
      <trkpt lat="47.31196" lon="-2.29424">
        <ele>9</ele>
        <time>2021-09-05T08:30:21.000Z</time>
      </trkpt>
      <trkpt lat="47.31221" lon="-2.29406">
        <ele>9</ele>
        <time>2021-09-05T08:30:26.000Z</time>
      </trkpt>
      <trkpt lat="47.31258" lon="-2.29376">
        <ele>9</ele>
        <time>2021-09-05T08:30:33.000Z</time>
      </trkpt>
      <trkpt lat="47.31261" lon="-2.29368">
        <ele>9</ele>
        <time>2021-09-05T08:30:34.000Z</time>
      </trkpt>
      <trkpt lat="47.31264" lon="-2.29342">
        <ele>9</ele>
        <time>2021-09-05T08:30:37.000Z</time>
      </trkpt>
      <trkpt lat="47.31258" lon="-2.29315">
        <ele>9</ele>
        <time>2021-09-05T08:30:40.000Z</time>
      </trkpt>
      <trkpt lat="47.31256" lon="-2.29307">
        <ele>9</ele>
        <time>2021-09-05T08:30:41.000Z</time>
      </trkpt>
      <trkpt lat="47.31241" lon="-2.29241">
        <ele>9</ele>
        <time>2021-09-05T08:30:48.000Z</time>
      </trkpt>
      <trkpt lat="47.31224" lon="-2.29172">
        <ele>9</ele>
        <time>2021-09-05T08:30:56.000Z</time>
      </trkpt>
      <trkpt lat="47.31213" lon="-2.29111">
        <ele>9</ele>
        <time>2021-09-05T08:31:03.000Z</time>
      </trkpt>
      <trkpt lat="47.31205" lon="-2.2904">
        <ele>9</ele>
        <time>2021-09-05T08:31:11.000Z</time>
      </trkpt>
      <trkpt lat="47.31199" lon="-2.28979">
        <ele>9</ele>
        <time>2021-09-05T08:31:17.000Z</time>
      </trkpt>
      <trkpt lat="47.31186" lon="-2.28916">
        <ele>9</ele>
        <time>2021-09-05T08:31:24.000Z</time>
      </trkpt>
      <trkpt lat="47.31181" lon="-2.28903">
        <ele>9</ele>
        <time>2021-09-05T08:31:26.000Z</time>
      </trkpt>
      <trkpt lat="47.31172" lon="-2.28897">
        <ele>9</ele>
        <time>2021-09-05T08:31:28.000Z</time>
      </trkpt>
      <trkpt lat="47.31167" lon="-2.28897">
        <ele>8.6000003814697</ele>
        <time>2021-09-05T08:31:29.000Z</time>
      </trkpt>
      <trkpt lat="47.31161" lon="-2.28899">
        <ele>8.1999998092651</ele>
        <time>2021-09-05T08:31:30.000Z</time>
      </trkpt>
      <trkpt lat="47.31155" lon="-2.28901">
        <ele>7.8000001907349</ele>
        <time>2021-09-05T08:31:31.000Z</time>
      </trkpt>
      <trkpt lat="47.31148" lon="-2.28904">
        <ele>7.4000000953674</ele>
        <time>2021-09-05T08:31:32.000Z</time>
      </trkpt>
      <trkpt lat="47.31142" lon="-2.28906">
        <ele>7</ele>
        <time>2021-09-05T08:31:33.000Z</time>
      </trkpt>
      <trkpt lat="47.31129" lon="-2.28905">
        <ele>7</ele>
        <time>2021-09-05T08:31:35.000Z</time>
      </trkpt>
      <trkpt lat="47.31122" lon="-2.289">
        <ele>7</ele>
        <time>2021-09-05T08:31:36.000Z</time>
      </trkpt>
      <trkpt lat="47.31107" lon="-2.28885">
        <ele>7</ele>
        <time>2021-09-05T08:31:39.000Z</time>
      </trkpt>
      <trkpt lat="47.31097" lon="-2.28876">
        <ele>7</ele>
        <time>2021-09-05T08:31:41.000Z</time>
      </trkpt>
      <trkpt lat="47.31076" lon="-2.28862">
        <ele>7.4000000953674</ele>
        <time>2021-09-05T08:31:45.000Z</time>
      </trkpt>
      <trkpt lat="47.31071" lon="-2.28858">
        <ele>7.8000001907349</ele>
        <time>2021-09-05T08:31:46.000Z</time>
      </trkpt>
      <trkpt lat="47.31066" lon="-2.28854">
        <ele>8.1999998092651</ele>
        <time>2021-09-05T08:31:47.000Z</time>
      </trkpt>
      <trkpt lat="47.31061" lon="-2.2885">
        <ele>8.6000003814697</ele>
        <time>2021-09-05T08:31:48.000Z</time>
      </trkpt>
      <trkpt lat="47.31056" lon="-2.28847">
        <ele>9</ele>
        <time>2021-09-05T08:31:49.000Z</time>
      </trkpt>
      <trkpt lat="47.31023" lon="-2.28821">
        <ele>9</ele>
        <time>2021-09-05T08:31:56.000Z</time>
      </trkpt>
      <trkpt lat="47.31016" lon="-2.28815">
        <ele>9.3999996185303</ele>
        <time>2021-09-05T08:31:58.000Z</time>
      </trkpt>
      <trkpt lat="47.31012" lon="-2.28812">
        <ele>9.8000001907349</ele>
        <time>2021-09-05T08:31:59.000Z</time>
      </trkpt>
      <trkpt lat="47.31008" lon="-2.2881">
        <ele>10.199999809265</ele>
        <time>2021-09-05T08:32:00.000Z</time>
      </trkpt>
      <trkpt lat="47.31003" lon="-2.28809">
        <ele>10.800000190735</ele>
        <time>2021-09-05T08:32:01.000Z</time>
      </trkpt>
      <trkpt lat="47.30998" lon="-2.28809">
        <ele>11.199999809265</ele>
        <time>2021-09-05T08:32:02.000Z</time>
      </trkpt>
      <trkpt lat="47.30993" lon="-2.2881">
        <ele>11.199999809265</ele>
        <time>2021-09-05T08:32:03.000Z</time>
      </trkpt>
      <trkpt lat="47.30976" lon="-2.28816">
        <ele>11.199999809265</ele>
        <time>2021-09-05T08:32:06.000Z</time>
      </trkpt>
      <trkpt lat="47.3094" lon="-2.28824">
        <ele>11.199999809265</ele>
        <time>2021-09-05T08:32:11.000Z</time>
      </trkpt>
      <trkpt lat="47.30932" lon="-2.28823">
        <ele>10.60000038147</ele>
        <time>2021-09-05T08:32:12.000Z</time>
      </trkpt>
      <trkpt lat="47.30923" lon="-2.28823">
        <ele>10</ele>
        <time>2021-09-05T08:32:13.000Z</time>
      </trkpt>
      <trkpt lat="47.30913" lon="-2.28823">
        <ele>9.6000003814697</ele>
        <time>2021-09-05T08:32:14.000Z</time>
      </trkpt>
      <trkpt lat="47.30904" lon="-2.28823">
        <ele>9</ele>
        <time>2021-09-05T08:32:15.000Z</time>
      </trkpt>
      <trkpt lat="47.30895" lon="-2.28823">
        <ele>8.3999996185303</ele>
        <time>2021-09-05T08:32:16.000Z</time>
      </trkpt>
      <trkpt lat="47.30886" lon="-2.28824">
        <ele>8</ele>
        <time>2021-09-05T08:32:17.000Z</time>
      </trkpt>
      <trkpt lat="47.30877" lon="-2.28824">
        <ele>7.5999999046326</ele>
        <time>2021-09-05T08:32:18.000Z</time>
      </trkpt>
      <trkpt lat="47.30868" lon="-2.28825">
        <ele>7.1999998092651</ele>
        <time>2021-09-05T08:32:19.000Z</time>
      </trkpt>
      <trkpt lat="47.3086" lon="-2.28826">
        <ele>6.5999999046326</ele>
        <time>2021-09-05T08:32:20.000Z</time>
      </trkpt>
      <trkpt lat="47.30853" lon="-2.28825">
        <ele>6.1999998092651</ele>
        <time>2021-09-05T08:32:21.000Z</time>
      </trkpt>
      <trkpt lat="47.30845" lon="-2.28824">
        <ele>6.1999998092651</ele>
        <time>2021-09-05T08:32:22.000Z</time>
      </trkpt>
      <trkpt lat="47.30825" lon="-2.28819">
        <ele>6.1999998092651</ele>
        <time>2021-09-05T08:32:25.000Z</time>
      </trkpt>
      <trkpt lat="47.30818" lon="-2.28819">
        <ele>6.1999998092651</ele>
        <time>2021-09-05T08:32:26.000Z</time>
      </trkpt>
      <trkpt lat="47.30793" lon="-2.28819">
        <ele>6.1999998092651</ele>
        <time>2021-09-05T08:32:30.000Z</time>
      </trkpt>
      <trkpt lat="47.30787" lon="-2.28821">
        <ele>6.1999998092651</ele>
        <time>2021-09-05T08:32:31.000Z</time>
      </trkpt>
      <trkpt lat="47.30781" lon="-2.28822">
        <ele>6.5999999046326</ele>
        <time>2021-09-05T08:32:32.000Z</time>
      </trkpt>
      <trkpt lat="47.30775" lon="-2.28823">
        <ele>7</ele>
        <time>2021-09-05T08:32:33.000Z</time>
      </trkpt>
      <trkpt lat="47.30769" lon="-2.28824">
        <ele>7.5999999046326</ele>
        <time>2021-09-05T08:32:34.000Z</time>
      </trkpt>
      <trkpt lat="47.30763" lon="-2.28825">
        <ele>8</ele>
        <time>2021-09-05T08:32:35.000Z</time>
      </trkpt>
      <trkpt lat="47.30757" lon="-2.28826">
        <ele>8.3999996185303</ele>
        <time>2021-09-05T08:32:36.000Z</time>
      </trkpt>
      <trkpt lat="47.30751" lon="-2.28827">
        <ele>8.3999996185303</ele>
        <time>2021-09-05T08:32:37.000Z</time>
      </trkpt>
      <trkpt lat="47.30711" lon="-2.28836">
        <ele>8.3999996185303</ele>
        <time>2021-09-05T08:32:44.000Z</time>
      </trkpt>
      <trkpt lat="47.30705" lon="-2.28839">
        <ele>8.3999996185303</ele>
        <time>2021-09-05T08:32:45.000Z</time>
      </trkpt>
      <trkpt lat="47.3069" lon="-2.2885">
        <ele>8.3999996185303</ele>
        <time>2021-09-05T08:32:48.000Z</time>
      </trkpt>
      <trkpt lat="47.30654" lon="-2.28875">
        <ele>8.3999996185303</ele>
        <time>2021-09-05T08:32:55.000Z</time>
      </trkpt>
      <trkpt lat="47.3062" lon="-2.28896">
        <ele>8.3999996185303</ele>
        <time>2021-09-05T08:33:01.000Z</time>
      </trkpt>
      <trkpt lat="47.30604" lon="-2.28908">
        <ele>8.3999996185303</ele>
        <time>2021-09-05T08:33:04.000Z</time>
      </trkpt>
      <trkpt lat="47.30593" lon="-2.28915">
        <ele>8.3999996185303</ele>
        <time>2021-09-05T08:33:06.000Z</time>
      </trkpt>
      <trkpt lat="47.30583" lon="-2.28923">
        <ele>8.3999996185303</ele>
        <time>2021-09-05T08:33:08.000Z</time>
      </trkpt>
      <trkpt lat="47.30559" lon="-2.28944">
        <ele>8.3999996185303</ele>
        <time>2021-09-05T08:33:13.000Z</time>
      </trkpt>
      <trkpt lat="47.30532" lon="-2.28963">
        <ele>8.3999996185303</ele>
        <time>2021-09-05T08:33:18.000Z</time>
      </trkpt>
      <trkpt lat="47.3052" lon="-2.2897">
        <ele>8.3999996185303</ele>
        <time>2021-09-05T08:33:20.000Z</time>
      </trkpt>
      <trkpt lat="47.30509" lon="-2.2898">
        <ele>8.3999996185303</ele>
        <time>2021-09-05T08:33:22.000Z</time>
      </trkpt>
      <trkpt lat="47.30501" lon="-2.28991">
        <ele>8.3999996185303</ele>
        <time>2021-09-05T08:33:24.000Z</time>
      </trkpt>
      <trkpt lat="47.30496" lon="-2.29005">
        <ele>8.3999996185303</ele>
        <time>2021-09-05T08:33:26.000Z</time>
      </trkpt>
      <trkpt lat="47.30499" lon="-2.2903">
        <ele>8.3999996185303</ele>
        <time>2021-09-05T08:33:29.000Z</time>
      </trkpt>
      <trkpt lat="47.30501" lon="-2.29038">
        <ele>8</ele>
        <time>2021-09-05T08:33:30.000Z</time>
      </trkpt>
      <trkpt lat="47.30504" lon="-2.29047">
        <ele>7.5999999046326</ele>
        <time>2021-09-05T08:33:31.000Z</time>
      </trkpt>
      <trkpt lat="47.30507" lon="-2.29056">
        <ele>7.1999998092651</ele>
        <time>2021-09-05T08:33:32.000Z</time>
      </trkpt>
      <trkpt lat="47.3051" lon="-2.29065">
        <ele>6.8000001907349</ele>
        <time>2021-09-05T08:33:33.000Z</time>
      </trkpt>
      <trkpt lat="47.30512" lon="-2.29074">
        <ele>6.4000000953674</ele>
        <time>2021-09-05T08:33:34.000Z</time>
      </trkpt>
      <trkpt lat="47.30514" lon="-2.29083">
        <ele>6.4000000953674</ele>
        <time>2021-09-05T08:33:35.000Z</time>
      </trkpt>
      <trkpt lat="47.30511" lon="-2.29112">
        <ele>6.4000000953674</ele>
        <time>2021-09-05T08:33:38.000Z</time>
      </trkpt>
      <trkpt lat="47.30508" lon="-2.29121">
        <ele>6.4000000953674</ele>
        <time>2021-09-05T08:33:39.000Z</time>
      </trkpt>
      <trkpt lat="47.30493" lon="-2.29155">
        <ele>6.4000000953674</ele>
        <time>2021-09-05T08:33:43.000Z</time>
      </trkpt>
      <trkpt lat="47.30484" lon="-2.29172">
        <ele>6.4000000953674</ele>
        <time>2021-09-05T08:33:45.000Z</time>
      </trkpt>
      <trkpt lat="47.30469" lon="-2.29195">
        <ele>6.4000000953674</ele>
        <time>2021-09-05T08:33:48.000Z</time>
      </trkpt>
      <trkpt lat="47.30427" lon="-2.29251">
        <ele>6.4000000953674</ele>
        <time>2021-09-05T08:33:56.000Z</time>
      </trkpt>
      <trkpt lat="47.30397" lon="-2.29279">
        <ele>6.4000000953674</ele>
        <time>2021-09-05T08:34:01.000Z</time>
      </trkpt>
      <trkpt lat="47.30364" lon="-2.29289">
        <ele>6.4000000953674</ele>
        <time>2021-09-05T08:34:06.000Z</time>
      </trkpt>
      <trkpt lat="47.30338" lon="-2.29292">
        <ele>6.4000000953674</ele>
        <time>2021-09-05T08:34:10.000Z</time>
      </trkpt>
      <trkpt lat="47.30325" lon="-2.29296">
        <ele>6.4000000953674</ele>
        <time>2021-09-05T08:34:12.000Z</time>
      </trkpt>
      <trkpt lat="47.30314" lon="-2.29302">
        <ele>6.4000000953674</ele>
        <time>2021-09-05T08:34:14.000Z</time>
      </trkpt>
      <trkpt lat="47.30298" lon="-2.29316">
        <ele>6.4000000953674</ele>
        <time>2021-09-05T08:34:17.000Z</time>
      </trkpt>
      <trkpt lat="47.30268" lon="-2.29347">
        <ele>6.4000000953674</ele>
        <time>2021-09-05T08:34:23.000Z</time>
      </trkpt>
      <trkpt lat="47.30253" lon="-2.29359">
        <ele>6.4000000953674</ele>
        <time>2021-09-05T08:34:26.000Z</time>
      </trkpt>
      <trkpt lat="47.30237" lon="-2.29365">
        <ele>6.4000000953674</ele>
        <time>2021-09-05T08:34:29.000Z</time>
      </trkpt>
      <trkpt lat="47.30219" lon="-2.29364">
        <ele>6.4000000953674</ele>
        <time>2021-09-05T08:34:32.000Z</time>
      </trkpt>
      <trkpt lat="47.30199" lon="-2.2935">
        <ele>6.4000000953674</ele>
        <time>2021-09-05T08:34:36.000Z</time>
      </trkpt>
      <trkpt lat="47.30189" lon="-2.29338">
        <ele>6.4000000953674</ele>
        <time>2021-09-05T08:34:38.000Z</time>
      </trkpt>
      <trkpt lat="47.3018" lon="-2.29325">
        <ele>6.4000000953674</ele>
        <time>2021-09-05T08:34:40.000Z</time>
      </trkpt>
      <trkpt lat="47.30176" lon="-2.29318">
        <ele>6.4000000953674</ele>
        <time>2021-09-05T08:34:41.000Z</time>
      </trkpt>
      <trkpt lat="47.30153" lon="-2.2928">
        <ele>6.4000000953674</ele>
        <time>2021-09-05T08:34:47.000Z</time>
      </trkpt>
      <trkpt lat="47.30123" lon="-2.2923">
        <ele>6.4000000953674</ele>
        <time>2021-09-05T08:34:55.000Z</time>
      </trkpt>
      <trkpt lat="47.301" lon="-2.29196">
        <ele>6.4000000953674</ele>
        <time>2021-09-05T08:35:01.000Z</time>
      </trkpt>
      <trkpt lat="47.30093" lon="-2.29185">
        <ele>6.4000000953674</ele>
        <time>2021-09-05T08:35:03.000Z</time>
      </trkpt>
      <trkpt lat="47.30076" lon="-2.29163">
        <ele>6.4000000953674</ele>
        <time>2021-09-05T08:35:07.000Z</time>
      </trkpt>
      <trkpt lat="47.30069" lon="-2.29152">
        <ele>6.8000001907349</ele>
        <time>2021-09-05T08:35:09.000Z</time>
      </trkpt>
      <trkpt lat="47.30065" lon="-2.29146">
        <ele>7.1999998092651</ele>
        <time>2021-09-05T08:35:10.000Z</time>
      </trkpt>
      <trkpt lat="47.30062" lon="-2.29141">
        <ele>7.5999999046326</ele>
        <time>2021-09-05T08:35:11.000Z</time>
      </trkpt>
      <trkpt lat="47.30058" lon="-2.29137">
        <ele>8</ele>
        <time>2021-09-05T08:35:12.000Z</time>
      </trkpt>
      <trkpt lat="47.30054" lon="-2.29134">
        <ele>8.3999996185303</ele>
        <time>2021-09-05T08:35:13.000Z</time>
      </trkpt>
      <trkpt lat="47.30029" lon="-2.29116">
        <ele>8.3999996185303</ele>
        <time>2021-09-05T08:35:18.000Z</time>
      </trkpt>
      <trkpt lat="47.29998" lon="-2.2909">
        <ele>8.3999996185303</ele>
        <time>2021-09-05T08:35:24.000Z</time>
      </trkpt>
      <trkpt lat="47.2999" lon="-2.2908">
        <ele>8.3999996185303</ele>
        <time>2021-09-05T08:35:26.000Z</time>
      </trkpt>
      <trkpt lat="47.29981" lon="-2.29062">
        <ele>8.3999996185303</ele>
        <time>2021-09-05T08:35:29.000Z</time>
      </trkpt>
      <trkpt lat="47.2996" lon="-2.29024">
        <ele>8.3999996185303</ele>
        <time>2021-09-05T08:35:35.000Z</time>
      </trkpt>
      <trkpt lat="47.29951" lon="-2.29005">
        <ele>8.3999996185303</ele>
        <time>2021-09-05T08:35:38.000Z</time>
      </trkpt>
      <trkpt lat="47.29943" lon="-2.28993">
        <ele>8.3999996185303</ele>
        <time>2021-09-05T08:35:40.000Z</time>
      </trkpt>
      <trkpt lat="47.2992" lon="-2.28956">
        <ele>8.3999996185303</ele>
        <time>2021-09-05T08:35:47.000Z</time>
      </trkpt>
      <trkpt lat="47.29907" lon="-2.2895">
        <ele>8.3999996185303</ele>
        <time>2021-09-05T08:35:50.000Z</time>
      </trkpt>
      <trkpt lat="47.29902" lon="-2.28948">
        <ele>8.8000001907349</ele>
        <time>2021-09-05T08:35:51.000Z</time>
      </trkpt>
      <trkpt lat="47.29896" lon="-2.28946">
        <ele>9.1999998092651</ele>
        <time>2021-09-05T08:35:52.000Z</time>
      </trkpt>
      <trkpt lat="47.29891" lon="-2.28945">
        <ele>9.6000003814697</ele>
        <time>2021-09-05T08:35:53.000Z</time>
      </trkpt>
      <trkpt lat="47.29886" lon="-2.28945">
        <ele>10</ele>
        <time>2021-09-05T08:35:54.000Z</time>
      </trkpt>
      <trkpt lat="47.29882" lon="-2.28944">
        <ele>10.39999961853</ele>
        <time>2021-09-05T08:35:55.000Z</time>
      </trkpt>
      <trkpt lat="47.29878" lon="-2.28942">
        <ele>10.39999961853</ele>
        <time>2021-09-05T08:35:56.000Z</time>
      </trkpt>
      <trkpt lat="47.29875" lon="-2.28938">
        <ele>10.39999961853</ele>
        <time>2021-09-05T08:35:57.000Z</time>
      </trkpt>
      <trkpt lat="47.29873" lon="-2.2892">
        <ele>10.39999961853</ele>
        <time>2021-09-05T08:36:00.000Z</time>
      </trkpt>
      <trkpt lat="47.29873" lon="-2.28913">
        <ele>10.39999961853</ele>
        <time>2021-09-05T08:36:01.000Z</time>
      </trkpt>
      <trkpt lat="47.29874" lon="-2.289">
        <ele>10.39999961853</ele>
        <time>2021-09-05T08:36:03.000Z</time>
      </trkpt>
      <trkpt lat="47.29879" lon="-2.28888">
        <ele>10.39999961853</ele>
        <time>2021-09-05T08:36:05.000Z</time>
      </trkpt>
      <trkpt lat="47.29884" lon="-2.28868">
        <ele>10.39999961853</ele>
        <time>2021-09-05T08:36:08.000Z</time>
      </trkpt>
      <trkpt lat="47.29893" lon="-2.28822">
        <ele>10.39999961853</ele>
        <time>2021-09-05T08:36:14.000Z</time>
      </trkpt>
      <trkpt lat="47.29901" lon="-2.28785">
        <ele>10.39999961853</ele>
        <time>2021-09-05T08:36:19.000Z</time>
      </trkpt>
      <trkpt lat="47.29908" lon="-2.28738">
        <ele>10.39999961853</ele>
        <time>2021-09-05T08:36:25.000Z</time>
      </trkpt>
      <trkpt lat="47.29915" lon="-2.28697">
        <ele>10.39999961853</ele>
        <time>2021-09-05T08:36:31.000Z</time>
      </trkpt>
      <trkpt lat="47.29919" lon="-2.28665">
        <ele>10.39999961853</ele>
        <time>2021-09-05T08:36:37.000Z</time>
      </trkpt>
      <trkpt lat="47.29921" lon="-2.28653">
        <ele>11.199999809265</ele>
        <time>2021-09-05T08:36:39.000Z</time>
      </trkpt>
      <trkpt lat="47.29923" lon="-2.28648">
        <ele>11.60000038147</ele>
        <time>2021-09-05T08:36:40.000Z</time>
      </trkpt>
      <trkpt lat="47.29926" lon="-2.28642">
        <ele>12</ele>
        <time>2021-09-05T08:36:41.000Z</time>
      </trkpt>
      <trkpt lat="47.29927" lon="-2.28637">
        <ele>12.39999961853</ele>
        <time>2021-09-05T08:36:42.000Z</time>
      </trkpt>
      <trkpt lat="47.29929" lon="-2.28632">
        <ele>12.39999961853</ele>
        <time>2021-09-05T08:36:43.000Z</time>
      </trkpt>
      <trkpt lat="47.29935" lon="-2.286">
        <ele>12.39999961853</ele>
        <time>2021-09-05T08:36:49.000Z</time>
      </trkpt>
      <trkpt lat="47.29934" lon="-2.28582">
        <ele>12.39999961853</ele>
        <time>2021-09-05T08:36:52.000Z</time>
      </trkpt>
      <trkpt lat="47.29931" lon="-2.28577">
        <ele>12.39999961853</ele>
        <time>2021-09-05T08:36:53.000Z</time>
      </trkpt>
      <trkpt lat="47.29924" lon="-2.28553">
        <ele>12.39999961853</ele>
        <time>2021-09-05T08:36:57.000Z</time>
      </trkpt>
      <trkpt lat="47.29928" lon="-2.28527">
        <ele>12.39999961853</ele>
        <time>2021-09-05T08:37:01.000Z</time>
      </trkpt>
      <trkpt lat="47.29929" lon="-2.2852">
        <ele>12.39999961853</ele>
        <time>2021-09-05T08:37:02.000Z</time>
      </trkpt>
      <trkpt lat="47.29935" lon="-2.28499">
        <ele>12.39999961853</ele>
        <time>2021-09-05T08:37:05.000Z</time>
      </trkpt>
      <trkpt lat="47.29936" lon="-2.28492">
        <ele>12.39999961853</ele>
        <time>2021-09-05T08:37:06.000Z</time>
      </trkpt>
      <trkpt lat="47.29936" lon="-2.28465">
        <ele>12.39999961853</ele>
        <time>2021-09-05T08:37:10.000Z</time>
      </trkpt>
      <trkpt lat="47.29936" lon="-2.28459">
        <ele>12.800000190735</ele>
        <time>2021-09-05T08:37:11.000Z</time>
      </trkpt>
      <trkpt lat="47.29937" lon="-2.28453">
        <ele>13.199999809265</ele>
        <time>2021-09-05T08:37:12.000Z</time>
      </trkpt>
      <trkpt lat="47.29938" lon="-2.28447">
        <ele>13.800000190735</ele>
        <time>2021-09-05T08:37:13.000Z</time>
      </trkpt>
      <trkpt lat="47.2994" lon="-2.28442">
        <ele>14.199999809265</ele>
        <time>2021-09-05T08:37:14.000Z</time>
      </trkpt>
      <trkpt lat="47.29942" lon="-2.28436">
        <ele>14.60000038147</ele>
        <time>2021-09-05T08:37:15.000Z</time>
      </trkpt>
      <trkpt lat="47.29944" lon="-2.2843">
        <ele>14.60000038147</ele>
        <time>2021-09-05T08:37:16.000Z</time>
      </trkpt>
      <trkpt lat="47.29945" lon="-2.28405">
        <ele>14.60000038147</ele>
        <time>2021-09-05T08:37:20.000Z</time>
      </trkpt>
      <trkpt lat="47.29944" lon="-2.28398">
        <ele>14.60000038147</ele>
        <time>2021-09-05T08:37:21.000Z</time>
      </trkpt>
      <trkpt lat="47.29941" lon="-2.28371">
        <ele>14.60000038147</ele>
        <time>2021-09-05T08:37:25.000Z</time>
      </trkpt>
      <trkpt lat="47.29941" lon="-2.28363">
        <ele>14.60000038147</ele>
        <time>2021-09-05T08:37:26.000Z</time>
      </trkpt>
      <trkpt lat="47.29942" lon="-2.28348">
        <ele>14.60000038147</ele>
        <time>2021-09-05T08:37:28.000Z</time>
      </trkpt>
      <trkpt lat="47.29941" lon="-2.28326">
        <ele>14.60000038147</ele>
        <time>2021-09-05T08:37:31.000Z</time>
      </trkpt>
      <trkpt lat="47.29942" lon="-2.28309">
        <ele>14.60000038147</ele>
        <time>2021-09-05T08:37:33.000Z</time>
      </trkpt>
      <trkpt lat="47.29941" lon="-2.28284">
        <ele>14.60000038147</ele>
        <time>2021-09-05T08:37:36.000Z</time>
      </trkpt>
      <trkpt lat="47.29941" lon="-2.28219">
        <ele>14.60000038147</ele>
        <time>2021-09-05T08:37:44.000Z</time>
      </trkpt>
      <trkpt lat="47.29944" lon="-2.28195">
        <ele>14.60000038147</ele>
        <time>2021-09-05T08:37:48.000Z</time>
      </trkpt>
      <trkpt lat="47.29955" lon="-2.28144">
        <ele>14.60000038147</ele>
        <time>2021-09-05T08:37:55.000Z</time>
      </trkpt>
      <trkpt lat="47.29968" lon="-2.28103">
        <ele>14.60000038147</ele>
        <time>2021-09-05T08:38:00.000Z</time>
      </trkpt>
      <trkpt lat="47.29973" lon="-2.28088">
        <ele>14.60000038147</ele>
        <time>2021-09-05T08:38:02.000Z</time>
      </trkpt>
      <trkpt lat="47.29979" lon="-2.2807">
        <ele>14.60000038147</ele>
        <time>2021-09-05T08:38:04.000Z</time>
      </trkpt>
      <trkpt lat="47.29984" lon="-2.2805">
        <ele>14.60000038147</ele>
        <time>2021-09-05T08:38:07.000Z</time>
      </trkpt>
      <trkpt lat="47.29982" lon="-2.28045">
        <ele>14.60000038147</ele>
        <time>2021-09-05T08:38:10.000Z</time>
      </trkpt>
      <trkpt lat="47.29977" lon="-2.28046">
        <ele>14.60000038147</ele>
        <time>2021-09-05T08:38:12.000Z</time>
      </trkpt>
      <trkpt lat="47.29972" lon="-2.28047">
        <ele>14.60000038147</ele>
        <time>2021-09-05T08:38:13.000Z</time>
      </trkpt>
      <trkpt lat="47.29968" lon="-2.28048">
        <ele>14.60000038147</ele>
        <time>2021-09-05T08:38:14.000Z</time>
      </trkpt>
      <trkpt lat="47.29959" lon="-2.28051">
        <ele>14.60000038147</ele>
        <time>2021-09-05T08:38:16.000Z</time>
      </trkpt>
      <trkpt lat="47.29954" lon="-2.28049">
        <ele>14.60000038147</ele>
        <time>2021-09-05T08:38:17.000Z</time>
      </trkpt>
      <trkpt lat="47.2994" lon="-2.28034">
        <ele>14.60000038147</ele>
        <time>2021-09-05T08:38:20.000Z</time>
      </trkpt>
      <trkpt lat="47.29933" lon="-2.2801">
        <ele>14.60000038147</ele>
        <time>2021-09-05T08:38:23.000Z</time>
      </trkpt>
      <trkpt lat="47.29931" lon="-2.28001">
        <ele>14.60000038147</ele>
        <time>2021-09-05T08:38:24.000Z</time>
      </trkpt>
      <trkpt lat="47.2993" lon="-2.27992">
        <ele>14.60000038147</ele>
        <time>2021-09-05T08:38:25.000Z</time>
      </trkpt>
      <trkpt lat="47.2993" lon="-2.27962">
        <ele>14.60000038147</ele>
        <time>2021-09-05T08:38:28.000Z</time>
      </trkpt>
      <trkpt lat="47.29931" lon="-2.27942">
        <ele>14.60000038147</ele>
        <time>2021-09-05T08:38:30.000Z</time>
      </trkpt>
      <trkpt lat="47.29937" lon="-2.27903">
        <ele>14.60000038147</ele>
        <time>2021-09-05T08:38:34.000Z</time>
      </trkpt>
      <trkpt lat="47.29942" lon="-2.27851">
        <ele>14.60000038147</ele>
        <time>2021-09-05T08:38:40.000Z</time>
      </trkpt>
      <trkpt lat="47.29944" lon="-2.27833">
        <ele>14.60000038147</ele>
        <time>2021-09-05T08:38:45.000Z</time>
      </trkpt>
      <trkpt lat="47.29947" lon="-2.27812">
        <ele>14.60000038147</ele>
        <time>2021-09-05T08:45:53.000Z</time>
      </trkpt>
      <trkpt lat="47.29949" lon="-2.278">
        <ele>14.60000038147</ele>
        <time>2021-09-05T08:45:56.000Z</time>
      </trkpt>
      <trkpt lat="47.29952" lon="-2.2777">
        <ele>14.60000038147</ele>
        <time>2021-09-05T08:46:01.000Z</time>
      </trkpt>
      <trkpt lat="47.29957" lon="-2.27712">
        <ele>14.60000038147</ele>
        <time>2021-09-05T08:46:09.000Z</time>
      </trkpt>
      <trkpt lat="47.29959" lon="-2.27667">
        <ele>14.60000038147</ele>
        <time>2021-09-05T08:46:15.000Z</time>
      </trkpt>
      <trkpt lat="47.29962" lon="-2.27623">
        <ele>14.60000038147</ele>
        <time>2021-09-05T08:46:21.000Z</time>
      </trkpt>
      <trkpt lat="47.29959" lon="-2.2761">
        <ele>14.60000038147</ele>
        <time>2021-09-05T08:46:23.000Z</time>
      </trkpt>
      <trkpt lat="47.29946" lon="-2.27598">
        <ele>14.199999809265</ele>
        <time>2021-09-05T08:46:26.000Z</time>
      </trkpt>
      <trkpt lat="47.29941" lon="-2.27598">
        <ele>13.800000190735</ele>
        <time>2021-09-05T08:46:27.000Z</time>
      </trkpt>
      <trkpt lat="47.29935" lon="-2.27598">
        <ele>13.39999961853</ele>
        <time>2021-09-05T08:46:28.000Z</time>
      </trkpt>
      <trkpt lat="47.29929" lon="-2.27599">
        <ele>13</ele>
        <time>2021-09-05T08:46:29.000Z</time>
      </trkpt>
      <trkpt lat="47.29923" lon="-2.276">
        <ele>12.39999961853</ele>
        <time>2021-09-05T08:46:30.000Z</time>
      </trkpt>
      <trkpt lat="47.2991" lon="-2.27602">
        <ele>12.39999961853</ele>
        <time>2021-09-05T08:46:32.000Z</time>
      </trkpt>
      <trkpt lat="47.29894" lon="-2.2761">
        <ele>12.39999961853</ele>
        <time>2021-09-05T08:46:35.000Z</time>
      </trkpt>
      <trkpt lat="47.29861" lon="-2.27624">
        <ele>12.39999961853</ele>
        <time>2021-09-05T08:46:41.000Z</time>
      </trkpt>
      <trkpt lat="47.29837" lon="-2.27617">
        <ele>12.39999961853</ele>
        <time>2021-09-05T08:46:45.000Z</time>
      </trkpt>
      <trkpt lat="47.29831" lon="-2.27613">
        <ele>12.39999961853</ele>
        <time>2021-09-05T08:46:46.000Z</time>
      </trkpt>
      <trkpt lat="47.29794" lon="-2.27595">
        <ele>12.39999961853</ele>
        <time>2021-09-05T08:46:52.000Z</time>
      </trkpt>
      <trkpt lat="47.29773" lon="-2.27593">
        <ele>12.39999961853</ele>
        <time>2021-09-05T08:46:55.000Z</time>
      </trkpt>
      <trkpt lat="47.29761" lon="-2.27596">
        <ele>12.39999961853</ele>
        <time>2021-09-05T08:46:57.000Z</time>
      </trkpt>
      <trkpt lat="47.29724" lon="-2.27612">
        <ele>12.39999961853</ele>
        <time>2021-09-05T08:47:03.000Z</time>
      </trkpt>
      <trkpt lat="47.29719" lon="-2.27614">
        <ele>12.39999961853</ele>
        <time>2021-09-05T08:47:04.000Z</time>
      </trkpt>
      <trkpt lat="47.29696" lon="-2.27616">
        <ele>12.39999961853</ele>
        <time>2021-09-05T08:47:08.000Z</time>
      </trkpt>
      <trkpt lat="47.29665" lon="-2.27609">
        <ele>12.39999961853</ele>
        <time>2021-09-05T08:47:14.000Z</time>
      </trkpt>
      <trkpt lat="47.29654" lon="-2.27605">
        <ele>13</ele>
        <time>2021-09-05T08:47:16.000Z</time>
      </trkpt>
      <trkpt lat="47.29649" lon="-2.27603">
        <ele>13.39999961853</ele>
        <time>2021-09-05T08:47:17.000Z</time>
      </trkpt>
      <trkpt lat="47.29644" lon="-2.276">
        <ele>13.800000190735</ele>
        <time>2021-09-05T08:47:18.000Z</time>
      </trkpt>
      <trkpt lat="47.29639" lon="-2.27596">
        <ele>14.199999809265</ele>
        <time>2021-09-05T08:47:19.000Z</time>
      </trkpt>
      <trkpt lat="47.29635" lon="-2.27593">
        <ele>14.60000038147</ele>
        <time>2021-09-05T08:47:20.000Z</time>
      </trkpt>
      <trkpt lat="47.2963" lon="-2.2759">
        <ele>14.60000038147</ele>
        <time>2021-09-05T08:47:21.000Z</time>
      </trkpt>
      <trkpt lat="47.29615" lon="-2.2758">
        <ele>14.60000038147</ele>
        <time>2021-09-05T08:47:24.000Z</time>
      </trkpt>
      <trkpt lat="47.2959" lon="-2.27562">
        <ele>15</ele>
        <time>2021-09-05T08:47:29.000Z</time>
      </trkpt>
      <trkpt lat="47.29585" lon="-2.27559">
        <ele>15.39999961853</ele>
        <time>2021-09-05T08:47:30.000Z</time>
      </trkpt>
      <trkpt lat="47.29579" lon="-2.27555">
        <ele>15.800000190735</ele>
        <time>2021-09-05T08:47:31.000Z</time>
      </trkpt>
      <trkpt lat="47.29574" lon="-2.27552">
        <ele>16.200000762939</ele>
        <time>2021-09-05T08:47:32.000Z</time>
      </trkpt>
      <trkpt lat="47.29568" lon="-2.27548">
        <ele>16.60000038147</ele>
        <time>2021-09-05T08:47:34.000Z</time>
      </trkpt>
      <trkpt lat="47.29546" lon="-2.27542">
        <ele>16.60000038147</ele>
        <time>2021-09-05T08:47:38.000Z</time>
      </trkpt>
      <trkpt lat="47.29506" lon="-2.2753">
        <ele>16.60000038147</ele>
        <time>2021-09-05T08:47:45.000Z</time>
      </trkpt>
      <trkpt lat="47.29495" lon="-2.27526">
        <ele>17</ele>
        <time>2021-09-05T08:47:47.000Z</time>
      </trkpt>
      <trkpt lat="47.29489" lon="-2.27525">
        <ele>17.60000038147</ele>
        <time>2021-09-05T08:47:48.000Z</time>
      </trkpt>
      <trkpt lat="47.29482" lon="-2.27523">
        <ele>18</ele>
        <time>2021-09-05T08:47:49.000Z</time>
      </trkpt>
      <trkpt lat="47.29476" lon="-2.27521">
        <ele>18.39999961853</ele>
        <time>2021-09-05T08:47:50.000Z</time>
      </trkpt>
      <trkpt lat="47.29471" lon="-2.27519">
        <ele>18.799999237061</ele>
        <time>2021-09-05T08:47:51.000Z</time>
      </trkpt>
      <trkpt lat="47.29465" lon="-2.27517">
        <ele>18.799999237061</ele>
        <time>2021-09-05T08:47:52.000Z</time>
      </trkpt>
      <trkpt lat="47.29441" lon="-2.27514">
        <ele>18.799999237061</ele>
        <time>2021-09-05T08:47:56.000Z</time>
      </trkpt>
      <trkpt lat="47.29435" lon="-2.27515">
        <ele>18.799999237061</ele>
        <time>2021-09-05T08:47:57.000Z</time>
      </trkpt>
      <trkpt lat="47.29394" lon="-2.27522">
        <ele>18.799999237061</ele>
        <time>2021-09-05T08:48:04.000Z</time>
      </trkpt>
      <trkpt lat="47.2935" lon="-2.27533">
        <ele>18.799999237061</ele>
        <time>2021-09-05T08:48:11.000Z</time>
      </trkpt>
      <trkpt lat="47.29311" lon="-2.27535">
        <ele>18.799999237061</ele>
        <time>2021-09-05T08:48:17.000Z</time>
      </trkpt>
      <trkpt lat="47.29283" lon="-2.27538">
        <ele>18.799999237061</ele>
        <time>2021-09-05T08:48:22.000Z</time>
      </trkpt>
      <trkpt lat="47.29278" lon="-2.2754">
        <ele>18.799999237061</ele>
        <time>2021-09-05T08:48:23.000Z</time>
      </trkpt>
      <trkpt lat="47.29272" lon="-2.2754">
        <ele>18.799999237061</ele>
        <time>2021-09-05T08:48:24.000Z</time>
      </trkpt>
      <trkpt lat="47.29254" lon="-2.27534">
        <ele>18.799999237061</ele>
        <time>2021-09-05T08:48:27.000Z</time>
      </trkpt>
      <trkpt lat="47.29241" lon="-2.27531">
        <ele>18.799999237061</ele>
        <time>2021-09-05T08:48:29.000Z</time>
      </trkpt>
      <trkpt lat="47.29227" lon="-2.27532">
        <ele>18.799999237061</ele>
        <time>2021-09-05T08:48:31.000Z</time>
      </trkpt>
      <trkpt lat="47.29182" lon="-2.27533">
        <ele>18.799999237061</ele>
        <time>2021-09-05T08:48:38.000Z</time>
      </trkpt>
      <trkpt lat="47.29144" lon="-2.27533">
        <ele>18.799999237061</ele>
        <time>2021-09-05T08:48:44.000Z</time>
      </trkpt>
      <trkpt lat="47.29138" lon="-2.27533">
        <ele>18.799999237061</ele>
        <time>2021-09-05T08:48:45.000Z</time>
      </trkpt>
      <trkpt lat="47.29111" lon="-2.27531">
        <ele>18.799999237061</ele>
        <time>2021-09-05T08:48:50.000Z</time>
      </trkpt>
      <trkpt lat="47.29103" lon="-2.27516">
        <ele>18.799999237061</ele>
        <time>2021-09-05T08:48:53.000Z</time>
      </trkpt>
      <trkpt lat="47.29105" lon="-2.2749">
        <ele>18.799999237061</ele>
        <time>2021-09-05T08:48:57.000Z</time>
      </trkpt>
      <trkpt lat="47.29108" lon="-2.27436">
        <ele>18.799999237061</ele>
        <time>2021-09-05T08:49:04.000Z</time>
      </trkpt>
      <trkpt lat="47.29108" lon="-2.27412">
        <ele>18.799999237061</ele>
        <time>2021-09-05T08:49:07.000Z</time>
      </trkpt>
      <trkpt lat="47.29107" lon="-2.27397">
        <ele>18.799999237061</ele>
        <time>2021-09-05T08:49:09.000Z</time>
      </trkpt>
      <trkpt lat="47.29099" lon="-2.27361">
        <ele>18.799999237061</ele>
        <time>2021-09-05T08:49:14.000Z</time>
      </trkpt>
      <trkpt lat="47.29094" lon="-2.2735">
        <ele>18.799999237061</ele>
        <time>2021-09-05T08:49:17.000Z</time>
      </trkpt>
      <trkpt lat="47.29092" lon="-2.27346">
        <ele>18.39999961853</ele>
        <time>2021-09-05T08:49:18.000Z</time>
      </trkpt>
      <trkpt lat="47.29093" lon="-2.27342">
        <ele>18</ele>
        <time>2021-09-05T08:49:19.000Z</time>
      </trkpt>
      <trkpt lat="47.29093" lon="-2.27337">
        <ele>17.60000038147</ele>
        <time>2021-09-05T08:49:20.000Z</time>
      </trkpt>
      <trkpt lat="47.29093" lon="-2.27333">
        <ele>17.200000762939</ele>
        <time>2021-09-05T08:49:21.000Z</time>
      </trkpt>
      <trkpt lat="47.29094" lon="-2.27328">
        <ele>16.799999237061</ele>
        <time>2021-09-05T08:49:22.000Z</time>
      </trkpt>
      <trkpt lat="47.29095" lon="-2.27313">
        <ele>16.799999237061</ele>
        <time>2021-09-05T08:49:25.000Z</time>
      </trkpt>
      <trkpt lat="47.29102" lon="-2.2728">
        <ele>16.799999237061</ele>
        <time>2021-09-05T08:49:31.000Z</time>
      </trkpt>
      <trkpt lat="47.29107" lon="-2.27252">
        <ele>16.799999237061</ele>
        <time>2021-09-05T08:49:36.000Z</time>
      </trkpt>
      <trkpt lat="47.29112" lon="-2.2723">
        <ele>16.799999237061</ele>
        <time>2021-09-05T08:49:41.000Z</time>
      </trkpt>
      <trkpt lat="47.29116" lon="-2.27213">
        <ele>16.799999237061</ele>
        <time>2021-09-05T08:49:47.000Z</time>
      </trkpt>
      <trkpt lat="47.29115" lon="-2.27212">
        <ele>16.799999237061</ele>
        <time>2021-09-05T08:49:48.000Z</time>
      </trkpt>
      <trkpt lat="47.2911" lon="-2.27209">
        <ele>16.799999237061</ele>
        <time>2021-09-05T08:49:51.000Z</time>
      </trkpt>
      <trkpt lat="47.29095" lon="-2.27209">
        <ele>16.799999237061</ele>
        <time>2021-09-05T08:49:56.000Z</time>
      </trkpt>
      <trkpt lat="47.29086" lon="-2.2721">
        <ele>16.799999237061</ele>
        <time>2021-09-05T08:49:58.000Z</time>
      </trkpt>
      <trkpt lat="47.29079" lon="-2.27206">
        <ele>16.799999237061</ele>
        <time>2021-09-05T08:50:00.000Z</time>
      </trkpt>
      <trkpt lat="47.29069" lon="-2.27192">
        <ele>16.799999237061</ele>
        <time>2021-09-05T08:50:04.000Z</time>
      </trkpt>
      <trkpt lat="47.29067" lon="-2.27182">
        <ele>17.200000762939</ele>
        <time>2021-09-05T08:50:06.000Z</time>
      </trkpt>
      <trkpt lat="47.29066" lon="-2.27178">
        <ele>17.60000038147</ele>
        <time>2021-09-05T08:50:07.000Z</time>
      </trkpt>
      <trkpt lat="47.29064" lon="-2.27173">
        <ele>18</ele>
        <time>2021-09-05T08:50:08.000Z</time>
      </trkpt>
      <trkpt lat="47.29061" lon="-2.27169">
        <ele>18.39999961853</ele>
        <time>2021-09-05T08:50:09.000Z</time>
      </trkpt>
      <trkpt lat="47.29058" lon="-2.27165">
        <ele>18.799999237061</ele>
        <time>2021-09-05T08:50:10.000Z</time>
      </trkpt>
      <trkpt lat="47.29051" lon="-2.27158">
        <ele>18.799999237061</ele>
        <time>2021-09-05T08:50:12.000Z</time>
      </trkpt>
      <trkpt lat="47.29047" lon="-2.27154">
        <ele>18.799999237061</ele>
        <time>2021-09-05T08:50:13.000Z</time>
      </trkpt>
      <trkpt lat="47.2904" lon="-2.27148">
        <ele>18.799999237061</ele>
        <time>2021-09-05T08:50:15.000Z</time>
      </trkpt>
      <trkpt lat="47.29031" lon="-2.27127">
        <ele>18.799999237061</ele>
        <time>2021-09-05T08:50:19.000Z</time>
      </trkpt>
      <trkpt lat="47.29036" lon="-2.27113">
        <ele>18.799999237061</ele>
        <time>2021-09-05T08:50:22.000Z</time>
      </trkpt>
      <trkpt lat="47.29047" lon="-2.27106">
        <ele>18.799999237061</ele>
        <time>2021-09-05T08:50:26.000Z</time>
      </trkpt>
      <trkpt lat="47.29056" lon="-2.27085">
        <ele>18.799999237061</ele>
        <time>2021-09-05T08:50:30.000Z</time>
      </trkpt>
      <trkpt lat="47.2906" lon="-2.27069">
        <ele>18.799999237061</ele>
        <time>2021-09-05T08:50:32.000Z</time>
      </trkpt>
      <trkpt lat="47.29062" lon="-2.27053">
        <ele>18.799999237061</ele>
        <time>2021-09-05T08:50:34.000Z</time>
      </trkpt>
      <trkpt lat="47.29061" lon="-2.27047">
        <ele>18.799999237061</ele>
        <time>2021-09-05T08:50:35.000Z</time>
      </trkpt>
      <trkpt lat="47.29056" lon="-2.27025">
        <ele>18.799999237061</ele>
        <time>2021-09-05T08:50:38.000Z</time>
      </trkpt>
      <trkpt lat="47.29056" lon="-2.27018">
        <ele>18.799999237061</ele>
        <time>2021-09-05T08:50:39.000Z</time>
      </trkpt>
      <trkpt lat="47.29054" lon="-2.27004">
        <ele>18.799999237061</ele>
        <time>2021-09-05T08:50:41.000Z</time>
      </trkpt>
      <trkpt lat="47.29053" lon="-2.26977">
        <ele>18.799999237061</ele>
        <time>2021-09-05T08:50:44.000Z</time>
      </trkpt>
      <trkpt lat="47.29056" lon="-2.26908">
        <ele>18.799999237061</ele>
        <time>2021-09-05T08:50:51.000Z</time>
      </trkpt>
      <trkpt lat="47.29061" lon="-2.26827">
        <ele>18.799999237061</ele>
        <time>2021-09-05T08:50:59.000Z</time>
      </trkpt>
      <trkpt lat="47.29062" lon="-2.26808">
        <ele>18.799999237061</ele>
        <time>2021-09-05T08:51:01.000Z</time>
      </trkpt>
      <trkpt lat="47.29061" lon="-2.2678">
        <ele>18.799999237061</ele>
        <time>2021-09-05T08:51:04.000Z</time>
      </trkpt>
      <trkpt lat="47.29057" lon="-2.26731">
        <ele>18.799999237061</ele>
        <time>2021-09-05T08:51:10.000Z</time>
      </trkpt>
      <trkpt lat="47.29055" lon="-2.26704">
        <ele>18.799999237061</ele>
        <time>2021-09-05T08:51:14.000Z</time>
      </trkpt>
      <trkpt lat="47.29054" lon="-2.26692">
        <ele>19.200000762939</ele>
        <time>2021-09-05T08:51:16.000Z</time>
      </trkpt>
      <trkpt lat="47.29053" lon="-2.26686">
        <ele>19.60000038147</ele>
        <time>2021-09-05T08:51:17.000Z</time>
      </trkpt>
      <trkpt lat="47.29052" lon="-2.2668">
        <ele>20</ele>
        <time>2021-09-05T08:51:18.000Z</time>
      </trkpt>
      <trkpt lat="47.29051" lon="-2.26674">
        <ele>20.60000038147</ele>
        <time>2021-09-05T08:51:19.000Z</time>
      </trkpt>
      <trkpt lat="47.29052" lon="-2.26667">
        <ele>21</ele>
        <time>2021-09-05T08:51:20.000Z</time>
      </trkpt>
      <trkpt lat="47.29051" lon="-2.26661">
        <ele>21</ele>
        <time>2021-09-05T08:51:21.000Z</time>
      </trkpt>
      <trkpt lat="47.2905" lon="-2.26648">
        <ele>21.39999961853</ele>
        <time>2021-09-05T08:51:23.000Z</time>
      </trkpt>
      <trkpt lat="47.29049" lon="-2.26642">
        <ele>21.799999237061</ele>
        <time>2021-09-05T08:51:24.000Z</time>
      </trkpt>
      <trkpt lat="47.29049" lon="-2.26636">
        <ele>22.200000762939</ele>
        <time>2021-09-05T08:51:25.000Z</time>
      </trkpt>
      <trkpt lat="47.29049" lon="-2.2663">
        <ele>22.799999237061</ele>
        <time>2021-09-05T08:51:26.000Z</time>
      </trkpt>
      <trkpt lat="47.29049" lon="-2.26624">
        <ele>23.200000762939</ele>
        <time>2021-09-05T08:51:27.000Z</time>
      </trkpt>
      <trkpt lat="47.29045" lon="-2.26591">
        <ele>23.200000762939</ele>
        <time>2021-09-05T08:51:33.000Z</time>
      </trkpt>
      <trkpt lat="47.29042" lon="-2.26566">
        <ele>23.200000762939</ele>
        <time>2021-09-05T08:51:38.000Z</time>
      </trkpt>
      <trkpt lat="47.29032" lon="-2.26527">
        <ele>23.200000762939</ele>
        <time>2021-09-05T08:51:44.000Z</time>
      </trkpt>
      <trkpt lat="47.29028" lon="-2.26505">
        <ele>23.200000762939</ele>
        <time>2021-09-05T08:51:47.000Z</time>
      </trkpt>
      <trkpt lat="47.29022" lon="-2.26476">
        <ele>23.200000762939</ele>
        <time>2021-09-05T08:51:51.000Z</time>
      </trkpt>
      <trkpt lat="47.29018" lon="-2.26442">
        <ele>23.60000038147</ele>
        <time>2021-09-05T08:51:56.000Z</time>
      </trkpt>
      <trkpt lat="47.29017" lon="-2.26435">
        <ele>24</ele>
        <time>2021-09-05T08:51:57.000Z</time>
      </trkpt>
      <trkpt lat="47.29016" lon="-2.26429">
        <ele>24.39999961853</ele>
        <time>2021-09-05T08:51:58.000Z</time>
      </trkpt>
      <trkpt lat="47.29015" lon="-2.26422">
        <ele>24.799999237061</ele>
        <time>2021-09-05T08:51:59.000Z</time>
      </trkpt>
      <trkpt lat="47.29015" lon="-2.26416">
        <ele>25.39999961853</ele>
        <time>2021-09-05T08:52:00.000Z</time>
      </trkpt>
      <trkpt lat="47.29015" lon="-2.26399">
        <ele>25.39999961853</ele>
        <time>2021-09-05T08:52:03.000Z</time>
      </trkpt>
      <trkpt lat="47.29015" lon="-2.26393">
        <ele>25.799999237061</ele>
        <time>2021-09-05T08:52:04.000Z</time>
      </trkpt>
      <trkpt lat="47.29015" lon="-2.26387">
        <ele>26.200000762939</ele>
        <time>2021-09-05T08:52:05.000Z</time>
      </trkpt>
      <trkpt lat="47.29016" lon="-2.26381">
        <ele>26.60000038147</ele>
        <time>2021-09-05T08:52:06.000Z</time>
      </trkpt>
      <trkpt lat="47.29018" lon="-2.26375">
        <ele>27.200000762939</ele>
        <time>2021-09-05T08:52:07.000Z</time>
      </trkpt>
      <trkpt lat="47.2902" lon="-2.26369">
        <ele>27.60000038147</ele>
        <time>2021-09-05T08:52:08.000Z</time>
      </trkpt>
      <trkpt lat="47.29022" lon="-2.26363">
        <ele>27.60000038147</ele>
        <time>2021-09-05T08:52:09.000Z</time>
      </trkpt>
      <trkpt lat="47.29033" lon="-2.26352">
        <ele>27.60000038147</ele>
        <time>2021-09-05T08:52:12.000Z</time>
      </trkpt>
      <trkpt lat="47.29037" lon="-2.26349">
        <ele>27.60000038147</ele>
        <time>2021-09-05T08:52:13.000Z</time>
      </trkpt>
      <trkpt lat="47.29059" lon="-2.26325">
        <ele>27.60000038147</ele>
        <time>2021-09-05T08:52:18.000Z</time>
      </trkpt>
      <trkpt lat="47.29062" lon="-2.26318">
        <ele>27.60000038147</ele>
        <time>2021-09-05T08:52:19.000Z</time>
      </trkpt>
      <trkpt lat="47.29072" lon="-2.26289">
        <ele>27.60000038147</ele>
        <time>2021-09-05T08:52:23.000Z</time>
      </trkpt>
      <trkpt lat="47.29083" lon="-2.26238">
        <ele>27.60000038147</ele>
        <time>2021-09-05T08:52:29.000Z</time>
      </trkpt>
      <trkpt lat="47.29085" lon="-2.2623">
        <ele>27.60000038147</ele>
        <time>2021-09-05T08:52:30.000Z</time>
      </trkpt>
      <trkpt lat="47.29086" lon="-2.26222">
        <ele>27.60000038147</ele>
        <time>2021-09-05T08:52:31.000Z</time>
      </trkpt>
      <trkpt lat="47.29091" lon="-2.2619">
        <ele>27.60000038147</ele>
        <time>2021-09-05T08:52:35.000Z</time>
      </trkpt>
      <trkpt lat="47.29098" lon="-2.26141">
        <ele>27.60000038147</ele>
        <time>2021-09-05T08:52:42.000Z</time>
      </trkpt>
      <trkpt lat="47.29103" lon="-2.26122">
        <ele>27.60000038147</ele>
        <time>2021-09-05T08:52:45.000Z</time>
      </trkpt>
      <trkpt lat="47.29108" lon="-2.26117">
        <ele>27.60000038147</ele>
        <time>2021-09-05T08:52:47.000Z</time>
      </trkpt>
      <trkpt lat="47.29111" lon="-2.26122">
        <ele>27.200000762939</ele>
        <time>2021-09-05T08:52:49.000Z</time>
      </trkpt>
      <trkpt lat="47.29113" lon="-2.26127">
        <ele>26.799999237061</ele>
        <time>2021-09-05T08:52:50.000Z</time>
      </trkpt>
      <trkpt lat="47.29114" lon="-2.26132">
        <ele>26.39999961853</ele>
        <time>2021-09-05T08:52:51.000Z</time>
      </trkpt>
      <trkpt lat="47.29115" lon="-2.26137">
        <ele>26</ele>
        <time>2021-09-05T08:52:52.000Z</time>
      </trkpt>
      <trkpt lat="47.29117" lon="-2.26143">
        <ele>25.60000038147</ele>
        <time>2021-09-05T08:52:53.000Z</time>
      </trkpt>
      <trkpt lat="47.2912" lon="-2.26156">
        <ele>25.60000038147</ele>
        <time>2021-09-05T08:52:55.000Z</time>
      </trkpt>
      <trkpt lat="47.29125" lon="-2.26196">
        <ele>25.60000038147</ele>
        <time>2021-09-05T08:53:01.000Z</time>
      </trkpt>
      <trkpt lat="47.29134" lon="-2.26234">
        <ele>25.60000038147</ele>
        <time>2021-09-05T08:53:08.000Z</time>
      </trkpt>
      <trkpt lat="47.29143" lon="-2.26231">
        <ele>25.60000038147</ele>
        <time>2021-09-05T08:53:10.000Z</time>
      </trkpt>
      <trkpt lat="47.29153" lon="-2.26226">
        <ele>25.60000038147</ele>
        <time>2021-09-05T08:53:12.000Z</time>
      </trkpt>
      <trkpt lat="47.29171" lon="-2.26219">
        <ele>25.60000038147</ele>
        <time>2021-09-05T08:53:15.000Z</time>
      </trkpt>
      <trkpt lat="47.2922" lon="-2.26202">
        <ele>25.60000038147</ele>
        <time>2021-09-05T08:53:23.000Z</time>
      </trkpt>
      <trkpt lat="47.29241" lon="-2.26201">
        <ele>25.60000038147</ele>
        <time>2021-09-05T08:53:27.000Z</time>
      </trkpt>
      <trkpt lat="47.29251" lon="-2.26201">
        <ele>25.60000038147</ele>
        <time>2021-09-05T08:53:29.000Z</time>
      </trkpt>
      <trkpt lat="47.29256" lon="-2.262">
        <ele>25.60000038147</ele>
        <time>2021-09-05T08:53:30.000Z</time>
      </trkpt>
      <trkpt lat="47.29263" lon="-2.26192">
        <ele>25.60000038147</ele>
        <time>2021-09-05T08:53:32.000Z</time>
      </trkpt>
      <trkpt lat="47.29265" lon="-2.26179">
        <ele>25.60000038147</ele>
        <time>2021-09-05T08:53:35.000Z</time>
      </trkpt>
      <trkpt lat="47.29261" lon="-2.26162">
        <ele>25.60000038147</ele>
        <time>2021-09-05T08:53:38.000Z</time>
      </trkpt>
      <trkpt lat="47.29259" lon="-2.26149">
        <ele>25.60000038147</ele>
        <time>2021-09-05T08:53:40.000Z</time>
      </trkpt>
      <trkpt lat="47.29251" lon="-2.26124">
        <ele>25.60000038147</ele>
        <time>2021-09-05T08:53:45.000Z</time>
      </trkpt>
      <trkpt lat="47.29245" lon="-2.2611">
        <ele>26</ele>
        <time>2021-09-05T08:53:48.000Z</time>
      </trkpt>
      <trkpt lat="47.29243" lon="-2.26105">
        <ele>26.39999961853</ele>
        <time>2021-09-05T08:53:49.000Z</time>
      </trkpt>
      <trkpt lat="47.29242" lon="-2.261">
        <ele>26.799999237061</ele>
        <time>2021-09-05T08:53:50.000Z</time>
      </trkpt>
      <trkpt lat="47.29242" lon="-2.26095">
        <ele>27.200000762939</ele>
        <time>2021-09-05T08:53:51.000Z</time>
      </trkpt>
      <trkpt lat="47.29242" lon="-2.26089">
        <ele>27.60000038147</ele>
        <time>2021-09-05T08:53:52.000Z</time>
      </trkpt>
      <trkpt lat="47.29244" lon="-2.26085">
        <ele>27.60000038147</ele>
        <time>2021-09-05T08:53:53.000Z</time>
      </trkpt>
      <trkpt lat="47.29247" lon="-2.26082">
        <ele>27.60000038147</ele>
        <time>2021-09-05T08:53:54.000Z</time>
      </trkpt>
      <trkpt lat="47.29269" lon="-2.26073">
        <ele>27.60000038147</ele>
        <time>2021-09-05T08:53:59.000Z</time>
      </trkpt>
      <trkpt lat="47.29296" lon="-2.26063">
        <ele>27.60000038147</ele>
        <time>2021-09-05T08:54:04.000Z</time>
      </trkpt>
      <trkpt lat="47.29302" lon="-2.26061">
        <ele>27.200000762939</ele>
        <time>2021-09-05T08:54:05.000Z</time>
      </trkpt>
      <trkpt lat="47.29306" lon="-2.26057">
        <ele>26.799999237061</ele>
        <time>2021-09-05T08:54:06.000Z</time>
      </trkpt>
      <trkpt lat="47.2931" lon="-2.26051">
        <ele>26.39999961853</ele>
        <time>2021-09-05T08:54:07.000Z</time>
      </trkpt>
      <trkpt lat="47.29312" lon="-2.26046">
        <ele>26</ele>
        <time>2021-09-05T08:54:08.000Z</time>
      </trkpt>
      <trkpt lat="47.29312" lon="-2.2604">
        <ele>25.60000038147</ele>
        <time>2021-09-05T08:54:09.000Z</time>
      </trkpt>
      <trkpt lat="47.29312" lon="-2.26034">
        <ele>25.60000038147</ele>
        <time>2021-09-05T08:54:10.000Z</time>
      </trkpt>
      <trkpt lat="47.29312" lon="-2.26026">
        <ele>25.60000038147</ele>
        <time>2021-09-05T08:54:11.000Z</time>
      </trkpt>
      <trkpt lat="47.29302" lon="-2.25991">
        <ele>25.60000038147</ele>
        <time>2021-09-05T08:54:16.000Z</time>
      </trkpt>
      <trkpt lat="47.29293" lon="-2.25949">
        <ele>25.60000038147</ele>
        <time>2021-09-05T08:54:22.000Z</time>
      </trkpt>
      <trkpt lat="47.29295" lon="-2.25934">
        <ele>25.60000038147</ele>
        <time>2021-09-05T08:54:26.000Z</time>
      </trkpt>
      <trkpt lat="47.29296" lon="-2.25932">
        <ele>25.60000038147</ele>
        <time>2021-09-05T08:54:27.000Z</time>
      </trkpt>
      <trkpt lat="47.29302" lon="-2.25926">
        <ele>25.60000038147</ele>
        <time>2021-09-05T08:54:31.000Z</time>
      </trkpt>
      <trkpt lat="47.29313" lon="-2.25918">
        <ele>25.60000038147</ele>
        <time>2021-09-05T08:54:36.000Z</time>
      </trkpt>
      <trkpt lat="47.29315" lon="-2.25919">
        <ele>25</ele>
        <time>2021-09-05T08:54:37.000Z</time>
      </trkpt>
      <trkpt lat="47.29317" lon="-2.25921">
        <ele>24.60000038147</ele>
        <time>2021-09-05T08:54:38.000Z</time>
      </trkpt>
      <trkpt lat="47.29319" lon="-2.25925">
        <ele>24.200000762939</ele>
        <time>2021-09-05T08:54:39.000Z</time>
      </trkpt>
      <trkpt lat="47.29321" lon="-2.2593">
        <ele>23.799999237061</ele>
        <time>2021-09-05T08:54:40.000Z</time>
      </trkpt>
      <trkpt lat="47.29326" lon="-2.25932">
        <ele>23.39999961853</ele>
        <time>2021-09-05T08:54:41.000Z</time>
      </trkpt>
      <trkpt lat="47.29335" lon="-2.25926">
        <ele>23.39999961853</ele>
        <time>2021-09-05T08:54:44.000Z</time>
      </trkpt>
      <trkpt lat="47.29338" lon="-2.25914">
        <ele>23.39999961853</ele>
        <time>2021-09-05T08:54:46.000Z</time>
      </trkpt>
      <trkpt lat="47.29339" lon="-2.25908">
        <ele>23.39999961853</ele>
        <time>2021-09-05T08:54:47.000Z</time>
      </trkpt>
      <trkpt lat="47.29338" lon="-2.25902">
        <ele>23.39999961853</ele>
        <time>2021-09-05T08:54:48.000Z</time>
      </trkpt>
      <trkpt lat="47.29342" lon="-2.25888">
        <ele>23.39999961853</ele>
        <time>2021-09-05T08:54:51.000Z</time>
      </trkpt>
      <trkpt lat="47.29348" lon="-2.25871">
        <ele>23.39999961853</ele>
        <time>2021-09-05T08:54:55.000Z</time>
      </trkpt>
      <trkpt lat="47.29364" lon="-2.25861">
        <ele>23.39999961853</ele>
        <time>2021-09-05T08:55:00.000Z</time>
      </trkpt>
      <trkpt lat="47.29373" lon="-2.2586">
        <ele>23.39999961853</ele>
        <time>2021-09-05T08:55:02.000Z</time>
      </trkpt>
      <trkpt lat="47.29377" lon="-2.25858">
        <ele>23.39999961853</ele>
        <time>2021-09-05T08:55:03.000Z</time>
      </trkpt>
      <trkpt lat="47.29399" lon="-2.25855">
        <ele>23.39999961853</ele>
        <time>2021-09-05T08:55:08.000Z</time>
      </trkpt>
      <trkpt lat="47.29415" lon="-2.25847">
        <ele>23.39999961853</ele>
        <time>2021-09-05T08:55:12.000Z</time>
      </trkpt>
      <trkpt lat="47.29419" lon="-2.25842">
        <ele>22.799999237061</ele>
        <time>2021-09-05T08:55:13.000Z</time>
      </trkpt>
      <trkpt lat="47.29423" lon="-2.25834">
        <ele>22.39999961853</ele>
        <time>2021-09-05T08:55:14.000Z</time>
      </trkpt>
      <trkpt lat="47.29426" lon="-2.25827">
        <ele>21.799999237061</ele>
        <time>2021-09-05T08:55:15.000Z</time>
      </trkpt>
      <trkpt lat="47.29427" lon="-2.25819">
        <ele>21.39999961853</ele>
        <time>2021-09-05T08:55:16.000Z</time>
      </trkpt>
      <trkpt lat="47.29427" lon="-2.25811">
        <ele>20.799999237061</ele>
        <time>2021-09-05T08:55:17.000Z</time>
      </trkpt>
      <trkpt lat="47.29426" lon="-2.25805">
        <ele>20.799999237061</ele>
        <time>2021-09-05T08:55:18.000Z</time>
      </trkpt>
      <trkpt lat="47.29429" lon="-2.25784">
        <ele>20.799999237061</ele>
        <time>2021-09-05T08:55:22.000Z</time>
      </trkpt>
      <trkpt lat="47.29439" lon="-2.25777">
        <ele>20.799999237061</ele>
        <time>2021-09-05T08:55:25.000Z</time>
      </trkpt>
      <trkpt lat="47.29441" lon="-2.25765">
        <ele>20.799999237061</ele>
        <time>2021-09-05T08:55:28.000Z</time>
      </trkpt>
      <trkpt lat="47.29438" lon="-2.25748">
        <ele>20.799999237061</ele>
        <time>2021-09-05T08:55:32.000Z</time>
      </trkpt>
      <trkpt lat="47.29437" lon="-2.25743">
        <ele>20.799999237061</ele>
        <time>2021-09-05T08:55:33.000Z</time>
      </trkpt>
      <trkpt lat="47.29433" lon="-2.25721">
        <ele>20.799999237061</ele>
        <time>2021-09-05T08:55:38.000Z</time>
      </trkpt>
      <trkpt lat="47.2943" lon="-2.25711">
        <ele>21.200000762939</ele>
        <time>2021-09-05T08:55:41.000Z</time>
      </trkpt>
      <trkpt lat="47.2943" lon="-2.25708">
        <ele>21.799999237061</ele>
        <time>2021-09-05T08:55:42.000Z</time>
      </trkpt>
      <trkpt lat="47.29429" lon="-2.25705">
        <ele>22.200000762939</ele>
        <time>2021-09-05T08:55:43.000Z</time>
      </trkpt>
      <trkpt lat="47.29428" lon="-2.25702">
        <ele>22.60000038147</ele>
        <time>2021-09-05T08:55:44.000Z</time>
      </trkpt>
      <trkpt lat="47.29427" lon="-2.257">
        <ele>23</ele>
        <time>2021-09-05T08:55:45.000Z</time>
      </trkpt>
      <trkpt lat="47.29419" lon="-2.2568">
        <ele>23</ele>
        <time>2021-09-05T08:55:51.000Z</time>
      </trkpt>
      <trkpt lat="47.29417" lon="-2.25674">
        <ele>23.39999961853</ele>
        <time>2021-09-05T08:55:53.000Z</time>
      </trkpt>
      <trkpt lat="47.29415" lon="-2.25671">
        <ele>23.799999237061</ele>
        <time>2021-09-05T08:55:54.000Z</time>
      </trkpt>
      <trkpt lat="47.29413" lon="-2.25669">
        <ele>24.39999961853</ele>
        <time>2021-09-05T08:55:55.000Z</time>
      </trkpt>
      <trkpt lat="47.29411" lon="-2.25667">
        <ele>24.799999237061</ele>
        <time>2021-09-05T08:55:56.000Z</time>
      </trkpt>
      <trkpt lat="47.29409" lon="-2.25665">
        <ele>25.200000762939</ele>
        <time>2021-09-05T08:55:57.000Z</time>
      </trkpt>
      <trkpt lat="47.294" lon="-2.25657">
        <ele>25.200000762939</ele>
        <time>2021-09-05T08:56:02.000Z</time>
      </trkpt>
      <trkpt lat="47.29397" lon="-2.25655">
        <ele>25.200000762939</ele>
        <time>2021-09-05T08:56:03.000Z</time>
      </trkpt>
      <trkpt lat="47.29395" lon="-2.25653">
        <ele>25.200000762939</ele>
        <time>2021-09-05T08:56:06.000Z</time>
      </trkpt>
      <trkpt lat="47.29393" lon="-2.25651">
        <ele>25.200000762939</ele>
        <time>2021-09-05T08:56:09.000Z</time>
      </trkpt>
      <trkpt lat="47.29392" lon="-2.25644">
        <ele>25.200000762939</ele>
        <time>2021-09-05T08:56:11.000Z</time>
      </trkpt>
      <trkpt lat="47.29394" lon="-2.25638">
        <ele>25.200000762939</ele>
        <time>2021-09-05T08:56:13.000Z</time>
      </trkpt>
      <trkpt lat="47.29408" lon="-2.25626">
        <ele>25.200000762939</ele>
        <time>2021-09-05T08:56:18.000Z</time>
      </trkpt>
      <trkpt lat="47.29412" lon="-2.25624">
        <ele>25.200000762939</ele>
        <time>2021-09-05T08:56:19.000Z</time>
      </trkpt>
      <trkpt lat="47.29422" lon="-2.25618">
        <ele>25.60000038147</ele>
        <time>2021-09-05T08:56:21.000Z</time>
      </trkpt>
      <trkpt lat="47.29428" lon="-2.25616">
        <ele>26</ele>
        <time>2021-09-05T08:56:22.000Z</time>
      </trkpt>
      <trkpt lat="47.29433" lon="-2.25614">
        <ele>26.39999961853</ele>
        <time>2021-09-05T08:56:23.000Z</time>
      </trkpt>
      <trkpt lat="47.29437" lon="-2.25612">
        <ele>26.799999237061</ele>
        <time>2021-09-05T08:56:24.000Z</time>
      </trkpt>
      <trkpt lat="47.29442" lon="-2.2561">
        <ele>27.200000762939</ele>
        <time>2021-09-05T08:56:25.000Z</time>
      </trkpt>
      <trkpt lat="47.29467" lon="-2.25599">
        <ele>27.200000762939</ele>
        <time>2021-09-05T08:56:31.000Z</time>
      </trkpt>
      <trkpt lat="47.29497" lon="-2.25583">
        <ele>27.200000762939</ele>
        <time>2021-09-05T08:56:37.000Z</time>
      </trkpt>
      <trkpt lat="47.29544" lon="-2.25553">
        <ele>27.200000762939</ele>
        <time>2021-09-05T08:56:46.000Z</time>
      </trkpt>
      <trkpt lat="47.29556" lon="-2.25544">
        <ele>26.799999237061</ele>
        <time>2021-09-05T08:56:48.000Z</time>
      </trkpt>
      <trkpt lat="47.29562" lon="-2.2554">
        <ele>26.39999961853</ele>
        <time>2021-09-05T08:56:49.000Z</time>
      </trkpt>
      <trkpt lat="47.29567" lon="-2.25536">
        <ele>26</ele>
        <time>2021-09-05T08:56:50.000Z</time>
      </trkpt>
      <trkpt lat="47.29572" lon="-2.2553">
        <ele>25.200000762939</ele>
        <time>2021-09-05T08:56:51.000Z</time>
      </trkpt>
      <trkpt lat="47.29577" lon="-2.25524">
        <ele>25.200000762939</ele>
        <time>2021-09-05T08:56:52.000Z</time>
      </trkpt>
      <trkpt lat="47.29585" lon="-2.25499">
        <ele>25.200000762939</ele>
        <time>2021-09-05T08:56:55.000Z</time>
      </trkpt>
      <trkpt lat="47.29587" lon="-2.25462">
        <ele>25.200000762939</ele>
        <time>2021-09-05T08:56:59.000Z</time>
      </trkpt>
      <trkpt lat="47.29584" lon="-2.25422">
        <ele>24.60000038147</ele>
        <time>2021-09-05T08:57:03.000Z</time>
      </trkpt>
      <trkpt lat="47.29583" lon="-2.25411">
        <ele>24.200000762939</ele>
        <time>2021-09-05T08:57:04.000Z</time>
      </trkpt>
      <trkpt lat="47.29581" lon="-2.254">
        <ele>23.799999237061</ele>
        <time>2021-09-05T08:57:05.000Z</time>
      </trkpt>
      <trkpt lat="47.2958" lon="-2.25389">
        <ele>23.39999961853</ele>
        <time>2021-09-05T08:57:06.000Z</time>
      </trkpt>
      <trkpt lat="47.29577" lon="-2.25379">
        <ele>23</ele>
        <time>2021-09-05T08:57:07.000Z</time>
      </trkpt>
      <trkpt lat="47.29571" lon="-2.25359">
        <ele>23</ele>
        <time>2021-09-05T08:57:09.000Z</time>
      </trkpt>
      <trkpt lat="47.29548" lon="-2.25304">
        <ele>23</ele>
        <time>2021-09-05T08:57:15.000Z</time>
      </trkpt>
      <trkpt lat="47.29544" lon="-2.25294">
        <ele>22.200000762939</ele>
        <time>2021-09-05T08:57:16.000Z</time>
      </trkpt>
      <trkpt lat="47.29542" lon="-2.25284">
        <ele>21.799999237061</ele>
        <time>2021-09-05T08:57:17.000Z</time>
      </trkpt>
      <trkpt lat="47.2954" lon="-2.25273">
        <ele>21.200000762939</ele>
        <time>2021-09-05T08:57:18.000Z</time>
      </trkpt>
      <trkpt lat="47.2954" lon="-2.25263">
        <ele>20.799999237061</ele>
        <time>2021-09-05T08:57:19.000Z</time>
      </trkpt>
      <trkpt lat="47.2954" lon="-2.2524">
        <ele>20.799999237061</ele>
        <time>2021-09-05T08:57:21.000Z</time>
      </trkpt>
      <trkpt lat="47.29544" lon="-2.2521">
        <ele>20.799999237061</ele>
        <time>2021-09-05T08:57:24.000Z</time>
      </trkpt>
      <trkpt lat="47.29549" lon="-2.25182">
        <ele>20.799999237061</ele>
        <time>2021-09-05T08:57:28.000Z</time>
      </trkpt>
      <trkpt lat="47.29539" lon="-2.25175">
        <ele>20.39999961853</ele>
        <time>2021-09-05T08:57:31.000Z</time>
      </trkpt>
      <trkpt lat="47.29535" lon="-2.25176">
        <ele>20</ele>
        <time>2021-09-05T08:57:32.000Z</time>
      </trkpt>
      <trkpt lat="47.29531" lon="-2.25177">
        <ele>19.60000038147</ele>
        <time>2021-09-05T08:57:33.000Z</time>
      </trkpt>
      <trkpt lat="47.29527" lon="-2.25179">
        <ele>19.200000762939</ele>
        <time>2021-09-05T08:57:34.000Z</time>
      </trkpt>
      <trkpt lat="47.29522" lon="-2.2518">
        <ele>18.799999237061</ele>
        <time>2021-09-05T08:57:35.000Z</time>
      </trkpt>
      <trkpt lat="47.29498" lon="-2.25189">
        <ele>18.799999237061</ele>
        <time>2021-09-05T08:57:39.000Z</time>
      </trkpt>
      <trkpt lat="47.29453" lon="-2.25202">
        <ele>18.799999237061</ele>
        <time>2021-09-05T08:57:45.000Z</time>
      </trkpt>
      <trkpt lat="47.29424" lon="-2.25211">
        <ele>18.39999961853</ele>
        <time>2021-09-05T08:57:49.000Z</time>
      </trkpt>
      <trkpt lat="47.29416" lon="-2.25211">
        <ele>18</ele>
        <time>2021-09-05T08:57:50.000Z</time>
      </trkpt>
      <trkpt lat="47.29408" lon="-2.2521">
        <ele>17.60000038147</ele>
        <time>2021-09-05T08:57:51.000Z</time>
      </trkpt>
      <trkpt lat="47.29401" lon="-2.25209">
        <ele>17.200000762939</ele>
        <time>2021-09-05T08:57:52.000Z</time>
      </trkpt>
      <trkpt lat="47.29393" lon="-2.25208">
        <ele>16.799999237061</ele>
        <time>2021-09-05T08:57:53.000Z</time>
      </trkpt>
      <trkpt lat="47.29378" lon="-2.25205">
        <ele>16.799999237061</ele>
        <time>2021-09-05T08:57:55.000Z</time>
      </trkpt>
      <trkpt lat="47.29325" lon="-2.25196">
        <ele>16.799999237061</ele>
        <time>2021-09-05T08:58:02.000Z</time>
      </trkpt>
      <trkpt lat="47.29315" lon="-2.25195">
        <ele>16.799999237061</ele>
        <time>2021-09-05T08:58:04.000Z</time>
      </trkpt>
      <trkpt lat="47.2931" lon="-2.25191">
        <ele>16.799999237061</ele>
        <time>2021-09-05T08:58:05.000Z</time>
      </trkpt>
      <trkpt lat="47.29308" lon="-2.25183">
        <ele>16.39999961853</ele>
        <time>2021-09-05T08:58:06.000Z</time>
      </trkpt>
      <trkpt lat="47.29307" lon="-2.25174">
        <ele>16</ele>
        <time>2021-09-05T08:58:07.000Z</time>
      </trkpt>
      <trkpt lat="47.29306" lon="-2.25166">
        <ele>15.60000038147</ele>
        <time>2021-09-05T08:58:08.000Z</time>
      </trkpt>
      <trkpt lat="47.29304" lon="-2.25158">
        <ele>15.199999809265</ele>
        <time>2021-09-05T08:58:09.000Z</time>
      </trkpt>
      <trkpt lat="47.29303" lon="-2.2515">
        <ele>14.800000190735</ele>
        <time>2021-09-05T08:58:10.000Z</time>
      </trkpt>
      <trkpt lat="47.29301" lon="-2.25134">
        <ele>14.800000190735</ele>
        <time>2021-09-05T08:58:12.000Z</time>
      </trkpt>
      <trkpt lat="47.29295" lon="-2.25096">
        <ele>15.199999809265</ele>
        <time>2021-09-05T08:58:17.000Z</time>
      </trkpt>
      <trkpt lat="47.29293" lon="-2.25089">
        <ele>15.60000038147</ele>
        <time>2021-09-05T08:58:18.000Z</time>
      </trkpt>
      <trkpt lat="47.29292" lon="-2.25082">
        <ele>16</ele>
        <time>2021-09-05T08:58:19.000Z</time>
      </trkpt>
      <trkpt lat="47.2929" lon="-2.25076">
        <ele>16.39999961853</ele>
        <time>2021-09-05T08:58:20.000Z</time>
      </trkpt>
      <trkpt lat="47.29289" lon="-2.25069">
        <ele>16.799999237061</ele>
        <time>2021-09-05T08:58:21.000Z</time>
      </trkpt>
      <trkpt lat="47.29278" lon="-2.25034">
        <ele>16.799999237061</ele>
        <time>2021-09-05T08:58:27.000Z</time>
      </trkpt>
      <trkpt lat="47.29269" lon="-2.24989">
        <ele>16.799999237061</ele>
        <time>2021-09-05T08:58:34.000Z</time>
      </trkpt>
      <trkpt lat="47.29264" lon="-2.24959">
        <ele>16.799999237061</ele>
        <time>2021-09-05T08:58:39.000Z</time>
      </trkpt>
      <trkpt lat="47.29262" lon="-2.24946">
        <ele>17.200000762939</ele>
        <time>2021-09-05T08:58:41.000Z</time>
      </trkpt>
      <trkpt lat="47.29262" lon="-2.24939">
        <ele>17.60000038147</ele>
        <time>2021-09-05T08:58:42.000Z</time>
      </trkpt>
      <trkpt lat="47.29263" lon="-2.24933">
        <ele>18</ele>
        <time>2021-09-05T08:58:43.000Z</time>
      </trkpt>
      <trkpt lat="47.29265" lon="-2.24928">
        <ele>18.39999961853</ele>
        <time>2021-09-05T08:58:44.000Z</time>
      </trkpt>
      <trkpt lat="47.29268" lon="-2.24924">
        <ele>18.799999237061</ele>
        <time>2021-09-05T08:58:45.000Z</time>
      </trkpt>
      <trkpt lat="47.29281" lon="-2.24918">
        <ele>18.799999237061</ele>
        <time>2021-09-05T08:58:48.000Z</time>
      </trkpt>
      <trkpt lat="47.2929" lon="-2.24917">
        <ele>18.799999237061</ele>
        <time>2021-09-05T08:58:50.000Z</time>
      </trkpt>
      <trkpt lat="47.29295" lon="-2.24917">
        <ele>18.799999237061</ele>
        <time>2021-09-05T08:58:51.000Z</time>
      </trkpt>
      <trkpt lat="47.29306" lon="-2.24918">
        <ele>18.799999237061</ele>
        <time>2021-09-05T08:58:53.000Z</time>
      </trkpt>
      <trkpt lat="47.29328" lon="-2.24919">
        <ele>18.799999237061</ele>
        <time>2021-09-05T08:58:57.000Z</time>
      </trkpt>
      <trkpt lat="47.29336" lon="-2.2491">
        <ele>18.799999237061</ele>
        <time>2021-09-05T08:58:59.000Z</time>
      </trkpt>
      <trkpt lat="47.2934" lon="-2.24894">
        <ele>18.799999237061</ele>
        <time>2021-09-05T08:59:02.000Z</time>
      </trkpt>
      <trkpt lat="47.2934" lon="-2.24878">
        <ele>18.799999237061</ele>
        <time>2021-09-05T08:59:04.000Z</time>
      </trkpt>
      <trkpt lat="47.29339" lon="-2.24861">
        <ele>18.799999237061</ele>
        <time>2021-09-05T08:59:06.000Z</time>
      </trkpt>
      <trkpt lat="47.29333" lon="-2.24821">
        <ele>18.799999237061</ele>
        <time>2021-09-05T08:59:11.000Z</time>
      </trkpt>
      <trkpt lat="47.2932" lon="-2.24773">
        <ele>18.799999237061</ele>
        <time>2021-09-05T08:59:17.000Z</time>
      </trkpt>
      <trkpt lat="47.29315" lon="-2.24759">
        <ele>18.799999237061</ele>
        <time>2021-09-05T08:59:19.000Z</time>
      </trkpt>
      <trkpt lat="47.29311" lon="-2.24735">
        <ele>18.799999237061</ele>
        <time>2021-09-05T08:59:22.000Z</time>
      </trkpt>
      <trkpt lat="47.29305" lon="-2.24704">
        <ele>18.39999961853</ele>
        <time>2021-09-05T08:59:26.000Z</time>
      </trkpt>
      <trkpt lat="47.29304" lon="-2.24696">
        <ele>18</ele>
        <time>2021-09-05T08:59:27.000Z</time>
      </trkpt>
      <trkpt lat="47.29301" lon="-2.24688">
        <ele>17.60000038147</ele>
        <time>2021-09-05T08:59:28.000Z</time>
      </trkpt>
      <trkpt lat="47.293" lon="-2.24679">
        <ele>17.200000762939</ele>
        <time>2021-09-05T08:59:29.000Z</time>
      </trkpt>
      <trkpt lat="47.29299" lon="-2.24669">
        <ele>16.799999237061</ele>
        <time>2021-09-05T08:59:30.000Z</time>
      </trkpt>
      <trkpt lat="47.29299" lon="-2.24627">
        <ele>16.799999237061</ele>
        <time>2021-09-05T08:59:34.000Z</time>
      </trkpt>
      <trkpt lat="47.293" lon="-2.24597">
        <ele>16.799999237061</ele>
        <time>2021-09-05T08:59:37.000Z</time>
      </trkpt>
      <trkpt lat="47.293" lon="-2.24588">
        <ele>16.39999961853</ele>
        <time>2021-09-05T08:59:38.000Z</time>
      </trkpt>
      <trkpt lat="47.29299" lon="-2.24579">
        <ele>16</ele>
        <time>2021-09-05T08:59:39.000Z</time>
      </trkpt>
      <trkpt lat="47.29298" lon="-2.2457">
        <ele>15.39999961853</ele>
        <time>2021-09-05T08:59:40.000Z</time>
      </trkpt>
      <trkpt lat="47.29296" lon="-2.24561">
        <ele>15</ele>
        <time>2021-09-05T08:59:41.000Z</time>
      </trkpt>
      <trkpt lat="47.29296" lon="-2.24552">
        <ele>14.60000038147</ele>
        <time>2021-09-05T08:59:42.000Z</time>
      </trkpt>
      <trkpt lat="47.29295" lon="-2.24532">
        <ele>14.60000038147</ele>
        <time>2021-09-05T08:59:44.000Z</time>
      </trkpt>
      <trkpt lat="47.29294" lon="-2.2448">
        <ele>14.60000038147</ele>
        <time>2021-09-05T08:59:50.000Z</time>
      </trkpt>
      <trkpt lat="47.29289" lon="-2.24459">
        <ele>14.60000038147</ele>
        <time>2021-09-05T08:59:54.000Z</time>
      </trkpt>
      <trkpt lat="47.29279" lon="-2.24462">
        <ele>14.60000038147</ele>
        <time>2021-09-05T08:59:57.000Z</time>
      </trkpt>
      <trkpt lat="47.29264" lon="-2.2447">
        <ele>14.60000038147</ele>
        <time>2021-09-05T09:00:00.000Z</time>
      </trkpt>
      <trkpt lat="47.29259" lon="-2.24472">
        <ele>14.60000038147</ele>
        <time>2021-09-05T09:00:01.000Z</time>
      </trkpt>
      <trkpt lat="47.29248" lon="-2.24477">
        <ele>14.60000038147</ele>
        <time>2021-09-05T09:00:03.000Z</time>
      </trkpt>
      <trkpt lat="47.29236" lon="-2.24472">
        <ele>14.60000038147</ele>
        <time>2021-09-05T09:00:05.000Z</time>
      </trkpt>
      <trkpt lat="47.29228" lon="-2.24454">
        <ele>14.60000038147</ele>
        <time>2021-09-05T09:00:07.000Z</time>
      </trkpt>
      <trkpt lat="47.29223" lon="-2.24423">
        <ele>14.60000038147</ele>
        <time>2021-09-05T09:00:10.000Z</time>
      </trkpt>
      <trkpt lat="47.2922" lon="-2.24413">
        <ele>14.60000038147</ele>
        <time>2021-09-05T09:00:11.000Z</time>
      </trkpt>
      <trkpt lat="47.29204" lon="-2.24365">
        <ele>14.60000038147</ele>
        <time>2021-09-05T09:00:16.000Z</time>
      </trkpt>
      <trkpt lat="47.29182" lon="-2.24314">
        <ele>14.60000038147</ele>
        <time>2021-09-05T09:00:22.000Z</time>
      </trkpt>
      <trkpt lat="47.29172" lon="-2.24291">
        <ele>14.60000038147</ele>
        <time>2021-09-05T09:00:25.000Z</time>
      </trkpt>
      <trkpt lat="47.29168" lon="-2.24274">
        <ele>14.60000038147</ele>
        <time>2021-09-05T09:00:27.000Z</time>
      </trkpt>
      <trkpt lat="47.29166" lon="-2.24266">
        <ele>14.60000038147</ele>
        <time>2021-09-05T09:00:28.000Z</time>
      </trkpt>
      <trkpt lat="47.2915" lon="-2.24213">
        <ele>14.60000038147</ele>
        <time>2021-09-05T09:00:35.000Z</time>
      </trkpt>
      <trkpt lat="47.29135" lon="-2.24161">
        <ele>14.60000038147</ele>
        <time>2021-09-05T09:00:42.000Z</time>
      </trkpt>
      <trkpt lat="47.29133" lon="-2.24154">
        <ele>14.60000038147</ele>
        <time>2021-09-05T09:00:43.000Z</time>
      </trkpt>
      <trkpt lat="47.29131" lon="-2.24132">
        <ele>14.60000038147</ele>
        <time>2021-09-05T09:00:46.000Z</time>
      </trkpt>
      <trkpt lat="47.29123" lon="-2.24099">
        <ele>14.60000038147</ele>
        <time>2021-09-05T09:00:50.000Z</time>
      </trkpt>
      <trkpt lat="47.29122" lon="-2.24091">
        <ele>14.60000038147</ele>
        <time>2021-09-05T09:00:51.000Z</time>
      </trkpt>
      <trkpt lat="47.29126" lon="-2.24071">
        <ele>14.60000038147</ele>
        <time>2021-09-05T09:00:54.000Z</time>
      </trkpt>
      <trkpt lat="47.29141" lon="-2.24057">
        <ele>14.60000038147</ele>
        <time>2021-09-05T09:00:57.000Z</time>
      </trkpt>
      <trkpt lat="47.29153" lon="-2.24051">
        <ele>14.60000038147</ele>
        <time>2021-09-05T09:00:59.000Z</time>
      </trkpt>
      <trkpt lat="47.2916" lon="-2.24047">
        <ele>14.199999809265</ele>
        <time>2021-09-05T09:01:00.000Z</time>
      </trkpt>
      <trkpt lat="47.29168" lon="-2.24042">
        <ele>13.800000190735</ele>
        <time>2021-09-05T09:01:01.000Z</time>
      </trkpt>
      <trkpt lat="47.29175" lon="-2.24038">
        <ele>13.39999961853</ele>
        <time>2021-09-05T09:01:02.000Z</time>
      </trkpt>
      <trkpt lat="47.29182" lon="-2.24033">
        <ele>13</ele>
        <time>2021-09-05T09:01:03.000Z</time>
      </trkpt>
      <trkpt lat="47.29189" lon="-2.24029">
        <ele>12.39999961853</ele>
        <time>2021-09-05T09:01:04.000Z</time>
      </trkpt>
      <trkpt lat="47.29224" lon="-2.24001">
        <ele>12</ele>
        <time>2021-09-05T09:01:09.000Z</time>
      </trkpt>
      <trkpt lat="47.2923" lon="-2.23995">
        <ele>11.60000038147</ele>
        <time>2021-09-05T09:01:10.000Z</time>
      </trkpt>
      <trkpt lat="47.29236" lon="-2.23989">
        <ele>11.199999809265</ele>
        <time>2021-09-05T09:01:11.000Z</time>
      </trkpt>
      <trkpt lat="47.29242" lon="-2.23983">
        <ele>10.800000190735</ele>
        <time>2021-09-05T09:01:12.000Z</time>
      </trkpt>
      <trkpt lat="47.29248" lon="-2.23977">
        <ele>10.199999809265</ele>
        <time>2021-09-05T09:01:13.000Z</time>
      </trkpt>
      <trkpt lat="47.29261" lon="-2.23967">
        <ele>10.199999809265</ele>
        <time>2021-09-05T09:01:15.000Z</time>
      </trkpt>
      <trkpt lat="47.2927" lon="-2.23964">
        <ele>10.199999809265</ele>
        <time>2021-09-05T09:01:16.000Z</time>
      </trkpt>
      <trkpt lat="47.29285" lon="-2.23962">
        <ele>10.199999809265</ele>
        <time>2021-09-05T09:01:18.000Z</time>
      </trkpt>
      <trkpt lat="47.29316" lon="-2.23971">
        <ele>9.8000001907349</ele>
        <time>2021-09-05T09:01:22.000Z</time>
      </trkpt>
      <trkpt lat="47.29322" lon="-2.23973">
        <ele>9.3999996185303</ele>
        <time>2021-09-05T09:01:23.000Z</time>
      </trkpt>
      <trkpt lat="47.29329" lon="-2.23973">
        <ele>9</ele>
        <time>2021-09-05T09:01:24.000Z</time>
      </trkpt>
      <trkpt lat="47.29336" lon="-2.23974">
        <ele>8.6000003814697</ele>
        <time>2021-09-05T09:01:25.000Z</time>
      </trkpt>
      <trkpt lat="47.29343" lon="-2.23974">
        <ele>8.1999998092651</ele>
        <time>2021-09-05T09:01:26.000Z</time>
      </trkpt>
      <trkpt lat="47.29356" lon="-2.23972">
        <ele>8.1999998092651</ele>
        <time>2021-09-05T09:01:28.000Z</time>
      </trkpt>
      <trkpt lat="47.29364" lon="-2.23955">
        <ele>8.1999998092651</ele>
        <time>2021-09-05T09:01:31.000Z</time>
      </trkpt>
      <trkpt lat="47.29355" lon="-2.23939">
        <ele>8.1999998092651</ele>
        <time>2021-09-05T09:01:34.000Z</time>
      </trkpt>
      <trkpt lat="47.29345" lon="-2.23928">
        <ele>8.1999998092651</ele>
        <time>2021-09-05T09:01:36.000Z</time>
      </trkpt>
      <trkpt lat="47.29336" lon="-2.23915">
        <ele>8.1999998092651</ele>
        <time>2021-09-05T09:01:38.000Z</time>
      </trkpt>
      <trkpt lat="47.29324" lon="-2.23889">
        <ele>8.1999998092651</ele>
        <time>2021-09-05T09:01:41.000Z</time>
      </trkpt>
      <trkpt lat="47.2932" lon="-2.23871">
        <ele>8.1999998092651</ele>
        <time>2021-09-05T09:01:43.000Z</time>
      </trkpt>
      <trkpt lat="47.29316" lon="-2.2383">
        <ele>8.1999998092651</ele>
        <time>2021-09-05T09:01:47.000Z</time>
      </trkpt>
      <trkpt lat="47.29316" lon="-2.2382">
        <ele>8.1999998092651</ele>
        <time>2021-09-05T09:01:48.000Z</time>
      </trkpt>
      <trkpt lat="47.29315" lon="-2.2381">
        <ele>8.1999998092651</ele>
        <time>2021-09-05T09:01:49.000Z</time>
      </trkpt>
      <trkpt lat="47.29312" lon="-2.23781">
        <ele>8.1999998092651</ele>
        <time>2021-09-05T09:01:52.000Z</time>
      </trkpt>
      <trkpt lat="47.29312" lon="-2.23715">
        <ele>8.1999998092651</ele>
        <time>2021-09-05T09:01:59.000Z</time>
      </trkpt>
      <trkpt lat="47.29312" lon="-2.23641">
        <ele>8.1999998092651</ele>
        <time>2021-09-05T09:02:07.000Z</time>
      </trkpt>
      <trkpt lat="47.29312" lon="-2.23574">
        <ele>8.1999998092651</ele>
        <time>2021-09-05T09:02:14.000Z</time>
      </trkpt>
      <trkpt lat="47.29304" lon="-2.23505">
        <ele>8.1999998092651</ele>
        <time>2021-09-05T09:02:21.000Z</time>
      </trkpt>
      <trkpt lat="47.29293" lon="-2.23456">
        <ele>8.1999998092651</ele>
        <time>2021-09-05T09:02:26.000Z</time>
      </trkpt>
      <trkpt lat="47.29278" lon="-2.23389">
        <ele>8.1999998092651</ele>
        <time>2021-09-05T09:02:33.000Z</time>
      </trkpt>
      <trkpt lat="47.29268" lon="-2.23337">
        <ele>8.1999998092651</ele>
        <time>2021-09-05T09:02:39.000Z</time>
      </trkpt>
      <trkpt lat="47.29264" lon="-2.2332">
        <ele>8.1999998092651</ele>
        <time>2021-09-05T09:02:41.000Z</time>
      </trkpt>
      <trkpt lat="47.29255" lon="-2.23296">
        <ele>8.1999998092651</ele>
        <time>2021-09-05T09:02:44.000Z</time>
      </trkpt>
      <trkpt lat="47.29247" lon="-2.23282">
        <ele>8.1999998092651</ele>
        <time>2021-09-05T09:02:46.000Z</time>
      </trkpt>
      <trkpt lat="47.29232" lon="-2.23263">
        <ele>8.1999998092651</ele>
        <time>2021-09-05T09:02:49.000Z</time>
      </trkpt>
      <trkpt lat="47.29204" lon="-2.23226">
        <ele>8.1999998092651</ele>
        <time>2021-09-05T09:02:55.000Z</time>
      </trkpt>
      <trkpt lat="47.292" lon="-2.2322">
        <ele>8.1999998092651</ele>
        <time>2021-09-05T09:02:56.000Z</time>
      </trkpt>
      <trkpt lat="47.29179" lon="-2.23176">
        <ele>8.1999998092651</ele>
        <time>2021-09-05T09:03:02.000Z</time>
      </trkpt>
      <trkpt lat="47.29175" lon="-2.23168">
        <ele>8.1999998092651</ele>
        <time>2021-09-05T09:03:03.000Z</time>
      </trkpt>
      <trkpt lat="47.29158" lon="-2.2314">
        <ele>8.1999998092651</ele>
        <time>2021-09-05T09:03:07.000Z</time>
      </trkpt>
      <trkpt lat="47.29153" lon="-2.23134">
        <ele>8.1999998092651</ele>
        <time>2021-09-05T09:03:08.000Z</time>
      </trkpt>
      <trkpt lat="47.29127" lon="-2.23104">
        <ele>8.1999998092651</ele>
        <time>2021-09-05T09:03:13.000Z</time>
      </trkpt>
      <trkpt lat="47.29082" lon="-2.2305">
        <ele>8.1999998092651</ele>
        <time>2021-09-05T09:03:22.000Z</time>
      </trkpt>
      <trkpt lat="47.29041" lon="-2.23">
        <ele>8.1999998092651</ele>
        <time>2021-09-05T09:03:31.000Z</time>
      </trkpt>
      <trkpt lat="47.29032" lon="-2.22996">
        <ele>8.1999998092651</ele>
        <time>2021-09-05T09:03:33.000Z</time>
      </trkpt>
      <trkpt lat="47.29027" lon="-2.22998">
        <ele>8.1999998092651</ele>
        <time>2021-09-05T09:03:34.000Z</time>
      </trkpt>
      <trkpt lat="47.29017" lon="-2.2301">
        <ele>8.1999998092651</ele>
        <time>2021-09-05T09:03:37.000Z</time>
      </trkpt>
      <trkpt lat="47.29015" lon="-2.23026">
        <ele>8.1999998092651</ele>
        <time>2021-09-05T09:03:39.000Z</time>
      </trkpt>
      <trkpt lat="47.2901" lon="-2.23041">
        <ele>8.1999998092651</ele>
        <time>2021-09-05T09:03:41.000Z</time>
      </trkpt>
      <trkpt lat="47.28999" lon="-2.23087">
        <ele>8.1999998092651</ele>
        <time>2021-09-05T09:03:47.000Z</time>
      </trkpt>
      <trkpt lat="47.28994" lon="-2.23125">
        <ele>8.6000003814697</ele>
        <time>2021-09-05T09:03:52.000Z</time>
      </trkpt>
      <trkpt lat="47.28993" lon="-2.23133">
        <ele>9</ele>
        <time>2021-09-05T09:03:53.000Z</time>
      </trkpt>
      <trkpt lat="47.28992" lon="-2.2314">
        <ele>9.3999996185303</ele>
        <time>2021-09-05T09:03:54.000Z</time>
      </trkpt>
      <trkpt lat="47.28991" lon="-2.23147">
        <ele>9.8000001907349</ele>
        <time>2021-09-05T09:03:55.000Z</time>
      </trkpt>
      <trkpt lat="47.2899" lon="-2.23154">
        <ele>10.39999961853</ele>
        <time>2021-09-05T09:03:56.000Z</time>
      </trkpt>
      <trkpt lat="47.28985" lon="-2.23198">
        <ele>10.800000190735</ele>
        <time>2021-09-05T09:04:02.000Z</time>
      </trkpt>
      <trkpt lat="47.28984" lon="-2.23206">
        <ele>11.199999809265</ele>
        <time>2021-09-05T09:04:03.000Z</time>
      </trkpt>
      <trkpt lat="47.28983" lon="-2.23213">
        <ele>11.60000038147</ele>
        <time>2021-09-05T09:04:04.000Z</time>
      </trkpt>
      <trkpt lat="47.28983" lon="-2.2322">
        <ele>12</ele>
        <time>2021-09-05T09:04:05.000Z</time>
      </trkpt>
      <trkpt lat="47.28982" lon="-2.23227">
        <ele>12.60000038147</ele>
        <time>2021-09-05T09:04:06.000Z</time>
      </trkpt>
      <trkpt lat="47.2898" lon="-2.23252">
        <ele>12.60000038147</ele>
        <time>2021-09-05T09:04:10.000Z</time>
      </trkpt>
      <trkpt lat="47.28979" lon="-2.23272">
        <ele>12.60000038147</ele>
        <time>2021-09-05T09:04:15.000Z</time>
      </trkpt>
      <trkpt lat="47.28978" lon="-2.23276">
        <ele>13</ele>
        <time>2021-09-05T09:04:16.000Z</time>
      </trkpt>
      <trkpt lat="47.28978" lon="-2.23281">
        <ele>13.39999961853</ele>
        <time>2021-09-05T09:04:17.000Z</time>
      </trkpt>
      <trkpt lat="47.28977" lon="-2.23286">
        <ele>13.800000190735</ele>
        <time>2021-09-05T09:04:18.000Z</time>
      </trkpt>
      <trkpt lat="47.28977" lon="-2.23291">
        <ele>14.199999809265</ele>
        <time>2021-09-05T09:04:19.000Z</time>
      </trkpt>
      <trkpt lat="47.28977" lon="-2.23297">
        <ele>14.60000038147</ele>
        <time>2021-09-05T09:04:20.000Z</time>
      </trkpt>
      <trkpt lat="47.28973" lon="-2.23336">
        <ele>15</ele>
        <time>2021-09-05T09:04:27.000Z</time>
      </trkpt>
      <trkpt lat="47.28973" lon="-2.23342">
        <ele>15.39999961853</ele>
        <time>2021-09-05T09:04:28.000Z</time>
      </trkpt>
      <trkpt lat="47.28972" lon="-2.23348">
        <ele>16</ele>
        <time>2021-09-05T09:04:29.000Z</time>
      </trkpt>
      <trkpt lat="47.28972" lon="-2.23353">
        <ele>16.39999961853</ele>
        <time>2021-09-05T09:04:30.000Z</time>
      </trkpt>
      <trkpt lat="47.28971" lon="-2.23358">
        <ele>16.799999237061</ele>
        <time>2021-09-05T09:04:31.000Z</time>
      </trkpt>
      <trkpt lat="47.28971" lon="-2.23375">
        <ele>16.799999237061</ele>
        <time>2021-09-05T09:04:34.000Z</time>
      </trkpt>
      <trkpt lat="47.28967" lon="-2.23408">
        <ele>16.799999237061</ele>
        <time>2021-09-05T09:04:39.000Z</time>
      </trkpt>
      <trkpt lat="47.28963" lon="-2.23455">
        <ele>16.799999237061</ele>
        <time>2021-09-05T09:04:46.000Z</time>
      </trkpt>
      <trkpt lat="47.28958" lon="-2.23493">
        <ele>16.799999237061</ele>
        <time>2021-09-05T09:04:53.000Z</time>
      </trkpt>
      <trkpt lat="47.28952" lon="-2.23493">
        <ele>16.799999237061</ele>
        <time>2021-09-05T09:04:55.000Z</time>
      </trkpt>
      <trkpt lat="47.28948" lon="-2.23493">
        <ele>16.799999237061</ele>
        <time>2021-09-05T09:04:56.000Z</time>
      </trkpt>
      <trkpt lat="47.28935" lon="-2.23496">
        <ele>16.799999237061</ele>
        <time>2021-09-05T09:04:59.000Z</time>
      </trkpt>
      <trkpt lat="47.28926" lon="-2.23498">
        <ele>16.799999237061</ele>
        <time>2021-09-05T09:05:01.000Z</time>
      </trkpt>
      <trkpt lat="47.28894" lon="-2.23507">
        <ele>16.799999237061</ele>
        <time>2021-09-05T09:05:07.000Z</time>
      </trkpt>
      <trkpt lat="47.28866" lon="-2.23506">
        <ele>16.799999237061</ele>
        <time>2021-09-05T09:05:12.000Z</time>
      </trkpt>
      <trkpt lat="47.28822" lon="-2.23509">
        <ele>16.799999237061</ele>
        <time>2021-09-05T09:05:19.000Z</time>
      </trkpt>
      <trkpt lat="47.28787" lon="-2.23515">
        <ele>16.799999237061</ele>
        <time>2021-09-05T09:05:24.000Z</time>
      </trkpt>
      <trkpt lat="47.28761" lon="-2.23525">
        <ele>16.39999961853</ele>
        <time>2021-09-05T09:05:28.000Z</time>
      </trkpt>
      <trkpt lat="47.28755" lon="-2.23528">
        <ele>15.60000038147</ele>
        <time>2021-09-05T09:05:29.000Z</time>
      </trkpt>
      <trkpt lat="47.28749" lon="-2.23534">
        <ele>15.199999809265</ele>
        <time>2021-09-05T09:05:30.000Z</time>
      </trkpt>
      <trkpt lat="47.28744" lon="-2.23539">
        <ele>14.60000038147</ele>
        <time>2021-09-05T09:05:31.000Z</time>
      </trkpt>
      <trkpt lat="47.28733" lon="-2.23551">
        <ele>14.199999809265</ele>
        <time>2021-09-05T09:05:33.000Z</time>
      </trkpt>
      <trkpt lat="47.28728" lon="-2.23559">
        <ele>13.60000038147</ele>
        <time>2021-09-05T09:05:34.000Z</time>
      </trkpt>
      <trkpt lat="47.28725" lon="-2.23568">
        <ele>13.199999809265</ele>
        <time>2021-09-05T09:05:35.000Z</time>
      </trkpt>
      <trkpt lat="47.28721" lon="-2.23576">
        <ele>12.60000038147</ele>
        <time>2021-09-05T09:05:36.000Z</time>
      </trkpt>
      <trkpt lat="47.28718" lon="-2.23581">
        <ele>12.199999809265</ele>
        <time>2021-09-05T09:05:37.000Z</time>
      </trkpt>
      <trkpt lat="47.2871" lon="-2.23588">
        <ele>12.199999809265</ele>
        <time>2021-09-05T09:05:39.000Z</time>
      </trkpt>
      <trkpt lat="47.28706" lon="-2.2359">
        <ele>11.800000190735</ele>
        <time>2021-09-05T09:05:40.000Z</time>
      </trkpt>
      <trkpt lat="47.28703" lon="-2.23593">
        <ele>11.199999809265</ele>
        <time>2021-09-05T09:05:41.000Z</time>
      </trkpt>
      <trkpt lat="47.28702" lon="-2.23598">
        <ele>10.800000190735</ele>
        <time>2021-09-05T09:05:42.000Z</time>
      </trkpt>
      <trkpt lat="47.28701" lon="-2.23602">
        <ele>10.39999961853</ele>
        <time>2021-09-05T09:05:43.000Z</time>
      </trkpt>
      <trkpt lat="47.28703" lon="-2.23605">
        <ele>9.8000001907349</ele>
        <time>2021-09-05T09:05:44.000Z</time>
      </trkpt>
      <trkpt lat="47.28709" lon="-2.23618">
        <ele>9.8000001907349</ele>
        <time>2021-09-05T09:05:47.000Z</time>
      </trkpt>
      <trkpt lat="47.28711" lon="-2.23623">
        <ele>9.8000001907349</ele>
        <time>2021-09-05T09:05:48.000Z</time>
      </trkpt>
      <trkpt lat="47.28729" lon="-2.23659">
        <ele>9.8000001907349</ele>
        <time>2021-09-05T09:05:55.000Z</time>
      </trkpt>
      <trkpt lat="47.28751" lon="-2.23694">
        <ele>9.8000001907349</ele>
        <time>2021-09-05T09:06:02.000Z</time>
      </trkpt>
      <trkpt lat="47.28778" lon="-2.23734">
        <ele>9.8000001907349</ele>
        <time>2021-09-05T09:06:09.000Z</time>
      </trkpt>
      <trkpt lat="47.28804" lon="-2.23781">
        <ele>9.8000001907349</ele>
        <time>2021-09-05T09:06:16.000Z</time>
      </trkpt>
      <trkpt lat="47.28821" lon="-2.23818">
        <ele>9.8000001907349</ele>
        <time>2021-09-05T09:06:23.000Z</time>
      </trkpt>
      <trkpt lat="47.28819" lon="-2.23824">
        <ele>9.8000001907349</ele>
        <time>2021-09-05T09:06:25.000Z</time>
      </trkpt>
      <trkpt lat="47.28811" lon="-2.23837">
        <ele>9.8000001907349</ele>
        <time>2021-09-05T09:06:28.000Z</time>
      </trkpt>
      <trkpt lat="47.2881" lon="-2.23844">
        <ele>9.8000001907349</ele>
        <time>2021-09-05T09:06:29.000Z</time>
      </trkpt>
      <trkpt lat="47.2881" lon="-2.23854">
        <ele>9.8000001907349</ele>
        <time>2021-09-05T09:06:31.000Z</time>
      </trkpt>
      <trkpt lat="47.28812" lon="-2.23876">
        <ele>9.8000001907349</ele>
        <time>2021-09-05T09:06:34.000Z</time>
      </trkpt>
      <trkpt lat="47.28812" lon="-2.23884">
        <ele>9.8000001907349</ele>
        <time>2021-09-05T09:06:35.000Z</time>
      </trkpt>
      <trkpt lat="47.28811" lon="-2.23892">
        <ele>9.8000001907349</ele>
        <time>2021-09-05T09:06:36.000Z</time>
      </trkpt>
      <trkpt lat="47.28805" lon="-2.23923">
        <ele>9.8000001907349</ele>
        <time>2021-09-05T09:06:40.000Z</time>
      </trkpt>
      <trkpt lat="47.288" lon="-2.23971">
        <ele>9.8000001907349</ele>
        <time>2021-09-05T09:06:45.000Z</time>
      </trkpt>
      <trkpt lat="47.28795" lon="-2.24024">
        <ele>9.8000001907349</ele>
        <time>2021-09-05T09:06:51.000Z</time>
      </trkpt>
      <trkpt lat="47.28791" lon="-2.24076">
        <ele>9.8000001907349</ele>
        <time>2021-09-05T09:06:57.000Z</time>
      </trkpt>
      <trkpt lat="47.28787" lon="-2.24135">
        <ele>9.8000001907349</ele>
        <time>2021-09-05T09:07:04.000Z</time>
      </trkpt>
      <trkpt lat="47.28786" lon="-2.24183">
        <ele>9.8000001907349</ele>
        <time>2021-09-05T09:07:10.000Z</time>
      </trkpt>
      <trkpt lat="47.28787" lon="-2.24204">
        <ele>9.8000001907349</ele>
        <time>2021-09-05T09:07:14.000Z</time>
      </trkpt>
      <trkpt lat="47.28787" lon="-2.2423">
        <ele>9.8000001907349</ele>
        <time>2021-09-05T09:07:20.000Z</time>
      </trkpt>
      <trkpt lat="47.28785" lon="-2.24258">
        <ele>9.8000001907349</ele>
        <time>2021-09-05T09:07:24.000Z</time>
      </trkpt>
      <trkpt lat="47.28785" lon="-2.24265">
        <ele>9.8000001907349</ele>
        <time>2021-09-05T09:07:25.000Z</time>
      </trkpt>
      <trkpt lat="47.28787" lon="-2.24316">
        <ele>9.8000001907349</ele>
        <time>2021-09-05T09:07:31.000Z</time>
      </trkpt>
      <trkpt lat="47.28786" lon="-2.24333">
        <ele>9.8000001907349</ele>
        <time>2021-09-05T09:07:33.000Z</time>
      </trkpt>
      <trkpt lat="47.28782" lon="-2.24349">
        <ele>9.8000001907349</ele>
        <time>2021-09-05T09:07:35.000Z</time>
      </trkpt>
      <trkpt lat="47.28766" lon="-2.24417">
        <ele>9.8000001907349</ele>
        <time>2021-09-05T09:07:43.000Z</time>
      </trkpt>
      <trkpt lat="47.28754" lon="-2.2447">
        <ele>9.8000001907349</ele>
        <time>2021-09-05T09:07:50.000Z</time>
      </trkpt>
      <trkpt lat="47.28754" lon="-2.24477">
        <ele>9.8000001907349</ele>
        <time>2021-09-05T09:07:51.000Z</time>
      </trkpt>
      <trkpt lat="47.28756" lon="-2.24501">
        <ele>9.8000001907349</ele>
        <time>2021-09-05T09:07:54.000Z</time>
      </trkpt>
      <trkpt lat="47.28758" lon="-2.24517">
        <ele>9.8000001907349</ele>
        <time>2021-09-05T09:07:56.000Z</time>
      </trkpt>
      <trkpt lat="47.28754" lon="-2.24551">
        <ele>9.8000001907349</ele>
        <time>2021-09-05T09:08:00.000Z</time>
      </trkpt>
      <trkpt lat="47.28752" lon="-2.2456">
        <ele>9.8000001907349</ele>
        <time>2021-09-05T09:08:01.000Z</time>
      </trkpt>
      <trkpt lat="47.28736" lon="-2.24605">
        <ele>9.8000001907349</ele>
        <time>2021-09-05T09:08:07.000Z</time>
      </trkpt>
      <trkpt lat="47.28724" lon="-2.24633">
        <ele>9.8000001907349</ele>
        <time>2021-09-05T09:08:12.000Z</time>
      </trkpt>
      <trkpt lat="47.28714" lon="-2.24647">
        <ele>9.8000001907349</ele>
        <time>2021-09-05T09:08:15.000Z</time>
      </trkpt>
      <trkpt lat="47.28709" lon="-2.24658">
        <ele>9.8000001907349</ele>
        <time>2021-09-05T09:08:17.000Z</time>
      </trkpt>
      <trkpt lat="47.28695" lon="-2.2468">
        <ele>9.8000001907349</ele>
        <time>2021-09-05T09:08:22.000Z</time>
      </trkpt>
      <trkpt lat="47.28691" lon="-2.2468">
        <ele>9.8000001907349</ele>
        <time>2021-09-05T09:08:23.000Z</time>
      </trkpt>
      <trkpt lat="47.28683" lon="-2.2468">
        <ele>9.8000001907349</ele>
        <time>2021-09-05T09:08:25.000Z</time>
      </trkpt>
      <trkpt lat="47.28672" lon="-2.24694">
        <ele>9.8000001907349</ele>
        <time>2021-09-05T09:08:29.000Z</time>
      </trkpt>
      <trkpt lat="47.28666" lon="-2.24708">
        <ele>9.8000001907349</ele>
        <time>2021-09-05T09:08:34.000Z</time>
      </trkpt>
      <trkpt lat="47.28666" lon="-2.24708">
        <ele>9.8000001907349</ele>
        <time>2021-09-05T09:08:35.000Z</time>
      </trkpt>
      <trkpt lat="47.2866" lon="-2.24711">
        <ele>9.8000001907349</ele>
        <time>2021-09-05T09:08:38.000Z</time>
      </trkpt>
      <trkpt lat="47.28644" lon="-2.24719">
        <ele>9.8000001907349</ele>
        <time>2021-09-05T09:08:43.000Z</time>
      </trkpt>
      <trkpt lat="47.2864" lon="-2.2472">
        <ele>10.199999809265</ele>
        <time>2021-09-05T09:08:44.000Z</time>
      </trkpt>
      <trkpt lat="47.28635" lon="-2.24722">
        <ele>10.60000038147</ele>
        <time>2021-09-05T09:08:45.000Z</time>
      </trkpt>
      <trkpt lat="47.28631" lon="-2.24724">
        <ele>11.199999809265</ele>
        <time>2021-09-05T09:08:46.000Z</time>
      </trkpt>
      <trkpt lat="47.28626" lon="-2.24725">
        <ele>11.60000038147</ele>
        <time>2021-09-05T09:08:47.000Z</time>
      </trkpt>
      <trkpt lat="47.28621" lon="-2.24727">
        <ele>12</ele>
        <time>2021-09-05T09:08:48.000Z</time>
      </trkpt>
      <trkpt lat="47.2861" lon="-2.24729">
        <ele>12</ele>
        <time>2021-09-05T09:08:50.000Z</time>
      </trkpt>
      <trkpt lat="47.28596" lon="-2.24734">
        <ele>12</ele>
        <time>2021-09-05T09:08:53.000Z</time>
      </trkpt>
      <trkpt lat="47.28571" lon="-2.2474">
        <ele>12</ele>
        <time>2021-09-05T09:08:59.000Z</time>
      </trkpt>
      <trkpt lat="47.28555" lon="-2.24746">
        <ele>12</ele>
        <time>2021-09-05T09:09:04.000Z</time>
      </trkpt>
      <trkpt lat="47.28536" lon="-2.24756">
        <ele>12</ele>
        <time>2021-09-05T09:09:09.000Z</time>
      </trkpt>
      <trkpt lat="47.28528" lon="-2.24761">
        <ele>12</ele>
        <time>2021-09-05T09:09:11.000Z</time>
      </trkpt>
      <trkpt lat="47.28515" lon="-2.2477">
        <ele>12</ele>
        <time>2021-09-05T09:09:14.000Z</time>
      </trkpt>
      <trkpt lat="47.28501" lon="-2.24781">
        <ele>12</ele>
        <time>2021-09-05T09:09:17.000Z</time>
      </trkpt>
      <trkpt lat="47.28486" lon="-2.24791">
        <ele>12</ele>
        <time>2021-09-05T09:09:20.000Z</time>
      </trkpt>
      <trkpt lat="47.28475" lon="-2.24796">
        <ele>12</ele>
        <time>2021-09-05T09:09:22.000Z</time>
      </trkpt>
      <trkpt lat="47.28461" lon="-2.24801">
        <ele>12</ele>
        <time>2021-09-05T09:09:25.000Z</time>
      </trkpt>
      <trkpt lat="47.28456" lon="-2.24803">
        <ele>12</ele>
        <time>2021-09-05T09:09:26.000Z</time>
      </trkpt>
      <trkpt lat="47.28436" lon="-2.24814">
        <ele>12</ele>
        <time>2021-09-05T09:09:31.000Z</time>
      </trkpt>
      <trkpt lat="47.28423" lon="-2.2482">
        <ele>12</ele>
        <time>2021-09-05T09:09:34.000Z</time>
      </trkpt>
      <trkpt lat="47.28416" lon="-2.24825">
        <ele>12</ele>
        <time>2021-09-05T09:09:36.000Z</time>
      </trkpt>
      <trkpt lat="47.28401" lon="-2.24833">
        <ele>12</ele>
        <time>2021-09-05T09:09:40.000Z</time>
      </trkpt>
      <trkpt lat="47.28396" lon="-2.24846">
        <ele>12</ele>
        <time>2021-09-05T09:09:43.000Z</time>
      </trkpt>
      <trkpt lat="47.28396" lon="-2.24859">
        <ele>12</ele>
        <time>2021-09-05T09:09:45.000Z</time>
      </trkpt>
      <trkpt lat="47.28397" lon="-2.2488">
        <ele>12</ele>
        <time>2021-09-05T09:09:48.000Z</time>
      </trkpt>
      <trkpt lat="47.28401" lon="-2.24942">
        <ele>12</ele>
        <time>2021-09-05T09:09:56.000Z</time>
      </trkpt>
      <trkpt lat="47.28404" lon="-2.24988">
        <ele>12.39999961853</ele>
        <time>2021-09-05T09:10:02.000Z</time>
      </trkpt>
      <trkpt lat="47.28405" lon="-2.24994">
        <ele>12.800000190735</ele>
        <time>2021-09-05T09:10:03.000Z</time>
      </trkpt>
      <trkpt lat="47.28405" lon="-2.25001">
        <ele>13.199999809265</ele>
        <time>2021-09-05T09:10:04.000Z</time>
      </trkpt>
      <trkpt lat="47.28405" lon="-2.25008">
        <ele>13.60000038147</ele>
        <time>2021-09-05T09:10:05.000Z</time>
      </trkpt>
      <trkpt lat="47.28405" lon="-2.25014">
        <ele>14</ele>
        <time>2021-09-05T09:10:06.000Z</time>
      </trkpt>
      <trkpt lat="47.28406" lon="-2.25033">
        <ele>14.60000038147</ele>
        <time>2021-09-05T09:10:09.000Z</time>
      </trkpt>
      <trkpt lat="47.28406" lon="-2.25039">
        <ele>15</ele>
        <time>2021-09-05T09:10:10.000Z</time>
      </trkpt>
      <trkpt lat="47.28406" lon="-2.25045">
        <ele>15.39999961853</ele>
        <time>2021-09-05T09:10:11.000Z</time>
      </trkpt>
      <trkpt lat="47.28406" lon="-2.2505">
        <ele>15.800000190735</ele>
        <time>2021-09-05T09:10:12.000Z</time>
      </trkpt>
      <trkpt lat="47.28407" lon="-2.25055">
        <ele>16.200000762939</ele>
        <time>2021-09-05T09:10:13.000Z</time>
      </trkpt>
      <trkpt lat="47.2841" lon="-2.25075">
        <ele>16.200000762939</ele>
        <time>2021-09-05T09:10:17.000Z</time>
      </trkpt>
      <trkpt lat="47.28411" lon="-2.25079">
        <ele>16.799999237061</ele>
        <time>2021-09-05T09:10:18.000Z</time>
      </trkpt>
      <trkpt lat="47.28413" lon="-2.25082">
        <ele>17.200000762939</ele>
        <time>2021-09-05T09:10:19.000Z</time>
      </trkpt>
      <trkpt lat="47.28416" lon="-2.25083">
        <ele>17.60000038147</ele>
        <time>2021-09-05T09:10:20.000Z</time>
      </trkpt>
      <trkpt lat="47.28418" lon="-2.25084">
        <ele>18</ele>
        <time>2021-09-05T09:10:21.000Z</time>
      </trkpt>
      <trkpt lat="47.2842" lon="-2.25084">
        <ele>18.39999961853</ele>
        <time>2021-09-05T09:10:22.000Z</time>
      </trkpt>
      <trkpt lat="47.28427" lon="-2.25085">
        <ele>18.39999961853</ele>
        <time>2021-09-05T09:10:26.000Z</time>
      </trkpt>
      <trkpt lat="47.28433" lon="-2.25084">
        <ele>18.39999961853</ele>
        <time>2021-09-05T09:10:33.000Z</time>
      </trkpt>
      <trkpt lat="47.28433" lon="-2.25094">
        <ele>20.60000038147</ele>
        <time>2021-09-05T09:16:35.000Z</time>
      </trkpt>
      <trkpt lat="47.28432" lon="-2.25102">
        <ele>20.60000038147</ele>
        <time>2021-09-05T09:16:39.000Z</time>
      </trkpt>
      <trkpt lat="47.28432" lon="-2.25121">
        <ele>20.60000038147</ele>
        <time>2021-09-05T09:16:45.000Z</time>
      </trkpt>
      <trkpt lat="47.28431" lon="-2.25125">
        <ele>21</ele>
        <time>2021-09-05T09:16:46.000Z</time>
      </trkpt>
      <trkpt lat="47.28431" lon="-2.25128">
        <ele>21.39999961853</ele>
        <time>2021-09-05T09:16:47.000Z</time>
      </trkpt>
      <trkpt lat="47.2843" lon="-2.25131">
        <ele>21.799999237061</ele>
        <time>2021-09-05T09:16:48.000Z</time>
      </trkpt>
      <trkpt lat="47.2843" lon="-2.25135">
        <ele>22.200000762939</ele>
        <time>2021-09-05T09:16:49.000Z</time>
      </trkpt>
      <trkpt lat="47.28429" lon="-2.25138">
        <ele>22.60000038147</ele>
        <time>2021-09-05T09:16:50.000Z</time>
      </trkpt>
      <trkpt lat="47.28428" lon="-2.25147">
        <ele>22.60000038147</ele>
        <time>2021-09-05T09:16:53.000Z</time>
      </trkpt>
      <trkpt lat="47.28427" lon="-2.25162">
        <ele>23.200000762939</ele>
        <time>2021-09-05T09:16:57.000Z</time>
      </trkpt>
      <trkpt lat="47.28426" lon="-2.25165">
        <ele>23.60000038147</ele>
        <time>2021-09-05T09:16:58.000Z</time>
      </trkpt>
      <trkpt lat="47.28426" lon="-2.25169">
        <ele>24</ele>
        <time>2021-09-05T09:16:59.000Z</time>
      </trkpt>
      <trkpt lat="47.28426" lon="-2.25173">
        <ele>24.39999961853</ele>
        <time>2021-09-05T09:17:00.000Z</time>
      </trkpt>
      <trkpt lat="47.28426" lon="-2.25176">
        <ele>24.799999237061</ele>
        <time>2021-09-05T09:17:01.000Z</time>
      </trkpt>
      <trkpt lat="47.28424" lon="-2.25193">
        <ele>24.799999237061</ele>
        <time>2021-09-05T09:17:07.000Z</time>
      </trkpt>
      <trkpt lat="47.28422" lon="-2.25202">
        <ele>25.200000762939</ele>
        <time>2021-09-05T09:17:10.000Z</time>
      </trkpt>
      <trkpt lat="47.28422" lon="-2.25204">
        <ele>25.60000038147</ele>
        <time>2021-09-05T09:17:11.000Z</time>
      </trkpt>
      <trkpt lat="47.28421" lon="-2.25207">
        <ele>26</ele>
        <time>2021-09-05T09:17:12.000Z</time>
      </trkpt>
      <trkpt lat="47.28421" lon="-2.2521">
        <ele>26.39999961853</ele>
        <time>2021-09-05T09:17:13.000Z</time>
      </trkpt>
      <trkpt lat="47.2842" lon="-2.25212">
        <ele>26.799999237061</ele>
        <time>2021-09-05T09:17:14.000Z</time>
      </trkpt>
      <trkpt lat="47.28418" lon="-2.25232">
        <ele>26.799999237061</ele>
        <time>2021-09-05T09:17:22.000Z</time>
      </trkpt>
      <trkpt lat="47.28418" lon="-2.25235">
        <ele>27.200000762939</ele>
        <time>2021-09-05T09:17:23.000Z</time>
      </trkpt>
      <trkpt lat="47.28417" lon="-2.25238">
        <ele>27.799999237061</ele>
        <time>2021-09-05T09:17:24.000Z</time>
      </trkpt>
      <trkpt lat="47.28417" lon="-2.25241">
        <ele>28.200000762939</ele>
        <time>2021-09-05T09:17:25.000Z</time>
      </trkpt>
      <trkpt lat="47.28417" lon="-2.25243">
        <ele>28.60000038147</ele>
        <time>2021-09-05T09:17:26.000Z</time>
      </trkpt>
      <trkpt lat="47.28417" lon="-2.25246">
        <ele>29</ele>
        <time>2021-09-05T09:17:27.000Z</time>
      </trkpt>
      <trkpt lat="47.28415" lon="-2.25256">
        <ele>29</ele>
        <time>2021-09-05T09:17:30.000Z</time>
      </trkpt>
      <trkpt lat="47.28404" lon="-2.25277">
        <ele>29</ele>
        <time>2021-09-05T09:17:36.000Z</time>
      </trkpt>
      <trkpt lat="47.28391" lon="-2.25307">
        <ele>29</ele>
        <time>2021-09-05T09:17:44.000Z</time>
      </trkpt>
      <trkpt lat="47.28391" lon="-2.25312">
        <ele>29.39999961853</ele>
        <time>2021-09-05T09:17:45.000Z</time>
      </trkpt>
      <trkpt lat="47.28391" lon="-2.25316">
        <ele>29.799999237061</ele>
        <time>2021-09-05T09:17:46.000Z</time>
      </trkpt>
      <trkpt lat="47.2839" lon="-2.2532">
        <ele>30.200000762939</ele>
        <time>2021-09-05T09:17:47.000Z</time>
      </trkpt>
      <trkpt lat="47.2839" lon="-2.25325">
        <ele>30.60000038147</ele>
        <time>2021-09-05T09:17:48.000Z</time>
      </trkpt>
      <trkpt lat="47.28389" lon="-2.25329">
        <ele>31.200000762939</ele>
        <time>2021-09-05T09:17:49.000Z</time>
      </trkpt>
      <trkpt lat="47.28388" lon="-2.25337">
        <ele>31.200000762939</ele>
        <time>2021-09-05T09:17:51.000Z</time>
      </trkpt>
      <trkpt lat="47.28385" lon="-2.25372">
        <ele>31.200000762939</ele>
        <time>2021-09-05T09:17:59.000Z</time>
      </trkpt>
      <trkpt lat="47.28383" lon="-2.25408">
        <ele>31.60000038147</ele>
        <time>2021-09-05T09:18:06.000Z</time>
      </trkpt>
      <trkpt lat="47.28382" lon="-2.25414">
        <ele>32</ele>
        <time>2021-09-05T09:18:07.000Z</time>
      </trkpt>
      <trkpt lat="47.28381" lon="-2.2542">
        <ele>32.400001525879</ele>
        <time>2021-09-05T09:18:08.000Z</time>
      </trkpt>
      <trkpt lat="47.2838" lon="-2.25426">
        <ele>32.799999237061</ele>
        <time>2021-09-05T09:18:09.000Z</time>
      </trkpt>
      <trkpt lat="47.2838" lon="-2.25432">
        <ele>33.200000762939</ele>
        <time>2021-09-05T09:18:10.000Z</time>
      </trkpt>
      <trkpt lat="47.28378" lon="-2.25451">
        <ele>33.200000762939</ele>
        <time>2021-09-05T09:18:13.000Z</time>
      </trkpt>
      <trkpt lat="47.28375" lon="-2.25498">
        <ele>33.200000762939</ele>
        <time>2021-09-05T09:18:20.000Z</time>
      </trkpt>
      <trkpt lat="47.28371" lon="-2.25543">
        <ele>33.200000762939</ele>
        <time>2021-09-05T09:18:26.000Z</time>
      </trkpt>
      <trkpt lat="47.28366" lon="-2.25597">
        <ele>33.200000762939</ele>
        <time>2021-09-05T09:18:33.000Z</time>
      </trkpt>
      <trkpt lat="47.2836" lon="-2.25639">
        <ele>33.200000762939</ele>
        <time>2021-09-05T09:18:39.000Z</time>
      </trkpt>
      <trkpt lat="47.28357" lon="-2.25644">
        <ele>33.200000762939</ele>
        <time>2021-09-05T09:18:40.000Z</time>
      </trkpt>
      <trkpt lat="47.28343" lon="-2.25648">
        <ele>33.200000762939</ele>
        <time>2021-09-05T09:18:43.000Z</time>
      </trkpt>
      <trkpt lat="47.28337" lon="-2.25649">
        <ele>33.200000762939</ele>
        <time>2021-09-05T09:18:44.000Z</time>
      </trkpt>
      <trkpt lat="47.28303" lon="-2.25651">
        <ele>33.200000762939</ele>
        <time>2021-09-05T09:18:50.000Z</time>
      </trkpt>
      <trkpt lat="47.28292" lon="-2.25653">
        <ele>33.200000762939</ele>
        <time>2021-09-05T09:18:52.000Z</time>
      </trkpt>
      <trkpt lat="47.28281" lon="-2.25661">
        <ele>33.200000762939</ele>
        <time>2021-09-05T09:18:54.000Z</time>
      </trkpt>
      <trkpt lat="47.28271" lon="-2.25682">
        <ele>33.200000762939</ele>
        <time>2021-09-05T09:18:57.000Z</time>
      </trkpt>
      <trkpt lat="47.28265" lon="-2.25725">
        <ele>33.200000762939</ele>
        <time>2021-09-05T09:19:01.000Z</time>
      </trkpt>
      <trkpt lat="47.28256" lon="-2.25778">
        <ele>32.799999237061</ele>
        <time>2021-09-05T09:19:06.000Z</time>
      </trkpt>
      <trkpt lat="47.28254" lon="-2.25788">
        <ele>32.400001525879</ele>
        <time>2021-09-05T09:19:07.000Z</time>
      </trkpt>
      <trkpt lat="47.28251" lon="-2.25798">
        <ele>31.799999237061</ele>
        <time>2021-09-05T09:19:08.000Z</time>
      </trkpt>
      <trkpt lat="47.2825" lon="-2.25808">
        <ele>31.39999961853</ele>
        <time>2021-09-05T09:19:09.000Z</time>
      </trkpt>
      <trkpt lat="47.28248" lon="-2.25818">
        <ele>31</ele>
        <time>2021-09-05T09:19:10.000Z</time>
      </trkpt>
      <trkpt lat="47.28243" lon="-2.25855">
        <ele>31</ele>
        <time>2021-09-05T09:19:14.000Z</time>
      </trkpt>
      <trkpt lat="47.28242" lon="-2.25864">
        <ele>31</ele>
        <time>2021-09-05T09:19:15.000Z</time>
      </trkpt>
      <trkpt lat="47.28238" lon="-2.25899">
        <ele>31</ele>
        <time>2021-09-05T09:19:19.000Z</time>
      </trkpt>
      <trkpt lat="47.28239" lon="-2.25915">
        <ele>31</ele>
        <time>2021-09-05T09:19:21.000Z</time>
      </trkpt>
      <trkpt lat="47.28242" lon="-2.25976">
        <ele>31</ele>
        <time>2021-09-05T09:19:28.000Z</time>
      </trkpt>
      <trkpt lat="47.28243" lon="-2.26021">
        <ele>31</ele>
        <time>2021-09-05T09:19:34.000Z</time>
      </trkpt>
      <trkpt lat="47.28244" lon="-2.26052">
        <ele>31.39999961853</ele>
        <time>2021-09-05T09:19:39.000Z</time>
      </trkpt>
      <trkpt lat="47.28244" lon="-2.26058">
        <ele>31.799999237061</ele>
        <time>2021-09-05T09:19:40.000Z</time>
      </trkpt>
      <trkpt lat="47.28244" lon="-2.26064">
        <ele>32.200000762939</ele>
        <time>2021-09-05T09:19:41.000Z</time>
      </trkpt>
      <trkpt lat="47.28245" lon="-2.2607">
        <ele>32.599998474121</ele>
        <time>2021-09-05T09:19:42.000Z</time>
      </trkpt>
      <trkpt lat="47.28245" lon="-2.26076">
        <ele>33</ele>
        <time>2021-09-05T09:19:43.000Z</time>
      </trkpt>
      <trkpt lat="47.28246" lon="-2.26083">
        <ele>33</ele>
        <time>2021-09-05T09:19:44.000Z</time>
      </trkpt>
      <trkpt lat="47.28247" lon="-2.2609">
        <ele>33</ele>
        <time>2021-09-05T09:19:45.000Z</time>
      </trkpt>
      <trkpt lat="47.28255" lon="-2.26151">
        <ele>33</ele>
        <time>2021-09-05T09:19:53.000Z</time>
      </trkpt>
      <trkpt lat="47.28263" lon="-2.26197">
        <ele>33</ele>
        <time>2021-09-05T09:19:59.000Z</time>
      </trkpt>
      <trkpt lat="47.28264" lon="-2.26216">
        <ele>33</ele>
        <time>2021-09-05T09:20:02.000Z</time>
      </trkpt>
      <trkpt lat="47.2826" lon="-2.2622">
        <ele>33</ele>
        <time>2021-09-05T09:20:03.000Z</time>
      </trkpt>
      <trkpt lat="47.28243" lon="-2.26218">
        <ele>33</ele>
        <time>2021-09-05T09:20:06.000Z</time>
      </trkpt>
      <trkpt lat="47.28237" lon="-2.26216">
        <ele>33</ele>
        <time>2021-09-05T09:20:07.000Z</time>
      </trkpt>
      <trkpt lat="47.2821" lon="-2.26207">
        <ele>33</ele>
        <time>2021-09-05T09:20:11.000Z</time>
      </trkpt>
      <trkpt lat="47.28178" lon="-2.26195">
        <ele>33</ele>
        <time>2021-09-05T09:20:15.000Z</time>
      </trkpt>
      <trkpt lat="47.28162" lon="-2.26191">
        <ele>32.599998474121</ele>
        <time>2021-09-05T09:20:17.000Z</time>
      </trkpt>
      <trkpt lat="47.28154" lon="-2.26193">
        <ele>32</ele>
        <time>2021-09-05T09:20:18.000Z</time>
      </trkpt>
      <trkpt lat="47.28147" lon="-2.26198">
        <ele>31.60000038147</ele>
        <time>2021-09-05T09:20:19.000Z</time>
      </trkpt>
      <trkpt lat="47.28142" lon="-2.26205">
        <ele>31</ele>
        <time>2021-09-05T09:20:20.000Z</time>
      </trkpt>
      <trkpt lat="47.28138" lon="-2.26213">
        <ele>30.60000038147</ele>
        <time>2021-09-05T09:20:21.000Z</time>
      </trkpt>
      <trkpt lat="47.28133" lon="-2.26222">
        <ele>30.60000038147</ele>
        <time>2021-09-05T09:20:22.000Z</time>
      </trkpt>
      <trkpt lat="47.28129" lon="-2.26231">
        <ele>30.200000762939</ele>
        <time>2021-09-05T09:20:23.000Z</time>
      </trkpt>
      <trkpt lat="47.28125" lon="-2.2624">
        <ele>29.60000038147</ele>
        <time>2021-09-05T09:20:24.000Z</time>
      </trkpt>
      <trkpt lat="47.28121" lon="-2.26249">
        <ele>29.200000762939</ele>
        <time>2021-09-05T09:20:25.000Z</time>
      </trkpt>
      <trkpt lat="47.28117" lon="-2.26258">
        <ele>28.799999237061</ele>
        <time>2021-09-05T09:20:26.000Z</time>
      </trkpt>
      <trkpt lat="47.28114" lon="-2.26268">
        <ele>28.39999961853</ele>
        <time>2021-09-05T09:20:27.000Z</time>
      </trkpt>
      <trkpt lat="47.28112" lon="-2.26277">
        <ele>28.39999961853</ele>
        <time>2021-09-05T09:20:28.000Z</time>
      </trkpt>
      <trkpt lat="47.28109" lon="-2.26286">
        <ele>28</ele>
        <time>2021-09-05T09:20:29.000Z</time>
      </trkpt>
      <trkpt lat="47.28106" lon="-2.26293">
        <ele>27.39999961853</ele>
        <time>2021-09-05T09:20:30.000Z</time>
      </trkpt>
      <trkpt lat="47.28106" lon="-2.26301">
        <ele>27</ele>
        <time>2021-09-05T09:20:31.000Z</time>
      </trkpt>
      <trkpt lat="47.28107" lon="-2.26308">
        <ele>26.60000038147</ele>
        <time>2021-09-05T09:20:32.000Z</time>
      </trkpt>
      <trkpt lat="47.28109" lon="-2.26312">
        <ele>26</ele>
        <time>2021-09-05T09:20:33.000Z</time>
      </trkpt>
      <trkpt lat="47.28112" lon="-2.26316">
        <ele>26</ele>
        <time>2021-09-05T09:20:34.000Z</time>
      </trkpt>
      <trkpt lat="47.28115" lon="-2.2632">
        <ele>26</ele>
        <time>2021-09-05T09:20:35.000Z</time>
      </trkpt>
      <trkpt lat="47.28127" lon="-2.26343">
        <ele>26</ele>
        <time>2021-09-05T09:20:39.000Z</time>
      </trkpt>
      <trkpt lat="47.28131" lon="-2.26355">
        <ele>26</ele>
        <time>2021-09-05T09:20:41.000Z</time>
      </trkpt>
      <trkpt lat="47.2814" lon="-2.26372">
        <ele>26</ele>
        <time>2021-09-05T09:20:44.000Z</time>
      </trkpt>
      <trkpt lat="47.2816" lon="-2.26402">
        <ele>26</ele>
        <time>2021-09-05T09:20:50.000Z</time>
      </trkpt>
      <trkpt lat="47.28174" lon="-2.26426">
        <ele>26.39999961853</ele>
        <time>2021-09-05T09:20:55.000Z</time>
      </trkpt>
      <trkpt lat="47.28178" lon="-2.26431">
        <ele>27</ele>
        <time>2021-09-05T09:20:56.000Z</time>
      </trkpt>
      <trkpt lat="47.28181" lon="-2.26437">
        <ele>27.39999961853</ele>
        <time>2021-09-05T09:20:57.000Z</time>
      </trkpt>
      <trkpt lat="47.28185" lon="-2.26442">
        <ele>27.799999237061</ele>
        <time>2021-09-05T09:20:58.000Z</time>
      </trkpt>
      <trkpt lat="47.28188" lon="-2.26448">
        <ele>28.200000762939</ele>
        <time>2021-09-05T09:20:59.000Z</time>
      </trkpt>
      <trkpt lat="47.28195" lon="-2.26461">
        <ele>28.200000762939</ele>
        <time>2021-09-05T09:21:01.000Z</time>
      </trkpt>
      <trkpt lat="47.28205" lon="-2.26478">
        <ele>28.200000762939</ele>
        <time>2021-09-05T09:21:05.000Z</time>
      </trkpt>
      <trkpt lat="47.28209" lon="-2.26484">
        <ele>28.200000762939</ele>
        <time>2021-09-05T09:21:09.000Z</time>
      </trkpt>
      <trkpt lat="47.28212" lon="-2.26489">
        <ele>28.200000762939</ele>
        <time>2021-09-05T09:21:15.000Z</time>
      </trkpt>
      <trkpt lat="47.28213" lon="-2.26493">
        <ele>28.200000762939</ele>
        <time>2021-09-05T09:21:17.000Z</time>
      </trkpt>
      <trkpt lat="47.28221" lon="-2.26504">
        <ele>28.200000762939</ele>
        <time>2021-09-05T09:21:22.000Z</time>
      </trkpt>
      <trkpt lat="47.28224" lon="-2.26508">
        <ele>28.200000762939</ele>
        <time>2021-09-05T09:21:24.000Z</time>
      </trkpt>
      <trkpt lat="47.28236" lon="-2.26527">
        <ele>28.200000762939</ele>
        <time>2021-09-05T09:21:32.000Z</time>
      </trkpt>
      <trkpt lat="47.28238" lon="-2.26529">
        <ele>28.60000038147</ele>
        <time>2021-09-05T09:21:33.000Z</time>
      </trkpt>
      <trkpt lat="47.2824" lon="-2.26531">
        <ele>29</ele>
        <time>2021-09-05T09:21:34.000Z</time>
      </trkpt>
      <trkpt lat="47.28243" lon="-2.26532">
        <ele>29.39999961853</ele>
        <time>2021-09-05T09:21:35.000Z</time>
      </trkpt>
      <trkpt lat="47.28246" lon="-2.26532">
        <ele>29.799999237061</ele>
        <time>2021-09-05T09:21:36.000Z</time>
      </trkpt>
      <trkpt lat="47.28249" lon="-2.26535">
        <ele>30.200000762939</ele>
        <time>2021-09-05T09:21:37.000Z</time>
      </trkpt>
      <trkpt lat="47.28257" lon="-2.26545">
        <ele>30.200000762939</ele>
        <time>2021-09-05T09:21:41.000Z</time>
      </trkpt>
      <trkpt lat="47.28259" lon="-2.26548">
        <ele>30.200000762939</ele>
        <time>2021-09-05T09:21:42.000Z</time>
      </trkpt>
      <trkpt lat="47.28273" lon="-2.26568">
        <ele>30.200000762939</ele>
        <time>2021-09-05T09:21:49.000Z</time>
      </trkpt>
      <trkpt lat="47.28281" lon="-2.26592">
        <ele>30.200000762939</ele>
        <time>2021-09-05T09:21:55.000Z</time>
      </trkpt>
      <trkpt lat="47.28281" lon="-2.2661">
        <ele>30.200000762939</ele>
        <time>2021-09-05T09:22:00.000Z</time>
      </trkpt>
      <trkpt lat="47.2828" lon="-2.26615">
        <ele>30.200000762939</ele>
        <time>2021-09-05T09:22:02.000Z</time>
      </trkpt>
      <trkpt lat="47.28276" lon="-2.26616">
        <ele>30.200000762939</ele>
        <time>2021-09-05T09:22:04.000Z</time>
      </trkpt>
      <trkpt lat="47.2827" lon="-2.26616">
        <ele>30.200000762939</ele>
        <time>2021-09-05T09:22:07.000Z</time>
      </trkpt>
      <trkpt lat="47.28266" lon="-2.26617">
        <ele>30.60000038147</ele>
        <time>2021-09-05T09:22:09.000Z</time>
      </trkpt>
      <trkpt lat="47.28263" lon="-2.26618">
        <ele>31</ele>
        <time>2021-09-05T09:22:10.000Z</time>
      </trkpt>
      <trkpt lat="47.28261" lon="-2.2662">
        <ele>31.39999961853</ele>
        <time>2021-09-05T09:22:11.000Z</time>
      </trkpt>
      <trkpt lat="47.28259" lon="-2.26622">
        <ele>31.799999237061</ele>
        <time>2021-09-05T09:22:12.000Z</time>
      </trkpt>
      <trkpt lat="47.28257" lon="-2.26623">
        <ele>32.200000762939</ele>
        <time>2021-09-05T09:22:13.000Z</time>
      </trkpt>
      <trkpt lat="47.28251" lon="-2.26625">
        <ele>32.200000762939</ele>
        <time>2021-09-05T09:22:15.000Z</time>
      </trkpt>
      <trkpt lat="47.28246" lon="-2.26625">
        <ele>32.200000762939</ele>
        <time>2021-09-05T09:22:16.000Z</time>
      </trkpt>
      <trkpt lat="47.28232" lon="-2.26624">
        <ele>32.200000762939</ele>
        <time>2021-09-05T09:22:19.000Z</time>
      </trkpt>
      <trkpt lat="47.28222" lon="-2.26626">
        <ele>32.200000762939</ele>
        <time>2021-09-05T09:22:21.000Z</time>
      </trkpt>
      <trkpt lat="47.28208" lon="-2.2663">
        <ele>32.200000762939</ele>
        <time>2021-09-05T09:22:24.000Z</time>
      </trkpt>
      <trkpt lat="47.28168" lon="-2.26637">
        <ele>32.200000762939</ele>
        <time>2021-09-05T09:22:32.000Z</time>
      </trkpt>
      <trkpt lat="47.28125" lon="-2.26634">
        <ele>32.200000762939</ele>
        <time>2021-09-05T09:22:40.000Z</time>
      </trkpt>
      <trkpt lat="47.28084" lon="-2.26628">
        <ele>32.200000762939</ele>
        <time>2021-09-05T09:22:46.000Z</time>
      </trkpt>
      <trkpt lat="47.28061" lon="-2.26626">
        <ele>31.799999237061</ele>
        <time>2021-09-05T09:22:49.000Z</time>
      </trkpt>
      <trkpt lat="47.28054" lon="-2.26626">
        <ele>31.39999961853</ele>
        <time>2021-09-05T09:22:50.000Z</time>
      </trkpt>
      <trkpt lat="47.28046" lon="-2.26625">
        <ele>31</ele>
        <time>2021-09-05T09:22:51.000Z</time>
      </trkpt>
      <trkpt lat="47.28038" lon="-2.26625">
        <ele>30.60000038147</ele>
        <time>2021-09-05T09:22:52.000Z</time>
      </trkpt>
      <trkpt lat="47.28031" lon="-2.26626">
        <ele>30</ele>
        <time>2021-09-05T09:22:53.000Z</time>
      </trkpt>
      <trkpt lat="47.28023" lon="-2.26628">
        <ele>30</ele>
        <time>2021-09-05T09:22:54.000Z</time>
      </trkpt>
      <trkpt lat="47.28017" lon="-2.26628">
        <ele>29.60000038147</ele>
        <time>2021-09-05T09:22:55.000Z</time>
      </trkpt>
      <trkpt lat="47.28011" lon="-2.26625">
        <ele>29.200000762939</ele>
        <time>2021-09-05T09:22:56.000Z</time>
      </trkpt>
      <trkpt lat="47.28006" lon="-2.26618">
        <ele>28.799999237061</ele>
        <time>2021-09-05T09:22:57.000Z</time>
      </trkpt>
      <trkpt lat="47.28001" lon="-2.26611">
        <ele>28.39999961853</ele>
        <time>2021-09-05T09:22:58.000Z</time>
      </trkpt>
      <trkpt lat="47.27995" lon="-2.26606">
        <ele>28</ele>
        <time>2021-09-05T09:22:59.000Z</time>
      </trkpt>
      <trkpt lat="47.27988" lon="-2.26602">
        <ele>28</ele>
        <time>2021-09-05T09:23:00.000Z</time>
      </trkpt>
      <trkpt lat="47.27965" lon="-2.26599">
        <ele>28</ele>
        <time>2021-09-05T09:23:03.000Z</time>
      </trkpt>
      <trkpt lat="47.27956" lon="-2.26598">
        <ele>27.60000038147</ele>
        <time>2021-09-05T09:23:04.000Z</time>
      </trkpt>
      <trkpt lat="47.27947" lon="-2.26599">
        <ele>27.200000762939</ele>
        <time>2021-09-05T09:23:05.000Z</time>
      </trkpt>
      <trkpt lat="47.27939" lon="-2.26599">
        <ele>26.200000762939</ele>
        <time>2021-09-05T09:23:06.000Z</time>
      </trkpt>
      <trkpt lat="47.2793" lon="-2.26599">
        <ele>25.799999237061</ele>
        <time>2021-09-05T09:23:07.000Z</time>
      </trkpt>
      <trkpt lat="47.27913" lon="-2.26601">
        <ele>25.799999237061</ele>
        <time>2021-09-05T09:23:09.000Z</time>
      </trkpt>
      <trkpt lat="47.2786" lon="-2.26601">
        <ele>25.39999961853</ele>
        <time>2021-09-05T09:23:15.000Z</time>
      </trkpt>
      <trkpt lat="47.27852" lon="-2.266">
        <ele>25</ele>
        <time>2021-09-05T09:23:16.000Z</time>
      </trkpt>
      <trkpt lat="47.27844" lon="-2.26601">
        <ele>24.60000038147</ele>
        <time>2021-09-05T09:23:17.000Z</time>
      </trkpt>
      <trkpt lat="47.27836" lon="-2.26601">
        <ele>24.200000762939</ele>
        <time>2021-09-05T09:23:18.000Z</time>
      </trkpt>
      <trkpt lat="47.27828" lon="-2.266">
        <ele>23.60000038147</ele>
        <time>2021-09-05T09:23:19.000Z</time>
      </trkpt>
      <trkpt lat="47.27798" lon="-2.26594">
        <ele>23.60000038147</ele>
        <time>2021-09-05T09:23:23.000Z</time>
      </trkpt>
      <trkpt lat="47.27762" lon="-2.26571">
        <ele>23.60000038147</ele>
        <time>2021-09-05T09:23:28.000Z</time>
      </trkpt>
      <trkpt lat="47.27743" lon="-2.26552">
        <ele>23.200000762939</ele>
        <time>2021-09-05T09:23:31.000Z</time>
      </trkpt>
      <trkpt lat="47.27738" lon="-2.26544">
        <ele>22.799999237061</ele>
        <time>2021-09-05T09:23:32.000Z</time>
      </trkpt>
      <trkpt lat="47.27732" lon="-2.26535">
        <ele>22.39999961853</ele>
        <time>2021-09-05T09:23:33.000Z</time>
      </trkpt>
      <trkpt lat="47.27726" lon="-2.26526">
        <ele>22</ele>
        <time>2021-09-05T09:23:34.000Z</time>
      </trkpt>
      <trkpt lat="47.27721" lon="-2.26517">
        <ele>21.60000038147</ele>
        <time>2021-09-05T09:23:35.000Z</time>
      </trkpt>
      <trkpt lat="47.27709" lon="-2.26488">
        <ele>21.60000038147</ele>
        <time>2021-09-05T09:23:38.000Z</time>
      </trkpt>
      <trkpt lat="47.27685" lon="-2.26425">
        <ele>21.60000038147</ele>
        <time>2021-09-05T09:23:45.000Z</time>
      </trkpt>
      <trkpt lat="47.27663" lon="-2.26358">
        <ele>21.60000038147</ele>
        <time>2021-09-05T09:23:53.000Z</time>
      </trkpt>
      <trkpt lat="47.27662" lon="-2.26343">
        <ele>21.200000762939</ele>
        <time>2021-09-05T09:23:55.000Z</time>
      </trkpt>
      <trkpt lat="47.27663" lon="-2.26335">
        <ele>20.799999237061</ele>
        <time>2021-09-05T09:23:56.000Z</time>
      </trkpt>
      <trkpt lat="47.27664" lon="-2.26328">
        <ele>20.39999961853</ele>
        <time>2021-09-05T09:23:57.000Z</time>
      </trkpt>
      <trkpt lat="47.27664" lon="-2.2632">
        <ele>20</ele>
        <time>2021-09-05T09:23:58.000Z</time>
      </trkpt>
      <trkpt lat="47.27664" lon="-2.26313">
        <ele>19.60000038147</ele>
        <time>2021-09-05T09:23:59.000Z</time>
      </trkpt>
      <trkpt lat="47.27662" lon="-2.26293">
        <ele>19.60000038147</ele>
        <time>2021-09-05T09:24:02.000Z</time>
      </trkpt>
      <trkpt lat="47.27657" lon="-2.26268">
        <ele>19.60000038147</ele>
        <time>2021-09-05T09:24:07.000Z</time>
      </trkpt>
      <trkpt lat="47.2765" lon="-2.26249">
        <ele>19.60000038147</ele>
        <time>2021-09-05T09:24:12.000Z</time>
      </trkpt>
      <trkpt lat="47.2764" lon="-2.26224">
        <ele>19.60000038147</ele>
        <time>2021-09-05T09:24:19.000Z</time>
      </trkpt>
      <trkpt lat="47.27632" lon="-2.26197">
        <ele>19.60000038147</ele>
        <time>2021-09-05T09:24:24.000Z</time>
      </trkpt>
      <trkpt lat="47.27627" lon="-2.2618">
        <ele>19.60000038147</ele>
        <time>2021-09-05T09:24:28.000Z</time>
      </trkpt>
      <trkpt lat="47.27635" lon="-2.26174">
        <ele>19.60000038147</ele>
        <time>2021-09-05T09:24:31.000Z</time>
      </trkpt>
      <trkpt lat="47.27644" lon="-2.26168">
        <ele>19.60000038147</ele>
        <time>2021-09-05T09:24:34.000Z</time>
      </trkpt>
      <trkpt lat="47.27653" lon="-2.26161">
        <ele>19.60000038147</ele>
        <time>2021-09-05T09:24:37.000Z</time>
      </trkpt>
      <trkpt lat="47.27675" lon="-2.26132">
        <ele>19.60000038147</ele>
        <time>2021-09-05T09:24:43.000Z</time>
      </trkpt>
      <trkpt lat="47.27697" lon="-2.26111">
        <ele>19.60000038147</ele>
        <time>2021-09-05T09:24:49.000Z</time>
      </trkpt>
      <trkpt lat="47.27701" lon="-2.26106">
        <ele>19.60000038147</ele>
        <time>2021-09-05T09:24:50.000Z</time>
      </trkpt>
      <trkpt lat="47.27707" lon="-2.26088">
        <ele>19.60000038147</ele>
        <time>2021-09-05T09:24:53.000Z</time>
      </trkpt>
      <trkpt lat="47.27702" lon="-2.26064">
        <ele>19.60000038147</ele>
        <time>2021-09-05T09:24:56.000Z</time>
      </trkpt>
      <trkpt lat="47.27692" lon="-2.26008">
        <ele>19.60000038147</ele>
        <time>2021-09-05T09:25:02.000Z</time>
      </trkpt>
      <trkpt lat="47.27684" lon="-2.2597">
        <ele>19.60000038147</ele>
        <time>2021-09-05T09:25:06.000Z</time>
      </trkpt>
      <trkpt lat="47.2768" lon="-2.25963">
        <ele>19.60000038147</ele>
        <time>2021-09-05T09:25:07.000Z</time>
      </trkpt>
      <trkpt lat="47.27663" lon="-2.25939">
        <ele>19.60000038147</ele>
        <time>2021-09-05T09:25:11.000Z</time>
      </trkpt>
      <trkpt lat="47.27644" lon="-2.25906">
        <ele>19.60000038147</ele>
        <time>2021-09-05T09:25:16.000Z</time>
      </trkpt>
      <trkpt lat="47.27631" lon="-2.25881">
        <ele>19.60000038147</ele>
        <time>2021-09-05T09:25:21.000Z</time>
      </trkpt>
      <trkpt lat="47.27618" lon="-2.25857">
        <ele>19.60000038147</ele>
        <time>2021-09-05T09:25:27.000Z</time>
      </trkpt>
      <trkpt lat="47.27605" lon="-2.25834">
        <ele>19.60000038147</ele>
        <time>2021-09-05T09:25:31.000Z</time>
      </trkpt>
      <trkpt lat="47.27602" lon="-2.25828">
        <ele>19.60000038147</ele>
        <time>2021-09-05T09:25:32.000Z</time>
      </trkpt>
      <trkpt lat="47.27595" lon="-2.25809">
        <ele>20</ele>
        <time>2021-09-05T09:25:35.000Z</time>
      </trkpt>
      <trkpt lat="47.27594" lon="-2.25801">
        <ele>20.39999961853</ele>
        <time>2021-09-05T09:25:36.000Z</time>
      </trkpt>
      <trkpt lat="47.27594" lon="-2.25794">
        <ele>20.799999237061</ele>
        <time>2021-09-05T09:25:37.000Z</time>
      </trkpt>
      <trkpt lat="47.27595" lon="-2.25786">
        <ele>21.200000762939</ele>
        <time>2021-09-05T09:25:38.000Z</time>
      </trkpt>
      <trkpt lat="47.27595" lon="-2.2578">
        <ele>21.60000038147</ele>
        <time>2021-09-05T09:25:39.000Z</time>
      </trkpt>
      <trkpt lat="47.27595" lon="-2.25773">
        <ele>21.60000038147</ele>
        <time>2021-09-05T09:25:40.000Z</time>
      </trkpt>
      <trkpt lat="47.27595" lon="-2.25765">
        <ele>21.60000038147</ele>
        <time>2021-09-05T09:25:41.000Z</time>
      </trkpt>
      <trkpt lat="47.27595" lon="-2.25732">
        <ele>21.60000038147</ele>
        <time>2021-09-05T09:25:45.000Z</time>
      </trkpt>
      <trkpt lat="47.27594" lon="-2.25724">
        <ele>21.60000038147</ele>
        <time>2021-09-05T09:25:46.000Z</time>
      </trkpt>
      <trkpt lat="47.27589" lon="-2.25703">
        <ele>21.60000038147</ele>
        <time>2021-09-05T09:25:49.000Z</time>
      </trkpt>
      <trkpt lat="47.27584" lon="-2.25689">
        <ele>21.60000038147</ele>
        <time>2021-09-05T09:25:51.000Z</time>
      </trkpt>
      <trkpt lat="47.27566" lon="-2.25647">
        <ele>21.60000038147</ele>
        <time>2021-09-05T09:25:57.000Z</time>
      </trkpt>
      <trkpt lat="47.27565" lon="-2.25616">
        <ele>21.60000038147</ele>
        <time>2021-09-05T09:26:01.000Z</time>
      </trkpt>
      <trkpt lat="47.27563" lon="-2.25561">
        <ele>21.60000038147</ele>
        <time>2021-09-05T09:26:07.000Z</time>
      </trkpt>
      <trkpt lat="47.27561" lon="-2.25553">
        <ele>21.60000038147</ele>
        <time>2021-09-05T09:26:08.000Z</time>
      </trkpt>
      <trkpt lat="47.27554" lon="-2.25525">
        <ele>21.60000038147</ele>
        <time>2021-09-05T09:26:11.000Z</time>
      </trkpt>
      <trkpt lat="47.27549" lon="-2.25507">
        <ele>21.60000038147</ele>
        <time>2021-09-05T09:26:13.000Z</time>
      </trkpt>
      <trkpt lat="47.27538" lon="-2.25486">
        <ele>21.60000038147</ele>
        <time>2021-09-05T09:26:16.000Z</time>
      </trkpt>
      <trkpt lat="47.27512" lon="-2.25459">
        <ele>21.60000038147</ele>
        <time>2021-09-05T09:26:21.000Z</time>
      </trkpt>
      <trkpt lat="47.27501" lon="-2.25453">
        <ele>21.60000038147</ele>
        <time>2021-09-05T09:26:23.000Z</time>
      </trkpt>
      <trkpt lat="47.27489" lon="-2.25451">
        <ele>21.60000038147</ele>
        <time>2021-09-05T09:26:25.000Z</time>
      </trkpt>
      <trkpt lat="47.27483" lon="-2.25451">
        <ele>21.60000038147</ele>
        <time>2021-09-05T09:26:26.000Z</time>
      </trkpt>
      <trkpt lat="47.27466" lon="-2.2545">
        <ele>21.60000038147</ele>
        <time>2021-09-05T09:26:29.000Z</time>
      </trkpt>
      <trkpt lat="47.27441" lon="-2.25438">
        <ele>21.60000038147</ele>
        <time>2021-09-05T09:26:34.000Z</time>
      </trkpt>
      <trkpt lat="47.27428" lon="-2.25423">
        <ele>21.60000038147</ele>
        <time>2021-09-05T09:26:37.000Z</time>
      </trkpt>
      <trkpt lat="47.27424" lon="-2.25419">
        <ele>21.60000038147</ele>
        <time>2021-09-05T09:26:38.000Z</time>
      </trkpt>
      <trkpt lat="47.27415" lon="-2.25405">
        <ele>21.60000038147</ele>
        <time>2021-09-05T09:26:42.000Z</time>
      </trkpt>
      <trkpt lat="47.27412" lon="-2.25398">
        <ele>21.60000038147</ele>
        <time>2021-09-05T09:26:44.000Z</time>
      </trkpt>
      <trkpt lat="47.27403" lon="-2.25379">
        <ele>21.60000038147</ele>
        <time>2021-09-05T09:26:49.000Z</time>
      </trkpt>
      <trkpt lat="47.274" lon="-2.25362">
        <ele>21.60000038147</ele>
        <time>2021-09-05T09:26:53.000Z</time>
      </trkpt>
      <trkpt lat="47.274" lon="-2.25357">
        <ele>21.60000038147</ele>
        <time>2021-09-05T09:26:54.000Z</time>
      </trkpt>
      <trkpt lat="47.27398" lon="-2.25322">
        <ele>21.60000038147</ele>
        <time>2021-09-05T09:27:00.000Z</time>
      </trkpt>
      <trkpt lat="47.27396" lon="-2.25297">
        <ele>21.60000038147</ele>
        <time>2021-09-05T09:27:05.000Z</time>
      </trkpt>
      <trkpt lat="47.27395" lon="-2.25258">
        <ele>21.60000038147</ele>
        <time>2021-09-05T09:27:11.000Z</time>
      </trkpt>
      <trkpt lat="47.27392" lon="-2.2523">
        <ele>21.60000038147</ele>
        <time>2021-09-05T09:27:15.000Z</time>
      </trkpt>
      <trkpt lat="47.27396" lon="-2.25221">
        <ele>21.60000038147</ele>
        <time>2021-09-05T09:27:16.000Z</time>
      </trkpt>
      <trkpt lat="47.27396" lon="-2.25187">
        <ele>21.60000038147</ele>
        <time>2021-09-05T09:27:20.000Z</time>
      </trkpt>
      <trkpt lat="47.27388" lon="-2.25163">
        <ele>21.60000038147</ele>
        <time>2021-09-05T09:27:23.000Z</time>
      </trkpt>
      <trkpt lat="47.27382" lon="-2.25146">
        <ele>21.60000038147</ele>
        <time>2021-09-05T09:27:25.000Z</time>
      </trkpt>
      <trkpt lat="47.27358" lon="-2.25087">
        <ele>21.60000038147</ele>
        <time>2021-09-05T09:27:32.000Z</time>
      </trkpt>
      <trkpt lat="47.27348" lon="-2.25056">
        <ele>21.60000038147</ele>
        <time>2021-09-05T09:27:36.000Z</time>
      </trkpt>
      <trkpt lat="47.27348" lon="-2.25048">
        <ele>21.60000038147</ele>
        <time>2021-09-05T09:27:37.000Z</time>
      </trkpt>
      <trkpt lat="47.27354" lon="-2.25019">
        <ele>21.60000038147</ele>
        <time>2021-09-05T09:27:41.000Z</time>
      </trkpt>
      <trkpt lat="47.27356" lon="-2.25013">
        <ele>21.60000038147</ele>
        <time>2021-09-05T09:27:42.000Z</time>
      </trkpt>
      <trkpt lat="47.27366" lon="-2.24999">
        <ele>21.60000038147</ele>
        <time>2021-09-05T09:27:45.000Z</time>
      </trkpt>
      <trkpt lat="47.27372" lon="-2.24988">
        <ele>21.60000038147</ele>
        <time>2021-09-05T09:27:47.000Z</time>
      </trkpt>
      <trkpt lat="47.27384" lon="-2.24973">
        <ele>21.60000038147</ele>
        <time>2021-09-05T09:27:50.000Z</time>
      </trkpt>
      <trkpt lat="47.27388" lon="-2.24969">
        <ele>21.60000038147</ele>
        <time>2021-09-05T09:27:51.000Z</time>
      </trkpt>
      <trkpt lat="47.27392" lon="-2.24967">
        <ele>21.60000038147</ele>
        <time>2021-09-05T09:27:52.000Z</time>
      </trkpt>
      <trkpt lat="47.27408" lon="-2.2496">
        <ele>21.60000038147</ele>
        <time>2021-09-05T09:27:56.000Z</time>
      </trkpt>
      <trkpt lat="47.2742" lon="-2.2495">
        <ele>21.60000038147</ele>
        <time>2021-09-05T09:28:00.000Z</time>
      </trkpt>
      <trkpt lat="47.27428" lon="-2.2493">
        <ele>21.60000038147</ele>
        <time>2021-09-05T09:28:04.000Z</time>
      </trkpt>
      <trkpt lat="47.27427" lon="-2.24923">
        <ele>21.60000038147</ele>
        <time>2021-09-05T09:28:05.000Z</time>
      </trkpt>
      <trkpt lat="47.2742" lon="-2.249">
        <ele>21.60000038147</ele>
        <time>2021-09-05T09:28:09.000Z</time>
      </trkpt>
      <trkpt lat="47.27412" lon="-2.24873">
        <ele>21.60000038147</ele>
        <time>2021-09-05T09:28:14.000Z</time>
      </trkpt>
      <trkpt lat="47.27427" lon="-2.24815">
        <ele>21.60000038147</ele>
        <time>2021-09-05T09:28:25.000Z</time>
      </trkpt>
      <trkpt lat="47.27423" lon="-2.24806">
        <ele>21.60000038147</ele>
        <time>2021-09-05T09:28:28.000Z</time>
      </trkpt>
      <trkpt lat="47.27413" lon="-2.24788">
        <ele>21.60000038147</ele>
        <time>2021-09-05T09:28:33.000Z</time>
      </trkpt>
      <trkpt lat="47.27411" lon="-2.24785">
        <ele>21.60000038147</ele>
        <time>2021-09-05T09:28:34.000Z</time>
      </trkpt>
      <trkpt lat="47.27404" lon="-2.24768">
        <ele>21.60000038147</ele>
        <time>2021-09-05T09:28:38.000Z</time>
      </trkpt>
      <trkpt lat="47.27398" lon="-2.24745">
        <ele>21.60000038147</ele>
        <time>2021-09-05T09:28:44.000Z</time>
      </trkpt>
      <trkpt lat="47.27388" lon="-2.24716">
        <ele>21.60000038147</ele>
        <time>2021-09-05T09:28:50.000Z</time>
      </trkpt>
      <trkpt lat="47.27374" lon="-2.24696">
        <ele>21.60000038147</ele>
        <time>2021-09-05T09:28:55.000Z</time>
      </trkpt>
      <trkpt lat="47.27351" lon="-2.24664">
        <ele>21.60000038147</ele>
        <time>2021-09-05T09:29:03.000Z</time>
      </trkpt>
      <trkpt lat="47.27347" lon="-2.24656">
        <ele>21.60000038147</ele>
        <time>2021-09-05T09:29:07.000Z</time>
      </trkpt>
      <trkpt lat="47.27349" lon="-2.24633">
        <ele>21.60000038147</ele>
        <time>2021-09-05T09:29:12.000Z</time>
      </trkpt>
      <trkpt lat="47.27357" lon="-2.24605">
        <ele>21.60000038147</ele>
        <time>2021-09-05T09:29:17.000Z</time>
      </trkpt>
      <trkpt lat="47.27361" lon="-2.246">
        <ele>21.60000038147</ele>
        <time>2021-09-05T09:29:18.000Z</time>
      </trkpt>
      <trkpt lat="47.27378" lon="-2.24577">
        <ele>21.60000038147</ele>
        <time>2021-09-05T09:29:23.000Z</time>
      </trkpt>
      <trkpt lat="47.27382" lon="-2.24572">
        <ele>21.60000038147</ele>
        <time>2021-09-05T09:29:24.000Z</time>
      </trkpt>
      <trkpt lat="47.27402" lon="-2.24538">
        <ele>21.60000038147</ele>
        <time>2021-09-05T09:29:30.000Z</time>
      </trkpt>
      <trkpt lat="47.27401" lon="-2.24516">
        <ele>21.60000038147</ele>
        <time>2021-09-05T09:29:33.000Z</time>
      </trkpt>
      <trkpt lat="47.274" lon="-2.24502">
        <ele>21.60000038147</ele>
        <time>2021-09-05T09:29:35.000Z</time>
      </trkpt>
      <trkpt lat="47.27399" lon="-2.24482">
        <ele>21.60000038147</ele>
        <time>2021-09-05T09:29:38.000Z</time>
      </trkpt>
      <trkpt lat="47.27399" lon="-2.24475">
        <ele>21.60000038147</ele>
        <time>2021-09-05T09:29:39.000Z</time>
      </trkpt>
      <trkpt lat="47.27397" lon="-2.24448">
        <ele>21.60000038147</ele>
        <time>2021-09-05T09:29:43.000Z</time>
      </trkpt>
      <trkpt lat="47.27395" lon="-2.24437">
        <ele>21.60000038147</ele>
        <time>2021-09-05T09:29:45.000Z</time>
      </trkpt>
      <trkpt lat="47.27392" lon="-2.2442">
        <ele>21.60000038147</ele>
        <time>2021-09-05T09:29:49.000Z</time>
      </trkpt>
      <trkpt lat="47.27399" lon="-2.24407">
        <ele>21.60000038147</ele>
        <time>2021-09-05T09:29:53.000Z</time>
      </trkpt>
      <trkpt lat="47.27416" lon="-2.24394">
        <ele>21.60000038147</ele>
        <time>2021-09-05T09:29:59.000Z</time>
      </trkpt>
      <trkpt lat="47.27416" lon="-2.2439">
        <ele>21.60000038147</ele>
        <time>2021-09-05T09:30:00.000Z</time>
      </trkpt>
      <trkpt lat="47.27416" lon="-2.24382">
        <ele>21.60000038147</ele>
        <time>2021-09-05T09:30:02.000Z</time>
      </trkpt>
      <trkpt lat="47.27413" lon="-2.24372">
        <ele>21.60000038147</ele>
        <time>2021-09-05T09:30:04.000Z</time>
      </trkpt>
      <trkpt lat="47.27409" lon="-2.24361">
        <ele>21.60000038147</ele>
        <time>2021-09-05T09:30:06.000Z</time>
      </trkpt>
      <trkpt lat="47.27405" lon="-2.24344">
        <ele>21.60000038147</ele>
        <time>2021-09-05T09:30:09.000Z</time>
      </trkpt>
      <trkpt lat="47.27401" lon="-2.24328">
        <ele>21.60000038147</ele>
        <time>2021-09-05T09:30:12.000Z</time>
      </trkpt>
      <trkpt lat="47.27388" lon="-2.24321">
        <ele>21.60000038147</ele>
        <time>2021-09-05T09:30:15.000Z</time>
      </trkpt>
      <trkpt lat="47.27378" lon="-2.24314">
        <ele>21.60000038147</ele>
        <time>2021-09-05T09:30:17.000Z</time>
      </trkpt>
      <trkpt lat="47.27364" lon="-2.24302">
        <ele>21.60000038147</ele>
        <time>2021-09-05T09:30:20.000Z</time>
      </trkpt>
      <trkpt lat="47.27359" lon="-2.243">
        <ele>21.60000038147</ele>
        <time>2021-09-05T09:30:21.000Z</time>
      </trkpt>
      <trkpt lat="47.27345" lon="-2.24304">
        <ele>21.60000038147</ele>
        <time>2021-09-05T09:30:24.000Z</time>
      </trkpt>
      <trkpt lat="47.27335" lon="-2.24311">
        <ele>21.60000038147</ele>
        <time>2021-09-05T09:30:26.000Z</time>
      </trkpt>
      <trkpt lat="47.27316" lon="-2.2432">
        <ele>21.60000038147</ele>
        <time>2021-09-05T09:30:30.000Z</time>
      </trkpt>
      <trkpt lat="47.27301" lon="-2.24314">
        <ele>21.60000038147</ele>
        <time>2021-09-05T09:30:34.000Z</time>
      </trkpt>
      <trkpt lat="47.27294" lon="-2.24294">
        <ele>21.60000038147</ele>
        <time>2021-09-05T09:30:38.000Z</time>
      </trkpt>
      <trkpt lat="47.27296" lon="-2.2428">
        <ele>21.60000038147</ele>
        <time>2021-09-05T09:30:40.000Z</time>
      </trkpt>
      <trkpt lat="47.27299" lon="-2.24264">
        <ele>21.60000038147</ele>
        <time>2021-09-05T09:30:42.000Z</time>
      </trkpt>
      <trkpt lat="47.2731" lon="-2.24192">
        <ele>21.60000038147</ele>
        <time>2021-09-05T09:30:51.000Z</time>
      </trkpt>
      <trkpt lat="47.27314" lon="-2.24156">
        <ele>21.60000038147</ele>
        <time>2021-09-05T09:30:56.000Z</time>
      </trkpt>
      <trkpt lat="47.27314" lon="-2.24148">
        <ele>21.60000038147</ele>
        <time>2021-09-05T09:30:57.000Z</time>
      </trkpt>
      <trkpt lat="47.27313" lon="-2.24107">
        <ele>21.60000038147</ele>
        <time>2021-09-05T09:31:02.000Z</time>
      </trkpt>
      <trkpt lat="47.27313" lon="-2.24099">
        <ele>21.60000038147</ele>
        <time>2021-09-05T09:31:03.000Z</time>
      </trkpt>
      <trkpt lat="47.27319" lon="-2.24055">
        <ele>21.60000038147</ele>
        <time>2021-09-05T09:31:09.000Z</time>
      </trkpt>
      <trkpt lat="47.27327" lon="-2.24047">
        <ele>21.200000762939</ele>
        <time>2021-09-05T09:31:11.000Z</time>
      </trkpt>
      <trkpt lat="47.27332" lon="-2.24046">
        <ele>20.799999237061</ele>
        <time>2021-09-05T09:31:12.000Z</time>
      </trkpt>
      <trkpt lat="47.27337" lon="-2.24046">
        <ele>20.39999961853</ele>
        <time>2021-09-05T09:31:13.000Z</time>
      </trkpt>
      <trkpt lat="47.27342" lon="-2.24046">
        <ele>20</ele>
        <time>2021-09-05T09:31:14.000Z</time>
      </trkpt>
      <trkpt lat="47.27347" lon="-2.24045">
        <ele>19.60000038147</ele>
        <time>2021-09-05T09:31:15.000Z</time>
      </trkpt>
      <trkpt lat="47.27358" lon="-2.24044">
        <ele>19.60000038147</ele>
        <time>2021-09-05T09:31:17.000Z</time>
      </trkpt>
      <trkpt lat="47.27363" lon="-2.24046">
        <ele>19.60000038147</ele>
        <time>2021-09-05T09:31:18.000Z</time>
      </trkpt>
      <trkpt lat="47.27378" lon="-2.24058">
        <ele>19.60000038147</ele>
        <time>2021-09-05T09:31:21.000Z</time>
      </trkpt>
      <trkpt lat="47.27383" lon="-2.24064">
        <ele>19.60000038147</ele>
        <time>2021-09-05T09:31:22.000Z</time>
      </trkpt>
      <trkpt lat="47.27396" lon="-2.24076">
        <ele>19.60000038147</ele>
        <time>2021-09-05T09:31:25.000Z</time>
      </trkpt>
      <trkpt lat="47.274" lon="-2.24079">
        <ele>19.60000038147</ele>
        <time>2021-09-05T09:31:26.000Z</time>
      </trkpt>
      <trkpt lat="47.27413" lon="-2.24082">
        <ele>19.60000038147</ele>
        <time>2021-09-05T09:31:29.000Z</time>
      </trkpt>
      <trkpt lat="47.27416" lon="-2.24084">
        <ele>19.60000038147</ele>
        <time>2021-09-05T09:31:30.000Z</time>
      </trkpt>
      <trkpt lat="47.27431" lon="-2.24095">
        <ele>19.60000038147</ele>
        <time>2021-09-05T09:31:35.000Z</time>
      </trkpt>
      <trkpt lat="47.27433" lon="-2.241">
        <ele>19.60000038147</ele>
        <time>2021-09-05T09:31:36.000Z</time>
      </trkpt>
      <trkpt lat="47.27445" lon="-2.24136">
        <ele>19.60000038147</ele>
        <time>2021-09-05T09:31:42.000Z</time>
      </trkpt>
      <trkpt lat="47.27455" lon="-2.24174">
        <ele>19.60000038147</ele>
        <time>2021-09-05T09:31:48.000Z</time>
      </trkpt>
      <trkpt lat="47.2747" lon="-2.2422">
        <ele>19.60000038147</ele>
        <time>2021-09-05T09:31:55.000Z</time>
      </trkpt>
      <trkpt lat="47.27476" lon="-2.24239">
        <ele>19.60000038147</ele>
        <time>2021-09-05T09:31:58.000Z</time>
      </trkpt>
      <trkpt lat="47.27479" lon="-2.24261">
        <ele>19.60000038147</ele>
        <time>2021-09-05T09:32:01.000Z</time>
      </trkpt>
      <trkpt lat="47.2748" lon="-2.24274">
        <ele>19.60000038147</ele>
        <time>2021-09-05T09:32:03.000Z</time>
      </trkpt>
      <trkpt lat="47.27481" lon="-2.24294">
        <ele>19.60000038147</ele>
        <time>2021-09-05T09:32:06.000Z</time>
      </trkpt>
      <trkpt lat="47.2747" lon="-2.24304">
        <ele>19.60000038147</ele>
        <time>2021-09-05T09:32:09.000Z</time>
      </trkpt>
      <trkpt lat="47.27465" lon="-2.24308">
        <ele>19.60000038147</ele>
        <time>2021-09-05T09:32:10.000Z</time>
      </trkpt>
      <trkpt lat="47.27451" lon="-2.24317">
        <ele>19.60000038147</ele>
        <time>2021-09-05T09:32:13.000Z</time>
      </trkpt>
      <trkpt lat="47.27445" lon="-2.24328">
        <ele>19.60000038147</ele>
        <time>2021-09-05T09:32:15.000Z</time>
      </trkpt>
      <trkpt lat="47.27446" lon="-2.24348">
        <ele>19.60000038147</ele>
        <time>2021-09-05T09:32:18.000Z</time>
      </trkpt>
      <trkpt lat="47.27444" lon="-2.24372">
        <ele>19.60000038147</ele>
        <time>2021-09-05T09:32:22.000Z</time>
      </trkpt>
      <trkpt lat="47.27443" lon="-2.24411">
        <ele>19.60000038147</ele>
        <time>2021-09-05T09:32:28.000Z</time>
      </trkpt>
      <trkpt lat="47.27441" lon="-2.24439">
        <ele>19.60000038147</ele>
        <time>2021-09-05T09:32:33.000Z</time>
      </trkpt>
      <trkpt lat="47.27442" lon="-2.24445">
        <ele>20.39999961853</ele>
        <time>2021-09-05T09:32:34.000Z</time>
      </trkpt>
      <trkpt lat="47.27442" lon="-2.24451">
        <ele>20.799999237061</ele>
        <time>2021-09-05T09:32:35.000Z</time>
      </trkpt>
      <trkpt lat="47.27442" lon="-2.24458">
        <ele>21.200000762939</ele>
        <time>2021-09-05T09:32:36.000Z</time>
      </trkpt>
      <trkpt lat="47.27441" lon="-2.24465">
        <ele>21.60000038147</ele>
        <time>2021-09-05T09:32:37.000Z</time>
      </trkpt>
      <trkpt lat="47.27442" lon="-2.24495">
        <ele>21.60000038147</ele>
        <time>2021-09-05T09:32:41.000Z</time>
      </trkpt>
      <trkpt lat="47.2744" lon="-2.24532">
        <ele>21.60000038147</ele>
        <time>2021-09-05T09:32:46.000Z</time>
      </trkpt>
      <trkpt lat="47.2744" lon="-2.24539">
        <ele>21.60000038147</ele>
        <time>2021-09-05T09:32:47.000Z</time>
      </trkpt>
      <trkpt lat="47.27438" lon="-2.24562">
        <ele>21.60000038147</ele>
        <time>2021-09-05T09:32:50.000Z</time>
      </trkpt>
      <trkpt lat="47.27434" lon="-2.24594">
        <ele>21.60000038147</ele>
        <time>2021-09-05T09:32:54.000Z</time>
      </trkpt>
      <trkpt lat="47.27432" lon="-2.24624">
        <ele>21.60000038147</ele>
        <time>2021-09-05T09:32:58.000Z</time>
      </trkpt>
      <trkpt lat="47.27434" lon="-2.24638">
        <ele>21.60000038147</ele>
        <time>2021-09-05T09:33:00.000Z</time>
      </trkpt>
      <trkpt lat="47.2744" lon="-2.24664">
        <ele>21.60000038147</ele>
        <time>2021-09-05T09:33:04.000Z</time>
      </trkpt>
      <trkpt lat="47.2744" lon="-2.24669">
        <ele>21.60000038147</ele>
        <time>2021-09-05T09:33:05.000Z</time>
      </trkpt>
      <trkpt lat="47.27441" lon="-2.24682">
        <ele>21.60000038147</ele>
        <time>2021-09-05T09:33:09.000Z</time>
      </trkpt>
      <trkpt lat="47.2744" lon="-2.24684">
        <ele>21.60000038147</ele>
        <time>2021-09-05T09:33:10.000Z</time>
      </trkpt>
      <trkpt lat="47.27441" lon="-2.24686">
        <ele>21.60000038147</ele>
        <time>2021-09-05T09:33:14.000Z</time>
      </trkpt>
      <trkpt lat="47.2744" lon="-2.24692">
        <ele>21.60000038147</ele>
        <time>2021-09-05T09:33:19.000Z</time>
      </trkpt>
      <trkpt lat="47.2744" lon="-2.24696">
        <ele>21.60000038147</ele>
        <time>2021-09-05T09:33:20.000Z</time>
      </trkpt>
      <trkpt lat="47.27439" lon="-2.24726">
        <ele>21.60000038147</ele>
        <time>2021-09-05T09:33:25.000Z</time>
      </trkpt>
      <trkpt lat="47.27443" lon="-2.24763">
        <ele>21.60000038147</ele>
        <time>2021-09-05T09:33:31.000Z</time>
      </trkpt>
      <trkpt lat="47.27452" lon="-2.24765">
        <ele>21.60000038147</ele>
        <time>2021-09-05T09:33:34.000Z</time>
      </trkpt>
      <trkpt lat="47.27458" lon="-2.24768">
        <ele>21.60000038147</ele>
        <time>2021-09-05T09:33:36.000Z</time>
      </trkpt>
      <trkpt lat="47.27468" lon="-2.24778">
        <ele>22</ele>
        <time>2021-09-05T09:33:40.000Z</time>
      </trkpt>
      <trkpt lat="47.2747" lon="-2.2478">
        <ele>22.39999961853</ele>
        <time>2021-09-05T09:33:41.000Z</time>
      </trkpt>
      <trkpt lat="47.27473" lon="-2.24782">
        <ele>22.799999237061</ele>
        <time>2021-09-05T09:33:42.000Z</time>
      </trkpt>
      <trkpt lat="47.27475" lon="-2.24784">
        <ele>23.200000762939</ele>
        <time>2021-09-05T09:33:43.000Z</time>
      </trkpt>
      <trkpt lat="47.27478" lon="-2.24784">
        <ele>23.60000038147</ele>
        <time>2021-09-05T09:33:44.000Z</time>
      </trkpt>
      <trkpt lat="47.27485" lon="-2.24785">
        <ele>23.60000038147</ele>
        <time>2021-09-05T09:33:46.000Z</time>
      </trkpt>
      <trkpt lat="47.27488" lon="-2.24785">
        <ele>24</ele>
        <time>2021-09-05T09:33:47.000Z</time>
      </trkpt>
      <trkpt lat="47.27491" lon="-2.24785">
        <ele>24.39999961853</ele>
        <time>2021-09-05T09:33:48.000Z</time>
      </trkpt>
      <trkpt lat="47.27494" lon="-2.24785">
        <ele>25.200000762939</ele>
        <time>2021-09-05T09:33:49.000Z</time>
      </trkpt>
      <trkpt lat="47.27497" lon="-2.24786">
        <ele>25.60000038147</ele>
        <time>2021-09-05T09:33:50.000Z</time>
      </trkpt>
      <trkpt lat="47.27504" lon="-2.24786">
        <ele>25.60000038147</ele>
        <time>2021-09-05T09:33:52.000Z</time>
      </trkpt>
      <trkpt lat="47.27537" lon="-2.24786">
        <ele>26</ele>
        <time>2021-09-05T09:34:00.000Z</time>
      </trkpt>
      <trkpt lat="47.27541" lon="-2.24786">
        <ele>26.39999961853</ele>
        <time>2021-09-05T09:34:01.000Z</time>
      </trkpt>
      <trkpt lat="47.27546" lon="-2.24786">
        <ele>26.799999237061</ele>
        <time>2021-09-05T09:34:02.000Z</time>
      </trkpt>
      <trkpt lat="47.2755" lon="-2.24786">
        <ele>27.200000762939</ele>
        <time>2021-09-05T09:34:03.000Z</time>
      </trkpt>
      <trkpt lat="47.27555" lon="-2.24787">
        <ele>27.60000038147</ele>
        <time>2021-09-05T09:34:04.000Z</time>
      </trkpt>
      <trkpt lat="47.27576" lon="-2.24787">
        <ele>27.60000038147</ele>
        <time>2021-09-05T09:34:09.000Z</time>
      </trkpt>
      <trkpt lat="47.27609" lon="-2.24788">
        <ele>27.60000038147</ele>
        <time>2021-09-05T09:34:17.000Z</time>
      </trkpt>
      <trkpt lat="47.2763" lon="-2.24786">
        <ele>27.60000038147</ele>
        <time>2021-09-05T09:34:22.000Z</time>
      </trkpt>
      <trkpt lat="47.27653" lon="-2.24794">
        <ele>27.60000038147</ele>
        <time>2021-09-05T09:34:27.000Z</time>
      </trkpt>
      <trkpt lat="47.27668" lon="-2.248">
        <ele>27.60000038147</ele>
        <time>2021-09-05T09:34:29.000Z</time>
      </trkpt>
      <trkpt lat="47.27673" lon="-2.248">
        <ele>27.60000038147</ele>
        <time>2021-09-05T09:34:30.000Z</time>
      </trkpt>
      <trkpt lat="47.27705" lon="-2.24802">
        <ele>27.60000038147</ele>
        <time>2021-09-05T09:34:35.000Z</time>
      </trkpt>
      <trkpt lat="47.27748" lon="-2.24801">
        <ele>27.60000038147</ele>
        <time>2021-09-05T09:34:42.000Z</time>
      </trkpt>
      <trkpt lat="47.27781" lon="-2.24801">
        <ele>27.60000038147</ele>
        <time>2021-09-05T09:34:48.000Z</time>
      </trkpt>
      <trkpt lat="47.27817" lon="-2.24799">
        <ele>27.60000038147</ele>
        <time>2021-09-05T09:34:55.000Z</time>
      </trkpt>
      <trkpt lat="47.27844" lon="-2.24792">
        <ele>27.60000038147</ele>
        <time>2021-09-05T09:35:00.000Z</time>
      </trkpt>
      <trkpt lat="47.27849" lon="-2.24788">
        <ele>27.60000038147</ele>
        <time>2021-09-05T09:35:01.000Z</time>
      </trkpt>
      <trkpt lat="47.27857" lon="-2.24779">
        <ele>27.60000038147</ele>
        <time>2021-09-05T09:35:03.000Z</time>
      </trkpt>
      <trkpt lat="47.2786" lon="-2.2477">
        <ele>27.60000038147</ele>
        <time>2021-09-05T09:35:05.000Z</time>
      </trkpt>
      <trkpt lat="47.27863" lon="-2.24768">
        <ele>27.60000038147</ele>
        <time>2021-09-05T09:35:06.000Z</time>
      </trkpt>
      <trkpt lat="47.27872" lon="-2.24769">
        <ele>27.60000038147</ele>
        <time>2021-09-05T09:35:08.000Z</time>
      </trkpt>
      <trkpt lat="47.27894" lon="-2.24767">
        <ele>27.60000038147</ele>
        <time>2021-09-05T09:35:14.000Z</time>
      </trkpt>
      <trkpt lat="47.279" lon="-2.24766">
        <ele>28.200000762939</ele>
        <time>2021-09-05T09:35:16.000Z</time>
      </trkpt>
      <trkpt lat="47.27903" lon="-2.24765">
        <ele>28.60000038147</ele>
        <time>2021-09-05T09:35:17.000Z</time>
      </trkpt>
      <trkpt lat="47.27906" lon="-2.24765">
        <ele>29</ele>
        <time>2021-09-05T09:35:18.000Z</time>
      </trkpt>
      <trkpt lat="47.27909" lon="-2.24765">
        <ele>29.39999961853</ele>
        <time>2021-09-05T09:35:19.000Z</time>
      </trkpt>
      <trkpt lat="47.27912" lon="-2.24765">
        <ele>29.799999237061</ele>
        <time>2021-09-05T09:35:20.000Z</time>
      </trkpt>
      <trkpt lat="47.27917" lon="-2.24764">
        <ele>29.799999237061</ele>
        <time>2021-09-05T09:35:22.000Z</time>
      </trkpt>
      <trkpt lat="47.27919" lon="-2.24765">
        <ele>30.200000762939</ele>
        <time>2021-09-05T09:35:23.000Z</time>
      </trkpt>
      <trkpt lat="47.27921" lon="-2.24767">
        <ele>30.60000038147</ele>
        <time>2021-09-05T09:35:24.000Z</time>
      </trkpt>
      <trkpt lat="47.27921" lon="-2.24769">
        <ele>31</ele>
        <time>2021-09-05T09:35:25.000Z</time>
      </trkpt>
      <trkpt lat="47.27921" lon="-2.2477">
        <ele>31.39999961853</ele>
        <time>2021-09-05T09:35:26.000Z</time>
      </trkpt>
      <trkpt lat="47.27918" lon="-2.24773">
        <ele>31.799999237061</ele>
        <time>2021-09-05T09:35:27.000Z</time>
      </trkpt>
      <trkpt lat="47.27914" lon="-2.24775">
        <ele>31.799999237061</ele>
        <time>2021-09-05T09:35:28.000Z</time>
      </trkpt>
      <trkpt lat="47.27899" lon="-2.24786">
        <ele>31.799999237061</ele>
        <time>2021-09-05T09:35:32.000Z</time>
      </trkpt>
      <trkpt lat="47.27899" lon="-2.24792">
        <ele>31.799999237061</ele>
        <time>2021-09-05T09:35:33.000Z</time>
      </trkpt>
      <trkpt lat="47.27904" lon="-2.248">
        <ele>31.799999237061</ele>
        <time>2021-09-05T09:35:35.000Z</time>
      </trkpt>
      <trkpt lat="47.27913" lon="-2.24804">
        <ele>31.799999237061</ele>
        <time>2021-09-05T09:35:37.000Z</time>
      </trkpt>
      <trkpt lat="47.27922" lon="-2.24809">
        <ele>31.799999237061</ele>
        <time>2021-09-05T09:35:39.000Z</time>
      </trkpt>
      <trkpt lat="47.27931" lon="-2.24813">
        <ele>31.799999237061</ele>
        <time>2021-09-05T09:35:41.000Z</time>
      </trkpt>
      <trkpt lat="47.27951" lon="-2.24821">
        <ele>31.799999237061</ele>
        <time>2021-09-05T09:35:46.000Z</time>
      </trkpt>
      <trkpt lat="47.27978" lon="-2.24829">
        <ele>31.799999237061</ele>
        <time>2021-09-05T09:35:52.000Z</time>
      </trkpt>
      <trkpt lat="47.27983" lon="-2.24831">
        <ele>31.799999237061</ele>
        <time>2021-09-05T09:35:53.000Z</time>
      </trkpt>
      <trkpt lat="47.28003" lon="-2.24835">
        <ele>31.799999237061</ele>
        <time>2021-09-05T09:35:57.000Z</time>
      </trkpt>
      <trkpt lat="47.28007" lon="-2.24836">
        <ele>31.799999237061</ele>
        <time>2021-09-05T09:35:58.000Z</time>
      </trkpt>
      <trkpt lat="47.28031" lon="-2.2484">
        <ele>31.799999237061</ele>
        <time>2021-09-05T09:36:03.000Z</time>
      </trkpt>
      <trkpt lat="47.28035" lon="-2.24842">
        <ele>31.799999237061</ele>
        <time>2021-09-05T09:36:04.000Z</time>
      </trkpt>
      <trkpt lat="47.28049" lon="-2.24845">
        <ele>31.799999237061</ele>
        <time>2021-09-05T09:36:07.000Z</time>
      </trkpt>
      <trkpt lat="47.28053" lon="-2.24846">
        <ele>31.799999237061</ele>
        <time>2021-09-05T09:36:08.000Z</time>
      </trkpt>
      <trkpt lat="47.2807" lon="-2.2485">
        <ele>31.799999237061</ele>
        <time>2021-09-05T09:36:12.000Z</time>
      </trkpt>
      <trkpt lat="47.2808" lon="-2.24849">
        <ele>31.799999237061</ele>
        <time>2021-09-05T09:36:14.000Z</time>
      </trkpt>
      <trkpt lat="47.2809" lon="-2.24849">
        <ele>31.799999237061</ele>
        <time>2021-09-05T09:36:16.000Z</time>
      </trkpt>
      <trkpt lat="47.28107" lon="-2.24855">
        <ele>31.799999237061</ele>
        <time>2021-09-05T09:36:19.000Z</time>
      </trkpt>
      <trkpt lat="47.28126" lon="-2.2486">
        <ele>31.39999961853</ele>
        <time>2021-09-05T09:36:22.000Z</time>
      </trkpt>
      <trkpt lat="47.28132" lon="-2.24861">
        <ele>31</ele>
        <time>2021-09-05T09:36:23.000Z</time>
      </trkpt>
      <trkpt lat="47.28137" lon="-2.24861">
        <ele>30.60000038147</ele>
        <time>2021-09-05T09:36:24.000Z</time>
      </trkpt>
      <trkpt lat="47.28142" lon="-2.24861">
        <ele>30.200000762939</ele>
        <time>2021-09-05T09:36:25.000Z</time>
      </trkpt>
      <trkpt lat="47.28147" lon="-2.2486">
        <ele>29.60000038147</ele>
        <time>2021-09-05T09:36:26.000Z</time>
      </trkpt>
      <trkpt lat="47.28151" lon="-2.24858">
        <ele>29.200000762939</ele>
        <time>2021-09-05T09:36:27.000Z</time>
      </trkpt>
      <trkpt lat="47.28154" lon="-2.24857">
        <ele>28.799999237061</ele>
        <time>2021-09-05T09:36:28.000Z</time>
      </trkpt>
      <trkpt lat="47.28157" lon="-2.24853">
        <ele>28.39999961853</ele>
        <time>2021-09-05T09:36:29.000Z</time>
      </trkpt>
      <trkpt lat="47.28158" lon="-2.2485">
        <ele>27.799999237061</ele>
        <time>2021-09-05T09:36:30.000Z</time>
      </trkpt>
      <trkpt lat="47.28159" lon="-2.24846">
        <ele>27.39999961853</ele>
        <time>2021-09-05T09:36:31.000Z</time>
      </trkpt>
      <trkpt lat="47.28165" lon="-2.24816">
        <ele>27.39999961853</ele>
        <time>2021-09-05T09:36:36.000Z</time>
      </trkpt>
      <trkpt lat="47.28171" lon="-2.24811">
        <ele>27</ele>
        <time>2021-09-05T09:36:38.000Z</time>
      </trkpt>
      <trkpt lat="47.28175" lon="-2.24811">
        <ele>26.60000038147</ele>
        <time>2021-09-05T09:36:39.000Z</time>
      </trkpt>
      <trkpt lat="47.2818" lon="-2.24811">
        <ele>26</ele>
        <time>2021-09-05T09:36:40.000Z</time>
      </trkpt>
      <trkpt lat="47.28185" lon="-2.24812">
        <ele>25.200000762939</ele>
        <time>2021-09-05T09:36:41.000Z</time>
      </trkpt>
      <trkpt lat="47.28201" lon="-2.24815">
        <ele>24.799999237061</ele>
        <time>2021-09-05T09:36:43.000Z</time>
      </trkpt>
      <trkpt lat="47.2821" lon="-2.24817">
        <ele>24.200000762939</ele>
        <time>2021-09-05T09:36:44.000Z</time>
      </trkpt>
      <trkpt lat="47.28219" lon="-2.24819">
        <ele>23.799999237061</ele>
        <time>2021-09-05T09:36:45.000Z</time>
      </trkpt>
      <trkpt lat="47.28227" lon="-2.2482">
        <ele>23.200000762939</ele>
        <time>2021-09-05T09:36:46.000Z</time>
      </trkpt>
      <trkpt lat="47.28236" lon="-2.24819">
        <ele>22.60000038147</ele>
        <time>2021-09-05T09:36:47.000Z</time>
      </trkpt>
      <trkpt lat="47.28243" lon="-2.24817">
        <ele>22</ele>
        <time>2021-09-05T09:36:48.000Z</time>
      </trkpt>
      <trkpt lat="47.2825" lon="-2.24814">
        <ele>21.39999961853</ele>
        <time>2021-09-05T09:36:49.000Z</time>
      </trkpt>
      <trkpt lat="47.28257" lon="-2.24809">
        <ele>20.799999237061</ele>
        <time>2021-09-05T09:36:50.000Z</time>
      </trkpt>
      <trkpt lat="47.28263" lon="-2.24804">
        <ele>20.200000762939</ele>
        <time>2021-09-05T09:36:51.000Z</time>
      </trkpt>
      <trkpt lat="47.2827" lon="-2.24799">
        <ele>19.60000038147</ele>
        <time>2021-09-05T09:36:52.000Z</time>
      </trkpt>
      <trkpt lat="47.28277" lon="-2.24794">
        <ele>19.200000762939</ele>
        <time>2021-09-05T09:36:53.000Z</time>
      </trkpt>
      <trkpt lat="47.28284" lon="-2.2479">
        <ele>18.60000038147</ele>
        <time>2021-09-05T09:36:54.000Z</time>
      </trkpt>
      <trkpt lat="47.28313" lon="-2.24771">
        <ele>18.60000038147</ele>
        <time>2021-09-05T09:36:58.000Z</time>
      </trkpt>
      <trkpt lat="47.28327" lon="-2.24764">
        <ele>18.200000762939</ele>
        <time>2021-09-05T09:37:00.000Z</time>
      </trkpt>
      <trkpt lat="47.28334" lon="-2.24763">
        <ele>17.799999237061</ele>
        <time>2021-09-05T09:37:01.000Z</time>
      </trkpt>
      <trkpt lat="47.28341" lon="-2.24761">
        <ele>17.39999961853</ele>
        <time>2021-09-05T09:37:02.000Z</time>
      </trkpt>
      <trkpt lat="47.28347" lon="-2.24762">
        <ele>17</ele>
        <time>2021-09-05T09:37:03.000Z</time>
      </trkpt>
      <trkpt lat="47.28353" lon="-2.24764">
        <ele>16.60000038147</ele>
        <time>2021-09-05T09:37:04.000Z</time>
      </trkpt>
      <trkpt lat="47.28359" lon="-2.24768">
        <ele>16.60000038147</ele>
        <time>2021-09-05T09:37:05.000Z</time>
      </trkpt>
      <trkpt lat="47.28365" lon="-2.24772">
        <ele>16.200000762939</ele>
        <time>2021-09-05T09:37:06.000Z</time>
      </trkpt>
      <trkpt lat="47.2837" lon="-2.24774">
        <ele>15.60000038147</ele>
        <time>2021-09-05T09:37:07.000Z</time>
      </trkpt>
      <trkpt lat="47.28376" lon="-2.24776">
        <ele>15.199999809265</ele>
        <time>2021-09-05T09:37:08.000Z</time>
      </trkpt>
      <trkpt lat="47.28382" lon="-2.24775">
        <ele>14.800000190735</ele>
        <time>2021-09-05T09:37:09.000Z</time>
      </trkpt>
      <trkpt lat="47.28387" lon="-2.24774">
        <ele>14.199999809265</ele>
        <time>2021-09-05T09:37:10.000Z</time>
      </trkpt>
      <trkpt lat="47.28392" lon="-2.24772">
        <ele>14.199999809265</ele>
        <time>2021-09-05T09:37:11.000Z</time>
      </trkpt>
      <trkpt lat="47.28397" lon="-2.24769">
        <ele>14.199999809265</ele>
        <time>2021-09-05T09:37:12.000Z</time>
      </trkpt>
      <trkpt lat="47.28407" lon="-2.24762">
        <ele>14.199999809265</ele>
        <time>2021-09-05T09:37:14.000Z</time>
      </trkpt>
      <trkpt lat="47.28422" lon="-2.2475">
        <ele>13.800000190735</ele>
        <time>2021-09-05T09:37:17.000Z</time>
      </trkpt>
      <trkpt lat="47.28428" lon="-2.24747">
        <ele>13.39999961853</ele>
        <time>2021-09-05T09:37:18.000Z</time>
      </trkpt>
      <trkpt lat="47.28433" lon="-2.24743">
        <ele>13</ele>
        <time>2021-09-05T09:37:19.000Z</time>
      </trkpt>
      <trkpt lat="47.28439" lon="-2.24739">
        <ele>12.60000038147</ele>
        <time>2021-09-05T09:37:20.000Z</time>
      </trkpt>
      <trkpt lat="47.28444" lon="-2.24736">
        <ele>12.199999809265</ele>
        <time>2021-09-05T09:37:21.000Z</time>
      </trkpt>
      <trkpt lat="47.28482" lon="-2.24708">
        <ele>12.199999809265</ele>
        <time>2021-09-05T09:37:28.000Z</time>
      </trkpt>
      <trkpt lat="47.28509" lon="-2.2469">
        <ele>12.199999809265</ele>
        <time>2021-09-05T09:37:33.000Z</time>
      </trkpt>
      <trkpt lat="47.28519" lon="-2.24683">
        <ele>12.199999809265</ele>
        <time>2021-09-05T09:37:35.000Z</time>
      </trkpt>
      <trkpt lat="47.28539" lon="-2.24665">
        <ele>12.199999809265</ele>
        <time>2021-09-05T09:37:39.000Z</time>
      </trkpt>
      <trkpt lat="47.28568" lon="-2.2464">
        <ele>12.199999809265</ele>
        <time>2021-09-05T09:37:45.000Z</time>
      </trkpt>
      <trkpt lat="47.28584" lon="-2.24626">
        <ele>12.199999809265</ele>
        <time>2021-09-05T09:37:50.000Z</time>
      </trkpt>
      <trkpt lat="47.28593" lon="-2.24614">
        <ele>12.199999809265</ele>
        <time>2021-09-05T09:37:56.000Z</time>
      </trkpt>
      <trkpt lat="47.28602" lon="-2.24601">
        <ele>12.199999809265</ele>
        <time>2021-09-05T09:38:01.000Z</time>
      </trkpt>
      <trkpt lat="47.28606" lon="-2.24579">
        <ele>12.199999809265</ele>
        <time>2021-09-05T09:38:06.000Z</time>
      </trkpt>
      <trkpt lat="47.28614" lon="-2.24548">
        <ele>12.199999809265</ele>
        <time>2021-09-05T09:38:11.000Z</time>
      </trkpt>
      <trkpt lat="47.28626" lon="-2.24498">
        <ele>12.199999809265</ele>
        <time>2021-09-05T09:38:18.000Z</time>
      </trkpt>
      <trkpt lat="47.28628" lon="-2.2449">
        <ele>12.199999809265</ele>
        <time>2021-09-05T09:38:19.000Z</time>
      </trkpt>
      <trkpt lat="47.28635" lon="-2.24458">
        <ele>12.199999809265</ele>
        <time>2021-09-05T09:38:23.000Z</time>
      </trkpt>
      <trkpt lat="47.28647" lon="-2.24413">
        <ele>12.199999809265</ele>
        <time>2021-09-05T09:38:29.000Z</time>
      </trkpt>
      <trkpt lat="47.28662" lon="-2.24356">
        <ele>12.199999809265</ele>
        <time>2021-09-05T09:38:36.000Z</time>
      </trkpt>
      <trkpt lat="47.28672" lon="-2.24323">
        <ele>12.199999809265</ele>
        <time>2021-09-05T09:38:40.000Z</time>
      </trkpt>
      <trkpt lat="47.28677" lon="-2.243">
        <ele>12.199999809265</ele>
        <time>2021-09-05T09:38:43.000Z</time>
      </trkpt>
      <trkpt lat="47.2868" lon="-2.24284">
        <ele>12.199999809265</ele>
        <time>2021-09-05T09:38:45.000Z</time>
      </trkpt>
      <trkpt lat="47.28684" lon="-2.24268">
        <ele>12.199999809265</ele>
        <time>2021-09-05T09:38:47.000Z</time>
      </trkpt>
      <trkpt lat="47.28685" lon="-2.2426">
        <ele>12.199999809265</ele>
        <time>2021-09-05T09:38:48.000Z</time>
      </trkpt>
      <trkpt lat="47.28683" lon="-2.24236">
        <ele>12.199999809265</ele>
        <time>2021-09-05T09:38:51.000Z</time>
      </trkpt>
      <trkpt lat="47.28682" lon="-2.24229">
        <ele>12.199999809265</ele>
        <time>2021-09-05T09:38:52.000Z</time>
      </trkpt>
      <trkpt lat="47.28676" lon="-2.24171">
        <ele>12.199999809265</ele>
        <time>2021-09-05T09:38:59.000Z</time>
      </trkpt>
      <trkpt lat="47.28673" lon="-2.24119">
        <ele>12.199999809265</ele>
        <time>2021-09-05T09:39:05.000Z</time>
      </trkpt>
      <trkpt lat="47.2867" lon="-2.24055">
        <ele>12.199999809265</ele>
        <time>2021-09-05T09:39:12.000Z</time>
      </trkpt>
      <trkpt lat="47.28667" lon="-2.23999">
        <ele>12.199999809265</ele>
        <time>2021-09-05T09:39:18.000Z</time>
      </trkpt>
      <trkpt lat="47.28662" lon="-2.23956">
        <ele>12.199999809265</ele>
        <time>2021-09-05T09:39:23.000Z</time>
      </trkpt>
      <trkpt lat="47.28653" lon="-2.23898">
        <ele>12.199999809265</ele>
        <time>2021-09-05T09:39:30.000Z</time>
      </trkpt>
      <trkpt lat="47.28646" lon="-2.23837">
        <ele>12.199999809265</ele>
        <time>2021-09-05T09:39:37.000Z</time>
      </trkpt>
      <trkpt lat="47.28637" lon="-2.23778">
        <ele>12.199999809265</ele>
        <time>2021-09-05T09:39:44.000Z</time>
      </trkpt>
      <trkpt lat="47.28632" lon="-2.23745">
        <ele>12.199999809265</ele>
        <time>2021-09-05T09:39:48.000Z</time>
      </trkpt>
      <trkpt lat="47.28631" lon="-2.23727">
        <ele>12.199999809265</ele>
        <time>2021-09-05T09:39:50.000Z</time>
      </trkpt>
      <trkpt lat="47.28625" lon="-2.23663">
        <ele>12.199999809265</ele>
        <time>2021-09-05T09:39:57.000Z</time>
      </trkpt>
      <trkpt lat="47.28622" lon="-2.23622">
        <ele>12.199999809265</ele>
        <time>2021-09-05T09:40:02.000Z</time>
      </trkpt>
      <trkpt lat="47.28623" lon="-2.23599">
        <ele>11.800000190735</ele>
        <time>2021-09-05T09:40:05.000Z</time>
      </trkpt>
      <trkpt lat="47.28625" lon="-2.23592">
        <ele>11.39999961853</ele>
        <time>2021-09-05T09:40:06.000Z</time>
      </trkpt>
      <trkpt lat="47.28626" lon="-2.23586">
        <ele>11</ele>
        <time>2021-09-05T09:40:07.000Z</time>
      </trkpt>
      <trkpt lat="47.28626" lon="-2.2358">
        <ele>10.39999961853</ele>
        <time>2021-09-05T09:40:08.000Z</time>
      </trkpt>
      <trkpt lat="47.28625" lon="-2.23574">
        <ele>10</ele>
        <time>2021-09-05T09:40:09.000Z</time>
      </trkpt>
      <trkpt lat="47.28615" lon="-2.23569">
        <ele>10</ele>
        <time>2021-09-05T09:40:12.000Z</time>
      </trkpt>
      <trkpt lat="47.2861" lon="-2.2357">
        <ele>10</ele>
        <time>2021-09-05T09:40:13.000Z</time>
      </trkpt>
      <trkpt lat="47.28587" lon="-2.23573">
        <ele>10</ele>
        <time>2021-09-05T09:40:18.000Z</time>
      </trkpt>
      <trkpt lat="47.28582" lon="-2.23572">
        <ele>10</ele>
        <time>2021-09-05T09:40:19.000Z</time>
      </trkpt>
      <trkpt lat="47.28564" lon="-2.23563">
        <ele>10</ele>
        <time>2021-09-05T09:40:23.000Z</time>
      </trkpt>
      <trkpt lat="47.2856" lon="-2.2356">
        <ele>10</ele>
        <time>2021-09-05T09:40:24.000Z</time>
      </trkpt>
      <trkpt lat="47.28538" lon="-2.23549">
        <ele>10</ele>
        <time>2021-09-05T09:40:30.000Z</time>
      </trkpt>
      <trkpt lat="47.28523" lon="-2.23543">
        <ele>10.39999961853</ele>
        <time>2021-09-05T09:40:34.000Z</time>
      </trkpt>
      <trkpt lat="47.2852" lon="-2.23541">
        <ele>10.800000190735</ele>
        <time>2021-09-05T09:40:35.000Z</time>
      </trkpt>
      <trkpt lat="47.28517" lon="-2.23538">
        <ele>11.39999961853</ele>
        <time>2021-09-05T09:40:36.000Z</time>
      </trkpt>
      <trkpt lat="47.28513" lon="-2.23537">
        <ele>11.800000190735</ele>
        <time>2021-09-05T09:40:37.000Z</time>
      </trkpt>
      <trkpt lat="47.2851" lon="-2.23536">
        <ele>12.199999809265</ele>
        <time>2021-09-05T09:40:38.000Z</time>
      </trkpt>
      <trkpt lat="47.28503" lon="-2.23532">
        <ele>12.60000038147</ele>
        <time>2021-09-05T09:40:40.000Z</time>
      </trkpt>
      <trkpt lat="47.285" lon="-2.23529">
        <ele>13</ele>
        <time>2021-09-05T09:40:41.000Z</time>
      </trkpt>
      <trkpt lat="47.28497" lon="-2.23527">
        <ele>13.60000038147</ele>
        <time>2021-09-05T09:40:42.000Z</time>
      </trkpt>
      <trkpt lat="47.28494" lon="-2.23525">
        <ele>14</ele>
        <time>2021-09-05T09:40:43.000Z</time>
      </trkpt>
      <trkpt lat="47.28491" lon="-2.23523">
        <ele>14.39999961853</ele>
        <time>2021-09-05T09:40:44.000Z</time>
      </trkpt>
      <trkpt lat="47.28481" lon="-2.23516">
        <ele>14.800000190735</ele>
        <time>2021-09-05T09:40:47.000Z</time>
      </trkpt>
      <trkpt lat="47.28478" lon="-2.23513">
        <ele>15.39999961853</ele>
        <time>2021-09-05T09:40:48.000Z</time>
      </trkpt>
      <trkpt lat="47.28475" lon="-2.2351">
        <ele>16.200000762939</ele>
        <time>2021-09-05T09:40:49.000Z</time>
      </trkpt>
      <trkpt lat="47.28472" lon="-2.23508">
        <ele>16.60000038147</ele>
        <time>2021-09-05T09:40:50.000Z</time>
      </trkpt>
      <trkpt lat="47.28469" lon="-2.23504">
        <ele>16.60000038147</ele>
        <time>2021-09-05T09:40:51.000Z</time>
      </trkpt>
      <trkpt lat="47.28456" lon="-2.23493">
        <ele>17</ele>
        <time>2021-09-05T09:40:55.000Z</time>
      </trkpt>
      <trkpt lat="47.28453" lon="-2.2349">
        <ele>17.60000038147</ele>
        <time>2021-09-05T09:40:56.000Z</time>
      </trkpt>
      <trkpt lat="47.2845" lon="-2.23487">
        <ele>18</ele>
        <time>2021-09-05T09:40:57.000Z</time>
      </trkpt>
      <trkpt lat="47.28447" lon="-2.23484">
        <ele>18.39999961853</ele>
        <time>2021-09-05T09:40:58.000Z</time>
      </trkpt>
      <trkpt lat="47.28444" lon="-2.23482">
        <ele>18.799999237061</ele>
        <time>2021-09-05T09:40:59.000Z</time>
      </trkpt>
      <trkpt lat="47.28426" lon="-2.23461">
        <ele>18.799999237061</ele>
        <time>2021-09-05T09:41:06.000Z</time>
      </trkpt>
      <trkpt lat="47.28407" lon="-2.23433">
        <ele>18.799999237061</ele>
        <time>2021-09-05T09:41:14.000Z</time>
      </trkpt>
      <trkpt lat="47.2839" lon="-2.23406">
        <ele>18.799999237061</ele>
        <time>2021-09-05T09:41:22.000Z</time>
      </trkpt>
      <trkpt lat="47.28377" lon="-2.23379">
        <ele>18.799999237061</ele>
        <time>2021-09-05T09:41:29.000Z</time>
      </trkpt>
      <trkpt lat="47.28369" lon="-2.23364">
        <ele>18.799999237061</ele>
        <time>2021-09-05T09:41:34.000Z</time>
      </trkpt>
      <trkpt lat="47.28368" lon="-2.23362">
        <ele>18.799999237061</ele>
        <time>2021-09-05T09:41:36.000Z</time>
      </trkpt>
    </trkseg>
  </trk>
</gpx>